<?xml version="1.0" encoding="UTF-8" standalone="no" ?>
<gpx xmlns="http://www.topografix.com/GPX/1/1" xmlns:xsi="http://www.w3.org/2001/XMLSchema-instance" xsi:schemaLocation="http://www.topografix.com/GPX/1/1 http://www.topografix.com/GPX/1/1/gpx.xsd" version="1.1" creator="VisuGPX - https://www.visugpx.com">
  <metadata>
    <name>2 DH</name>
  </metadata>
  <trk>
    <name><![CDATA[Sortie à vélo dans l'après-midi]]></name>
    <trkseg>
      <trkpt lat="42.76835" lon="0.5788">
        <ele>1787</ele>
        <time>1970-01-01T00:00:00.000Z</time>
      </trkpt>
      <trkpt lat="42.76834" lon="0.5788">
        <ele>1786.7</ele>
        <time>1970-01-01T00:00:01.000Z</time>
      </trkpt>
      <trkpt lat="42.76834" lon="0.57879">
        <ele>1786.6</ele>
        <time>1970-01-01T00:00:03.000Z</time>
      </trkpt>
      <trkpt lat="42.76835" lon="0.57879">
        <ele>1786.4</ele>
        <time>1970-01-01T00:00:05.000Z</time>
      </trkpt>
      <trkpt lat="42.76835" lon="0.57878">
        <ele>1786.2</ele>
        <time>1970-01-01T00:00:07.000Z</time>
      </trkpt>
      <trkpt lat="42.76835" lon="0.57877">
        <ele>1786</ele>
        <time>1970-01-01T00:00:08.000Z</time>
      </trkpt>
      <trkpt lat="42.76834" lon="0.57875">
        <ele>1785.4</ele>
        <time>1970-01-01T00:00:10.000Z</time>
      </trkpt>
      <trkpt lat="42.76832" lon="0.57866">
        <ele>1783.2</ele>
        <time>1970-01-01T00:00:11.000Z</time>
      </trkpt>
      <trkpt lat="42.76827" lon="0.57852">
        <ele>1779.9</ele>
        <time>1970-01-01T00:00:13.000Z</time>
      </trkpt>
      <trkpt lat="42.76826" lon="0.5785">
        <ele>1779.4</ele>
        <time>1970-01-01T00:00:14.000Z</time>
      </trkpt>
      <trkpt lat="42.76826" lon="0.57849">
        <ele>1778.9</ele>
        <time>1970-01-01T00:00:15.000Z</time>
      </trkpt>
      <trkpt lat="42.76824" lon="0.57842">
        <ele>1777.4</ele>
        <time>1970-01-01T00:00:17.000Z</time>
      </trkpt>
      <trkpt lat="42.76824" lon="0.57842">
        <ele>1777.3</ele>
        <time>1970-01-01T00:00:18.000Z</time>
      </trkpt>
      <trkpt lat="42.76824" lon="0.57842">
        <ele>1777.2</ele>
        <time>1970-01-01T00:00:20.000Z</time>
      </trkpt>
      <trkpt lat="42.76824" lon="0.57842">
        <ele>1777.1</ele>
        <time>1970-01-01T00:00:21.000Z</time>
      </trkpt>
      <trkpt lat="42.76824" lon="0.57842">
        <ele>1777.1</ele>
        <time>1970-01-01T00:00:22.000Z</time>
      </trkpt>
      <trkpt lat="42.76824" lon="0.57842">
        <ele>1777.1</ele>
        <time>1970-01-01T00:00:23.000Z</time>
      </trkpt>
      <trkpt lat="42.76824" lon="0.57844">
        <ele>1776.4</ele>
        <time>1970-01-01T00:00:25.000Z</time>
      </trkpt>
      <trkpt lat="42.7683" lon="0.5788">
        <ele>1768.2</ele>
        <time>1970-01-01T00:01:01.000Z</time>
      </trkpt>
      <trkpt lat="42.7683" lon="0.57877">
        <ele>1767.5</ele>
        <time>1970-01-01T00:01:03.000Z</time>
      </trkpt>
      <trkpt lat="42.76831" lon="0.57873">
        <ele>1766.6</ele>
        <time>1970-01-01T00:01:05.000Z</time>
      </trkpt>
      <trkpt lat="42.76828" lon="0.57867">
        <ele>1765</ele>
        <time>1970-01-01T00:01:07.000Z</time>
      </trkpt>
      <trkpt lat="42.76828" lon="0.57865">
        <ele>1764.4</ele>
        <time>1970-01-01T00:01:08.000Z</time>
      </trkpt>
      <trkpt lat="42.76828" lon="0.57863">
        <ele>1764</ele>
        <time>1970-01-01T00:01:09.000Z</time>
      </trkpt>
      <trkpt lat="42.76827" lon="0.57861">
        <ele>1763.7</ele>
        <time>1970-01-01T00:01:11.000Z</time>
      </trkpt>
      <trkpt lat="42.76827" lon="0.57861">
        <ele>1763.6</ele>
        <time>1970-01-01T00:01:13.000Z</time>
      </trkpt>
      <trkpt lat="42.76827" lon="0.57861">
        <ele>1763.4</ele>
        <time>1970-01-01T00:01:14.000Z</time>
      </trkpt>
      <trkpt lat="42.76826" lon="0.57857">
        <ele>1766.4</ele>
        <time>1970-01-01T00:01:16.000Z</time>
      </trkpt>
      <trkpt lat="42.76825" lon="0.57855">
        <ele>1770</ele>
        <time>1970-01-01T00:01:17.000Z</time>
      </trkpt>
      <trkpt lat="42.76825" lon="0.57854">
        <ele>1771.1</ele>
        <time>1970-01-01T00:01:18.000Z</time>
      </trkpt>
      <trkpt lat="42.76825" lon="0.57853">
        <ele>1772.4</ele>
        <time>1970-01-01T00:01:19.000Z</time>
      </trkpt>
      <trkpt lat="42.76825" lon="0.57852">
        <ele>1773.6</ele>
        <time>1970-01-01T00:01:20.000Z</time>
      </trkpt>
      <trkpt lat="42.76824" lon="0.57849">
        <ele>1778.9</ele>
        <time>1970-01-01T00:01:22.000Z</time>
      </trkpt>
      <trkpt lat="42.76823" lon="0.57847">
        <ele>1781.3</ele>
        <time>1970-01-01T00:01:24.000Z</time>
      </trkpt>
      <trkpt lat="42.76823" lon="0.57845">
        <ele>1784.7</ele>
        <time>1970-01-01T00:01:25.000Z</time>
      </trkpt>
      <trkpt lat="42.76822" lon="0.57842">
        <ele>1788.7</ele>
        <time>1970-01-01T00:01:26.000Z</time>
      </trkpt>
      <trkpt lat="42.76821" lon="0.57838">
        <ele>1792.6</ele>
        <time>1970-01-01T00:01:28.000Z</time>
      </trkpt>
      <trkpt lat="42.76821" lon="0.57837">
        <ele>1792.7</ele>
        <time>1970-01-01T00:01:29.000Z</time>
      </trkpt>
      <trkpt lat="42.7682" lon="0.57836">
        <ele>1792.7</ele>
        <time>1970-01-01T00:01:30.000Z</time>
      </trkpt>
      <trkpt lat="42.76819" lon="0.57833">
        <ele>1792.8</ele>
        <time>1970-01-01T00:01:32.000Z</time>
      </trkpt>
      <trkpt lat="42.76819" lon="0.57832">
        <ele>1792.8</ele>
        <time>1970-01-01T00:01:33.000Z</time>
      </trkpt>
      <trkpt lat="42.76819" lon="0.57831">
        <ele>1792.8</ele>
        <time>1970-01-01T00:01:34.000Z</time>
      </trkpt>
      <trkpt lat="42.76817" lon="0.57826">
        <ele>1793</ele>
        <time>1970-01-01T00:01:36.000Z</time>
      </trkpt>
      <trkpt lat="42.76816" lon="0.57822">
        <ele>1793.2</ele>
        <time>1970-01-01T00:01:38.000Z</time>
      </trkpt>
      <trkpt lat="42.76815" lon="0.57821">
        <ele>1793.2</ele>
        <time>1970-01-01T00:01:39.000Z</time>
      </trkpt>
      <trkpt lat="42.76814" lon="0.57816">
        <ele>1793.4</ele>
        <time>1970-01-01T00:01:40.000Z</time>
      </trkpt>
      <trkpt lat="42.76813" lon="0.57814">
        <ele>1793.5</ele>
        <time>1970-01-01T00:01:41.000Z</time>
      </trkpt>
      <trkpt lat="42.76812" lon="0.57811">
        <ele>1793.6</ele>
        <time>1970-01-01T00:01:42.000Z</time>
      </trkpt>
      <trkpt lat="42.76809" lon="0.57803">
        <ele>1794</ele>
        <time>1970-01-01T00:01:44.000Z</time>
      </trkpt>
      <trkpt lat="42.76804" lon="0.57791">
        <ele>1794.5</ele>
        <time>1970-01-01T00:01:46.000Z</time>
      </trkpt>
      <trkpt lat="42.76803" lon="0.57786">
        <ele>1794.7</ele>
        <time>1970-01-01T00:01:47.000Z</time>
      </trkpt>
      <trkpt lat="42.76801" lon="0.57782">
        <ele>1794.8</ele>
        <time>1970-01-01T00:01:48.000Z</time>
      </trkpt>
      <trkpt lat="42.768" lon="0.57778">
        <ele>1795</ele>
        <time>1970-01-01T00:01:49.000Z</time>
      </trkpt>
      <trkpt lat="42.76798" lon="0.57773">
        <ele>1795.2</ele>
        <time>1970-01-01T00:01:51.000Z</time>
      </trkpt>
      <trkpt lat="42.76796" lon="0.5777">
        <ele>1795.4</ele>
        <time>1970-01-01T00:01:52.000Z</time>
      </trkpt>
      <trkpt lat="42.76795" lon="0.57766">
        <ele>1795.6</ele>
        <time>1970-01-01T00:01:54.000Z</time>
      </trkpt>
      <trkpt lat="42.76794" lon="0.57762">
        <ele>1795.7</ele>
        <time>1970-01-01T00:01:56.000Z</time>
      </trkpt>
      <trkpt lat="42.76795" lon="0.57758">
        <ele>1795.8</ele>
        <time>1970-01-01T00:01:57.000Z</time>
      </trkpt>
      <trkpt lat="42.76795" lon="0.57754">
        <ele>1795.9</ele>
        <time>1970-01-01T00:01:59.000Z</time>
      </trkpt>
      <trkpt lat="42.76797" lon="0.57751">
        <ele>1796</ele>
        <time>1970-01-01T00:02:01.000Z</time>
      </trkpt>
      <trkpt lat="42.76798" lon="0.57749">
        <ele>1795.9</ele>
        <time>1970-01-01T00:02:02.000Z</time>
      </trkpt>
      <trkpt lat="42.76799" lon="0.57747">
        <ele>1795.9</ele>
        <time>1970-01-01T00:02:03.000Z</time>
      </trkpt>
      <trkpt lat="42.76803" lon="0.57744">
        <ele>1795.9</ele>
        <time>1970-01-01T00:02:05.000Z</time>
      </trkpt>
      <trkpt lat="42.76807" lon="0.57741">
        <ele>1795.8</ele>
        <time>1970-01-01T00:02:07.000Z</time>
      </trkpt>
      <trkpt lat="42.76808" lon="0.57739">
        <ele>1795.8</ele>
        <time>1970-01-01T00:02:08.000Z</time>
      </trkpt>
      <trkpt lat="42.7681" lon="0.57736">
        <ele>1795.8</ele>
        <time>1970-01-01T00:02:10.000Z</time>
      </trkpt>
      <trkpt lat="42.76811" lon="0.57733">
        <ele>1795.8</ele>
        <time>1970-01-01T00:02:11.000Z</time>
      </trkpt>
      <trkpt lat="42.76813" lon="0.57729">
        <ele>1795.7</ele>
        <time>1970-01-01T00:02:12.000Z</time>
      </trkpt>
      <trkpt lat="42.76814" lon="0.57727">
        <ele>1795.7</ele>
        <time>1970-01-01T00:02:13.000Z</time>
      </trkpt>
      <trkpt lat="42.76817" lon="0.57722">
        <ele>1795.6</ele>
        <time>1970-01-01T00:02:15.000Z</time>
      </trkpt>
      <trkpt lat="42.76818" lon="0.57721">
        <ele>1795.5</ele>
        <time>1970-01-01T00:02:16.000Z</time>
      </trkpt>
      <trkpt lat="42.7682" lon="0.5772">
        <ele>1795.3</ele>
        <time>1970-01-01T00:02:17.000Z</time>
      </trkpt>
      <trkpt lat="42.76822" lon="0.5772">
        <ele>1795.3</ele>
        <time>1970-01-01T00:02:18.000Z</time>
      </trkpt>
      <trkpt lat="42.76825" lon="0.5772">
        <ele>1795</ele>
        <time>1970-01-01T00:02:20.000Z</time>
      </trkpt>
      <trkpt lat="42.7683" lon="0.57719">
        <ele>1794.8</ele>
        <time>1970-01-01T00:02:22.000Z</time>
      </trkpt>
      <trkpt lat="42.76833" lon="0.57716">
        <ele>1794.5</ele>
        <time>1970-01-01T00:02:24.000Z</time>
      </trkpt>
      <trkpt lat="42.76834" lon="0.57713">
        <ele>1794.4</ele>
        <time>1970-01-01T00:02:25.000Z</time>
      </trkpt>
      <trkpt lat="42.76838" lon="0.57708">
        <ele>1793.4</ele>
        <time>1970-01-01T00:02:27.000Z</time>
      </trkpt>
      <trkpt lat="42.76841" lon="0.57705">
        <ele>1793.1</ele>
        <time>1970-01-01T00:02:29.000Z</time>
      </trkpt>
      <trkpt lat="42.76844" lon="0.57704">
        <ele>1792.9</ele>
        <time>1970-01-01T00:02:30.000Z</time>
      </trkpt>
      <trkpt lat="42.76845" lon="0.57704">
        <ele>1792.4</ele>
        <time>1970-01-01T00:02:31.000Z</time>
      </trkpt>
      <trkpt lat="42.76849" lon="0.57702">
        <ele>1792.2</ele>
        <time>1970-01-01T00:02:33.000Z</time>
      </trkpt>
      <trkpt lat="42.76854" lon="0.577">
        <ele>1791.8</ele>
        <time>1970-01-01T00:02:35.000Z</time>
      </trkpt>
      <trkpt lat="42.76855" lon="0.57699">
        <ele>1791.3</ele>
        <time>1970-01-01T00:02:36.000Z</time>
      </trkpt>
      <trkpt lat="42.76857" lon="0.57698">
        <ele>1791.1</ele>
        <time>1970-01-01T00:02:37.000Z</time>
      </trkpt>
      <trkpt lat="42.76859" lon="0.57696">
        <ele>1791</ele>
        <time>1970-01-01T00:02:38.000Z</time>
      </trkpt>
      <trkpt lat="42.76864" lon="0.57694">
        <ele>1790.1</ele>
        <time>1970-01-01T00:02:40.000Z</time>
      </trkpt>
      <trkpt lat="42.76871" lon="0.5769">
        <ele>1789.3</ele>
        <time>1970-01-01T00:02:42.000Z</time>
      </trkpt>
      <trkpt lat="42.76887" lon="0.5769">
        <ele>1788.4</ele>
        <time>1970-01-01T00:02:44.000Z</time>
      </trkpt>
      <trkpt lat="42.76898" lon="0.57696">
        <ele>1788.6</ele>
        <time>1970-01-01T00:02:46.000Z</time>
      </trkpt>
      <trkpt lat="42.76903" lon="0.57701">
        <ele>1788.9</ele>
        <time>1970-01-01T00:02:47.000Z</time>
      </trkpt>
      <trkpt lat="42.76908" lon="0.57705">
        <ele>1788.9</ele>
        <time>1970-01-01T00:02:48.000Z</time>
      </trkpt>
      <trkpt lat="42.76912" lon="0.57709">
        <ele>1789.1</ele>
        <time>1970-01-01T00:02:49.000Z</time>
      </trkpt>
      <trkpt lat="42.7692" lon="0.57716">
        <ele>1788.1</ele>
        <time>1970-01-01T00:02:51.000Z</time>
      </trkpt>
      <trkpt lat="42.76923" lon="0.57718">
        <ele>1787.9</ele>
        <time>1970-01-01T00:02:52.000Z</time>
      </trkpt>
      <trkpt lat="42.76927" lon="0.57719">
        <ele>1787.3</ele>
        <time>1970-01-01T00:02:54.000Z</time>
      </trkpt>
      <trkpt lat="42.76931" lon="0.57722">
        <ele>1787.2</ele>
        <time>1970-01-01T00:02:55.000Z</time>
      </trkpt>
      <trkpt lat="42.76936" lon="0.57723">
        <ele>1786.1</ele>
        <time>1970-01-01T00:02:56.000Z</time>
      </trkpt>
      <trkpt lat="42.76943" lon="0.57726">
        <ele>1785.2</ele>
        <time>1970-01-01T00:02:58.000Z</time>
      </trkpt>
      <trkpt lat="42.76948" lon="0.57729">
        <ele>1783.6</ele>
        <time>1970-01-01T00:02:59.000Z</time>
      </trkpt>
      <trkpt lat="42.76954" lon="0.57733">
        <ele>1783.3</ele>
        <time>1970-01-01T00:03:01.000Z</time>
      </trkpt>
      <trkpt lat="42.76958" lon="0.57735">
        <ele>1782.3</ele>
        <time>1970-01-01T00:03:02.000Z</time>
      </trkpt>
      <trkpt lat="42.76961" lon="0.57737">
        <ele>1781.5</ele>
        <time>1970-01-01T00:03:03.000Z</time>
      </trkpt>
      <trkpt lat="42.76963" lon="0.57739">
        <ele>1781.7</ele>
        <time>1970-01-01T00:03:04.000Z</time>
      </trkpt>
      <trkpt lat="42.76968" lon="0.57745">
        <ele>1780.2</ele>
        <time>1970-01-01T00:03:06.000Z</time>
      </trkpt>
      <trkpt lat="42.76971" lon="0.57749">
        <ele>1779.4</ele>
        <time>1970-01-01T00:03:07.000Z</time>
      </trkpt>
      <trkpt lat="42.76972" lon="0.5775">
        <ele>1779.4</ele>
        <time>1970-01-01T00:03:08.000Z</time>
      </trkpt>
      <trkpt lat="42.76974" lon="0.57753">
        <ele>1778.6</ele>
        <time>1970-01-01T00:03:09.000Z</time>
      </trkpt>
      <trkpt lat="42.76975" lon="0.57755">
        <ele>1778.5</ele>
        <time>1970-01-01T00:03:10.000Z</time>
      </trkpt>
      <trkpt lat="42.76976" lon="0.57757">
        <ele>1778.6</ele>
        <time>1970-01-01T00:03:12.000Z</time>
      </trkpt>
      <trkpt lat="42.76979" lon="0.5776">
        <ele>1777.6</ele>
        <time>1970-01-01T00:03:13.000Z</time>
      </trkpt>
      <trkpt lat="42.76982" lon="0.57761">
        <ele>1776.9</ele>
        <time>1970-01-01T00:03:15.000Z</time>
      </trkpt>
      <trkpt lat="42.76983" lon="0.57762">
        <ele>1776</ele>
        <time>1970-01-01T00:03:17.000Z</time>
      </trkpt>
      <trkpt lat="42.76983" lon="0.57762">
        <ele>1775.9</ele>
        <time>1970-01-01T00:03:18.000Z</time>
      </trkpt>
      <trkpt lat="42.76984" lon="0.57763">
        <ele>1775.9</ele>
        <time>1970-01-01T00:03:20.000Z</time>
      </trkpt>
      <trkpt lat="42.76985" lon="0.57764">
        <ele>1775.8</ele>
        <time>1970-01-01T00:03:22.000Z</time>
      </trkpt>
      <trkpt lat="42.76986" lon="0.57764">
        <ele>1775.9</ele>
        <time>1970-01-01T00:03:24.000Z</time>
      </trkpt>
      <trkpt lat="42.76986" lon="0.57764">
        <ele>1775</ele>
        <time>1970-01-01T00:03:25.000Z</time>
      </trkpt>
      <trkpt lat="42.76987" lon="0.57763">
        <ele>1774.9</ele>
        <time>1970-01-01T00:03:26.000Z</time>
      </trkpt>
      <trkpt lat="42.76987" lon="0.57763">
        <ele>1774.9</ele>
        <time>1970-01-01T00:03:27.000Z</time>
      </trkpt>
      <trkpt lat="42.76988" lon="0.57762">
        <ele>1774.8</ele>
        <time>1970-01-01T00:03:29.000Z</time>
      </trkpt>
      <trkpt lat="42.76989" lon="0.57763">
        <ele>1774.7</ele>
        <time>1970-01-01T00:03:31.000Z</time>
      </trkpt>
      <trkpt lat="42.76989" lon="0.57763">
        <ele>1773.9</ele>
        <time>1970-01-01T00:03:33.000Z</time>
      </trkpt>
      <trkpt lat="42.76989" lon="0.57763">
        <ele>1773.9</ele>
        <time>1970-01-01T00:03:34.000Z</time>
      </trkpt>
      <trkpt lat="42.76989" lon="0.57763">
        <ele>1773.8</ele>
        <time>1970-01-01T00:03:35.000Z</time>
      </trkpt>
      <trkpt lat="42.7699" lon="0.57763">
        <ele>1773.8</ele>
        <time>1970-01-01T00:03:37.000Z</time>
      </trkpt>
      <trkpt lat="42.77001" lon="0.5774">
        <ele>1770.6</ele>
        <time>1970-01-01T00:03:44.000Z</time>
      </trkpt>
      <trkpt lat="42.77012" lon="0.57709">
        <ele>1765.5</ele>
        <time>1970-01-01T00:03:46.000Z</time>
      </trkpt>
      <trkpt lat="42.77015" lon="0.57693">
        <ele>1763.3</ele>
        <time>1970-01-01T00:03:47.000Z</time>
      </trkpt>
      <trkpt lat="42.77022" lon="0.57668">
        <ele>1759.5</ele>
        <time>1970-01-01T00:03:49.000Z</time>
      </trkpt>
      <trkpt lat="42.77032" lon="0.57657">
        <ele>1756.5</ele>
        <time>1970-01-01T00:03:51.000Z</time>
      </trkpt>
      <trkpt lat="42.77046" lon="0.57662">
        <ele>1754</ele>
        <time>1970-01-01T00:03:53.000Z</time>
      </trkpt>
      <trkpt lat="42.77058" lon="0.57681">
        <ele>1753.5</ele>
        <time>1970-01-01T00:03:55.000Z</time>
      </trkpt>
      <trkpt lat="42.77061" lon="0.57712">
        <ele>1754.8</ele>
        <time>1970-01-01T00:03:57.000Z</time>
      </trkpt>
      <trkpt lat="42.77063" lon="0.57742">
        <ele>1754.8</ele>
        <time>1970-01-01T00:03:59.000Z</time>
      </trkpt>
      <trkpt lat="42.77069" lon="0.57764">
        <ele>1751.9</ele>
        <time>1970-01-01T00:04:01.000Z</time>
      </trkpt>
      <trkpt lat="42.7708" lon="0.57779">
        <ele>1747.8</ele>
        <time>1970-01-01T00:04:03.000Z</time>
      </trkpt>
      <trkpt lat="42.77091" lon="0.57789">
        <ele>1741.4</ele>
        <time>1970-01-01T00:04:05.000Z</time>
      </trkpt>
      <trkpt lat="42.77098" lon="0.57791">
        <ele>1738.3</ele>
        <time>1970-01-01T00:04:07.000Z</time>
      </trkpt>
      <trkpt lat="42.77105" lon="0.57793">
        <ele>1735.5</ele>
        <time>1970-01-01T00:04:09.000Z</time>
      </trkpt>
      <trkpt lat="42.7711" lon="0.57798">
        <ele>1731.5</ele>
        <time>1970-01-01T00:04:11.000Z</time>
      </trkpt>
      <trkpt lat="42.77115" lon="0.57815">
        <ele>1725.2</ele>
        <time>1970-01-01T00:04:13.000Z</time>
      </trkpt>
      <trkpt lat="42.77115" lon="0.57833">
        <ele>1720.1</ele>
        <time>1970-01-01T00:04:15.000Z</time>
      </trkpt>
      <trkpt lat="42.77116" lon="0.57841">
        <ele>1718.8</ele>
        <time>1970-01-01T00:04:16.000Z</time>
      </trkpt>
      <trkpt lat="42.77119" lon="0.57845">
        <ele>1716</ele>
        <time>1970-01-01T00:04:18.000Z</time>
      </trkpt>
      <trkpt lat="42.77121" lon="0.5784">
        <ele>1717.1</ele>
        <time>1970-01-01T00:04:19.000Z</time>
      </trkpt>
      <trkpt lat="42.77124" lon="0.57833">
        <ele>1716.9</ele>
        <time>1970-01-01T00:04:21.000Z</time>
      </trkpt>
      <trkpt lat="42.77125" lon="0.57836">
        <ele>1714</ele>
        <time>1970-01-01T00:04:22.000Z</time>
      </trkpt>
      <trkpt lat="42.77125" lon="0.57838">
        <ele>1712.8</ele>
        <time>1970-01-01T00:04:23.000Z</time>
      </trkpt>
      <trkpt lat="42.77123" lon="0.57843">
        <ele>1713.2</ele>
        <time>1970-01-01T00:04:25.000Z</time>
      </trkpt>
      <trkpt lat="42.77124" lon="0.57846">
        <ele>1712</ele>
        <time>1970-01-01T00:04:26.000Z</time>
      </trkpt>
      <trkpt lat="42.77125" lon="0.57849">
        <ele>1710.3</ele>
        <time>1970-01-01T00:04:27.000Z</time>
      </trkpt>
      <trkpt lat="42.77126" lon="0.57852">
        <ele>1709.2</ele>
        <time>1970-01-01T00:04:29.000Z</time>
      </trkpt>
      <trkpt lat="42.77127" lon="0.57855">
        <ele>1708</ele>
        <time>1970-01-01T00:04:31.000Z</time>
      </trkpt>
      <trkpt lat="42.77128" lon="0.57858">
        <ele>1706.2</ele>
        <time>1970-01-01T00:04:32.000Z</time>
      </trkpt>
      <trkpt lat="42.77129" lon="0.57861">
        <ele>1705</ele>
        <time>1970-01-01T00:04:33.000Z</time>
      </trkpt>
      <trkpt lat="42.77131" lon="0.57872">
        <ele>1699.5</ele>
        <time>1970-01-01T00:04:34.000Z</time>
      </trkpt>
      <trkpt lat="42.77133" lon="0.57877">
        <ele>1698.2</ele>
        <time>1970-01-01T00:04:35.000Z</time>
      </trkpt>
      <trkpt lat="42.77137" lon="0.57887">
        <ele>1693.8</ele>
        <time>1970-01-01T00:04:37.000Z</time>
      </trkpt>
      <trkpt lat="42.77135" lon="0.57888">
        <ele>1693.7</ele>
        <time>1970-01-01T00:04:38.000Z</time>
      </trkpt>
      <trkpt lat="42.77133" lon="0.57893">
        <ele>1693</ele>
        <time>1970-01-01T00:04:40.000Z</time>
      </trkpt>
      <trkpt lat="42.77132" lon="0.57897">
        <ele>1693</ele>
        <time>1970-01-01T00:04:42.000Z</time>
      </trkpt>
      <trkpt lat="42.77133" lon="0.57899">
        <ele>1691.7</ele>
        <time>1970-01-01T00:04:43.000Z</time>
      </trkpt>
      <trkpt lat="42.77133" lon="0.57902">
        <ele>1690.4</ele>
        <time>1970-01-01T00:04:45.000Z</time>
      </trkpt>
      <trkpt lat="42.77132" lon="0.57904">
        <ele>1690.4</ele>
        <time>1970-01-01T00:04:47.000Z</time>
      </trkpt>
      <trkpt lat="42.77132" lon="0.57904">
        <ele>1690.3</ele>
        <time>1970-01-01T00:04:48.000Z</time>
      </trkpt>
      <trkpt lat="42.77131" lon="0.57905">
        <ele>1690.3</ele>
        <time>1970-01-01T00:04:49.000Z</time>
      </trkpt>
      <trkpt lat="42.77131" lon="0.57905">
        <ele>1690.2</ele>
        <time>1970-01-01T00:04:50.000Z</time>
      </trkpt>
      <trkpt lat="42.77132" lon="0.57907">
        <ele>1688.9</ele>
        <time>1970-01-01T00:04:52.000Z</time>
      </trkpt>
      <trkpt lat="42.77133" lon="0.57935">
        <ele>1679.7</ele>
        <time>1970-01-01T00:05:01.000Z</time>
      </trkpt>
      <trkpt lat="42.77133" lon="0.57942">
        <ele>1676.5</ele>
        <time>1970-01-01T00:05:03.000Z</time>
      </trkpt>
      <trkpt lat="42.77133" lon="0.57949">
        <ele>1673.3</ele>
        <time>1970-01-01T00:05:05.000Z</time>
      </trkpt>
      <trkpt lat="42.77134" lon="0.57951">
        <ele>1671.7</ele>
        <time>1970-01-01T00:05:07.000Z</time>
      </trkpt>
      <trkpt lat="42.77135" lon="0.57952">
        <ele>1671.7</ele>
        <time>1970-01-01T00:05:08.000Z</time>
      </trkpt>
      <trkpt lat="42.77137" lon="0.57952">
        <ele>1670.1</ele>
        <time>1970-01-01T00:05:09.000Z</time>
      </trkpt>
      <trkpt lat="42.77138" lon="0.57953">
        <ele>1670.1</ele>
        <time>1970-01-01T00:05:10.000Z</time>
      </trkpt>
      <trkpt lat="42.77141" lon="0.57953">
        <ele>1667</ele>
        <time>1970-01-01T00:05:12.000Z</time>
      </trkpt>
      <trkpt lat="42.77141" lon="0.57957">
        <ele>1667</ele>
        <time>1970-01-01T00:05:14.000Z</time>
      </trkpt>
      <trkpt lat="42.77141" lon="0.57959">
        <ele>1665.3</ele>
        <time>1970-01-01T00:05:16.000Z</time>
      </trkpt>
      <trkpt lat="42.77141" lon="0.5796">
        <ele>1665.2</ele>
        <time>1970-01-01T00:05:17.000Z</time>
      </trkpt>
      <trkpt lat="42.77142" lon="0.57962">
        <ele>1663.5</ele>
        <time>1970-01-01T00:05:19.000Z</time>
      </trkpt>
      <trkpt lat="42.77143" lon="0.57961">
        <ele>1665.1</ele>
        <time>1970-01-01T00:05:20.000Z</time>
      </trkpt>
      <trkpt lat="42.77144" lon="0.57962">
        <ele>1662.1</ele>
        <time>1970-01-01T00:05:21.000Z</time>
      </trkpt>
      <trkpt lat="42.77151" lon="0.57965">
        <ele>1659.4</ele>
        <time>1970-01-01T00:05:23.000Z</time>
      </trkpt>
      <trkpt lat="42.77153" lon="0.57966">
        <ele>1658.6</ele>
        <time>1970-01-01T00:05:24.000Z</time>
      </trkpt>
      <trkpt lat="42.77161" lon="0.57973">
        <ele>1653.4</ele>
        <time>1970-01-01T00:05:26.000Z</time>
      </trkpt>
      <trkpt lat="42.77163" lon="0.57975">
        <ele>1653.2</ele>
        <time>1970-01-01T00:05:28.000Z</time>
      </trkpt>
      <trkpt lat="42.77164" lon="0.57975">
        <ele>1653.2</ele>
        <time>1970-01-01T00:05:29.000Z</time>
      </trkpt>
      <trkpt lat="42.77164" lon="0.57975">
        <ele>1653.2</ele>
        <time>1970-01-01T00:05:30.000Z</time>
      </trkpt>
      <trkpt lat="42.77164" lon="0.57975">
        <ele>1653.2</ele>
        <time>1970-01-01T00:05:31.000Z</time>
      </trkpt>
      <trkpt lat="42.77164" lon="0.57975">
        <ele>1653.2</ele>
        <time>1970-01-01T00:05:33.000Z</time>
      </trkpt>
      <trkpt lat="42.77164" lon="0.57974">
        <ele>1653.1</ele>
        <time>1970-01-01T00:05:34.000Z</time>
      </trkpt>
      <trkpt lat="42.77164" lon="0.57974">
        <ele>1653.1</ele>
        <time>1970-01-01T00:05:36.000Z</time>
      </trkpt>
      <trkpt lat="42.77164" lon="0.57974">
        <ele>1653.1</ele>
        <time>1970-01-01T00:05:37.000Z</time>
      </trkpt>
      <trkpt lat="42.77164" lon="0.57973">
        <ele>1653.1</ele>
        <time>1970-01-01T00:05:38.000Z</time>
      </trkpt>
      <trkpt lat="42.77164" lon="0.57973">
        <ele>1653.1</ele>
        <time>1970-01-01T00:05:39.000Z</time>
      </trkpt>
      <trkpt lat="42.77164" lon="0.57973">
        <ele>1653</ele>
        <time>1970-01-01T00:05:41.000Z</time>
      </trkpt>
      <trkpt lat="42.77164" lon="0.57972">
        <ele>1653</ele>
        <time>1970-01-01T00:05:43.000Z</time>
      </trkpt>
      <trkpt lat="42.77164" lon="0.57972">
        <ele>1653</ele>
        <time>1970-01-01T00:05:44.000Z</time>
      </trkpt>
      <trkpt lat="42.77164" lon="0.57972">
        <ele>1653</ele>
        <time>1970-01-01T00:05:46.000Z</time>
      </trkpt>
      <trkpt lat="42.77164" lon="0.57971">
        <ele>1653</ele>
        <time>1970-01-01T00:05:47.000Z</time>
      </trkpt>
      <trkpt lat="42.77164" lon="0.57971">
        <ele>1653</ele>
        <time>1970-01-01T00:05:49.000Z</time>
      </trkpt>
      <trkpt lat="42.77164" lon="0.57971">
        <ele>1652.9</ele>
        <time>1970-01-01T00:05:50.000Z</time>
      </trkpt>
      <trkpt lat="42.77164" lon="0.5797">
        <ele>1652.9</ele>
        <time>1970-01-01T00:05:51.000Z</time>
      </trkpt>
      <trkpt lat="42.77163" lon="0.57968">
        <ele>1652.8</ele>
        <time>1970-01-01T00:05:52.000Z</time>
      </trkpt>
      <trkpt lat="42.77162" lon="0.57967">
        <ele>1652.7</ele>
        <time>1970-01-01T00:05:53.000Z</time>
      </trkpt>
      <trkpt lat="42.7716" lon="0.57963">
        <ele>1652.5</ele>
        <time>1970-01-01T00:05:54.000Z</time>
      </trkpt>
      <trkpt lat="42.77159" lon="0.57963">
        <ele>1652.4</ele>
        <time>1970-01-01T00:05:55.000Z</time>
      </trkpt>
      <trkpt lat="42.77165" lon="0.57972">
        <ele>1651.9</ele>
        <time>1970-01-01T00:05:57.000Z</time>
      </trkpt>
      <trkpt lat="42.77166" lon="0.57972">
        <ele>1651.9</ele>
        <time>1970-01-01T00:05:58.000Z</time>
      </trkpt>
      <trkpt lat="42.77166" lon="0.57972">
        <ele>1651.9</ele>
        <time>1970-01-01T00:06:00.000Z</time>
      </trkpt>
      <trkpt lat="42.77166" lon="0.57971">
        <ele>1651.8</ele>
        <time>1970-01-01T00:06:02.000Z</time>
      </trkpt>
      <trkpt lat="42.77166" lon="0.57971">
        <ele>1651.8</ele>
        <time>1970-01-01T00:06:04.000Z</time>
      </trkpt>
      <trkpt lat="42.77167" lon="0.5797">
        <ele>1651.8</ele>
        <time>1970-01-01T00:06:06.000Z</time>
      </trkpt>
      <trkpt lat="42.77167" lon="0.5797">
        <ele>1651.8</ele>
        <time>1970-01-01T00:06:19.000Z</time>
      </trkpt>
      <trkpt lat="42.77167" lon="0.57969">
        <ele>1651.7</ele>
        <time>1970-01-01T00:06:21.000Z</time>
      </trkpt>
      <trkpt lat="42.77167" lon="0.57969">
        <ele>1651.7</ele>
        <time>1970-01-01T00:06:23.000Z</time>
      </trkpt>
      <trkpt lat="42.77168" lon="0.57968">
        <ele>1651.7</ele>
        <time>1970-01-01T00:06:24.000Z</time>
      </trkpt>
      <trkpt lat="42.77168" lon="0.57966">
        <ele>1651.6</ele>
        <time>1970-01-01T00:06:26.000Z</time>
      </trkpt>
      <trkpt lat="42.77169" lon="0.57964">
        <ele>1651.5</ele>
        <time>1970-01-01T00:06:27.000Z</time>
      </trkpt>
      <trkpt lat="42.77173" lon="0.57961">
        <ele>1651.2</ele>
        <time>1970-01-01T00:06:29.000Z</time>
      </trkpt>
      <trkpt lat="42.77174" lon="0.57959">
        <ele>1651.1</ele>
        <time>1970-01-01T00:06:30.000Z</time>
      </trkpt>
      <trkpt lat="42.77178" lon="0.57957">
        <ele>1650.9</ele>
        <time>1970-01-01T00:06:32.000Z</time>
      </trkpt>
      <trkpt lat="42.77181" lon="0.57955">
        <ele>1650.7</ele>
        <time>1970-01-01T00:06:33.000Z</time>
      </trkpt>
      <trkpt lat="42.77184" lon="0.57952">
        <ele>1650.5</ele>
        <time>1970-01-01T00:06:34.000Z</time>
      </trkpt>
      <trkpt lat="42.77196" lon="0.57937">
        <ele>1649.7</ele>
        <time>1970-01-01T00:06:35.000Z</time>
      </trkpt>
      <trkpt lat="42.77203" lon="0.57926">
        <ele>1649.2</ele>
        <time>1970-01-01T00:06:36.000Z</time>
      </trkpt>
      <trkpt lat="42.77215" lon="0.57906">
        <ele>1648</ele>
        <time>1970-01-01T00:06:38.000Z</time>
      </trkpt>
      <trkpt lat="42.7722" lon="0.57896">
        <ele>1647.4</ele>
        <time>1970-01-01T00:06:39.000Z</time>
      </trkpt>
      <trkpt lat="42.77229" lon="0.57878">
        <ele>1646.1</ele>
        <time>1970-01-01T00:06:41.000Z</time>
      </trkpt>
      <trkpt lat="42.77231" lon="0.57873">
        <ele>1645.7</ele>
        <time>1970-01-01T00:06:42.000Z</time>
      </trkpt>
      <trkpt lat="42.77238" lon="0.57868">
        <ele>1644.9</ele>
        <time>1970-01-01T00:06:44.000Z</time>
      </trkpt>
      <trkpt lat="42.77243" lon="0.57863">
        <ele>1644.1</ele>
        <time>1970-01-01T00:06:45.000Z</time>
      </trkpt>
      <trkpt lat="42.7725" lon="0.5786">
        <ele>1642.9</ele>
        <time>1970-01-01T00:06:46.000Z</time>
      </trkpt>
      <trkpt lat="42.77259" lon="0.57856">
        <ele>1641.5</ele>
        <time>1970-01-01T00:06:47.000Z</time>
      </trkpt>
      <trkpt lat="42.77267" lon="0.57854">
        <ele>1640.1</ele>
        <time>1970-01-01T00:06:48.000Z</time>
      </trkpt>
      <trkpt lat="42.77273" lon="0.57855">
        <ele>1639.1</ele>
        <time>1970-01-01T00:06:49.000Z</time>
      </trkpt>
      <trkpt lat="42.77277" lon="0.57855">
        <ele>1638.5</ele>
        <time>1970-01-01T00:06:50.000Z</time>
      </trkpt>
      <trkpt lat="42.77274" lon="0.57857">
        <ele>1638</ele>
        <time>1970-01-01T00:06:51.000Z</time>
      </trkpt>
      <trkpt lat="42.77269" lon="0.5786">
        <ele>1637.1</ele>
        <time>1970-01-01T00:06:53.000Z</time>
      </trkpt>
      <trkpt lat="42.77266" lon="0.5786">
        <ele>1636.7</ele>
        <time>1970-01-01T00:06:54.000Z</time>
      </trkpt>
      <trkpt lat="42.77267" lon="0.57858">
        <ele>1636.3</ele>
        <time>1970-01-01T00:06:56.000Z</time>
      </trkpt>
      <trkpt lat="42.77267" lon="0.57855">
        <ele>1636.1</ele>
        <time>1970-01-01T00:06:57.000Z</time>
      </trkpt>
      <trkpt lat="42.77293" lon="0.57856">
        <ele>1631</ele>
        <time>1970-01-01T00:06:58.000Z</time>
      </trkpt>
      <trkpt lat="42.77299" lon="0.57856">
        <ele>1629.3</ele>
        <time>1970-01-01T00:06:59.000Z</time>
      </trkpt>
      <trkpt lat="42.7731" lon="0.57858">
        <ele>1626.5</ele>
        <time>1970-01-01T00:07:00.000Z</time>
      </trkpt>
      <trkpt lat="42.77323" lon="0.57857">
        <ele>1622.9</ele>
        <time>1970-01-01T00:07:02.000Z</time>
      </trkpt>
      <trkpt lat="42.77328" lon="0.57859">
        <ele>1621.2</ele>
        <time>1970-01-01T00:07:03.000Z</time>
      </trkpt>
      <trkpt lat="42.77331" lon="0.57863">
        <ele>1619.4</ele>
        <time>1970-01-01T00:07:04.000Z</time>
      </trkpt>
      <trkpt lat="42.77335" lon="0.57868">
        <ele>1617.8</ele>
        <time>1970-01-01T00:07:06.000Z</time>
      </trkpt>
      <trkpt lat="42.77338" lon="0.57876">
        <ele>1615.9</ele>
        <time>1970-01-01T00:07:07.000Z</time>
      </trkpt>
      <trkpt lat="42.77339" lon="0.57879">
        <ele>1614.7</ele>
        <time>1970-01-01T00:07:08.000Z</time>
      </trkpt>
      <trkpt lat="42.77342" lon="0.57881">
        <ele>1613.4</ele>
        <time>1970-01-01T00:07:10.000Z</time>
      </trkpt>
      <trkpt lat="42.77344" lon="0.57883">
        <ele>1613.3</ele>
        <time>1970-01-01T00:07:11.000Z</time>
      </trkpt>
      <trkpt lat="42.77348" lon="0.57887">
        <ele>1612</ele>
        <time>1970-01-01T00:07:12.000Z</time>
      </trkpt>
      <trkpt lat="42.77351" lon="0.57888">
        <ele>1611.1</ele>
        <time>1970-01-01T00:07:14.000Z</time>
      </trkpt>
      <trkpt lat="42.77353" lon="0.57889">
        <ele>1610.1</ele>
        <time>1970-01-01T00:07:15.000Z</time>
      </trkpt>
      <trkpt lat="42.77357" lon="0.57891">
        <ele>1608.8</ele>
        <time>1970-01-01T00:07:16.000Z</time>
      </trkpt>
      <trkpt lat="42.77359" lon="0.57893">
        <ele>1607.7</ele>
        <time>1970-01-01T00:07:17.000Z</time>
      </trkpt>
      <trkpt lat="42.7736" lon="0.57894">
        <ele>1607.4</ele>
        <time>1970-01-01T00:07:18.000Z</time>
      </trkpt>
      <trkpt lat="42.77361" lon="0.57896">
        <ele>1606.2</ele>
        <time>1970-01-01T00:07:19.000Z</time>
      </trkpt>
      <trkpt lat="42.77364" lon="0.57898">
        <ele>1604.9</ele>
        <time>1970-01-01T00:07:21.000Z</time>
      </trkpt>
      <trkpt lat="42.77367" lon="0.57898">
        <ele>1603.8</ele>
        <time>1970-01-01T00:07:23.000Z</time>
      </trkpt>
      <trkpt lat="42.77368" lon="0.57897">
        <ele>1603.7</ele>
        <time>1970-01-01T00:07:24.000Z</time>
      </trkpt>
      <trkpt lat="42.77369" lon="0.57897">
        <ele>1603.7</ele>
        <time>1970-01-01T00:07:25.000Z</time>
      </trkpt>
      <trkpt lat="42.77373" lon="0.57896">
        <ele>1602.7</ele>
        <time>1970-01-01T00:07:26.000Z</time>
      </trkpt>
      <trkpt lat="42.77374" lon="0.57896">
        <ele>1601.7</ele>
        <time>1970-01-01T00:07:27.000Z</time>
      </trkpt>
      <trkpt lat="42.77379" lon="0.57896">
        <ele>1600.6</ele>
        <time>1970-01-01T00:07:29.000Z</time>
      </trkpt>
      <trkpt lat="42.77381" lon="0.57896">
        <ele>1599.4</ele>
        <time>1970-01-01T00:07:30.000Z</time>
      </trkpt>
      <trkpt lat="42.77383" lon="0.57895">
        <ele>1598</ele>
        <time>1970-01-01T00:07:31.000Z</time>
      </trkpt>
      <trkpt lat="42.77387" lon="0.57899">
        <ele>1596.5</ele>
        <time>1970-01-01T00:07:33.000Z</time>
      </trkpt>
      <trkpt lat="42.77387" lon="0.57903">
        <ele>1596.3</ele>
        <time>1970-01-01T00:07:34.000Z</time>
      </trkpt>
      <trkpt lat="42.77389" lon="0.57905">
        <ele>1596.2</ele>
        <time>1970-01-01T00:07:36.000Z</time>
      </trkpt>
      <trkpt lat="42.7739" lon="0.57907">
        <ele>1594.7</ele>
        <time>1970-01-01T00:07:38.000Z</time>
      </trkpt>
      <trkpt lat="42.77391" lon="0.57908">
        <ele>1594.6</ele>
        <time>1970-01-01T00:07:39.000Z</time>
      </trkpt>
      <trkpt lat="42.77395" lon="0.57908">
        <ele>1593.2</ele>
        <time>1970-01-01T00:07:40.000Z</time>
      </trkpt>
      <trkpt lat="42.77399" lon="0.57909">
        <ele>1590.5</ele>
        <time>1970-01-01T00:07:41.000Z</time>
      </trkpt>
      <trkpt lat="42.77404" lon="0.57911">
        <ele>1588.9</ele>
        <time>1970-01-01T00:07:42.000Z</time>
      </trkpt>
      <trkpt lat="42.77407" lon="0.57913">
        <ele>1587.5</ele>
        <time>1970-01-01T00:07:44.000Z</time>
      </trkpt>
      <trkpt lat="42.7741" lon="0.57914">
        <ele>1586</ele>
        <time>1970-01-01T00:07:45.000Z</time>
      </trkpt>
      <trkpt lat="42.77417" lon="0.57917">
        <ele>1582.6</ele>
        <time>1970-01-01T00:07:47.000Z</time>
      </trkpt>
      <trkpt lat="42.7742" lon="0.57916">
        <ele>1580.9</ele>
        <time>1970-01-01T00:07:48.000Z</time>
      </trkpt>
      <trkpt lat="42.77422" lon="0.57915">
        <ele>1579.3</ele>
        <time>1970-01-01T00:07:49.000Z</time>
      </trkpt>
      <trkpt lat="42.77427" lon="0.57915">
        <ele>1577.7</ele>
        <time>1970-01-01T00:07:51.000Z</time>
      </trkpt>
      <trkpt lat="42.77431" lon="0.57915">
        <ele>1574.4</ele>
        <time>1970-01-01T00:07:52.000Z</time>
      </trkpt>
      <trkpt lat="42.77434" lon="0.5792">
        <ele>1572.3</ele>
        <time>1970-01-01T00:07:54.000Z</time>
      </trkpt>
      <trkpt lat="42.77434" lon="0.57922">
        <ele>1572.2</ele>
        <time>1970-01-01T00:07:55.000Z</time>
      </trkpt>
      <trkpt lat="42.77434" lon="0.57924">
        <ele>1571.6</ele>
        <time>1970-01-01T00:07:56.000Z</time>
      </trkpt>
      <trkpt lat="42.77433" lon="0.57929">
        <ele>1571</ele>
        <time>1970-01-01T00:07:58.000Z</time>
      </trkpt>
      <trkpt lat="42.77437" lon="0.57933">
        <ele>1568.8</ele>
        <time>1970-01-01T00:07:59.000Z</time>
      </trkpt>
      <trkpt lat="42.77439" lon="0.57933">
        <ele>1568.7</ele>
        <time>1970-01-01T00:08:00.000Z</time>
      </trkpt>
      <trkpt lat="42.77443" lon="0.57936">
        <ele>1565.2</ele>
        <time>1970-01-01T00:08:02.000Z</time>
      </trkpt>
      <trkpt lat="42.77448" lon="0.57935">
        <ele>1563.4</ele>
        <time>1970-01-01T00:08:04.000Z</time>
      </trkpt>
      <trkpt lat="42.7745" lon="0.57934">
        <ele>1561.6</ele>
        <time>1970-01-01T00:08:06.000Z</time>
      </trkpt>
      <trkpt lat="42.77452" lon="0.57933">
        <ele>1559.9</ele>
        <time>1970-01-01T00:08:07.000Z</time>
      </trkpt>
      <trkpt lat="42.77454" lon="0.57933">
        <ele>1559.8</ele>
        <time>1970-01-01T00:08:08.000Z</time>
      </trkpt>
      <trkpt lat="42.77459" lon="0.57932">
        <ele>1556.8</ele>
        <time>1970-01-01T00:08:10.000Z</time>
      </trkpt>
      <trkpt lat="42.77461" lon="0.57933">
        <ele>1556.8</ele>
        <time>1970-01-01T00:08:11.000Z</time>
      </trkpt>
      <trkpt lat="42.77465" lon="0.57936">
        <ele>1553.4</ele>
        <time>1970-01-01T00:08:13.000Z</time>
      </trkpt>
      <trkpt lat="42.77467" lon="0.57935">
        <ele>1553.9</ele>
        <time>1970-01-01T00:08:14.000Z</time>
      </trkpt>
      <trkpt lat="42.77471" lon="0.57933">
        <ele>1552.5</ele>
        <time>1970-01-01T00:08:16.000Z</time>
      </trkpt>
      <trkpt lat="42.77476" lon="0.57933">
        <ele>1549.6</ele>
        <time>1970-01-01T00:08:17.000Z</time>
      </trkpt>
      <trkpt lat="42.77479" lon="0.57933">
        <ele>1548.2</ele>
        <time>1970-01-01T00:08:18.000Z</time>
      </trkpt>
      <trkpt lat="42.77483" lon="0.57931">
        <ele>1547.4</ele>
        <time>1970-01-01T00:08:20.000Z</time>
      </trkpt>
      <trkpt lat="42.77487" lon="0.5793">
        <ele>1545.3</ele>
        <time>1970-01-01T00:08:21.000Z</time>
      </trkpt>
      <trkpt lat="42.77493" lon="0.5793">
        <ele>1543.1</ele>
        <time>1970-01-01T00:08:22.000Z</time>
      </trkpt>
      <trkpt lat="42.77498" lon="0.5793">
        <ele>1541.8</ele>
        <time>1970-01-01T00:08:24.000Z</time>
      </trkpt>
      <trkpt lat="42.775" lon="0.5793">
        <ele>1540.5</ele>
        <time>1970-01-01T00:08:25.000Z</time>
      </trkpt>
      <trkpt lat="42.77501" lon="0.5793">
        <ele>1540.5</ele>
        <time>1970-01-01T00:08:26.000Z</time>
      </trkpt>
      <trkpt lat="42.77505" lon="0.57931">
        <ele>1539.2</ele>
        <time>1970-01-01T00:08:28.000Z</time>
      </trkpt>
      <trkpt lat="42.77507" lon="0.57932">
        <ele>1537.7</ele>
        <time>1970-01-01T00:08:29.000Z</time>
      </trkpt>
      <trkpt lat="42.77511" lon="0.57932">
        <ele>1536.7</ele>
        <time>1970-01-01T00:08:31.000Z</time>
      </trkpt>
      <trkpt lat="42.77515" lon="0.57932">
        <ele>1535.7</ele>
        <time>1970-01-01T00:08:32.000Z</time>
      </trkpt>
      <trkpt lat="42.77518" lon="0.57933">
        <ele>1534.7</ele>
        <time>1970-01-01T00:08:33.000Z</time>
      </trkpt>
      <trkpt lat="42.77532" lon="0.57933">
        <ele>1528.8</ele>
        <time>1970-01-01T00:08:35.000Z</time>
      </trkpt>
      <trkpt lat="42.77541" lon="0.57933">
        <ele>1525.8</ele>
        <time>1970-01-01T00:08:36.000Z</time>
      </trkpt>
      <trkpt lat="42.77627" lon="0.57928">
        <ele>1492.6</ele>
        <time>1970-01-01T00:08:41.000Z</time>
      </trkpt>
      <trkpt lat="42.77634" lon="0.57927">
        <ele>1490</ele>
        <time>1970-01-01T00:08:42.000Z</time>
      </trkpt>
      <trkpt lat="42.77643" lon="0.57929">
        <ele>1485.9</ele>
        <time>1970-01-01T00:08:43.000Z</time>
      </trkpt>
      <trkpt lat="42.77647" lon="0.57929">
        <ele>1483.5</ele>
        <time>1970-01-01T00:08:44.000Z</time>
      </trkpt>
      <trkpt lat="42.77656" lon="0.57932">
        <ele>1481.6</ele>
        <time>1970-01-01T00:08:45.000Z</time>
      </trkpt>
      <trkpt lat="42.7766" lon="0.57934">
        <ele>1480.5</ele>
        <time>1970-01-01T00:08:47.000Z</time>
      </trkpt>
      <trkpt lat="42.77668" lon="0.57929">
        <ele>1476.8</ele>
        <time>1970-01-01T00:08:48.000Z</time>
      </trkpt>
      <trkpt lat="42.77675" lon="0.57924">
        <ele>1474.3</ele>
        <time>1970-01-01T00:08:49.000Z</time>
      </trkpt>
      <trkpt lat="42.77682" lon="0.5792">
        <ele>1470.9</ele>
        <time>1970-01-01T00:08:50.000Z</time>
      </trkpt>
      <trkpt lat="42.77697" lon="0.57908">
        <ele>1465.1</ele>
        <time>1970-01-01T00:08:52.000Z</time>
      </trkpt>
      <trkpt lat="42.77705" lon="0.57897">
        <ele>1460.9</ele>
        <time>1970-01-01T00:08:54.000Z</time>
      </trkpt>
      <trkpt lat="42.77721" lon="0.57886">
        <ele>1454.7</ele>
        <time>1970-01-01T00:08:56.000Z</time>
      </trkpt>
      <trkpt lat="42.77726" lon="0.57884">
        <ele>1453.1</ele>
        <time>1970-01-01T00:08:57.000Z</time>
      </trkpt>
      <trkpt lat="42.77734" lon="0.57886">
        <ele>1451.3</ele>
        <time>1970-01-01T00:08:59.000Z</time>
      </trkpt>
      <trkpt lat="42.77737" lon="0.57887">
        <ele>1450.6</ele>
        <time>1970-01-01T00:09:01.000Z</time>
      </trkpt>
      <trkpt lat="42.77738" lon="0.57887">
        <ele>1450.5</ele>
        <time>1970-01-01T00:09:02.000Z</time>
      </trkpt>
      <trkpt lat="42.77738" lon="0.57888">
        <ele>1450.5</ele>
        <time>1970-01-01T00:09:03.000Z</time>
      </trkpt>
      <trkpt lat="42.77739" lon="0.57889">
        <ele>1449.8</ele>
        <time>1970-01-01T00:09:04.000Z</time>
      </trkpt>
      <trkpt lat="42.77739" lon="0.5789">
        <ele>1450.8</ele>
        <time>1970-01-01T00:09:06.000Z</time>
      </trkpt>
      <trkpt lat="42.77739" lon="0.5789">
        <ele>1450.1</ele>
        <time>1970-01-01T00:09:08.000Z</time>
      </trkpt>
      <trkpt lat="42.77738" lon="0.57892">
        <ele>1450.7</ele>
        <time>1970-01-01T00:09:10.000Z</time>
      </trkpt>
      <trkpt lat="42.77738" lon="0.57892">
        <ele>1450.6</ele>
        <time>1970-01-01T00:09:11.000Z</time>
      </trkpt>
      <trkpt lat="42.77737" lon="0.57893">
        <ele>1451</ele>
        <time>1970-01-01T00:09:13.000Z</time>
      </trkpt>
      <trkpt lat="42.77738" lon="0.57895">
        <ele>1451</ele>
        <time>1970-01-01T00:09:15.000Z</time>
      </trkpt>
      <trkpt lat="42.77738" lon="0.57895">
        <ele>1450.9</ele>
        <time>1970-01-01T00:09:17.000Z</time>
      </trkpt>
      <trkpt lat="42.77738" lon="0.57895">
        <ele>1450.8</ele>
        <time>1970-01-01T00:09:18.000Z</time>
      </trkpt>
      <trkpt lat="42.77738" lon="0.57895">
        <ele>1450.7</ele>
        <time>1970-01-01T00:09:19.000Z</time>
      </trkpt>
      <trkpt lat="42.77738" lon="0.57895">
        <ele>1450.6</ele>
        <time>1970-01-01T00:09:20.000Z</time>
      </trkpt>
      <trkpt lat="42.77738" lon="0.57895">
        <ele>1450.6</ele>
        <time>1970-01-01T00:09:21.000Z</time>
      </trkpt>
      <trkpt lat="42.77738" lon="0.57895">
        <ele>1450.5</ele>
        <time>1970-01-01T00:09:23.000Z</time>
      </trkpt>
      <trkpt lat="42.77744" lon="0.57902">
        <ele>1450</ele>
        <time>1970-01-01T00:10:12.000Z</time>
      </trkpt>
      <trkpt lat="42.77752" lon="0.57913">
        <ele>1448.2</ele>
        <time>1970-01-01T00:10:14.000Z</time>
      </trkpt>
      <trkpt lat="42.77757" lon="0.57919">
        <ele>1447.9</ele>
        <time>1970-01-01T00:10:15.000Z</time>
      </trkpt>
      <trkpt lat="42.7776" lon="0.57926">
        <ele>1447.2</ele>
        <time>1970-01-01T00:10:17.000Z</time>
      </trkpt>
      <trkpt lat="42.77761" lon="0.57926">
        <ele>1446.4</ele>
        <time>1970-01-01T00:10:18.000Z</time>
      </trkpt>
      <trkpt lat="42.77762" lon="0.57927">
        <ele>1446.4</ele>
        <time>1970-01-01T00:10:20.000Z</time>
      </trkpt>
      <trkpt lat="42.77763" lon="0.57929">
        <ele>1446.4</ele>
        <time>1970-01-01T00:10:21.000Z</time>
      </trkpt>
      <trkpt lat="42.77764" lon="0.57934">
        <ele>1445.6</ele>
        <time>1970-01-01T00:10:22.000Z</time>
      </trkpt>
      <trkpt lat="42.77762" lon="0.57941">
        <ele>1446.4</ele>
        <time>1970-01-01T00:10:24.000Z</time>
      </trkpt>
      <trkpt lat="42.77759" lon="0.57945">
        <ele>1447.2</ele>
        <time>1970-01-01T00:10:25.000Z</time>
      </trkpt>
      <trkpt lat="42.77757" lon="0.57949">
        <ele>1448</ele>
        <time>1970-01-01T00:10:26.000Z</time>
      </trkpt>
      <trkpt lat="42.77749" lon="0.5796">
        <ele>1449.8</ele>
        <time>1970-01-01T00:10:27.000Z</time>
      </trkpt>
      <trkpt lat="42.7775" lon="0.57951">
        <ele>1449.9</ele>
        <time>1970-01-01T00:10:29.000Z</time>
      </trkpt>
      <trkpt lat="42.77738" lon="0.57961">
        <ele>1453.2</ele>
        <time>1970-01-01T00:10:30.000Z</time>
      </trkpt>
      <trkpt lat="42.7773" lon="0.57969">
        <ele>1454.5</ele>
        <time>1970-01-01T00:10:31.000Z</time>
      </trkpt>
      <trkpt lat="42.77716" lon="0.57993">
        <ele>1457.6</ele>
        <time>1970-01-01T00:10:33.000Z</time>
      </trkpt>
      <trkpt lat="42.77712" lon="0.58006">
        <ele>1456.7</ele>
        <time>1970-01-01T00:10:34.000Z</time>
      </trkpt>
      <trkpt lat="42.77708" lon="0.58019">
        <ele>1455.5</ele>
        <time>1970-01-01T00:10:35.000Z</time>
      </trkpt>
      <trkpt lat="42.77699" lon="0.58036">
        <ele>1455.6</ele>
        <time>1970-01-01T00:10:37.000Z</time>
      </trkpt>
      <trkpt lat="42.77697" lon="0.58041">
        <ele>1455.8</ele>
        <time>1970-01-01T00:10:38.000Z</time>
      </trkpt>
      <trkpt lat="42.77697" lon="0.58043">
        <ele>1455.7</ele>
        <time>1970-01-01T00:10:40.000Z</time>
      </trkpt>
      <trkpt lat="42.77699" lon="0.58042">
        <ele>1454.5</ele>
        <time>1970-01-01T00:10:41.000Z</time>
      </trkpt>
      <trkpt lat="42.77707" lon="0.58033">
        <ele>1453.9</ele>
        <time>1970-01-01T00:10:42.000Z</time>
      </trkpt>
      <trkpt lat="42.7772" lon="0.58017">
        <ele>1451.9</ele>
        <time>1970-01-01T00:10:44.000Z</time>
      </trkpt>
      <trkpt lat="42.77731" lon="0.57999">
        <ele>1451</ele>
        <time>1970-01-01T00:10:46.000Z</time>
      </trkpt>
      <trkpt lat="42.77736" lon="0.5799">
        <ele>1450</ele>
        <time>1970-01-01T00:10:47.000Z</time>
      </trkpt>
      <trkpt lat="42.77739" lon="0.57979">
        <ele>1449.8</ele>
        <time>1970-01-01T00:10:48.000Z</time>
      </trkpt>
      <trkpt lat="42.77742" lon="0.57955">
        <ele>1451.4</ele>
        <time>1970-01-01T00:10:50.000Z</time>
      </trkpt>
      <trkpt lat="42.77745" lon="0.57937">
        <ele>1450.4</ele>
        <time>1970-01-01T00:10:52.000Z</time>
      </trkpt>
      <trkpt lat="42.7775" lon="0.57928">
        <ele>1448.1</ele>
        <time>1970-01-01T00:10:54.000Z</time>
      </trkpt>
      <trkpt lat="42.77752" lon="0.57928">
        <ele>1447.1</ele>
        <time>1970-01-01T00:10:55.000Z</time>
      </trkpt>
      <trkpt lat="42.77753" lon="0.57929">
        <ele>1447</ele>
        <time>1970-01-01T00:10:57.000Z</time>
      </trkpt>
      <trkpt lat="42.77754" lon="0.5793">
        <ele>1446.9</ele>
        <time>1970-01-01T00:10:58.000Z</time>
      </trkpt>
      <trkpt lat="42.77754" lon="0.57931">
        <ele>1445.9</ele>
        <time>1970-01-01T00:11:00.000Z</time>
      </trkpt>
      <trkpt lat="42.77754" lon="0.57935">
        <ele>1447</ele>
        <time>1970-01-01T00:11:02.000Z</time>
      </trkpt>
      <trkpt lat="42.77756" lon="0.57939">
        <ele>1446.1</ele>
        <time>1970-01-01T00:11:03.000Z</time>
      </trkpt>
      <trkpt lat="42.7776" lon="0.57945">
        <ele>1445.1</ele>
        <time>1970-01-01T00:11:05.000Z</time>
      </trkpt>
      <trkpt lat="42.77764" lon="0.57951">
        <ele>1443.2</ele>
        <time>1970-01-01T00:11:07.000Z</time>
      </trkpt>
      <trkpt lat="42.77766" lon="0.57953">
        <ele>1443</ele>
        <time>1970-01-01T00:11:09.000Z</time>
      </trkpt>
      <trkpt lat="42.77768" lon="0.57956">
        <ele>1441.9</ele>
        <time>1970-01-01T00:11:10.000Z</time>
      </trkpt>
      <trkpt lat="42.7777" lon="0.57958">
        <ele>1441.6</ele>
        <time>1970-01-01T00:11:12.000Z</time>
      </trkpt>
      <trkpt lat="42.77772" lon="0.57961">
        <ele>1440.4</ele>
        <time>1970-01-01T00:11:14.000Z</time>
      </trkpt>
      <trkpt lat="42.77774" lon="0.57963">
        <ele>1438.5</ele>
        <time>1970-01-01T00:11:45.000Z</time>
      </trkpt>
      <trkpt lat="42.77776" lon="0.57966">
        <ele>1437.9</ele>
        <time>1970-01-01T00:11:46.000Z</time>
      </trkpt>
      <trkpt lat="42.77778" lon="0.57968">
        <ele>1436.4</ele>
        <time>1970-01-01T00:11:47.000Z</time>
      </trkpt>
      <trkpt lat="42.77774" lon="0.57976">
        <ele>1436.5</ele>
        <time>1970-01-01T00:11:49.000Z</time>
      </trkpt>
      <trkpt lat="42.77771" lon="0.57982">
        <ele>1437.2</ele>
        <time>1970-01-01T00:11:50.000Z</time>
      </trkpt>
      <trkpt lat="42.77759" lon="0.58003">
        <ele>1435.8</ele>
        <time>1970-01-01T00:11:52.000Z</time>
      </trkpt>
      <trkpt lat="42.77745" lon="0.58028">
        <ele>1433.2</ele>
        <time>1970-01-01T00:11:54.000Z</time>
      </trkpt>
      <trkpt lat="42.77738" lon="0.58041">
        <ele>1432.6</ele>
        <time>1970-01-01T00:11:55.000Z</time>
      </trkpt>
      <trkpt lat="42.77727" lon="0.58066">
        <ele>1431.9</ele>
        <time>1970-01-01T00:11:57.000Z</time>
      </trkpt>
      <trkpt lat="42.77722" lon="0.58077">
        <ele>1431.2</ele>
        <time>1970-01-01T00:11:58.000Z</time>
      </trkpt>
      <trkpt lat="42.77711" lon="0.58097">
        <ele>1429.1</ele>
        <time>1970-01-01T00:12:00.000Z</time>
      </trkpt>
      <trkpt lat="42.77705" lon="0.58118">
        <ele>1427.2</ele>
        <time>1970-01-01T00:12:02.000Z</time>
      </trkpt>
      <trkpt lat="42.77702" lon="0.5813">
        <ele>1425.8</ele>
        <time>1970-01-01T00:12:03.000Z</time>
      </trkpt>
      <trkpt lat="42.77699" lon="0.58143">
        <ele>1424.3</ele>
        <time>1970-01-01T00:12:04.000Z</time>
      </trkpt>
      <trkpt lat="42.77695" lon="0.58164">
        <ele>1422.1</ele>
        <time>1970-01-01T00:12:06.000Z</time>
      </trkpt>
      <trkpt lat="42.77693" lon="0.58174">
        <ele>1421.2</ele>
        <time>1970-01-01T00:12:07.000Z</time>
      </trkpt>
      <trkpt lat="42.77692" lon="0.58184">
        <ele>1420</ele>
        <time>1970-01-01T00:12:08.000Z</time>
      </trkpt>
      <trkpt lat="42.77692" lon="0.58195">
        <ele>1418.4</ele>
        <time>1970-01-01T00:12:09.000Z</time>
      </trkpt>
      <trkpt lat="42.77692" lon="0.58206">
        <ele>1416.5</ele>
        <time>1970-01-01T00:12:10.000Z</time>
      </trkpt>
      <trkpt lat="42.77693" lon="0.58216">
        <ele>1414.6</ele>
        <time>1970-01-01T00:12:11.000Z</time>
      </trkpt>
      <trkpt lat="42.77695" lon="0.58239">
        <ele>1411.4</ele>
        <time>1970-01-01T00:12:13.000Z</time>
      </trkpt>
      <trkpt lat="42.77693" lon="0.58252">
        <ele>1409.7</ele>
        <time>1970-01-01T00:12:14.000Z</time>
      </trkpt>
      <trkpt lat="42.77691" lon="0.58266">
        <ele>1408</ele>
        <time>1970-01-01T00:12:15.000Z</time>
      </trkpt>
      <trkpt lat="42.77689" lon="0.58281">
        <ele>1406.5</ele>
        <time>1970-01-01T00:12:16.000Z</time>
      </trkpt>
      <trkpt lat="42.77684" lon="0.58308">
        <ele>1402.9</ele>
        <time>1970-01-01T00:12:18.000Z</time>
      </trkpt>
      <trkpt lat="42.77683" lon="0.58322">
        <ele>1400.1</ele>
        <time>1970-01-01T00:12:19.000Z</time>
      </trkpt>
      <trkpt lat="42.77683" lon="0.58334">
        <ele>1397.1</ele>
        <time>1970-01-01T00:12:20.000Z</time>
      </trkpt>
      <trkpt lat="42.77682" lon="0.58347">
        <ele>1394.6</ele>
        <time>1970-01-01T00:12:21.000Z</time>
      </trkpt>
      <trkpt lat="42.7768" lon="0.5837">
        <ele>1390.6</ele>
        <time>1970-01-01T00:12:23.000Z</time>
      </trkpt>
      <trkpt lat="42.77677" lon="0.5838">
        <ele>1389.1</ele>
        <time>1970-01-01T00:12:24.000Z</time>
      </trkpt>
      <trkpt lat="42.77671" lon="0.58389">
        <ele>1387.8</ele>
        <time>1970-01-01T00:12:25.000Z</time>
      </trkpt>
      <trkpt lat="42.77659" lon="0.58408">
        <ele>1386.3</ele>
        <time>1970-01-01T00:12:27.000Z</time>
      </trkpt>
      <trkpt lat="42.77653" lon="0.58415">
        <ele>1385.6</ele>
        <time>1970-01-01T00:12:28.000Z</time>
      </trkpt>
      <trkpt lat="42.77645" lon="0.58418">
        <ele>1384.9</ele>
        <time>1970-01-01T00:12:30.000Z</time>
      </trkpt>
      <trkpt lat="42.77643" lon="0.58419">
        <ele>1384.7</ele>
        <time>1970-01-01T00:12:32.000Z</time>
      </trkpt>
      <trkpt lat="42.77642" lon="0.58419">
        <ele>1384.6</ele>
        <time>1970-01-01T00:12:33.000Z</time>
      </trkpt>
      <trkpt lat="42.77641" lon="0.58419">
        <ele>1384.5</ele>
        <time>1970-01-01T00:12:34.000Z</time>
      </trkpt>
      <trkpt lat="42.77638" lon="0.58418">
        <ele>1384.3</ele>
        <time>1970-01-01T00:12:36.000Z</time>
      </trkpt>
      <trkpt lat="42.77637" lon="0.58414">
        <ele>1384</ele>
        <time>1970-01-01T00:12:38.000Z</time>
      </trkpt>
      <trkpt lat="42.77637" lon="0.58414">
        <ele>1384</ele>
        <time>1970-01-01T00:12:40.000Z</time>
      </trkpt>
      <trkpt lat="42.77639" lon="0.58415">
        <ele>1383.9</ele>
        <time>1970-01-01T00:12:41.000Z</time>
      </trkpt>
      <trkpt lat="42.7764" lon="0.58415">
        <ele>1383.8</ele>
        <time>1970-01-01T00:12:42.000Z</time>
      </trkpt>
      <trkpt lat="42.77639" lon="0.58415">
        <ele>1383.8</ele>
        <time>1970-01-01T00:12:44.000Z</time>
      </trkpt>
      <trkpt lat="42.77639" lon="0.58415">
        <ele>1383.7</ele>
        <time>1970-01-01T00:12:46.000Z</time>
      </trkpt>
      <trkpt lat="42.77639" lon="0.58415">
        <ele>1383.7</ele>
        <time>1970-01-01T00:12:48.000Z</time>
      </trkpt>
      <trkpt lat="42.77639" lon="0.58415">
        <ele>1383.7</ele>
        <time>1970-01-01T00:12:50.000Z</time>
      </trkpt>
      <trkpt lat="42.77639" lon="0.58416">
        <ele>1383.6</ele>
        <time>1970-01-01T00:12:51.000Z</time>
      </trkpt>
      <trkpt lat="42.77637" lon="0.58419">
        <ele>1383.4</ele>
        <time>1970-01-01T00:12:53.000Z</time>
      </trkpt>
      <trkpt lat="42.77635" lon="0.58419">
        <ele>1383.2</ele>
        <time>1970-01-01T00:12:55.000Z</time>
      </trkpt>
      <trkpt lat="42.77635" lon="0.58419">
        <ele>1383.2</ele>
        <time>1970-01-01T00:12:56.000Z</time>
      </trkpt>
      <trkpt lat="42.77634" lon="0.58418">
        <ele>1383.1</ele>
        <time>1970-01-01T00:12:58.000Z</time>
      </trkpt>
      <trkpt lat="42.77634" lon="0.58418">
        <ele>1383.1</ele>
        <time>1970-01-01T00:12:59.000Z</time>
      </trkpt>
      <trkpt lat="42.77634" lon="0.58417">
        <ele>1383.1</ele>
        <time>1970-01-01T00:13:01.000Z</time>
      </trkpt>
      <trkpt lat="42.77634" lon="0.58417">
        <ele>1383</ele>
        <time>1970-01-01T00:13:03.000Z</time>
      </trkpt>
      <trkpt lat="42.77634" lon="0.58418">
        <ele>1383</ele>
        <time>1970-01-01T00:13:04.000Z</time>
      </trkpt>
      <trkpt lat="42.77633" lon="0.5842">
        <ele>1382.8</ele>
        <time>1970-01-01T00:13:05.000Z</time>
      </trkpt>
      <trkpt lat="42.77632" lon="0.58425">
        <ele>1382.6</ele>
        <time>1970-01-01T00:13:07.000Z</time>
      </trkpt>
      <trkpt lat="42.7763" lon="0.58428">
        <ele>1382.3</ele>
        <time>1970-01-01T00:13:08.000Z</time>
      </trkpt>
      <trkpt lat="42.77629" lon="0.5843">
        <ele>1382.2</ele>
        <time>1970-01-01T00:13:10.000Z</time>
      </trkpt>
      <trkpt lat="42.7763" lon="0.58429">
        <ele>1382.1</ele>
        <time>1970-01-01T00:13:11.000Z</time>
      </trkpt>
      <trkpt lat="42.77631" lon="0.58429">
        <ele>1382</ele>
        <time>1970-01-01T00:13:12.000Z</time>
      </trkpt>
      <trkpt lat="42.77632" lon="0.58427">
        <ele>1381.9</ele>
        <time>1970-01-01T00:13:14.000Z</time>
      </trkpt>
      <trkpt lat="42.77632" lon="0.58427">
        <ele>1381.9</ele>
        <time>1970-01-01T00:13:16.000Z</time>
      </trkpt>
      <trkpt lat="42.77631" lon="0.58426">
        <ele>1381.8</ele>
        <time>1970-01-01T00:13:18.000Z</time>
      </trkpt>
      <trkpt lat="42.77631" lon="0.58426">
        <ele>1381.8</ele>
        <time>1970-01-01T00:13:19.000Z</time>
      </trkpt>
      <trkpt lat="42.77631" lon="0.58426">
        <ele>1381.7</ele>
        <time>1970-01-01T00:13:20.000Z</time>
      </trkpt>
      <trkpt lat="42.7763" lon="0.58426">
        <ele>1381.7</ele>
        <time>1970-01-01T00:13:21.000Z</time>
      </trkpt>
      <trkpt lat="42.7763" lon="0.58427">
        <ele>1381.6</ele>
        <time>1970-01-01T00:13:22.000Z</time>
      </trkpt>
      <trkpt lat="42.77629" lon="0.58428">
        <ele>1381.5</ele>
        <time>1970-01-01T00:13:23.000Z</time>
      </trkpt>
      <trkpt lat="42.77629" lon="0.5843">
        <ele>1381.4</ele>
        <time>1970-01-01T00:13:25.000Z</time>
      </trkpt>
      <trkpt lat="42.77629" lon="0.5843">
        <ele>1381.4</ele>
        <time>1970-01-01T00:13:26.000Z</time>
      </trkpt>
      <trkpt lat="42.77629" lon="0.58431">
        <ele>1381.4</ele>
        <time>1970-01-01T00:13:27.000Z</time>
      </trkpt>
      <trkpt lat="42.77628" lon="0.58432">
        <ele>1381.3</ele>
        <time>1970-01-01T00:13:28.000Z</time>
      </trkpt>
      <trkpt lat="42.77627" lon="0.58434">
        <ele>1381.2</ele>
        <time>1970-01-01T00:13:29.000Z</time>
      </trkpt>
      <trkpt lat="42.77627" lon="0.58435">
        <ele>1381.1</ele>
        <time>1970-01-01T00:13:30.000Z</time>
      </trkpt>
      <trkpt lat="42.77626" lon="0.58437">
        <ele>1380.9</ele>
        <time>1970-01-01T00:13:31.000Z</time>
      </trkpt>
      <trkpt lat="42.77625" lon="0.58437">
        <ele>1380.9</ele>
        <time>1970-01-01T00:13:33.000Z</time>
      </trkpt>
      <trkpt lat="42.77625" lon="0.58436">
        <ele>1380.8</ele>
        <time>1970-01-01T00:13:34.000Z</time>
      </trkpt>
      <trkpt lat="42.77625" lon="0.58435">
        <ele>1380.8</ele>
        <time>1970-01-01T00:13:35.000Z</time>
      </trkpt>
      <trkpt lat="42.77626" lon="0.58434">
        <ele>1380.7</ele>
        <time>1970-01-01T00:13:36.000Z</time>
      </trkpt>
      <trkpt lat="42.77627" lon="0.58434">
        <ele>1380.6</ele>
        <time>1970-01-01T00:13:37.000Z</time>
      </trkpt>
      <trkpt lat="42.77628" lon="0.58433">
        <ele>1380.5</ele>
        <time>1970-01-01T00:13:38.000Z</time>
      </trkpt>
      <trkpt lat="42.77629" lon="0.58433">
        <ele>1380.4</ele>
        <time>1970-01-01T00:13:39.000Z</time>
      </trkpt>
      <trkpt lat="42.7763" lon="0.58432">
        <ele>1380.3</ele>
        <time>1970-01-01T00:13:41.000Z</time>
      </trkpt>
      <trkpt lat="42.77631" lon="0.58431">
        <ele>1380.2</ele>
        <time>1970-01-01T00:13:42.000Z</time>
      </trkpt>
      <trkpt lat="42.77631" lon="0.58429">
        <ele>1380.1</ele>
        <time>1970-01-01T00:13:43.000Z</time>
      </trkpt>
      <trkpt lat="42.77631" lon="0.58428">
        <ele>1380.1</ele>
        <time>1970-01-01T00:13:44.000Z</time>
      </trkpt>
      <trkpt lat="42.77631" lon="0.58427">
        <ele>1380</ele>
        <time>1970-01-01T00:13:45.000Z</time>
      </trkpt>
      <trkpt lat="42.77629" lon="0.58425">
        <ele>1379.8</ele>
        <time>1970-01-01T00:13:46.000Z</time>
      </trkpt>
      <trkpt lat="42.77628" lon="0.58423">
        <ele>1379.6</ele>
        <time>1970-01-01T00:13:48.000Z</time>
      </trkpt>
      <trkpt lat="42.77625" lon="0.5842">
        <ele>1379.3</ele>
        <time>1970-01-01T00:13:49.000Z</time>
      </trkpt>
      <trkpt lat="42.77623" lon="0.58419">
        <ele>1379.2</ele>
        <time>1970-01-01T00:13:50.000Z</time>
      </trkpt>
      <trkpt lat="42.77621" lon="0.58417">
        <ele>1379.8</ele>
        <time>1970-01-01T00:13:51.000Z</time>
      </trkpt>
      <trkpt lat="42.77619" lon="0.58414">
        <ele>1382</ele>
        <time>1970-01-01T00:13:52.000Z</time>
      </trkpt>
      <trkpt lat="42.77617" lon="0.58412">
        <ele>1384.7</ele>
        <time>1970-01-01T00:13:53.000Z</time>
      </trkpt>
      <trkpt lat="42.77614" lon="0.58408">
        <ele>1387.4</ele>
        <time>1970-01-01T00:13:54.000Z</time>
      </trkpt>
      <trkpt lat="42.77612" lon="0.58406">
        <ele>1388.1</ele>
        <time>1970-01-01T00:13:55.000Z</time>
      </trkpt>
      <trkpt lat="42.7761" lon="0.58401">
        <ele>1389.9</ele>
        <time>1970-01-01T00:13:57.000Z</time>
      </trkpt>
      <trkpt lat="42.77609" lon="0.584">
        <ele>1389.9</ele>
        <time>1970-01-01T00:13:58.000Z</time>
      </trkpt>
      <trkpt lat="42.77609" lon="0.58397">
        <ele>1392.3</ele>
        <time>1970-01-01T00:13:59.000Z</time>
      </trkpt>
      <trkpt lat="42.7761" lon="0.58393">
        <ele>1393.2</ele>
        <time>1970-01-01T00:14:01.000Z</time>
      </trkpt>
      <trkpt lat="42.77611" lon="0.58392">
        <ele>1393.2</ele>
        <time>1970-01-01T00:14:03.000Z</time>
      </trkpt>
      <trkpt lat="42.77611" lon="0.58392">
        <ele>1393.2</ele>
        <time>1970-01-01T00:14:04.000Z</time>
      </trkpt>
      <trkpt lat="42.77613" lon="0.58392">
        <ele>1392.5</ele>
        <time>1970-01-01T00:14:05.000Z</time>
      </trkpt>
      <trkpt lat="42.77613" lon="0.58393">
        <ele>1392.5</ele>
        <time>1970-01-01T00:14:06.000Z</time>
      </trkpt>
      <trkpt lat="42.77614" lon="0.58393">
        <ele>1392.5</ele>
        <time>1970-01-01T00:14:07.000Z</time>
      </trkpt>
      <trkpt lat="42.77614" lon="0.58393">
        <ele>1392.5</ele>
        <time>1970-01-01T00:14:09.000Z</time>
      </trkpt>
      <trkpt lat="42.77615" lon="0.58394">
        <ele>1392.5</ele>
        <time>1970-01-01T00:14:11.000Z</time>
      </trkpt>
      <trkpt lat="42.77615" lon="0.58394">
        <ele>1392.4</ele>
        <time>1970-01-01T00:14:12.000Z</time>
      </trkpt>
      <trkpt lat="42.77615" lon="0.58395">
        <ele>1392.4</ele>
        <time>1970-01-01T00:14:13.000Z</time>
      </trkpt>
      <trkpt lat="42.77617" lon="0.58396">
        <ele>1390.1</ele>
        <time>1970-01-01T00:14:15.000Z</time>
      </trkpt>
      <trkpt lat="42.77617" lon="0.58396">
        <ele>1390.1</ele>
        <time>1970-01-01T00:14:16.000Z</time>
      </trkpt>
      <trkpt lat="42.77618" lon="0.58398">
        <ele>1390.1</ele>
        <time>1970-01-01T00:14:18.000Z</time>
      </trkpt>
      <trkpt lat="42.77618" lon="0.58399">
        <ele>1388.3</ele>
        <time>1970-01-01T00:14:19.000Z</time>
      </trkpt>
      <trkpt lat="42.77618" lon="0.58404">
        <ele>1386.4</ele>
        <time>1970-01-01T00:14:20.000Z</time>
      </trkpt>
      <trkpt lat="42.77618" lon="0.58406">
        <ele>1386.4</ele>
        <time>1970-01-01T00:14:22.000Z</time>
      </trkpt>
      <trkpt lat="42.77618" lon="0.58409">
        <ele>1384.4</ele>
        <time>1970-01-01T00:14:23.000Z</time>
      </trkpt>
      <trkpt lat="42.77618" lon="0.58411">
        <ele>1384.4</ele>
        <time>1970-01-01T00:14:24.000Z</time>
      </trkpt>
      <trkpt lat="42.77619" lon="0.58418">
        <ele>1380.2</ele>
        <time>1970-01-01T00:14:26.000Z</time>
      </trkpt>
      <trkpt lat="42.77619" lon="0.58423">
        <ele>1377.4</ele>
        <time>1970-01-01T00:14:28.000Z</time>
      </trkpt>
      <trkpt lat="42.77619" lon="0.58424">
        <ele>1377.4</ele>
        <time>1970-01-01T00:14:29.000Z</time>
      </trkpt>
      <trkpt lat="42.77622" lon="0.58429">
        <ele>1372.6</ele>
        <time>1970-01-01T00:14:30.000Z</time>
      </trkpt>
      <trkpt lat="42.77624" lon="0.5844">
        <ele>1368.7</ele>
        <time>1970-01-01T00:14:31.000Z</time>
      </trkpt>
      <trkpt lat="42.77626" lon="0.58448">
        <ele>1363.9</ele>
        <time>1970-01-01T00:14:32.000Z</time>
      </trkpt>
      <trkpt lat="42.77628" lon="0.58461">
        <ele>1356.6</ele>
        <time>1970-01-01T00:14:34.000Z</time>
      </trkpt>
      <trkpt lat="42.77632" lon="0.58472">
        <ele>1351.3</ele>
        <time>1970-01-01T00:14:35.000Z</time>
      </trkpt>
      <trkpt lat="42.77628" lon="0.58463">
        <ele>1357.6</ele>
        <time>1970-01-01T00:14:37.000Z</time>
      </trkpt>
      <trkpt lat="42.77625" lon="0.58459">
        <ele>1360.6</ele>
        <time>1970-01-01T00:14:38.000Z</time>
      </trkpt>
      <trkpt lat="42.77623" lon="0.58457">
        <ele>1360.6</ele>
        <time>1970-01-01T00:14:39.000Z</time>
      </trkpt>
      <trkpt lat="42.77623" lon="0.58455">
        <ele>1360.6</ele>
        <time>1970-01-01T00:14:40.000Z</time>
      </trkpt>
      <trkpt lat="42.77621" lon="0.58463">
        <ele>1359.4</ele>
        <time>1970-01-01T00:14:42.000Z</time>
      </trkpt>
      <trkpt lat="42.7762" lon="0.58468">
        <ele>1357.3</ele>
        <time>1970-01-01T00:14:44.000Z</time>
      </trkpt>
      <trkpt lat="42.77619" lon="0.58473">
        <ele>1353.2</ele>
        <time>1970-01-01T00:14:45.000Z</time>
      </trkpt>
      <trkpt lat="42.77617" lon="0.58507">
        <ele>1339.6</ele>
        <time>1970-01-01T00:14:47.000Z</time>
      </trkpt>
      <trkpt lat="42.77616" lon="0.58539">
        <ele>1328.4</ele>
        <time>1970-01-01T00:14:49.000Z</time>
      </trkpt>
      <trkpt lat="42.77615" lon="0.58555">
        <ele>1323.6</ele>
        <time>1970-01-01T00:14:50.000Z</time>
      </trkpt>
      <trkpt lat="42.77615" lon="0.58572">
        <ele>1318.4</ele>
        <time>1970-01-01T00:14:52.000Z</time>
      </trkpt>
      <trkpt lat="42.77617" lon="0.5858">
        <ele>1314.6</ele>
        <time>1970-01-01T00:14:53.000Z</time>
      </trkpt>
      <trkpt lat="42.7762" lon="0.58586">
        <ele>1312</ele>
        <time>1970-01-01T00:14:54.000Z</time>
      </trkpt>
      <trkpt lat="42.77623" lon="0.5859">
        <ele>1309.5</ele>
        <time>1970-01-01T00:14:56.000Z</time>
      </trkpt>
      <trkpt lat="42.77627" lon="0.5859">
        <ele>1308.2</ele>
        <time>1970-01-01T00:14:57.000Z</time>
      </trkpt>
      <trkpt lat="42.77627" lon="0.58592">
        <ele>1308.2</ele>
        <time>1970-01-01T00:14:58.000Z</time>
      </trkpt>
      <trkpt lat="42.77627" lon="0.58593">
        <ele>1306.9</ele>
        <time>1970-01-01T00:14:59.000Z</time>
      </trkpt>
      <trkpt lat="42.77626" lon="0.58595">
        <ele>1306.9</ele>
        <time>1970-01-01T00:15:00.000Z</time>
      </trkpt>
      <trkpt lat="42.77626" lon="0.58599">
        <ele>1305.5</ele>
        <time>1970-01-01T00:15:02.000Z</time>
      </trkpt>
      <trkpt lat="42.77626" lon="0.58601">
        <ele>1305.5</ele>
        <time>1970-01-01T00:15:03.000Z</time>
      </trkpt>
      <trkpt lat="42.77627" lon="0.58606">
        <ele>1302.9</ele>
        <time>1970-01-01T00:15:05.000Z</time>
      </trkpt>
      <trkpt lat="42.77627" lon="0.58608">
        <ele>1302.9</ele>
        <time>1970-01-01T00:15:06.000Z</time>
      </trkpt>
      <trkpt lat="42.7763" lon="0.58609">
        <ele>1301.5</ele>
        <time>1970-01-01T00:15:07.000Z</time>
      </trkpt>
      <trkpt lat="42.7763" lon="0.58611">
        <ele>1300.2</ele>
        <time>1970-01-01T00:15:08.000Z</time>
      </trkpt>
      <trkpt lat="42.7763" lon="0.58613">
        <ele>1300</ele>
        <time>1970-01-01T00:15:10.000Z</time>
      </trkpt>
      <trkpt lat="42.77629" lon="0.58615">
        <ele>1299.7</ele>
        <time>1970-01-01T00:15:11.000Z</time>
      </trkpt>
      <trkpt lat="42.77629" lon="0.58616">
        <ele>1299.5</ele>
        <time>1970-01-01T00:15:12.000Z</time>
      </trkpt>
      <trkpt lat="42.77629" lon="0.58618">
        <ele>1299.3</ele>
        <time>1970-01-01T00:15:13.000Z</time>
      </trkpt>
      <trkpt lat="42.77626" lon="0.58623">
        <ele>1298.4</ele>
        <time>1970-01-01T00:15:15.000Z</time>
      </trkpt>
      <trkpt lat="42.77626" lon="0.58626">
        <ele>1298</ele>
        <time>1970-01-01T00:15:17.000Z</time>
      </trkpt>
      <trkpt lat="42.77625" lon="0.58627">
        <ele>1297.9</ele>
        <time>1970-01-01T00:15:18.000Z</time>
      </trkpt>
      <trkpt lat="42.77625" lon="0.58629">
        <ele>1297.7</ele>
        <time>1970-01-01T00:15:20.000Z</time>
      </trkpt>
      <trkpt lat="42.77625" lon="0.5863">
        <ele>1297.6</ele>
        <time>1970-01-01T00:15:21.000Z</time>
      </trkpt>
      <trkpt lat="42.77625" lon="0.58631">
        <ele>1297.3</ele>
        <time>1970-01-01T00:15:22.000Z</time>
      </trkpt>
      <trkpt lat="42.77624" lon="0.58633">
        <ele>1297.1</ele>
        <time>1970-01-01T00:15:24.000Z</time>
      </trkpt>
      <trkpt lat="42.77624" lon="0.58633">
        <ele>1297.1</ele>
        <time>1970-01-01T00:15:25.000Z</time>
      </trkpt>
      <trkpt lat="42.77623" lon="0.58633">
        <ele>1296.9</ele>
        <time>1970-01-01T00:15:27.000Z</time>
      </trkpt>
      <trkpt lat="42.77623" lon="0.58634">
        <ele>1296.9</ele>
        <time>1970-01-01T00:15:28.000Z</time>
      </trkpt>
      <trkpt lat="42.77623" lon="0.58634">
        <ele>1296.8</ele>
        <time>1970-01-01T00:15:29.000Z</time>
      </trkpt>
      <trkpt lat="42.77622" lon="0.58634">
        <ele>1296.8</ele>
        <time>1970-01-01T00:15:30.000Z</time>
      </trkpt>
      <trkpt lat="42.77622" lon="0.58634">
        <ele>1296.8</ele>
        <time>1970-01-01T00:15:31.000Z</time>
      </trkpt>
      <trkpt lat="42.77622" lon="0.58634">
        <ele>1296.7</ele>
        <time>1970-01-01T00:15:33.000Z</time>
      </trkpt>
      <trkpt lat="42.77628" lon="0.58643">
        <ele>1295.2</ele>
        <time>1970-01-01T00:16:01.000Z</time>
      </trkpt>
      <trkpt lat="42.77627" lon="0.58646">
        <ele>1294.7</ele>
        <time>1970-01-01T00:16:03.000Z</time>
      </trkpt>
      <trkpt lat="42.77626" lon="0.58646">
        <ele>1294.6</ele>
        <time>1970-01-01T00:16:04.000Z</time>
      </trkpt>
      <trkpt lat="42.77626" lon="0.58646">
        <ele>1294.6</ele>
        <time>1970-01-01T00:16:05.000Z</time>
      </trkpt>
      <trkpt lat="42.77627" lon="0.58647">
        <ele>1294.4</ele>
        <time>1970-01-01T00:16:07.000Z</time>
      </trkpt>
      <trkpt lat="42.77628" lon="0.58647">
        <ele>1294.2</ele>
        <time>1970-01-01T00:16:09.000Z</time>
      </trkpt>
      <trkpt lat="42.77629" lon="0.58647">
        <ele>1294.1</ele>
        <time>1970-01-01T00:16:10.000Z</time>
      </trkpt>
      <trkpt lat="42.77628" lon="0.58646">
        <ele>1293.9</ele>
        <time>1970-01-01T00:16:12.000Z</time>
      </trkpt>
      <trkpt lat="42.77627" lon="0.58646">
        <ele>1293.7</ele>
        <time>1970-01-01T00:16:14.000Z</time>
      </trkpt>
      <trkpt lat="42.77626" lon="0.58645">
        <ele>1293.5</ele>
        <time>1970-01-01T00:16:16.000Z</time>
      </trkpt>
      <trkpt lat="42.77625" lon="0.58644">
        <ele>1293.3</ele>
        <time>1970-01-01T00:16:17.000Z</time>
      </trkpt>
      <trkpt lat="42.77624" lon="0.58644">
        <ele>1293.1</ele>
        <time>1970-01-01T00:16:18.000Z</time>
      </trkpt>
      <trkpt lat="42.77623" lon="0.58643">
        <ele>1292.9</ele>
        <time>1970-01-01T00:16:19.000Z</time>
      </trkpt>
      <trkpt lat="42.77621" lon="0.58643">
        <ele>1292.6</ele>
        <time>1970-01-01T00:16:21.000Z</time>
      </trkpt>
      <trkpt lat="42.77618" lon="0.58644">
        <ele>1292.1</ele>
        <time>1970-01-01T00:16:22.000Z</time>
      </trkpt>
      <trkpt lat="42.77618" lon="0.58645">
        <ele>1292</ele>
        <time>1970-01-01T00:16:23.000Z</time>
      </trkpt>
      <trkpt lat="42.77615" lon="0.58646">
        <ele>1291.4</ele>
        <time>1970-01-01T00:16:25.000Z</time>
      </trkpt>
      <trkpt lat="42.77614" lon="0.58647">
        <ele>1291.2</ele>
        <time>1970-01-01T00:16:26.000Z</time>
      </trkpt>
      <trkpt lat="42.7761" lon="0.5865">
        <ele>1290.3</ele>
        <time>1970-01-01T00:16:27.000Z</time>
      </trkpt>
      <trkpt lat="42.77606" lon="0.58652">
        <ele>1289.6</ele>
        <time>1970-01-01T00:16:28.000Z</time>
      </trkpt>
      <trkpt lat="42.77599" lon="0.58656">
        <ele>1288.4</ele>
        <time>1970-01-01T00:16:30.000Z</time>
      </trkpt>
      <trkpt lat="42.77597" lon="0.5866">
        <ele>1287.8</ele>
        <time>1970-01-01T00:16:32.000Z</time>
      </trkpt>
      <trkpt lat="42.77593" lon="0.58662">
        <ele>1287</ele>
        <time>1970-01-01T00:16:33.000Z</time>
      </trkpt>
      <trkpt lat="42.7759" lon="0.58664">
        <ele>1286.4</ele>
        <time>1970-01-01T00:16:34.000Z</time>
      </trkpt>
      <trkpt lat="42.77589" lon="0.58665">
        <ele>1286.1</ele>
        <time>1970-01-01T00:16:35.000Z</time>
      </trkpt>
      <trkpt lat="42.77567" lon="0.58683">
        <ele>1281.6</ele>
        <time>1970-01-01T00:16:37.000Z</time>
      </trkpt>
      <trkpt lat="42.77544" lon="0.58697">
        <ele>1277.1</ele>
        <time>1970-01-01T00:16:39.000Z</time>
      </trkpt>
      <trkpt lat="42.77534" lon="0.58701">
        <ele>1275.3</ele>
        <time>1970-01-01T00:16:40.000Z</time>
      </trkpt>
      <trkpt lat="42.77524" lon="0.58705">
        <ele>1273.5</ele>
        <time>1970-01-01T00:16:41.000Z</time>
      </trkpt>
      <trkpt lat="42.77502" lon="0.58713">
        <ele>1269.5</ele>
        <time>1970-01-01T00:16:43.000Z</time>
      </trkpt>
      <trkpt lat="42.77492" lon="0.58714">
        <ele>1267.7</ele>
        <time>1970-01-01T00:16:44.000Z</time>
      </trkpt>
      <trkpt lat="42.77474" lon="0.5871">
        <ele>1266.1</ele>
        <time>1970-01-01T00:16:46.000Z</time>
      </trkpt>
      <trkpt lat="42.77466" lon="0.58708">
        <ele>1266.1</ele>
        <time>1970-01-01T00:16:48.000Z</time>
      </trkpt>
      <trkpt lat="42.77465" lon="0.58707">
        <ele>1266.2</ele>
        <time>1970-01-01T00:16:49.000Z</time>
      </trkpt>
      <trkpt lat="42.77467" lon="0.58709">
        <ele>1265</ele>
        <time>1970-01-01T00:16:51.000Z</time>
      </trkpt>
      <trkpt lat="42.77467" lon="0.58712">
        <ele>1265.2</ele>
        <time>1970-01-01T00:16:52.000Z</time>
      </trkpt>
      <trkpt lat="42.77465" lon="0.58717">
        <ele>1262.4</ele>
        <time>1970-01-01T00:16:54.000Z</time>
      </trkpt>
      <trkpt lat="42.7747" lon="0.58717">
        <ele>1264.8</ele>
        <time>1970-01-01T00:16:56.000Z</time>
      </trkpt>
      <trkpt lat="42.77471" lon="0.58716">
        <ele>1265.7</ele>
        <time>1970-01-01T00:16:58.000Z</time>
      </trkpt>
      <trkpt lat="42.77473" lon="0.58716">
        <ele>1265.8</ele>
        <time>1970-01-01T00:16:59.000Z</time>
      </trkpt>
      <trkpt lat="42.77473" lon="0.58716">
        <ele>1266</ele>
        <time>1970-01-01T00:17:00.000Z</time>
      </trkpt>
      <trkpt lat="42.77474" lon="0.58717">
        <ele>1266.1</ele>
        <time>1970-01-01T00:17:02.000Z</time>
      </trkpt>
      <trkpt lat="42.77475" lon="0.58717">
        <ele>1265.5</ele>
        <time>1970-01-01T00:17:04.000Z</time>
      </trkpt>
      <trkpt lat="42.77475" lon="0.58718">
        <ele>1265.6</ele>
        <time>1970-01-01T00:17:05.000Z</time>
      </trkpt>
      <trkpt lat="42.77476" lon="0.58719">
        <ele>1265.8</ele>
        <time>1970-01-01T00:17:07.000Z</time>
      </trkpt>
      <trkpt lat="42.77476" lon="0.58719">
        <ele>1265.9</ele>
        <time>1970-01-01T00:17:08.000Z</time>
      </trkpt>
      <trkpt lat="42.77479" lon="0.58722">
        <ele>1265.2</ele>
        <time>1970-01-01T00:17:09.000Z</time>
      </trkpt>
      <trkpt lat="42.77479" lon="0.58723">
        <ele>1265.3</ele>
        <time>1970-01-01T00:17:10.000Z</time>
      </trkpt>
      <trkpt lat="42.77479" lon="0.58724">
        <ele>1265.5</ele>
        <time>1970-01-01T00:17:12.000Z</time>
      </trkpt>
      <trkpt lat="42.77477" lon="0.58727">
        <ele>1264</ele>
        <time>1970-01-01T00:17:14.000Z</time>
      </trkpt>
      <trkpt lat="42.77477" lon="0.58727">
        <ele>1263.4</ele>
        <time>1970-01-01T00:17:15.000Z</time>
      </trkpt>
      <trkpt lat="42.77477" lon="0.58728">
        <ele>1263.6</ele>
        <time>1970-01-01T00:17:16.000Z</time>
      </trkpt>
      <trkpt lat="42.77477" lon="0.58729">
        <ele>1263.7</ele>
        <time>1970-01-01T00:17:17.000Z</time>
      </trkpt>
      <trkpt lat="42.77477" lon="0.58731">
        <ele>1262.2</ele>
        <time>1970-01-01T00:17:18.000Z</time>
      </trkpt>
      <trkpt lat="42.77476" lon="0.58748">
        <ele>1256.1</ele>
        <time>1970-01-01T00:17:20.000Z</time>
      </trkpt>
      <trkpt lat="42.77474" lon="0.58761">
        <ele>1251.6</ele>
        <time>1970-01-01T00:17:22.000Z</time>
      </trkpt>
      <trkpt lat="42.77477" lon="0.58755">
        <ele>1254.8</ele>
        <time>1970-01-01T00:17:23.000Z</time>
      </trkpt>
      <trkpt lat="42.77482" lon="0.58757">
        <ele>1254.6</ele>
        <time>1970-01-01T00:17:25.000Z</time>
      </trkpt>
      <trkpt lat="42.77482" lon="0.5876">
        <ele>1253.1</ele>
        <time>1970-01-01T00:17:27.000Z</time>
      </trkpt>
      <trkpt lat="42.77482" lon="0.58761">
        <ele>1253.3</ele>
        <time>1970-01-01T00:17:28.000Z</time>
      </trkpt>
      <trkpt lat="42.77483" lon="0.58764">
        <ele>1253.4</ele>
        <time>1970-01-01T00:17:29.000Z</time>
      </trkpt>
      <trkpt lat="42.77482" lon="0.58764">
        <ele>1251.9</ele>
        <time>1970-01-01T00:17:30.000Z</time>
      </trkpt>
      <trkpt lat="42.77481" lon="0.58765">
        <ele>1252</ele>
        <time>1970-01-01T00:17:32.000Z</time>
      </trkpt>
      <trkpt lat="42.77481" lon="0.58768">
        <ele>1252.1</ele>
        <time>1970-01-01T00:17:33.000Z</time>
      </trkpt>
      <trkpt lat="42.77481" lon="0.58776">
        <ele>1248.6</ele>
        <time>1970-01-01T00:17:35.000Z</time>
      </trkpt>
      <trkpt lat="42.77481" lon="0.5878">
        <ele>1246.9</ele>
        <time>1970-01-01T00:17:36.000Z</time>
      </trkpt>
      <trkpt lat="42.77483" lon="0.58788">
        <ele>1243.5</ele>
        <time>1970-01-01T00:17:38.000Z</time>
      </trkpt>
      <trkpt lat="42.77484" lon="0.58799">
        <ele>1239.2</ele>
        <time>1970-01-01T00:17:39.000Z</time>
      </trkpt>
      <trkpt lat="42.77488" lon="0.5882">
        <ele>1233.1</ele>
        <time>1970-01-01T00:17:41.000Z</time>
      </trkpt>
      <trkpt lat="42.77489" lon="0.58834">
        <ele>1226.7</ele>
        <time>1970-01-01T00:17:42.000Z</time>
      </trkpt>
      <trkpt lat="42.77491" lon="0.58846">
        <ele>1222.8</ele>
        <time>1970-01-01T00:17:43.000Z</time>
      </trkpt>
      <trkpt lat="42.77492" lon="0.5886">
        <ele>1218.3</ele>
        <time>1970-01-01T00:17:44.000Z</time>
      </trkpt>
      <trkpt lat="42.77493" lon="0.58872">
        <ele>1214</ele>
        <time>1970-01-01T00:17:46.000Z</time>
      </trkpt>
      <trkpt lat="42.77494" lon="0.58883">
        <ele>1211.3</ele>
        <time>1970-01-01T00:17:47.000Z</time>
      </trkpt>
      <trkpt lat="42.77495" lon="0.58897">
        <ele>1206.2</ele>
        <time>1970-01-01T00:17:49.000Z</time>
      </trkpt>
      <trkpt lat="42.77499" lon="0.58905">
        <ele>1205.3</ele>
        <time>1970-01-01T00:17:50.000Z</time>
      </trkpt>
      <trkpt lat="42.77505" lon="0.58911">
        <ele>1203</ele>
        <time>1970-01-01T00:17:51.000Z</time>
      </trkpt>
      <trkpt lat="42.77513" lon="0.58918">
        <ele>1201.8</ele>
        <time>1970-01-01T00:17:52.000Z</time>
      </trkpt>
      <trkpt lat="42.77521" lon="0.5892">
        <ele>1200</ele>
        <time>1970-01-01T00:17:53.000Z</time>
      </trkpt>
      <trkpt lat="42.77527" lon="0.5892">
        <ele>1199.9</ele>
        <time>1970-01-01T00:17:55.000Z</time>
      </trkpt>
      <trkpt lat="42.77531" lon="0.58919">
        <ele>1199.3</ele>
        <time>1970-01-01T00:17:56.000Z</time>
      </trkpt>
      <trkpt lat="42.77532" lon="0.58918">
        <ele>1201</ele>
        <time>1970-01-01T00:17:57.000Z</time>
      </trkpt>
      <trkpt lat="42.77535" lon="0.58918">
        <ele>1200.7</ele>
        <time>1970-01-01T00:17:58.000Z</time>
      </trkpt>
      <trkpt lat="42.77536" lon="0.58918">
        <ele>1200.9</ele>
        <time>1970-01-01T00:17:59.000Z</time>
      </trkpt>
      <trkpt lat="42.77547" lon="0.58923">
        <ele>1197.2</ele>
        <time>1970-01-01T00:18:01.000Z</time>
      </trkpt>
      <trkpt lat="42.77553" lon="0.58922">
        <ele>1195.8</ele>
        <time>1970-01-01T00:18:02.000Z</time>
      </trkpt>
      <trkpt lat="42.77557" lon="0.5892">
        <ele>1195.1</ele>
        <time>1970-01-01T00:18:03.000Z</time>
      </trkpt>
      <trkpt lat="42.77561" lon="0.58916">
        <ele>1195.9</ele>
        <time>1970-01-01T00:18:05.000Z</time>
      </trkpt>
      <trkpt lat="42.77565" lon="0.58912">
        <ele>1195.7</ele>
        <time>1970-01-01T00:18:06.000Z</time>
      </trkpt>
      <trkpt lat="42.77568" lon="0.58913">
        <ele>1195.9</ele>
        <time>1970-01-01T00:18:07.000Z</time>
      </trkpt>
      <trkpt lat="42.77571" lon="0.58913">
        <ele>1195</ele>
        <time>1970-01-01T00:18:09.000Z</time>
      </trkpt>
      <trkpt lat="42.77574" lon="0.58913">
        <ele>1194.1</ele>
        <time>1970-01-01T00:18:10.000Z</time>
      </trkpt>
      <trkpt lat="42.77581" lon="0.58914">
        <ele>1190.3</ele>
        <time>1970-01-01T00:18:11.000Z</time>
      </trkpt>
      <trkpt lat="42.77583" lon="0.58919">
        <ele>1187.4</ele>
        <time>1970-01-01T00:18:13.000Z</time>
      </trkpt>
      <trkpt lat="42.77583" lon="0.58921">
        <ele>1187.6</ele>
        <time>1970-01-01T00:18:14.000Z</time>
      </trkpt>
      <trkpt lat="42.77584" lon="0.58926">
        <ele>1184.7</ele>
        <time>1970-01-01T00:18:16.000Z</time>
      </trkpt>
      <trkpt lat="42.77596" lon="0.58925">
        <ele>1180.8</ele>
        <time>1970-01-01T00:18:17.000Z</time>
      </trkpt>
      <trkpt lat="42.77604" lon="0.58922">
        <ele>1179.2</ele>
        <time>1970-01-01T00:18:19.000Z</time>
      </trkpt>
      <trkpt lat="42.77624" lon="0.58918">
        <ele>1173.5</ele>
        <time>1970-01-01T00:18:20.000Z</time>
      </trkpt>
      <trkpt lat="42.77636" lon="0.58917">
        <ele>1168.7</ele>
        <time>1970-01-01T00:18:21.000Z</time>
      </trkpt>
      <trkpt lat="42.77642" lon="0.58914">
        <ele>1167.9</ele>
        <time>1970-01-01T00:18:23.000Z</time>
      </trkpt>
      <trkpt lat="42.77645" lon="0.58911">
        <ele>1166.7</ele>
        <time>1970-01-01T00:18:24.000Z</time>
      </trkpt>
      <trkpt lat="42.77647" lon="0.58912">
        <ele>1165.5</ele>
        <time>1970-01-01T00:18:26.000Z</time>
      </trkpt>
      <trkpt lat="42.77648" lon="0.58912">
        <ele>1165.7</ele>
        <time>1970-01-01T00:18:27.000Z</time>
      </trkpt>
      <trkpt lat="42.7765" lon="0.58912">
        <ele>1165.8</ele>
        <time>1970-01-01T00:18:28.000Z</time>
      </trkpt>
      <trkpt lat="42.77651" lon="0.58913">
        <ele>1164.7</ele>
        <time>1970-01-01T00:18:30.000Z</time>
      </trkpt>
      <trkpt lat="42.77652" lon="0.58913">
        <ele>1164.8</ele>
        <time>1970-01-01T00:18:31.000Z</time>
      </trkpt>
      <trkpt lat="42.77657" lon="0.58915">
        <ele>1160.4</ele>
        <time>1970-01-01T00:18:33.000Z</time>
      </trkpt>
      <trkpt lat="42.7766" lon="0.58917">
        <ele>1160.5</ele>
        <time>1970-01-01T00:18:34.000Z</time>
      </trkpt>
      <trkpt lat="42.77662" lon="0.58918">
        <ele>1159.1</ele>
        <time>1970-01-01T00:18:35.000Z</time>
      </trkpt>
      <trkpt lat="42.77666" lon="0.5892">
        <ele>1155.8</ele>
        <time>1970-01-01T00:18:37.000Z</time>
      </trkpt>
      <trkpt lat="42.77667" lon="0.5892">
        <ele>1154.4</ele>
        <time>1970-01-01T00:18:38.000Z</time>
      </trkpt>
      <trkpt lat="42.77671" lon="0.58922">
        <ele>1153</ele>
        <time>1970-01-01T00:18:39.000Z</time>
      </trkpt>
      <trkpt lat="42.77672" lon="0.58922">
        <ele>1153.1</ele>
        <time>1970-01-01T00:18:40.000Z</time>
      </trkpt>
      <trkpt lat="42.77676" lon="0.58924">
        <ele>1148.8</ele>
        <time>1970-01-01T00:18:42.000Z</time>
      </trkpt>
      <trkpt lat="42.77679" lon="0.58925">
        <ele>1147.5</ele>
        <time>1970-01-01T00:18:43.000Z</time>
      </trkpt>
      <trkpt lat="42.77682" lon="0.5893">
        <ele>1146.2</ele>
        <time>1970-01-01T00:18:45.000Z</time>
      </trkpt>
      <trkpt lat="42.77685" lon="0.58932">
        <ele>1143.5</ele>
        <time>1970-01-01T00:18:47.000Z</time>
      </trkpt>
      <trkpt lat="42.77688" lon="0.58931">
        <ele>1142.2</ele>
        <time>1970-01-01T00:18:49.000Z</time>
      </trkpt>
      <trkpt lat="42.77691" lon="0.58931">
        <ele>1142.3</ele>
        <time>1970-01-01T00:18:50.000Z</time>
      </trkpt>
      <trkpt lat="42.77693" lon="0.58932">
        <ele>1139.6</ele>
        <time>1970-01-01T00:18:51.000Z</time>
      </trkpt>
      <trkpt lat="42.77694" lon="0.58934">
        <ele>1139.8</ele>
        <time>1970-01-01T00:18:52.000Z</time>
      </trkpt>
      <trkpt lat="42.77697" lon="0.58939">
        <ele>1137.1</ele>
        <time>1970-01-01T00:18:54.000Z</time>
      </trkpt>
      <trkpt lat="42.77697" lon="0.58941">
        <ele>1135.8</ele>
        <time>1970-01-01T00:18:55.000Z</time>
      </trkpt>
      <trkpt lat="42.77702" lon="0.58941">
        <ele>1133</ele>
        <time>1970-01-01T00:18:56.000Z</time>
      </trkpt>
      <trkpt lat="42.77704" lon="0.58939">
        <ele>1133.1</ele>
        <time>1970-01-01T00:18:57.000Z</time>
      </trkpt>
      <trkpt lat="42.77708" lon="0.58937">
        <ele>1131.8</ele>
        <time>1970-01-01T00:18:59.000Z</time>
      </trkpt>
      <trkpt lat="42.77715" lon="0.58935">
        <ele>1130.5</ele>
        <time>1970-01-01T00:19:00.000Z</time>
      </trkpt>
      <trkpt lat="42.77717" lon="0.58938">
        <ele>1127.9</ele>
        <time>1970-01-01T00:19:01.000Z</time>
      </trkpt>
      <trkpt lat="42.77718" lon="0.58938">
        <ele>1128</ele>
        <time>1970-01-01T00:19:02.000Z</time>
      </trkpt>
      <trkpt lat="42.7773" lon="0.58943">
        <ele>1120.6</ele>
        <time>1970-01-01T00:19:04.000Z</time>
      </trkpt>
      <trkpt lat="42.77738" lon="0.58946">
        <ele>1116.6</ele>
        <time>1970-01-01T00:19:05.000Z</time>
      </trkpt>
      <trkpt lat="42.77754" lon="0.58954">
        <ele>1105.3</ele>
        <time>1970-01-01T00:19:07.000Z</time>
      </trkpt>
      <trkpt lat="42.77744" lon="0.58949">
        <ele>1113</ele>
        <time>1970-01-01T00:19:08.000Z</time>
      </trkpt>
      <trkpt lat="42.77735" lon="0.58944">
        <ele>1119.6</ele>
        <time>1970-01-01T00:19:10.000Z</time>
      </trkpt>
      <trkpt lat="42.77732" lon="0.58939">
        <ele>1122.4</ele>
        <time>1970-01-01T00:19:12.000Z</time>
      </trkpt>
      <trkpt lat="42.77747" lon="0.58958">
        <ele>1109.6</ele>
        <time>1970-01-01T00:19:13.000Z</time>
      </trkpt>
      <trkpt lat="42.77761" lon="0.58979">
        <ele>1096.5</ele>
        <time>1970-01-01T00:19:15.000Z</time>
      </trkpt>
      <trkpt lat="42.77775" lon="0.58999">
        <ele>1086.5</ele>
        <time>1970-01-01T00:19:17.000Z</time>
      </trkpt>
      <trkpt lat="42.77778" lon="0.59001">
        <ele>1083.8</ele>
        <time>1970-01-01T00:19:18.000Z</time>
      </trkpt>
      <trkpt lat="42.77782" lon="0.58997">
        <ele>1083.4</ele>
        <time>1970-01-01T00:19:20.000Z</time>
      </trkpt>
      <trkpt lat="42.77784" lon="0.58993">
        <ele>1083.1</ele>
        <time>1970-01-01T00:19:22.000Z</time>
      </trkpt>
      <trkpt lat="42.77785" lon="0.58992">
        <ele>1083.3</ele>
        <time>1970-01-01T00:19:23.000Z</time>
      </trkpt>
      <trkpt lat="42.77785" lon="0.58994">
        <ele>1083.4</ele>
        <time>1970-01-01T00:19:25.000Z</time>
      </trkpt>
      <trkpt lat="42.77785" lon="0.58996">
        <ele>1082.4</ele>
        <time>1970-01-01T00:19:27.000Z</time>
      </trkpt>
      <trkpt lat="42.77787" lon="0.58999">
        <ele>1081.1</ele>
        <time>1970-01-01T00:19:29.000Z</time>
      </trkpt>
      <trkpt lat="42.77788" lon="0.59">
        <ele>1081.3</ele>
        <time>1970-01-01T00:19:30.000Z</time>
      </trkpt>
      <trkpt lat="42.77789" lon="0.59001">
        <ele>1080.3</ele>
        <time>1970-01-01T00:19:32.000Z</time>
      </trkpt>
      <trkpt lat="42.77789" lon="0.59001">
        <ele>1080.5</ele>
        <time>1970-01-01T00:19:33.000Z</time>
      </trkpt>
      <trkpt lat="42.77789" lon="0.59001">
        <ele>1079.2</ele>
        <time>1970-01-01T00:19:34.000Z</time>
      </trkpt>
      <trkpt lat="42.77789" lon="0.59001">
        <ele>1079.4</ele>
        <time>1970-01-01T00:19:35.000Z</time>
      </trkpt>
      <trkpt lat="42.7779" lon="0.59001">
        <ele>1079.5</ele>
        <time>1970-01-01T00:19:36.000Z</time>
      </trkpt>
      <trkpt lat="42.7779" lon="0.59002">
        <ele>1079.6</ele>
        <time>1970-01-01T00:19:38.000Z</time>
      </trkpt>
      <trkpt lat="42.7779" lon="0.59001">
        <ele>1079.8</ele>
        <time>1970-01-01T00:19:40.000Z</time>
      </trkpt>
      <trkpt lat="42.77793" lon="0.59002">
        <ele>1078.5</ele>
        <time>1970-01-01T00:19:42.000Z</time>
      </trkpt>
      <trkpt lat="42.77793" lon="0.59004">
        <ele>1078.6</ele>
        <time>1970-01-01T00:19:44.000Z</time>
      </trkpt>
      <trkpt lat="42.77793" lon="0.59004">
        <ele>1078.8</ele>
        <time>1970-01-01T00:19:46.000Z</time>
      </trkpt>
      <trkpt lat="42.77794" lon="0.59004">
        <ele>1078.9</ele>
        <time>1970-01-01T00:19:47.000Z</time>
      </trkpt>
      <trkpt lat="42.77795" lon="0.59003">
        <ele>1079</ele>
        <time>1970-01-01T00:19:49.000Z</time>
      </trkpt>
      <trkpt lat="42.77795" lon="0.59004">
        <ele>1079.2</ele>
        <time>1970-01-01T00:19:50.000Z</time>
      </trkpt>
      <trkpt lat="42.77794" lon="0.59006">
        <ele>1078.3</ele>
        <time>1970-01-01T00:19:52.000Z</time>
      </trkpt>
      <trkpt lat="42.77794" lon="0.59006">
        <ele>1078.4</ele>
        <time>1970-01-01T00:19:53.000Z</time>
      </trkpt>
      <trkpt lat="42.77794" lon="0.59006">
        <ele>1078.6</ele>
        <time>1970-01-01T00:19:54.000Z</time>
      </trkpt>
      <trkpt lat="42.77794" lon="0.59004">
        <ele>1079.7</ele>
        <time>1970-01-01T00:19:56.000Z</time>
      </trkpt>
      <trkpt lat="42.77791" lon="0.59007">
        <ele>1080.2</ele>
        <time>1970-01-01T00:19:57.000Z</time>
      </trkpt>
      <trkpt lat="42.77791" lon="0.59009">
        <ele>1079.3</ele>
        <time>1970-01-01T00:19:59.000Z</time>
      </trkpt>
      <trkpt lat="42.77791" lon="0.5901">
        <ele>1079.5</ele>
        <time>1970-01-01T00:20:01.000Z</time>
      </trkpt>
      <trkpt lat="42.77791" lon="0.5901">
        <ele>1079.6</ele>
        <time>1970-01-01T00:20:02.000Z</time>
      </trkpt>
      <trkpt lat="42.77791" lon="0.5901">
        <ele>1079.8</ele>
        <time>1970-01-01T00:20:03.000Z</time>
      </trkpt>
      <trkpt lat="42.77791" lon="0.5901">
        <ele>1079.9</ele>
        <time>1970-01-01T00:20:04.000Z</time>
      </trkpt>
      <trkpt lat="42.77792" lon="0.59012">
        <ele>1080</ele>
        <time>1970-01-01T00:20:05.000Z</time>
      </trkpt>
      <trkpt lat="42.77792" lon="0.59011">
        <ele>1078.8</ele>
        <time>1970-01-01T00:20:06.000Z</time>
      </trkpt>
      <trkpt lat="42.77793" lon="0.59013">
        <ele>1078.9</ele>
        <time>1970-01-01T00:20:08.000Z</time>
      </trkpt>
      <trkpt lat="42.77793" lon="0.59013">
        <ele>1078.1</ele>
        <time>1970-01-01T00:20:10.000Z</time>
      </trkpt>
      <trkpt lat="42.77792" lon="0.59013">
        <ele>1078.3</ele>
        <time>1970-01-01T00:20:11.000Z</time>
      </trkpt>
      <trkpt lat="42.77792" lon="0.59012">
        <ele>1079.3</ele>
        <time>1970-01-01T00:20:13.000Z</time>
      </trkpt>
      <trkpt lat="42.77792" lon="0.5901">
        <ele>1079.5</ele>
        <time>1970-01-01T00:20:14.000Z</time>
      </trkpt>
      <trkpt lat="42.77792" lon="0.59008">
        <ele>1080.6</ele>
        <time>1970-01-01T00:20:15.000Z</time>
      </trkpt>
      <trkpt lat="42.77792" lon="0.59002">
        <ele>1081.7</ele>
        <time>1970-01-01T00:20:16.000Z</time>
      </trkpt>
      <trkpt lat="42.77792" lon="0.59">
        <ele>1082.9</ele>
        <time>1970-01-01T00:20:17.000Z</time>
      </trkpt>
      <trkpt lat="42.77793" lon="0.58994">
        <ele>1084.1</ele>
        <time>1970-01-01T00:20:18.000Z</time>
      </trkpt>
      <trkpt lat="42.77792" lon="0.58974">
        <ele>1089</ele>
        <time>1970-01-01T00:20:20.000Z</time>
      </trkpt>
      <trkpt lat="42.7779" lon="0.58951">
        <ele>1096.2</ele>
        <time>1970-01-01T00:20:22.000Z</time>
      </trkpt>
      <trkpt lat="42.77789" lon="0.5894">
        <ele>1099.6</ele>
        <time>1970-01-01T00:20:23.000Z</time>
      </trkpt>
      <trkpt lat="42.77789" lon="0.58922">
        <ele>1105.4</ele>
        <time>1970-01-01T00:20:25.000Z</time>
      </trkpt>
      <trkpt lat="42.77795" lon="0.58915">
        <ele>1103.8</ele>
        <time>1970-01-01T00:20:26.000Z</time>
      </trkpt>
      <trkpt lat="42.77815" lon="0.58902">
        <ele>1095.7</ele>
        <time>1970-01-01T00:20:28.000Z</time>
      </trkpt>
      <trkpt lat="42.77833" lon="0.58887">
        <ele>1089.4</ele>
        <time>1970-01-01T00:20:30.000Z</time>
      </trkpt>
      <trkpt lat="42.77848" lon="0.5887">
        <ele>1083.9</ele>
        <time>1970-01-01T00:20:32.000Z</time>
      </trkpt>
      <trkpt lat="42.77853" lon="0.58861">
        <ele>1081.4</ele>
        <time>1970-01-01T00:20:33.000Z</time>
      </trkpt>
      <trkpt lat="42.77857" lon="0.58853">
        <ele>1079.4</ele>
        <time>1970-01-01T00:20:34.000Z</time>
      </trkpt>
      <trkpt lat="42.77862" lon="0.58848">
        <ele>1077.7</ele>
        <time>1970-01-01T00:20:35.000Z</time>
      </trkpt>
      <trkpt lat="42.77866" lon="0.58846">
        <ele>1076.5</ele>
        <time>1970-01-01T00:20:36.000Z</time>
      </trkpt>
      <trkpt lat="42.77869" lon="0.58843">
        <ele>1075.4</ele>
        <time>1970-01-01T00:20:37.000Z</time>
      </trkpt>
      <trkpt lat="42.7787" lon="0.5884">
        <ele>1074.6</ele>
        <time>1970-01-01T00:20:38.000Z</time>
      </trkpt>
      <trkpt lat="42.77871" lon="0.58837">
        <ele>1073.9</ele>
        <time>1970-01-01T00:20:40.000Z</time>
      </trkpt>
      <trkpt lat="42.77871" lon="0.58835">
        <ele>1073.3</ele>
        <time>1970-01-01T00:20:41.000Z</time>
      </trkpt>
      <trkpt lat="42.77874" lon="0.58832">
        <ele>1072.2</ele>
        <time>1970-01-01T00:20:43.000Z</time>
      </trkpt>
      <trkpt lat="42.77874" lon="0.58832">
        <ele>1072.1</ele>
        <time>1970-01-01T00:20:44.000Z</time>
      </trkpt>
      <trkpt lat="42.77875" lon="0.58833">
        <ele>1071.8</ele>
        <time>1970-01-01T00:20:46.000Z</time>
      </trkpt>
      <trkpt lat="42.77876" lon="0.58836">
        <ele>1070.8</ele>
        <time>1970-01-01T00:20:48.000Z</time>
      </trkpt>
      <trkpt lat="42.77877" lon="0.58838">
        <ele>1070.3</ele>
        <time>1970-01-01T00:20:50.000Z</time>
      </trkpt>
      <trkpt lat="42.77878" lon="0.58839">
        <ele>1070</ele>
        <time>1970-01-01T00:20:52.000Z</time>
      </trkpt>
      <trkpt lat="42.77878" lon="0.5884">
        <ele>1069.8</ele>
        <time>1970-01-01T00:20:53.000Z</time>
      </trkpt>
      <trkpt lat="42.77879" lon="0.5884">
        <ele>1069.3</ele>
        <time>1970-01-01T00:20:54.000Z</time>
      </trkpt>
      <trkpt lat="42.77882" lon="0.58841">
        <ele>1068.6</ele>
        <time>1970-01-01T00:20:56.000Z</time>
      </trkpt>
      <trkpt lat="42.77886" lon="0.58842">
        <ele>1067.2</ele>
        <time>1970-01-01T00:20:57.000Z</time>
      </trkpt>
      <trkpt lat="42.77889" lon="0.58841">
        <ele>1066.1</ele>
        <time>1970-01-01T00:20:58.000Z</time>
      </trkpt>
      <trkpt lat="42.77893" lon="0.5884">
        <ele>1064.6</ele>
        <time>1970-01-01T00:21:00.000Z</time>
      </trkpt>
      <trkpt lat="42.77897" lon="0.58838">
        <ele>1063.5</ele>
        <time>1970-01-01T00:21:01.000Z</time>
      </trkpt>
      <trkpt lat="42.77904" lon="0.58834">
        <ele>1060.9</ele>
        <time>1970-01-01T00:21:03.000Z</time>
      </trkpt>
      <trkpt lat="42.77907" lon="0.58833">
        <ele>1059.8</ele>
        <time>1970-01-01T00:21:05.000Z</time>
      </trkpt>
      <trkpt lat="42.77908" lon="0.58832">
        <ele>1059.4</ele>
        <time>1970-01-01T00:21:07.000Z</time>
      </trkpt>
      <trkpt lat="42.77909" lon="0.58832">
        <ele>1059</ele>
        <time>1970-01-01T00:21:08.000Z</time>
      </trkpt>
      <trkpt lat="42.7791" lon="0.58831">
        <ele>1058.7</ele>
        <time>1970-01-01T00:21:09.000Z</time>
      </trkpt>
      <trkpt lat="42.77911" lon="0.58829">
        <ele>1058</ele>
        <time>1970-01-01T00:21:11.000Z</time>
      </trkpt>
      <trkpt lat="42.77914" lon="0.58829">
        <ele>1057.2</ele>
        <time>1970-01-01T00:21:13.000Z</time>
      </trkpt>
      <trkpt lat="42.77917" lon="0.58828">
        <ele>1056</ele>
        <time>1970-01-01T00:21:14.000Z</time>
      </trkpt>
      <trkpt lat="42.77919" lon="0.58828">
        <ele>1055.7</ele>
        <time>1970-01-01T00:21:15.000Z</time>
      </trkpt>
      <trkpt lat="42.77922" lon="0.58828">
        <ele>1054.7</ele>
        <time>1970-01-01T00:21:16.000Z</time>
      </trkpt>
      <trkpt lat="42.77928" lon="0.5883">
        <ele>1052.4</ele>
        <time>1970-01-01T00:21:18.000Z</time>
      </trkpt>
      <trkpt lat="42.77936" lon="0.58832">
        <ele>1049.8</ele>
        <time>1970-01-01T00:21:19.000Z</time>
      </trkpt>
      <trkpt lat="42.77943" lon="0.58834">
        <ele>1047.3</ele>
        <time>1970-01-01T00:21:21.000Z</time>
      </trkpt>
      <trkpt lat="42.77942" lon="0.58833">
        <ele>1046.7</ele>
        <time>1970-01-01T00:21:22.000Z</time>
      </trkpt>
      <trkpt lat="42.77941" lon="0.58832">
        <ele>1046.4</ele>
        <time>1970-01-01T00:21:24.000Z</time>
      </trkpt>
      <trkpt lat="42.77941" lon="0.58832">
        <ele>1046.2</ele>
        <time>1970-01-01T00:21:25.000Z</time>
      </trkpt>
      <trkpt lat="42.77942" lon="0.58832">
        <ele>1045.8</ele>
        <time>1970-01-01T00:21:26.000Z</time>
      </trkpt>
      <trkpt lat="42.77945" lon="0.58834">
        <ele>1044.7</ele>
        <time>1970-01-01T00:21:28.000Z</time>
      </trkpt>
      <trkpt lat="42.77948" lon="0.58836">
        <ele>1043.7</ele>
        <time>1970-01-01T00:21:29.000Z</time>
      </trkpt>
      <trkpt lat="42.77948" lon="0.58837">
        <ele>1043.4</ele>
        <time>1970-01-01T00:21:30.000Z</time>
      </trkpt>
      <trkpt lat="42.7795" lon="0.58842">
        <ele>1042</ele>
        <time>1970-01-01T00:21:32.000Z</time>
      </trkpt>
      <trkpt lat="42.77953" lon="0.58843">
        <ele>1041.2</ele>
        <time>1970-01-01T00:21:33.000Z</time>
      </trkpt>
      <trkpt lat="42.77957" lon="0.58843">
        <ele>1039.9</ele>
        <time>1970-01-01T00:21:35.000Z</time>
      </trkpt>
      <trkpt lat="42.77959" lon="0.58845">
        <ele>1039</ele>
        <time>1970-01-01T00:21:36.000Z</time>
      </trkpt>
      <trkpt lat="42.77962" lon="0.58848">
        <ele>1037.7</ele>
        <time>1970-01-01T00:21:38.000Z</time>
      </trkpt>
      <trkpt lat="42.77966" lon="0.58851">
        <ele>1036.4</ele>
        <time>1970-01-01T00:21:39.000Z</time>
      </trkpt>
      <trkpt lat="42.77977" lon="0.58856">
        <ele>1032.5</ele>
        <time>1970-01-01T00:21:41.000Z</time>
      </trkpt>
      <trkpt lat="42.77985" lon="0.5886">
        <ele>1029.5</ele>
        <time>1970-01-01T00:21:42.000Z</time>
      </trkpt>
      <trkpt lat="42.77993" lon="0.58865">
        <ele>1026.5</ele>
        <time>1970-01-01T00:21:43.000Z</time>
      </trkpt>
      <trkpt lat="42.78002" lon="0.58869">
        <ele>1023.5</ele>
        <time>1970-01-01T00:21:45.000Z</time>
      </trkpt>
      <trkpt lat="42.77997" lon="0.58862">
        <ele>1021.3</ele>
        <time>1970-01-01T00:21:47.000Z</time>
      </trkpt>
      <trkpt lat="42.77986" lon="0.58857">
        <ele>1017.4</ele>
        <time>1970-01-01T00:21:48.000Z</time>
      </trkpt>
      <trkpt lat="42.77983" lon="0.58856">
        <ele>1016.1</ele>
        <time>1970-01-01T00:21:49.000Z</time>
      </trkpt>
      <trkpt lat="42.77988" lon="0.58864">
        <ele>1013.4</ele>
        <time>1970-01-01T00:21:50.000Z</time>
      </trkpt>
      <trkpt lat="42.77995" lon="0.58872">
        <ele>1010.3</ele>
        <time>1970-01-01T00:21:52.000Z</time>
      </trkpt>
      <trkpt lat="42.78001" lon="0.58881">
        <ele>1007.3</ele>
        <time>1970-01-01T00:21:54.000Z</time>
      </trkpt>
      <trkpt lat="42.78008" lon="0.5889">
        <ele>1004.3</ele>
        <time>1970-01-01T00:21:55.000Z</time>
      </trkpt>
      <trkpt lat="42.78014" lon="0.58898">
        <ele>1001.2</ele>
        <time>1970-01-01T00:21:57.000Z</time>
      </trkpt>
      <trkpt lat="42.78019" lon="0.58906">
        <ele>998.8</ele>
        <time>1970-01-01T00:21:59.000Z</time>
      </trkpt>
      <trkpt lat="42.78021" lon="0.58908">
        <ele>998.1</ele>
        <time>1970-01-01T00:22:00.000Z</time>
      </trkpt>
      <trkpt lat="42.78022" lon="0.58911">
        <ele>997.2</ele>
        <time>1970-01-01T00:22:02.000Z</time>
      </trkpt>
      <trkpt lat="42.78023" lon="0.58912">
        <ele>996.9</ele>
        <time>1970-01-01T00:22:03.000Z</time>
      </trkpt>
      <trkpt lat="42.78023" lon="0.58912">
        <ele>996.8</ele>
        <time>1970-01-01T00:22:04.000Z</time>
      </trkpt>
      <trkpt lat="42.78024" lon="0.58913">
        <ele>996.6</ele>
        <time>1970-01-01T00:22:06.000Z</time>
      </trkpt>
      <trkpt lat="42.78024" lon="0.58914">
        <ele>996.4</ele>
        <time>1970-01-01T00:22:08.000Z</time>
      </trkpt>
      <trkpt lat="42.78024" lon="0.58914">
        <ele>996.2</ele>
        <time>1970-01-01T00:22:09.000Z</time>
      </trkpt>
      <trkpt lat="42.78024" lon="0.58915">
        <ele>996.1</ele>
        <time>1970-01-01T00:22:11.000Z</time>
      </trkpt>
      <trkpt lat="42.78024" lon="0.58915">
        <ele>996.1</ele>
        <time>1970-01-01T00:22:12.000Z</time>
      </trkpt>
      <trkpt lat="42.78024" lon="0.58915">
        <ele>996</ele>
        <time>1970-01-01T00:22:14.000Z</time>
      </trkpt>
      <trkpt lat="42.78024" lon="0.58915">
        <ele>995.9</ele>
        <time>1970-01-01T00:22:16.000Z</time>
      </trkpt>
      <trkpt lat="42.78025" lon="0.58915">
        <ele>995.9</ele>
        <time>1970-01-01T00:22:22.000Z</time>
      </trkpt>
      <trkpt lat="42.78025" lon="0.58915">
        <ele>995.8</ele>
        <time>1970-01-01T00:22:24.000Z</time>
      </trkpt>
      <trkpt lat="42.78025" lon="0.58915">
        <ele>995.8</ele>
        <time>1970-01-01T00:22:25.000Z</time>
      </trkpt>
      <trkpt lat="42.78025" lon="0.58915">
        <ele>995.7</ele>
        <time>1970-01-01T00:22:27.000Z</time>
      </trkpt>
      <trkpt lat="42.78025" lon="0.58915">
        <ele>995.6</ele>
        <time>1970-01-01T00:22:28.000Z</time>
      </trkpt>
      <trkpt lat="42.78027" lon="0.58915">
        <ele>995.1</ele>
        <time>1970-01-01T00:22:29.000Z</time>
      </trkpt>
      <trkpt lat="42.78028" lon="0.58914">
        <ele>994.5</ele>
        <time>1970-01-01T00:22:30.000Z</time>
      </trkpt>
      <trkpt lat="42.78032" lon="0.58913">
        <ele>993.3</ele>
        <time>1970-01-01T00:22:32.000Z</time>
      </trkpt>
      <trkpt lat="42.78033" lon="0.58913">
        <ele>992.8</ele>
        <time>1970-01-01T00:22:33.000Z</time>
      </trkpt>
      <trkpt lat="42.78037" lon="0.58916">
        <ele>991.6</ele>
        <time>1970-01-01T00:22:35.000Z</time>
      </trkpt>
      <trkpt lat="42.78038" lon="0.58916">
        <ele>991.1</ele>
        <time>1970-01-01T00:22:36.000Z</time>
      </trkpt>
      <trkpt lat="42.78042" lon="0.58916">
        <ele>989.8</ele>
        <time>1970-01-01T00:22:37.000Z</time>
      </trkpt>
      <trkpt lat="42.78047" lon="0.58912">
        <ele>987.8</ele>
        <time>1970-01-01T00:22:38.000Z</time>
      </trkpt>
      <trkpt lat="42.78051" lon="0.58913">
        <ele>986.5</ele>
        <time>1970-01-01T00:22:40.000Z</time>
      </trkpt>
      <trkpt lat="42.78053" lon="0.58917">
        <ele>985.4</ele>
        <time>1970-01-01T00:22:41.000Z</time>
      </trkpt>
      <trkpt lat="42.78053" lon="0.58918">
        <ele>985.1</ele>
        <time>1970-01-01T00:22:42.000Z</time>
      </trkpt>
      <trkpt lat="42.78058" lon="0.5892">
        <ele>983.3</ele>
        <time>1970-01-01T00:22:44.000Z</time>
      </trkpt>
      <trkpt lat="42.78061" lon="0.5892">
        <ele>982.4</ele>
        <time>1970-01-01T00:22:45.000Z</time>
      </trkpt>
      <trkpt lat="42.78067" lon="0.58915">
        <ele>980.3</ele>
        <time>1970-01-01T00:22:46.000Z</time>
      </trkpt>
      <trkpt lat="42.7807" lon="0.58911">
        <ele>978.7</ele>
        <time>1970-01-01T00:22:48.000Z</time>
      </trkpt>
      <trkpt lat="42.78075" lon="0.58907">
        <ele>976.8</ele>
        <time>1970-01-01T00:22:49.000Z</time>
      </trkpt>
      <trkpt lat="42.7808" lon="0.58911">
        <ele>974.7</ele>
        <time>1970-01-01T00:22:51.000Z</time>
      </trkpt>
      <trkpt lat="42.78085" lon="0.58918">
        <ele>972.5</ele>
        <time>1970-01-01T00:22:52.000Z</time>
      </trkpt>
      <trkpt lat="42.78089" lon="0.58925">
        <ele>970.2</ele>
        <time>1970-01-01T00:22:54.000Z</time>
      </trkpt>
      <trkpt lat="42.78091" lon="0.5893">
        <ele>968.8</ele>
        <time>1970-01-01T00:22:55.000Z</time>
      </trkpt>
      <trkpt lat="42.78091" lon="0.58935">
        <ele>967.6</ele>
        <time>1970-01-01T00:22:57.000Z</time>
      </trkpt>
      <trkpt lat="42.78092" lon="0.5894">
        <ele>966.3</ele>
        <time>1970-01-01T00:22:59.000Z</time>
      </trkpt>
      <trkpt lat="42.78093" lon="0.58942">
        <ele>965.8</ele>
        <time>1970-01-01T00:23:00.000Z</time>
      </trkpt>
      <trkpt lat="42.78093" lon="0.58944">
        <ele>965.3</ele>
        <time>1970-01-01T00:23:02.000Z</time>
      </trkpt>
      <trkpt lat="42.78094" lon="0.58946">
        <ele>964.8</ele>
        <time>1970-01-01T00:23:03.000Z</time>
      </trkpt>
      <trkpt lat="42.78095" lon="0.58947">
        <ele>964.3</ele>
        <time>1970-01-01T00:23:04.000Z</time>
      </trkpt>
      <trkpt lat="42.78095" lon="0.58949">
        <ele>963.9</ele>
        <time>1970-01-01T00:23:06.000Z</time>
      </trkpt>
      <trkpt lat="42.78096" lon="0.58948">
        <ele>963.8</ele>
        <time>1970-01-01T00:23:07.000Z</time>
      </trkpt>
      <trkpt lat="42.78096" lon="0.58948">
        <ele>963.6</ele>
        <time>1970-01-01T00:23:09.000Z</time>
      </trkpt>
      <trkpt lat="42.78096" lon="0.58947">
        <ele>963.5</ele>
        <time>1970-01-01T00:23:10.000Z</time>
      </trkpt>
      <trkpt lat="42.78096" lon="0.58947">
        <ele>963.3</ele>
        <time>1970-01-01T00:23:12.000Z</time>
      </trkpt>
      <trkpt lat="42.78096" lon="0.58946">
        <ele>963.2</ele>
        <time>1970-01-01T00:23:14.000Z</time>
      </trkpt>
      <trkpt lat="42.78097" lon="0.58946">
        <ele>963</ele>
        <time>1970-01-01T00:23:15.000Z</time>
      </trkpt>
      <trkpt lat="42.78097" lon="0.58945">
        <ele>962.9</ele>
        <time>1970-01-01T00:23:16.000Z</time>
      </trkpt>
      <trkpt lat="42.78097" lon="0.58945">
        <ele>962.7</ele>
        <time>1970-01-01T00:23:18.000Z</time>
      </trkpt>
      <trkpt lat="42.78097" lon="0.58944">
        <ele>962.6</ele>
        <time>1970-01-01T00:23:19.000Z</time>
      </trkpt>
      <trkpt lat="42.78097" lon="0.58943">
        <ele>962.4</ele>
        <time>1970-01-01T00:23:20.000Z</time>
      </trkpt>
      <trkpt lat="42.78097" lon="0.58943">
        <ele>962.1</ele>
        <time>1970-01-01T00:23:22.000Z</time>
      </trkpt>
      <trkpt lat="42.78096" lon="0.58942">
        <ele>961.8</ele>
        <time>1970-01-01T00:23:23.000Z</time>
      </trkpt>
      <trkpt lat="42.78096" lon="0.58941">
        <ele>961.5</ele>
        <time>1970-01-01T00:23:24.000Z</time>
      </trkpt>
      <trkpt lat="42.78095" lon="0.58942">
        <ele>961.3</ele>
        <time>1970-01-01T00:23:25.000Z</time>
      </trkpt>
      <trkpt lat="42.78095" lon="0.58943">
        <ele>961</ele>
        <time>1970-01-01T00:23:26.000Z</time>
      </trkpt>
      <trkpt lat="42.78096" lon="0.58944">
        <ele>960.7</ele>
        <time>1970-01-01T00:23:28.000Z</time>
      </trkpt>
      <trkpt lat="42.78096" lon="0.58945">
        <ele>960.5</ele>
        <time>1970-01-01T00:23:30.000Z</time>
      </trkpt>
      <trkpt lat="42.78096" lon="0.58947">
        <ele>960.2</ele>
        <time>1970-01-01T00:23:31.000Z</time>
      </trkpt>
      <trkpt lat="42.78097" lon="0.58951">
        <ele>959</ele>
        <time>1970-01-01T00:23:32.000Z</time>
      </trkpt>
      <trkpt lat="42.78102" lon="0.58955">
        <ele>957.2</ele>
        <time>1970-01-01T00:23:33.000Z</time>
      </trkpt>
      <trkpt lat="42.78104" lon="0.58956">
        <ele>956.4</ele>
        <time>1970-01-01T00:23:34.000Z</time>
      </trkpt>
      <trkpt lat="42.78106" lon="0.58956">
        <ele>955.8</ele>
        <time>1970-01-01T00:23:36.000Z</time>
      </trkpt>
      <trkpt lat="42.78107" lon="0.58955">
        <ele>955.3</ele>
        <time>1970-01-01T00:23:37.000Z</time>
      </trkpt>
      <trkpt lat="42.78108" lon="0.58956">
        <ele>954.8</ele>
        <time>1970-01-01T00:23:39.000Z</time>
      </trkpt>
      <trkpt lat="42.78108" lon="0.58957">
        <ele>954.6</ele>
        <time>1970-01-01T00:23:40.000Z</time>
      </trkpt>
      <trkpt lat="42.78108" lon="0.58959">
        <ele>954.2</ele>
        <time>1970-01-01T00:23:42.000Z</time>
      </trkpt>
      <trkpt lat="42.78108" lon="0.5896">
        <ele>954</ele>
        <time>1970-01-01T00:23:43.000Z</time>
      </trkpt>
      <trkpt lat="42.78108" lon="0.58961">
        <ele>953.6</ele>
        <time>1970-01-01T00:23:44.000Z</time>
      </trkpt>
      <trkpt lat="42.78108" lon="0.58962">
        <ele>953.4</ele>
        <time>1970-01-01T00:23:46.000Z</time>
      </trkpt>
      <trkpt lat="42.78108" lon="0.58963">
        <ele>953.2</ele>
        <time>1970-01-01T00:23:47.000Z</time>
      </trkpt>
      <trkpt lat="42.78109" lon="0.58963">
        <ele>952.9</ele>
        <time>1970-01-01T00:23:48.000Z</time>
      </trkpt>
      <trkpt lat="42.7811" lon="0.58962">
        <ele>952.7</ele>
        <time>1970-01-01T00:23:49.000Z</time>
      </trkpt>
      <trkpt lat="42.7811" lon="0.58961">
        <ele>952.4</ele>
        <time>1970-01-01T00:23:51.000Z</time>
      </trkpt>
      <trkpt lat="42.7811" lon="0.5896">
        <ele>951.9</ele>
        <time>1970-01-01T00:23:53.000Z</time>
      </trkpt>
      <trkpt lat="42.78111" lon="0.5896">
        <ele>951.8</ele>
        <time>1970-01-01T00:23:54.000Z</time>
      </trkpt>
      <trkpt lat="42.78112" lon="0.5896">
        <ele>951.3</ele>
        <time>1970-01-01T00:23:56.000Z</time>
      </trkpt>
      <trkpt lat="42.78112" lon="0.58963">
        <ele>950.7</ele>
        <time>1970-01-01T00:23:57.000Z</time>
      </trkpt>
      <trkpt lat="42.78113" lon="0.58965">
        <ele>949.9</ele>
        <time>1970-01-01T00:23:59.000Z</time>
      </trkpt>
      <trkpt lat="42.78114" lon="0.58963">
        <ele>949.4</ele>
        <time>1970-01-01T00:24:00.000Z</time>
      </trkpt>
      <trkpt lat="42.78114" lon="0.58961">
        <ele>948.9</ele>
        <time>1970-01-01T00:24:01.000Z</time>
      </trkpt>
      <trkpt lat="42.78114" lon="0.5896">
        <ele>948.5</ele>
        <time>1970-01-01T00:24:02.000Z</time>
      </trkpt>
      <trkpt lat="42.78114" lon="0.58955">
        <ele>947.2</ele>
        <time>1970-01-01T00:24:04.000Z</time>
      </trkpt>
      <trkpt lat="42.78115" lon="0.58953">
        <ele>946.8</ele>
        <time>1970-01-01T00:24:05.000Z</time>
      </trkpt>
      <trkpt lat="42.78114" lon="0.58951">
        <ele>946.4</ele>
        <time>1970-01-01T00:24:06.000Z</time>
      </trkpt>
      <trkpt lat="42.78115" lon="0.58948">
        <ele>945.7</ele>
        <time>1970-01-01T00:24:08.000Z</time>
      </trkpt>
      <trkpt lat="42.78116" lon="0.58947">
        <ele>945.3</ele>
        <time>1970-01-01T00:24:10.000Z</time>
      </trkpt>
      <trkpt lat="42.78116" lon="0.58948">
        <ele>945</ele>
        <time>1970-01-01T00:24:11.000Z</time>
      </trkpt>
      <trkpt lat="42.78115" lon="0.58947">
        <ele>944.7</ele>
        <time>1970-01-01T00:24:13.000Z</time>
      </trkpt>
      <trkpt lat="42.78114" lon="0.58946">
        <ele>944.3</ele>
        <time>1970-01-01T00:24:14.000Z</time>
      </trkpt>
      <trkpt lat="42.78114" lon="0.58944">
        <ele>943.9</ele>
        <time>1970-01-01T00:24:15.000Z</time>
      </trkpt>
      <trkpt lat="42.78115" lon="0.58942">
        <ele>943.2</ele>
        <time>1970-01-01T00:24:17.000Z</time>
      </trkpt>
      <trkpt lat="42.78117" lon="0.58943">
        <ele>942.6</ele>
        <time>1970-01-01T00:24:18.000Z</time>
      </trkpt>
      <trkpt lat="42.78119" lon="0.58945">
        <ele>941.8</ele>
        <time>1970-01-01T00:24:20.000Z</time>
      </trkpt>
      <trkpt lat="42.7812" lon="0.58945">
        <ele>941.5</ele>
        <time>1970-01-01T00:24:21.000Z</time>
      </trkpt>
      <trkpt lat="42.78123" lon="0.58944">
        <ele>940.6</ele>
        <time>1970-01-01T00:24:22.000Z</time>
      </trkpt>
      <trkpt lat="42.78124" lon="0.58943">
        <ele>940.1</ele>
        <time>1970-01-01T00:24:23.000Z</time>
      </trkpt>
      <trkpt lat="42.78126" lon="0.58944">
        <ele>939.4</ele>
        <time>1970-01-01T00:24:24.000Z</time>
      </trkpt>
      <trkpt lat="42.78128" lon="0.58944">
        <ele>938.8</ele>
        <time>1970-01-01T00:24:26.000Z</time>
      </trkpt>
      <trkpt lat="42.78129" lon="0.58945">
        <ele>938.2</ele>
        <time>1970-01-01T00:24:27.000Z</time>
      </trkpt>
      <trkpt lat="42.78132" lon="0.58947">
        <ele>937.3</ele>
        <time>1970-01-01T00:24:29.000Z</time>
      </trkpt>
      <trkpt lat="42.78132" lon="0.58947">
        <ele>937.2</ele>
        <time>1970-01-01T00:24:30.000Z</time>
      </trkpt>
      <trkpt lat="42.78132" lon="0.58947">
        <ele>937.2</ele>
        <time>1970-01-01T00:24:31.000Z</time>
      </trkpt>
      <trkpt lat="42.78133" lon="0.58948">
        <ele>937.1</ele>
        <time>1970-01-01T00:24:32.000Z</time>
      </trkpt>
      <trkpt lat="42.78133" lon="0.58948">
        <ele>937.2</ele>
        <time>1970-01-01T00:24:33.000Z</time>
      </trkpt>
      <trkpt lat="42.78133" lon="0.58947">
        <ele>937.2</ele>
        <time>1970-01-01T00:24:35.000Z</time>
      </trkpt>
      <trkpt lat="42.78133" lon="0.58947">
        <ele>937.3</ele>
        <time>1970-01-01T00:24:36.000Z</time>
      </trkpt>
      <trkpt lat="42.78133" lon="0.58947">
        <ele>937.4</ele>
        <time>1970-01-01T00:24:37.000Z</time>
      </trkpt>
      <trkpt lat="42.78133" lon="0.58947">
        <ele>937.4</ele>
        <time>1970-01-01T00:24:39.000Z</time>
      </trkpt>
      <trkpt lat="42.78133" lon="0.58947">
        <ele>937.5</ele>
        <time>1970-01-01T00:24:41.000Z</time>
      </trkpt>
      <trkpt lat="42.78133" lon="0.58947">
        <ele>937.5</ele>
        <time>1970-01-01T00:24:44.000Z</time>
      </trkpt>
      <trkpt lat="42.78135" lon="0.58946">
        <ele>937</ele>
        <time>1970-01-01T00:24:45.000Z</time>
      </trkpt>
      <trkpt lat="42.78137" lon="0.58943">
        <ele>936.1</ele>
        <time>1970-01-01T00:24:47.000Z</time>
      </trkpt>
      <trkpt lat="42.78138" lon="0.58942">
        <ele>935.6</ele>
        <time>1970-01-01T00:24:48.000Z</time>
      </trkpt>
      <trkpt lat="42.78139" lon="0.5894">
        <ele>935.2</ele>
        <time>1970-01-01T00:24:49.000Z</time>
      </trkpt>
      <trkpt lat="42.78139" lon="0.5894">
        <ele>935</ele>
        <time>1970-01-01T00:24:50.000Z</time>
      </trkpt>
      <trkpt lat="42.7814" lon="0.58939">
        <ele>934.8</ele>
        <time>1970-01-01T00:24:52.000Z</time>
      </trkpt>
      <trkpt lat="42.7814" lon="0.58938">
        <ele>934.7</ele>
        <time>1970-01-01T00:24:53.000Z</time>
      </trkpt>
      <trkpt lat="42.78139" lon="0.58941">
        <ele>934</ele>
        <time>1970-01-01T00:24:55.000Z</time>
      </trkpt>
      <trkpt lat="42.78139" lon="0.58944">
        <ele>933.5</ele>
        <time>1970-01-01T00:24:56.000Z</time>
      </trkpt>
      <trkpt lat="42.78139" lon="0.58947">
        <ele>932.9</ele>
        <time>1970-01-01T00:24:57.000Z</time>
      </trkpt>
      <trkpt lat="42.7814" lon="0.58949">
        <ele>932.3</ele>
        <time>1970-01-01T00:24:59.000Z</time>
      </trkpt>
      <trkpt lat="42.78141" lon="0.5895">
        <ele>931.9</ele>
        <time>1970-01-01T00:25:00.000Z</time>
      </trkpt>
      <trkpt lat="42.78141" lon="0.58951">
        <ele>931.7</ele>
        <time>1970-01-01T00:25:01.000Z</time>
      </trkpt>
      <trkpt lat="42.78141" lon="0.58952">
        <ele>931.6</ele>
        <time>1970-01-01T00:25:02.000Z</time>
      </trkpt>
      <trkpt lat="42.78141" lon="0.58954">
        <ele>931.2</ele>
        <time>1970-01-01T00:25:04.000Z</time>
      </trkpt>
      <trkpt lat="42.78143" lon="0.58954">
        <ele>930.5</ele>
        <time>1970-01-01T00:25:05.000Z</time>
      </trkpt>
      <trkpt lat="42.78149" lon="0.58955">
        <ele>928.8</ele>
        <time>1970-01-01T00:25:07.000Z</time>
      </trkpt>
      <trkpt lat="42.78168" lon="0.58951">
        <ele>922.6</ele>
        <time>1970-01-01T00:25:08.000Z</time>
      </trkpt>
      <trkpt lat="42.78179" lon="0.58947">
        <ele>919</ele>
        <time>1970-01-01T00:25:09.000Z</time>
      </trkpt>
      <trkpt lat="42.7819" lon="0.58944">
        <ele>915.1</ele>
        <time>1970-01-01T00:25:10.000Z</time>
      </trkpt>
      <trkpt lat="42.78201" lon="0.5894">
        <ele>911.6</ele>
        <time>1970-01-01T00:25:11.000Z</time>
      </trkpt>
      <trkpt lat="42.78211" lon="0.58936">
        <ele>908.3</ele>
        <time>1970-01-01T00:25:12.000Z</time>
      </trkpt>
      <trkpt lat="42.78224" lon="0.5893">
        <ele>903.9</ele>
        <time>1970-01-01T00:25:14.000Z</time>
      </trkpt>
      <trkpt lat="42.78228" lon="0.58926">
        <ele>902.4</ele>
        <time>1970-01-01T00:25:16.000Z</time>
      </trkpt>
      <trkpt lat="42.78232" lon="0.58925">
        <ele>901.4</ele>
        <time>1970-01-01T00:25:17.000Z</time>
      </trkpt>
      <trkpt lat="42.78234" lon="0.58921">
        <ele>900.3</ele>
        <time>1970-01-01T00:25:19.000Z</time>
      </trkpt>
      <trkpt lat="42.78234" lon="0.58919">
        <ele>899.7</ele>
        <time>1970-01-01T00:25:20.000Z</time>
      </trkpt>
      <trkpt lat="42.78234" lon="0.58918">
        <ele>899.6</ele>
        <time>1970-01-01T00:25:22.000Z</time>
      </trkpt>
      <trkpt lat="42.78235" lon="0.58918">
        <ele>899.3</ele>
        <time>1970-01-01T00:25:23.000Z</time>
      </trkpt>
      <trkpt lat="42.78237" lon="0.58921">
        <ele>898.5</ele>
        <time>1970-01-01T00:25:24.000Z</time>
      </trkpt>
      <trkpt lat="42.78238" lon="0.58923">
        <ele>897.9</ele>
        <time>1970-01-01T00:25:26.000Z</time>
      </trkpt>
      <trkpt lat="42.78238" lon="0.58925">
        <ele>897.7</ele>
        <time>1970-01-01T00:25:27.000Z</time>
      </trkpt>
      <trkpt lat="42.78239" lon="0.58925">
        <ele>897.6</ele>
        <time>1970-01-01T00:25:28.000Z</time>
      </trkpt>
      <trkpt lat="42.78242" lon="0.58924">
        <ele>896.5</ele>
        <time>1970-01-01T00:25:30.000Z</time>
      </trkpt>
      <trkpt lat="42.78246" lon="0.5892">
        <ele>895.1</ele>
        <time>1970-01-01T00:25:32.000Z</time>
      </trkpt>
      <trkpt lat="42.78249" lon="0.58918">
        <ele>894.2</ele>
        <time>1970-01-01T00:25:33.000Z</time>
      </trkpt>
      <trkpt lat="42.7825" lon="0.58917">
        <ele>893.8</ele>
        <time>1970-01-01T00:25:34.000Z</time>
      </trkpt>
      <trkpt lat="42.78252" lon="0.58916">
        <ele>893.4</ele>
        <time>1970-01-01T00:25:36.000Z</time>
      </trkpt>
      <trkpt lat="42.78252" lon="0.58915">
        <ele>893.1</ele>
        <time>1970-01-01T00:25:37.000Z</time>
      </trkpt>
      <trkpt lat="42.78252" lon="0.58914">
        <ele>893.1</ele>
        <time>1970-01-01T00:25:39.000Z</time>
      </trkpt>
      <trkpt lat="42.78253" lon="0.58913">
        <ele>892.9</ele>
        <time>1970-01-01T00:25:40.000Z</time>
      </trkpt>
      <trkpt lat="42.78253" lon="0.58913">
        <ele>892.8</ele>
        <time>1970-01-01T00:25:41.000Z</time>
      </trkpt>
      <trkpt lat="42.78254" lon="0.58913">
        <ele>892.6</ele>
        <time>1970-01-01T00:25:43.000Z</time>
      </trkpt>
      <trkpt lat="42.78256" lon="0.58915">
        <ele>891.9</ele>
        <time>1970-01-01T00:25:45.000Z</time>
      </trkpt>
      <trkpt lat="42.78257" lon="0.58917">
        <ele>891.4</ele>
        <time>1970-01-01T00:25:47.000Z</time>
      </trkpt>
      <trkpt lat="42.78259" lon="0.58917">
        <ele>891.1</ele>
        <time>1970-01-01T00:25:48.000Z</time>
      </trkpt>
      <trkpt lat="42.7826" lon="0.58917">
        <ele>890.8</ele>
        <time>1970-01-01T00:25:49.000Z</time>
      </trkpt>
      <trkpt lat="42.78261" lon="0.58918">
        <ele>890.6</ele>
        <time>1970-01-01T00:25:51.000Z</time>
      </trkpt>
      <trkpt lat="42.78262" lon="0.5892">
        <ele>890</ele>
        <time>1970-01-01T00:25:53.000Z</time>
      </trkpt>
      <trkpt lat="42.78264" lon="0.5892">
        <ele>889.7</ele>
        <time>1970-01-01T00:25:54.000Z</time>
      </trkpt>
      <trkpt lat="42.78266" lon="0.58919">
        <ele>889.1</ele>
        <time>1970-01-01T00:25:55.000Z</time>
      </trkpt>
      <trkpt lat="42.78268" lon="0.5892">
        <ele>888.7</ele>
        <time>1970-01-01T00:25:56.000Z</time>
      </trkpt>
      <trkpt lat="42.7827" lon="0.58922">
        <ele>887.9</ele>
        <time>1970-01-01T00:25:58.000Z</time>
      </trkpt>
      <trkpt lat="42.78271" lon="0.58924">
        <ele>887.5</ele>
        <time>1970-01-01T00:25:59.000Z</time>
      </trkpt>
      <trkpt lat="42.78274" lon="0.58925">
        <ele>886.6</ele>
        <time>1970-01-01T00:26:01.000Z</time>
      </trkpt>
      <trkpt lat="42.78277" lon="0.58924">
        <ele>885.6</ele>
        <time>1970-01-01T00:26:03.000Z</time>
      </trkpt>
      <trkpt lat="42.78278" lon="0.58924">
        <ele>885.4</ele>
        <time>1970-01-01T00:26:04.000Z</time>
      </trkpt>
      <trkpt lat="42.78282" lon="0.58925">
        <ele>884.3</ele>
        <time>1970-01-01T00:26:05.000Z</time>
      </trkpt>
      <trkpt lat="42.78286" lon="0.58924">
        <ele>883.2</ele>
        <time>1970-01-01T00:26:07.000Z</time>
      </trkpt>
      <trkpt lat="42.78287" lon="0.58924">
        <ele>883</ele>
        <time>1970-01-01T00:26:08.000Z</time>
      </trkpt>
      <trkpt lat="42.78289" lon="0.58924">
        <ele>882.3</ele>
        <time>1970-01-01T00:26:09.000Z</time>
      </trkpt>
      <trkpt lat="42.78293" lon="0.58924">
        <ele>881.1</ele>
        <time>1970-01-01T00:26:11.000Z</time>
      </trkpt>
      <trkpt lat="42.78296" lon="0.58924">
        <ele>880.3</ele>
        <time>1970-01-01T00:26:12.000Z</time>
      </trkpt>
      <trkpt lat="42.78299" lon="0.58927">
        <ele>879.3</ele>
        <time>1970-01-01T00:26:13.000Z</time>
      </trkpt>
      <trkpt lat="42.783" lon="0.58932">
        <ele>878.2</ele>
        <time>1970-01-01T00:26:14.000Z</time>
      </trkpt>
      <trkpt lat="42.783" lon="0.58934">
        <ele>877.8</ele>
        <time>1970-01-01T00:26:15.000Z</time>
      </trkpt>
      <trkpt lat="42.78302" lon="0.58938">
        <ele>876.9</ele>
        <time>1970-01-01T00:26:17.000Z</time>
      </trkpt>
      <trkpt lat="42.78304" lon="0.58938">
        <ele>876.4</ele>
        <time>1970-01-01T00:26:19.000Z</time>
      </trkpt>
      <trkpt lat="42.78305" lon="0.58938">
        <ele>876.1</ele>
        <time>1970-01-01T00:26:20.000Z</time>
      </trkpt>
      <trkpt lat="42.78307" lon="0.58938">
        <ele>875.7</ele>
        <time>1970-01-01T00:26:22.000Z</time>
      </trkpt>
      <trkpt lat="42.78309" lon="0.58939">
        <ele>875.3</ele>
        <time>1970-01-01T00:26:23.000Z</time>
      </trkpt>
      <trkpt lat="42.7831" lon="0.58939">
        <ele>874.9</ele>
        <time>1970-01-01T00:26:25.000Z</time>
      </trkpt>
      <trkpt lat="42.78312" lon="0.58939">
        <ele>874.5</ele>
        <time>1970-01-01T00:26:26.000Z</time>
      </trkpt>
      <trkpt lat="42.78314" lon="0.58939">
        <ele>874.1</ele>
        <time>1970-01-01T00:26:28.000Z</time>
      </trkpt>
      <trkpt lat="42.78315" lon="0.5894">
        <ele>873.7</ele>
        <time>1970-01-01T00:26:29.000Z</time>
      </trkpt>
      <trkpt lat="42.78317" lon="0.5894">
        <ele>873.3</ele>
        <time>1970-01-01T00:26:31.000Z</time>
      </trkpt>
      <trkpt lat="42.78318" lon="0.5894">
        <ele>872.9</ele>
        <time>1970-01-01T00:26:32.000Z</time>
      </trkpt>
      <trkpt lat="42.7832" lon="0.5894">
        <ele>872.5</ele>
        <time>1970-01-01T00:26:34.000Z</time>
      </trkpt>
      <trkpt lat="42.78357" lon="0.58952">
        <ele>860.6</ele>
        <time>1970-01-01T00:26:35.000Z</time>
      </trkpt>
      <trkpt lat="42.78361" lon="0.58953">
        <ele>859.6</ele>
        <time>1970-01-01T00:26:37.000Z</time>
      </trkpt>
      <trkpt lat="42.78362" lon="0.58954">
        <ele>859.4</ele>
        <time>1970-01-01T00:26:39.000Z</time>
      </trkpt>
      <trkpt lat="42.78368" lon="0.58957">
        <ele>857.3</ele>
        <time>1970-01-01T00:26:41.000Z</time>
      </trkpt>
      <trkpt lat="42.7837" lon="0.58957">
        <ele>857</ele>
        <time>1970-01-01T00:26:43.000Z</time>
      </trkpt>
      <trkpt lat="42.7837" lon="0.58958">
        <ele>856.9</ele>
        <time>1970-01-01T00:26:45.000Z</time>
      </trkpt>
      <trkpt lat="42.7837" lon="0.58957">
        <ele>856.9</ele>
        <time>1970-01-01T00:26:46.000Z</time>
      </trkpt>
      <trkpt lat="42.78371" lon="0.58957">
        <ele>857.1</ele>
        <time>1970-01-01T00:26:48.000Z</time>
      </trkpt>
      <trkpt lat="42.78371" lon="0.58957">
        <ele>857.2</ele>
        <time>1970-01-01T00:26:49.000Z</time>
      </trkpt>
      <trkpt lat="42.78371" lon="0.58957">
        <ele>857.3</ele>
        <time>1970-01-01T00:26:51.000Z</time>
      </trkpt>
      <trkpt lat="42.78374" lon="0.58955">
        <ele>856.2</ele>
        <time>1970-01-01T00:27:00.000Z</time>
      </trkpt>
      <trkpt lat="42.78376" lon="0.58955">
        <ele>855.8</ele>
        <time>1970-01-01T00:27:01.000Z</time>
      </trkpt>
      <trkpt lat="42.78378" lon="0.58957">
        <ele>855.1</ele>
        <time>1970-01-01T00:27:03.000Z</time>
      </trkpt>
      <trkpt lat="42.78377" lon="0.58956">
        <ele>854.7</ele>
        <time>1970-01-01T00:27:05.000Z</time>
      </trkpt>
      <trkpt lat="42.78376" lon="0.58954">
        <ele>854.1</ele>
        <time>1970-01-01T00:27:07.000Z</time>
      </trkpt>
      <trkpt lat="42.78375" lon="0.58953">
        <ele>853.8</ele>
        <time>1970-01-01T00:27:08.000Z</time>
      </trkpt>
      <trkpt lat="42.78376" lon="0.58949">
        <ele>853</ele>
        <time>1970-01-01T00:27:10.000Z</time>
      </trkpt>
      <trkpt lat="42.78379" lon="0.58951">
        <ele>851.9</ele>
        <time>1970-01-01T00:27:11.000Z</time>
      </trkpt>
      <trkpt lat="42.7838" lon="0.58953">
        <ele>851.3</ele>
        <time>1970-01-01T00:27:12.000Z</time>
      </trkpt>
      <trkpt lat="42.78381" lon="0.58957">
        <ele>850.3</ele>
        <time>1970-01-01T00:27:13.000Z</time>
      </trkpt>
      <trkpt lat="42.78385" lon="0.58964">
        <ele>848.5</ele>
        <time>1970-01-01T00:27:15.000Z</time>
      </trkpt>
      <trkpt lat="42.78386" lon="0.58965">
        <ele>847.9</ele>
        <time>1970-01-01T00:27:16.000Z</time>
      </trkpt>
      <trkpt lat="42.78389" lon="0.58966">
        <ele>847.1</ele>
        <time>1970-01-01T00:27:18.000Z</time>
      </trkpt>
      <trkpt lat="42.78394" lon="0.58967">
        <ele>845.4</ele>
        <time>1970-01-01T00:27:20.000Z</time>
      </trkpt>
      <trkpt lat="42.78397" lon="0.58967">
        <ele>844.5</ele>
        <time>1970-01-01T00:27:21.000Z</time>
      </trkpt>
      <trkpt lat="42.78399" lon="0.58971">
        <ele>843.5</ele>
        <time>1970-01-01T00:27:23.000Z</time>
      </trkpt>
      <trkpt lat="42.78402" lon="0.58974">
        <ele>842.3</ele>
        <time>1970-01-01T00:27:24.000Z</time>
      </trkpt>
      <trkpt lat="42.78405" lon="0.58976">
        <ele>841.1</ele>
        <time>1970-01-01T00:27:25.000Z</time>
      </trkpt>
      <trkpt lat="42.7841" lon="0.58975">
        <ele>839.7</ele>
        <time>1970-01-01T00:27:27.000Z</time>
      </trkpt>
      <trkpt lat="42.78413" lon="0.58973">
        <ele>838.5</ele>
        <time>1970-01-01T00:27:29.000Z</time>
      </trkpt>
      <trkpt lat="42.78415" lon="0.58966">
        <ele>836.7</ele>
        <time>1970-01-01T00:27:30.000Z</time>
      </trkpt>
      <trkpt lat="42.78415" lon="0.58963">
        <ele>836.1</ele>
        <time>1970-01-01T00:27:31.000Z</time>
      </trkpt>
      <trkpt lat="42.78415" lon="0.5896">
        <ele>835.2</ele>
        <time>1970-01-01T00:27:33.000Z</time>
      </trkpt>
      <trkpt lat="42.78417" lon="0.58956">
        <ele>834.2</ele>
        <time>1970-01-01T00:27:34.000Z</time>
      </trkpt>
      <trkpt lat="42.78421" lon="0.58957">
        <ele>833</ele>
        <time>1970-01-01T00:27:36.000Z</time>
      </trkpt>
      <trkpt lat="42.78422" lon="0.58957">
        <ele>832.7</ele>
        <time>1970-01-01T00:27:37.000Z</time>
      </trkpt>
      <trkpt lat="42.78425" lon="0.58962">
        <ele>831.3</ele>
        <time>1970-01-01T00:27:38.000Z</time>
      </trkpt>
      <trkpt lat="42.78428" lon="0.58966">
        <ele>830</ele>
        <time>1970-01-01T00:27:40.000Z</time>
      </trkpt>
      <trkpt lat="42.78432" lon="0.58969">
        <ele>828.5</ele>
        <time>1970-01-01T00:27:41.000Z</time>
      </trkpt>
      <trkpt lat="42.78444" lon="0.58966">
        <ele>824.8</ele>
        <time>1970-01-01T00:27:42.000Z</time>
      </trkpt>
      <trkpt lat="42.78444" lon="0.58967">
        <ele>824.4</ele>
        <time>1970-01-01T00:27:43.000Z</time>
      </trkpt>
      <trkpt lat="42.78439" lon="0.58962">
        <ele>822.8</ele>
        <time>1970-01-01T00:27:45.000Z</time>
      </trkpt>
      <trkpt lat="42.78437" lon="0.58958">
        <ele>821.6</ele>
        <time>1970-01-01T00:27:46.000Z</time>
      </trkpt>
      <trkpt lat="42.78438" lon="0.58959">
        <ele>821.3</ele>
        <time>1970-01-01T00:27:47.000Z</time>
      </trkpt>
      <trkpt lat="42.78439" lon="0.58959">
        <ele>821.1</ele>
        <time>1970-01-01T00:27:48.000Z</time>
      </trkpt>
      <trkpt lat="42.78439" lon="0.5896">
        <ele>820.8</ele>
        <time>1970-01-01T00:27:49.000Z</time>
      </trkpt>
      <trkpt lat="42.78439" lon="0.58961">
        <ele>820.6</ele>
        <time>1970-01-01T00:27:51.000Z</time>
      </trkpt>
      <trkpt lat="42.7844" lon="0.58962">
        <ele>820.3</ele>
        <time>1970-01-01T00:27:52.000Z</time>
      </trkpt>
      <trkpt lat="42.78443" lon="0.58963">
        <ele>819.3</ele>
        <time>1970-01-01T00:27:53.000Z</time>
      </trkpt>
      <trkpt lat="42.78444" lon="0.58963">
        <ele>818.9</ele>
        <time>1970-01-01T00:27:55.000Z</time>
      </trkpt>
      <trkpt lat="42.78446" lon="0.58963">
        <ele>818.4</ele>
        <time>1970-01-01T00:27:56.000Z</time>
      </trkpt>
      <trkpt lat="42.78447" lon="0.58962">
        <ele>818</ele>
        <time>1970-01-01T00:27:57.000Z</time>
      </trkpt>
      <trkpt lat="42.7845" lon="0.58964">
        <ele>817.2</ele>
        <time>1970-01-01T00:27:59.000Z</time>
      </trkpt>
      <trkpt lat="42.78452" lon="0.58965">
        <ele>816.3</ele>
        <time>1970-01-01T00:28:00.000Z</time>
      </trkpt>
      <trkpt lat="42.78454" lon="0.58966">
        <ele>815.7</ele>
        <time>1970-01-01T00:28:01.000Z</time>
      </trkpt>
      <trkpt lat="42.78457" lon="0.58964">
        <ele>814.7</ele>
        <time>1970-01-01T00:28:03.000Z</time>
      </trkpt>
      <trkpt lat="42.7846" lon="0.58962">
        <ele>813.8</ele>
        <time>1970-01-01T00:28:04.000Z</time>
      </trkpt>
      <trkpt lat="42.78463" lon="0.58961">
        <ele>812.6</ele>
        <time>1970-01-01T00:28:05.000Z</time>
      </trkpt>
      <trkpt lat="42.78465" lon="0.5896">
        <ele>811.9</ele>
        <time>1970-01-01T00:28:07.000Z</time>
      </trkpt>
      <trkpt lat="42.78466" lon="0.5896">
        <ele>811.6</ele>
        <time>1970-01-01T00:28:08.000Z</time>
      </trkpt>
      <trkpt lat="42.78467" lon="0.5896">
        <ele>811.4</ele>
        <time>1970-01-01T00:28:09.000Z</time>
      </trkpt>
      <trkpt lat="42.78471" lon="0.58961">
        <ele>810.2</ele>
        <time>1970-01-01T00:28:11.000Z</time>
      </trkpt>
      <trkpt lat="42.78472" lon="0.58962">
        <ele>809.6</ele>
        <time>1970-01-01T00:28:12.000Z</time>
      </trkpt>
      <trkpt lat="42.78475" lon="0.58963">
        <ele>808.9</ele>
        <time>1970-01-01T00:28:14.000Z</time>
      </trkpt>
      <trkpt lat="42.78484" lon="0.58964">
        <ele>805.9</ele>
        <time>1970-01-01T00:28:16.000Z</time>
      </trkpt>
      <trkpt lat="42.78491" lon="0.58964">
        <ele>803.8</ele>
        <time>1970-01-01T00:28:17.000Z</time>
      </trkpt>
      <trkpt lat="42.78497" lon="0.58964">
        <ele>801.7</ele>
        <time>1970-01-01T00:28:19.000Z</time>
      </trkpt>
      <trkpt lat="42.78504" lon="0.58964">
        <ele>799.6</ele>
        <time>1970-01-01T00:28:20.000Z</time>
      </trkpt>
      <trkpt lat="42.78511" lon="0.58964">
        <ele>797.5</ele>
        <time>1970-01-01T00:28:22.000Z</time>
      </trkpt>
      <trkpt lat="42.78514" lon="0.58964">
        <ele>796.6</ele>
        <time>1970-01-01T00:28:23.000Z</time>
      </trkpt>
      <trkpt lat="42.78519" lon="0.58964">
        <ele>795</ele>
        <time>1970-01-01T00:28:26.000Z</time>
      </trkpt>
      <trkpt lat="42.7852" lon="0.58963">
        <ele>794.7</ele>
        <time>1970-01-01T00:28:28.000Z</time>
      </trkpt>
      <trkpt lat="42.7852" lon="0.58963">
        <ele>794.6</ele>
        <time>1970-01-01T00:28:29.000Z</time>
      </trkpt>
      <trkpt lat="42.78501" lon="0.58958">
        <ele>788.6</ele>
        <time>1970-01-01T00:28:44.000Z</time>
      </trkpt>
      <trkpt lat="42.78508" lon="0.58959">
        <ele>786.5</ele>
        <time>1970-01-01T00:28:46.000Z</time>
      </trkpt>
      <trkpt lat="42.78511" lon="0.5896">
        <ele>785.4</ele>
        <time>1970-01-01T00:28:47.000Z</time>
      </trkpt>
      <trkpt lat="42.78512" lon="0.58961">
        <ele>785</ele>
        <time>1970-01-01T00:28:49.000Z</time>
      </trkpt>
      <trkpt lat="42.78514" lon="0.58962">
        <ele>784.4</ele>
        <time>1970-01-01T00:28:50.000Z</time>
      </trkpt>
      <trkpt lat="42.78515" lon="0.58964">
        <ele>783.8</ele>
        <time>1970-01-01T00:28:51.000Z</time>
      </trkpt>
      <trkpt lat="42.78516" lon="0.58965">
        <ele>783.4</ele>
        <time>1970-01-01T00:28:53.000Z</time>
      </trkpt>
      <trkpt lat="42.78517" lon="0.58966">
        <ele>783.1</ele>
        <time>1970-01-01T00:28:54.000Z</time>
      </trkpt>
      <trkpt lat="42.7852" lon="0.58963">
        <ele>782</ele>
        <time>1970-01-01T00:28:55.000Z</time>
      </trkpt>
      <trkpt lat="42.78522" lon="0.58961">
        <ele>781.1</ele>
        <time>1970-01-01T00:28:57.000Z</time>
      </trkpt>
      <trkpt lat="42.78523" lon="0.58961">
        <ele>780.8</ele>
        <time>1970-01-01T00:28:58.000Z</time>
      </trkpt>
      <trkpt lat="42.78542" lon="0.58967">
        <ele>774.9</ele>
        <time>1970-01-01T00:29:00.000Z</time>
      </trkpt>
      <trkpt lat="42.78546" lon="0.58967">
        <ele>773.7</ele>
        <time>1970-01-01T00:29:01.000Z</time>
      </trkpt>
      <trkpt lat="42.78553" lon="0.58976">
        <ele>770.6</ele>
        <time>1970-01-01T00:29:02.000Z</time>
      </trkpt>
      <trkpt lat="42.78556" lon="0.5898">
        <ele>769.4</ele>
        <time>1970-01-01T00:29:04.000Z</time>
      </trkpt>
      <trkpt lat="42.78556" lon="0.58981">
        <ele>769.1</ele>
        <time>1970-01-01T00:29:06.000Z</time>
      </trkpt>
      <trkpt lat="42.78556" lon="0.58981">
        <ele>769</ele>
        <time>1970-01-01T00:29:07.000Z</time>
      </trkpt>
      <trkpt lat="42.78556" lon="0.58981">
        <ele>768.9</ele>
        <time>1970-01-01T00:29:09.000Z</time>
      </trkpt>
      <trkpt lat="42.78556" lon="0.58981">
        <ele>768.8</ele>
        <time>1970-01-01T00:29:10.000Z</time>
      </trkpt>
      <trkpt lat="42.78556" lon="0.58981">
        <ele>768.8</ele>
        <time>1970-01-01T00:29:11.000Z</time>
      </trkpt>
      <trkpt lat="42.78556" lon="0.58981">
        <ele>768.8</ele>
        <time>1970-01-01T00:29:12.000Z</time>
      </trkpt>
      <trkpt lat="42.78555" lon="0.58981">
        <ele>768.8</ele>
        <time>1970-01-01T00:29:14.000Z</time>
      </trkpt>
      <trkpt lat="42.78555" lon="0.58981">
        <ele>768.8</ele>
        <time>1970-01-01T00:29:15.000Z</time>
      </trkpt>
      <trkpt lat="42.78555" lon="0.58981">
        <ele>768.7</ele>
        <time>1970-01-01T00:29:16.000Z</time>
      </trkpt>
      <trkpt lat="42.78555" lon="0.58982">
        <ele>768.7</ele>
        <time>1970-01-01T00:29:18.000Z</time>
      </trkpt>
      <trkpt lat="42.7855" lon="0.58979">
        <ele>766.8</ele>
        <time>1970-01-01T00:29:27.000Z</time>
      </trkpt>
      <trkpt lat="42.7855" lon="0.58978">
        <ele>766.7</ele>
        <time>1970-01-01T00:29:28.000Z</time>
      </trkpt>
      <trkpt lat="42.78548" lon="0.58976">
        <ele>766</ele>
        <time>1970-01-01T00:29:30.000Z</time>
      </trkpt>
      <trkpt lat="42.78548" lon="0.58976">
        <ele>765.9</ele>
        <time>1970-01-01T00:29:31.000Z</time>
      </trkpt>
      <trkpt lat="42.78548" lon="0.58976">
        <ele>765.7</ele>
        <time>1970-01-01T00:29:33.000Z</time>
      </trkpt>
      <trkpt lat="42.78547" lon="0.58976">
        <ele>765.7</ele>
        <time>1970-01-01T00:29:35.000Z</time>
      </trkpt>
      <trkpt lat="42.78547" lon="0.58976">
        <ele>765.7</ele>
        <time>1970-01-01T00:29:37.000Z</time>
      </trkpt>
      <trkpt lat="42.78547" lon="0.58976">
        <ele>765.7</ele>
        <time>1970-01-01T00:29:38.000Z</time>
      </trkpt>
      <trkpt lat="42.78551" lon="0.58976">
        <ele>764.4</ele>
        <time>1970-01-01T00:29:56.000Z</time>
      </trkpt>
      <trkpt lat="42.78557" lon="0.58977">
        <ele>762.6</ele>
        <time>1970-01-01T00:29:58.000Z</time>
      </trkpt>
      <trkpt lat="42.78559" lon="0.58977">
        <ele>761.9</ele>
        <time>1970-01-01T00:29:59.000Z</time>
      </trkpt>
      <trkpt lat="42.78563" lon="0.58975">
        <ele>760.7</ele>
        <time>1970-01-01T00:30:01.000Z</time>
      </trkpt>
      <trkpt lat="42.78565" lon="0.58975">
        <ele>760</ele>
        <time>1970-01-01T00:30:03.000Z</time>
      </trkpt>
      <trkpt lat="42.78563" lon="0.58978">
        <ele>759.1</ele>
        <time>1970-01-01T00:30:04.000Z</time>
      </trkpt>
      <trkpt lat="42.7856" lon="0.58981">
        <ele>758</ele>
        <time>1970-01-01T00:30:06.000Z</time>
      </trkpt>
      <trkpt lat="42.78556" lon="0.58984">
        <ele>756.3</ele>
        <time>1970-01-01T00:30:07.000Z</time>
      </trkpt>
      <trkpt lat="42.78554" lon="0.58984">
        <ele>755.7</ele>
        <time>1970-01-01T00:30:08.000Z</time>
      </trkpt>
      <trkpt lat="42.78552" lon="0.58983">
        <ele>755.2</ele>
        <time>1970-01-01T00:30:09.000Z</time>
      </trkpt>
      <trkpt lat="42.78551" lon="0.58981">
        <ele>754.7</ele>
        <time>1970-01-01T00:30:10.000Z</time>
      </trkpt>
      <trkpt lat="42.78549" lon="0.58977">
        <ele>753.5</ele>
        <time>1970-01-01T00:30:12.000Z</time>
      </trkpt>
      <trkpt lat="42.78549" lon="0.58973">
        <ele>752.4</ele>
        <time>1970-01-01T00:30:13.000Z</time>
      </trkpt>
      <trkpt lat="42.78551" lon="0.5897">
        <ele>751.7</ele>
        <time>1970-01-01T00:30:14.000Z</time>
      </trkpt>
      <trkpt lat="42.78555" lon="0.58973">
        <ele>750.2</ele>
        <time>1970-01-01T00:30:15.000Z</time>
      </trkpt>
      <trkpt lat="42.78561" lon="0.58972">
        <ele>748.4</ele>
        <time>1970-01-01T00:30:17.000Z</time>
      </trkpt>
      <trkpt lat="42.78559" lon="0.58969">
        <ele>747.5</ele>
        <time>1970-01-01T00:30:18.000Z</time>
      </trkpt>
      <trkpt lat="42.78557" lon="0.58969">
        <ele>746.9</ele>
        <time>1970-01-01T00:30:19.000Z</time>
      </trkpt>
      <trkpt lat="42.78555" lon="0.5897">
        <ele>746.2</ele>
        <time>1970-01-01T00:30:21.000Z</time>
      </trkpt>
      <trkpt lat="42.78555" lon="0.58979">
        <ele>744.2</ele>
        <time>1970-01-01T00:30:22.000Z</time>
      </trkpt>
      <trkpt lat="42.78555" lon="0.58987">
        <ele>739</ele>
        <time>1970-01-01T00:30:24.000Z</time>
      </trkpt>
      <trkpt lat="42.78555" lon="0.58996">
        <ele>736.8</ele>
        <time>1970-01-01T00:30:25.000Z</time>
      </trkpt>
      <trkpt lat="42.78555" lon="0.59004">
        <ele>734.4</ele>
        <time>1970-01-01T00:30:27.000Z</time>
      </trkpt>
      <trkpt lat="42.78555" lon="0.59013">
        <ele>731.9</ele>
        <time>1970-01-01T00:30:28.000Z</time>
      </trkpt>
      <trkpt lat="42.78556" lon="0.59021">
        <ele>729.4</ele>
        <time>1970-01-01T00:30:30.000Z</time>
      </trkpt>
      <trkpt lat="42.78559" lon="0.59034">
        <ele>725.4</ele>
        <time>1970-01-01T00:30:32.000Z</time>
      </trkpt>
      <trkpt lat="42.78568" lon="0.5905">
        <ele>719.5</ele>
        <time>1970-01-01T00:30:33.000Z</time>
      </trkpt>
      <trkpt lat="42.78588" lon="0.59054">
        <ele>710.3</ele>
        <time>1970-01-01T00:30:35.000Z</time>
      </trkpt>
      <trkpt lat="42.78605" lon="0.59058">
        <ele>701.9</ele>
        <time>1970-01-01T00:30:37.000Z</time>
      </trkpt>
      <trkpt lat="42.78617" lon="0.59063">
        <ele>696.9</ele>
        <time>1970-01-01T00:30:39.000Z</time>
      </trkpt>
      <trkpt lat="42.78631" lon="0.59067">
        <ele>685.5</ele>
        <time>1970-01-01T00:30:41.000Z</time>
      </trkpt>
      <trkpt lat="42.7865" lon="0.59068">
        <ele>680.4</ele>
        <time>1970-01-01T00:30:43.000Z</time>
      </trkpt>
      <trkpt lat="42.78661" lon="0.59069">
        <ele>677.6</ele>
        <time>1970-01-01T00:30:44.000Z</time>
      </trkpt>
      <trkpt lat="42.78672" lon="0.5907">
        <ele>674.7</ele>
        <time>1970-01-01T00:30:45.000Z</time>
      </trkpt>
      <trkpt lat="42.78694" lon="0.59078">
        <ele>668.7</ele>
        <time>1970-01-01T00:30:47.000Z</time>
      </trkpt>
      <trkpt lat="42.78704" lon="0.5908">
        <ele>666.1</ele>
        <time>1970-01-01T00:30:48.000Z</time>
      </trkpt>
      <trkpt lat="42.78713" lon="0.5908">
        <ele>664</ele>
        <time>1970-01-01T00:30:49.000Z</time>
      </trkpt>
      <trkpt lat="42.78728" lon="0.59082">
        <ele>660.1</ele>
        <time>1970-01-01T00:30:51.000Z</time>
      </trkpt>
      <trkpt lat="42.78735" lon="0.59087">
        <ele>658.1</ele>
        <time>1970-01-01T00:30:52.000Z</time>
      </trkpt>
      <trkpt lat="42.7874" lon="0.59094">
        <ele>655</ele>
        <time>1970-01-01T00:30:53.000Z</time>
      </trkpt>
      <trkpt lat="42.78748" lon="0.59119">
        <ele>652.3</ele>
        <time>1970-01-01T00:30:55.000Z</time>
      </trkpt>
      <trkpt lat="42.78751" lon="0.59135">
        <ele>650.8</ele>
        <time>1970-01-01T00:30:56.000Z</time>
      </trkpt>
      <trkpt lat="42.78754" lon="0.59159">
        <ele>648.6</ele>
        <time>1970-01-01T00:30:58.000Z</time>
      </trkpt>
      <trkpt lat="42.78759" lon="0.5917">
        <ele>647.5</ele>
        <time>1970-01-01T00:31:00.000Z</time>
      </trkpt>
      <trkpt lat="42.78762" lon="0.59163">
        <ele>647.4</ele>
        <time>1970-01-01T00:31:02.000Z</time>
      </trkpt>
      <trkpt lat="42.78756" lon="0.59155">
        <ele>647.1</ele>
        <time>1970-01-01T00:31:03.000Z</time>
      </trkpt>
      <trkpt lat="42.7875" lon="0.59152">
        <ele>646.9</ele>
        <time>1970-01-01T00:31:05.000Z</time>
      </trkpt>
      <trkpt lat="42.78745" lon="0.59151">
        <ele>646.7</ele>
        <time>1970-01-01T00:31:07.000Z</time>
      </trkpt>
      <trkpt lat="42.78744" lon="0.59152">
        <ele>646.7</ele>
        <time>1970-01-01T00:31:09.000Z</time>
      </trkpt>
      <trkpt lat="42.78743" lon="0.59152">
        <ele>646.7</ele>
        <time>1970-01-01T00:31:11.000Z</time>
      </trkpt>
      <trkpt lat="42.78743" lon="0.59152">
        <ele>646.7</ele>
        <time>1970-01-01T00:31:13.000Z</time>
      </trkpt>
      <trkpt lat="42.78743" lon="0.59152">
        <ele>646.7</ele>
        <time>1970-01-01T00:31:14.000Z</time>
      </trkpt>
      <trkpt lat="42.78743" lon="0.59152">
        <ele>646.7</ele>
        <time>1970-01-01T00:31:15.000Z</time>
      </trkpt>
      <trkpt lat="42.78755" lon="0.59145">
        <ele>646.2</ele>
        <time>1970-01-01T00:31:30.000Z</time>
      </trkpt>
      <trkpt lat="42.78759" lon="0.59142">
        <ele>646</ele>
        <time>1970-01-01T00:31:31.000Z</time>
      </trkpt>
      <trkpt lat="42.78762" lon="0.59139">
        <ele>645.9</ele>
        <time>1970-01-01T00:31:32.000Z</time>
      </trkpt>
      <trkpt lat="42.78767" lon="0.59131">
        <ele>645.6</ele>
        <time>1970-01-01T00:31:34.000Z</time>
      </trkpt>
      <trkpt lat="42.78767" lon="0.59124">
        <ele>645.4</ele>
        <time>1970-01-01T00:31:35.000Z</time>
      </trkpt>
      <trkpt lat="42.7876" lon="0.59135">
        <ele>645</ele>
        <time>1970-01-01T00:31:36.000Z</time>
      </trkpt>
      <trkpt lat="42.78759" lon="0.59136">
        <ele>645</ele>
        <time>1970-01-01T00:31:38.000Z</time>
      </trkpt>
      <trkpt lat="42.78758" lon="0.59135">
        <ele>644.9</ele>
        <time>1970-01-01T00:31:39.000Z</time>
      </trkpt>
      <trkpt lat="42.78764" lon="0.5913">
        <ele>644.6</ele>
        <time>1970-01-01T00:31:41.000Z</time>
      </trkpt>
      <trkpt lat="42.78766" lon="0.59127">
        <ele>644.6</ele>
        <time>1970-01-01T00:31:42.000Z</time>
      </trkpt>
      <trkpt lat="42.78768" lon="0.59121">
        <ele>644.4</ele>
        <time>1970-01-01T00:31:44.000Z</time>
      </trkpt>
      <trkpt lat="42.78774" lon="0.59123">
        <ele>643</ele>
        <time>1970-01-01T00:31:46.000Z</time>
      </trkpt>
      <trkpt lat="42.78777" lon="0.59122">
        <ele>642.7</ele>
        <time>1970-01-01T00:31:47.000Z</time>
      </trkpt>
      <trkpt lat="42.78778" lon="0.59122">
        <ele>642.9</ele>
        <time>1970-01-01T00:31:48.000Z</time>
      </trkpt>
      <trkpt lat="42.78779" lon="0.59119">
        <ele>643.3</ele>
        <time>1970-01-01T00:31:49.000Z</time>
      </trkpt>
      <trkpt lat="42.78778" lon="0.59116">
        <ele>643.7</ele>
        <time>1970-01-01T00:31:50.000Z</time>
      </trkpt>
      <trkpt lat="42.78784" lon="0.59107">
        <ele>644.9</ele>
        <time>1970-01-01T00:31:51.000Z</time>
      </trkpt>
      <trkpt lat="42.7879" lon="0.59098">
        <ele>644.8</ele>
        <time>1970-01-01T00:31:53.000Z</time>
      </trkpt>
      <trkpt lat="42.78796" lon="0.59089">
        <ele>645.1</ele>
        <time>1970-01-01T00:31:54.000Z</time>
      </trkpt>
      <trkpt lat="42.78801" lon="0.5908">
        <ele>645.3</ele>
        <time>1970-01-01T00:31:56.000Z</time>
      </trkpt>
      <trkpt lat="42.78801" lon="0.5908">
        <ele>645.3</ele>
        <time>1970-01-01T00:31:57.000Z</time>
      </trkpt>
      <trkpt lat="42.788" lon="0.5908">
        <ele>645.3</ele>
        <time>1970-01-01T00:31:59.000Z</time>
      </trkpt>
      <trkpt lat="42.788" lon="0.59081">
        <ele>645.3</ele>
        <time>1970-01-01T00:32:01.000Z</time>
      </trkpt>
      <trkpt lat="42.788" lon="0.59082">
        <ele>645.3</ele>
        <time>1970-01-01T00:32:03.000Z</time>
      </trkpt>
      <trkpt lat="42.78801" lon="0.59082">
        <ele>645.3</ele>
        <time>1970-01-01T00:32:05.000Z</time>
      </trkpt>
      <trkpt lat="42.78801" lon="0.59082">
        <ele>645.3</ele>
        <time>1970-01-01T00:32:07.000Z</time>
      </trkpt>
      <trkpt lat="42.78802" lon="0.59082">
        <ele>645.3</ele>
        <time>1970-01-01T00:32:08.000Z</time>
      </trkpt>
      <trkpt lat="42.78803" lon="0.59082">
        <ele>645.3</ele>
        <time>1970-01-01T00:32:10.000Z</time>
      </trkpt>
      <trkpt lat="42.78802" lon="0.59082">
        <ele>645.3</ele>
        <time>1970-01-01T00:32:11.000Z</time>
      </trkpt>
      <trkpt lat="42.78803" lon="0.59082">
        <ele>645.3</ele>
        <time>1970-01-01T00:32:12.000Z</time>
      </trkpt>
      <trkpt lat="42.78804" lon="0.59082">
        <ele>645.3</ele>
        <time>1970-01-01T00:32:13.000Z</time>
      </trkpt>
      <trkpt lat="42.78805" lon="0.59083">
        <ele>645.3</ele>
        <time>1970-01-01T00:32:14.000Z</time>
      </trkpt>
      <trkpt lat="42.78806" lon="0.59085">
        <ele>645.3</ele>
        <time>1970-01-01T00:32:16.000Z</time>
      </trkpt>
      <trkpt lat="42.78806" lon="0.59087">
        <ele>645.3</ele>
        <time>1970-01-01T00:32:17.000Z</time>
      </trkpt>
      <trkpt lat="42.78806" lon="0.59089">
        <ele>645.3</ele>
        <time>1970-01-01T00:32:18.000Z</time>
      </trkpt>
      <trkpt lat="42.78807" lon="0.59092">
        <ele>645.2</ele>
        <time>1970-01-01T00:32:20.000Z</time>
      </trkpt>
      <trkpt lat="42.78808" lon="0.59093">
        <ele>645.2</ele>
        <time>1970-01-01T00:32:21.000Z</time>
      </trkpt>
      <trkpt lat="42.7881" lon="0.59096">
        <ele>645.2</ele>
        <time>1970-01-01T00:32:22.000Z</time>
      </trkpt>
      <trkpt lat="42.78811" lon="0.59098">
        <ele>645.2</ele>
        <time>1970-01-01T00:32:24.000Z</time>
      </trkpt>
      <trkpt lat="42.78812" lon="0.59099">
        <ele>645.2</ele>
        <time>1970-01-01T00:32:25.000Z</time>
      </trkpt>
      <trkpt lat="42.78812" lon="0.59099">
        <ele>645.2</ele>
        <time>1970-01-01T00:32:26.000Z</time>
      </trkpt>
      <trkpt lat="42.78813" lon="0.591">
        <ele>645.2</ele>
        <time>1970-01-01T00:32:28.000Z</time>
      </trkpt>
      <trkpt lat="42.78813" lon="0.591">
        <ele>645.2</ele>
        <time>1970-01-01T00:32:29.000Z</time>
      </trkpt>
      <trkpt lat="42.78811" lon="0.591">
        <ele>645.2</ele>
        <time>1970-01-01T00:32:31.000Z</time>
      </trkpt>
      <trkpt lat="42.78811" lon="0.591">
        <ele>645.2</ele>
        <time>1970-01-01T00:32:32.000Z</time>
      </trkpt>
      <trkpt lat="42.78811" lon="0.591">
        <ele>645.2</ele>
        <time>1970-01-01T00:32:33.000Z</time>
      </trkpt>
      <trkpt lat="42.78812" lon="0.59101">
        <ele>645.2</ele>
        <time>1970-01-01T00:32:35.000Z</time>
      </trkpt>
      <trkpt lat="42.78808" lon="0.59098">
        <ele>645.2</ele>
        <time>1970-01-01T00:33:31.000Z</time>
      </trkpt>
      <trkpt lat="42.78808" lon="0.59098">
        <ele>645.2</ele>
        <time>1970-01-01T00:33:32.000Z</time>
      </trkpt>
      <trkpt lat="42.78814" lon="0.59097">
        <ele>645.2</ele>
        <time>1970-01-01T00:33:34.000Z</time>
      </trkpt>
      <trkpt lat="42.78808" lon="0.59094">
        <ele>645.2</ele>
        <time>1970-01-01T00:33:35.000Z</time>
      </trkpt>
      <trkpt lat="42.78807" lon="0.59094">
        <ele>645.2</ele>
        <time>1970-01-01T00:33:37.000Z</time>
      </trkpt>
      <trkpt lat="42.78805" lon="0.59092">
        <ele>645.2</ele>
        <time>1970-01-01T00:33:38.000Z</time>
      </trkpt>
      <trkpt lat="42.78803" lon="0.59089">
        <ele>645.2</ele>
        <time>1970-01-01T00:33:39.000Z</time>
      </trkpt>
      <trkpt lat="42.78798" lon="0.59084">
        <ele>645.3</ele>
        <time>1970-01-01T00:33:40.000Z</time>
      </trkpt>
      <trkpt lat="42.78795" lon="0.59083">
        <ele>645.8</ele>
        <time>1970-01-01T00:33:41.000Z</time>
      </trkpt>
      <trkpt lat="42.7879" lon="0.59081">
        <ele>646.6</ele>
        <time>1970-01-01T00:33:43.000Z</time>
      </trkpt>
      <trkpt lat="42.78775" lon="0.59073">
        <ele>649.2</ele>
        <time>1970-01-01T00:33:45.000Z</time>
      </trkpt>
      <trkpt lat="42.78765" lon="0.59068">
        <ele>653.1</ele>
        <time>1970-01-01T00:33:47.000Z</time>
      </trkpt>
      <trkpt lat="42.78756" lon="0.59065">
        <ele>654.4</ele>
        <time>1970-01-01T00:33:49.000Z</time>
      </trkpt>
      <trkpt lat="42.78749" lon="0.59063">
        <ele>657.6</ele>
        <time>1970-01-01T00:33:50.000Z</time>
      </trkpt>
      <trkpt lat="42.78745" lon="0.59062">
        <ele>658.5</ele>
        <time>1970-01-01T00:33:51.000Z</time>
      </trkpt>
      <trkpt lat="42.78739" lon="0.59059">
        <ele>661.2</ele>
        <time>1970-01-01T00:33:53.000Z</time>
      </trkpt>
      <trkpt lat="42.78734" lon="0.59057">
        <ele>662</ele>
        <time>1970-01-01T00:33:55.000Z</time>
      </trkpt>
      <trkpt lat="42.7873" lon="0.59053">
        <ele>665.3</ele>
        <time>1970-01-01T00:33:57.000Z</time>
      </trkpt>
      <trkpt lat="42.78728" lon="0.59051">
        <ele>666.4</ele>
        <time>1970-01-01T00:33:58.000Z</time>
      </trkpt>
      <trkpt lat="42.78725" lon="0.59047">
        <ele>667.4</ele>
        <time>1970-01-01T00:33:59.000Z</time>
      </trkpt>
      <trkpt lat="42.78725" lon="0.59046">
        <ele>668.5</ele>
        <time>1970-01-01T00:34:00.000Z</time>
      </trkpt>
      <trkpt lat="42.7872" lon="0.59043">
        <ele>671.8</ele>
        <time>1970-01-01T00:34:02.000Z</time>
      </trkpt>
      <trkpt lat="42.78717" lon="0.5904">
        <ele>672.8</ele>
        <time>1970-01-01T00:34:03.000Z</time>
      </trkpt>
      <trkpt lat="42.78713" lon="0.59038">
        <ele>674.9</ele>
        <time>1970-01-01T00:34:04.000Z</time>
      </trkpt>
      <trkpt lat="42.78711" lon="0.59035">
        <ele>675.7</ele>
        <time>1970-01-01T00:34:05.000Z</time>
      </trkpt>
      <trkpt lat="42.78705" lon="0.59033">
        <ele>678.7</ele>
        <time>1970-01-01T00:34:07.000Z</time>
      </trkpt>
      <trkpt lat="42.78702" lon="0.59032">
        <ele>679.7</ele>
        <time>1970-01-01T00:34:08.000Z</time>
      </trkpt>
      <trkpt lat="42.78699" lon="0.59031">
        <ele>680.7</ele>
        <time>1970-01-01T00:34:09.000Z</time>
      </trkpt>
      <trkpt lat="42.78689" lon="0.59028">
        <ele>685</ele>
        <time>1970-01-01T00:34:11.000Z</time>
      </trkpt>
      <trkpt lat="42.78688" lon="0.59027">
        <ele>685</ele>
        <time>1970-01-01T00:34:12.000Z</time>
      </trkpt>
      <trkpt lat="42.78684" lon="0.59022">
        <ele>687</ele>
        <time>1970-01-01T00:34:14.000Z</time>
      </trkpt>
      <trkpt lat="42.7868" lon="0.59018">
        <ele>689.8</ele>
        <time>1970-01-01T00:34:16.000Z</time>
      </trkpt>
      <trkpt lat="42.78676" lon="0.59018">
        <ele>690.7</ele>
        <time>1970-01-01T00:34:17.000Z</time>
      </trkpt>
      <trkpt lat="42.78669" lon="0.59016">
        <ele>693.9</ele>
        <time>1970-01-01T00:34:19.000Z</time>
      </trkpt>
      <trkpt lat="42.78662" lon="0.59012">
        <ele>697.1</ele>
        <time>1970-01-01T00:34:21.000Z</time>
      </trkpt>
      <trkpt lat="42.78656" lon="0.59007">
        <ele>700.4</ele>
        <time>1970-01-01T00:34:23.000Z</time>
      </trkpt>
      <trkpt lat="42.78652" lon="0.59">
        <ele>702.9</ele>
        <time>1970-01-01T00:34:25.000Z</time>
      </trkpt>
      <trkpt lat="42.78647" lon="0.58995">
        <ele>708.2</ele>
        <time>1970-01-01T00:34:27.000Z</time>
      </trkpt>
      <trkpt lat="42.78644" lon="0.58993">
        <ele>709.4</ele>
        <time>1970-01-01T00:34:28.000Z</time>
      </trkpt>
      <trkpt lat="42.78639" lon="0.5899">
        <ele>713.3</ele>
        <time>1970-01-01T00:34:30.000Z</time>
      </trkpt>
      <trkpt lat="42.78634" lon="0.58988">
        <ele>714.6</ele>
        <time>1970-01-01T00:34:32.000Z</time>
      </trkpt>
      <trkpt lat="42.78632" lon="0.58986">
        <ele>717.2</ele>
        <time>1970-01-01T00:34:33.000Z</time>
      </trkpt>
      <trkpt lat="42.78627" lon="0.58984">
        <ele>718.4</ele>
        <time>1970-01-01T00:34:35.000Z</time>
      </trkpt>
      <trkpt lat="42.78624" lon="0.58983">
        <ele>720.9</ele>
        <time>1970-01-01T00:34:36.000Z</time>
      </trkpt>
      <trkpt lat="42.78621" lon="0.58982">
        <ele>721.9</ele>
        <time>1970-01-01T00:34:37.000Z</time>
      </trkpt>
      <trkpt lat="42.78618" lon="0.58981">
        <ele>722.9</ele>
        <time>1970-01-01T00:34:38.000Z</time>
      </trkpt>
      <trkpt lat="42.78615" lon="0.58979">
        <ele>724</ele>
        <time>1970-01-01T00:34:39.000Z</time>
      </trkpt>
      <trkpt lat="42.78613" lon="0.58979">
        <ele>725</ele>
        <time>1970-01-01T00:34:40.000Z</time>
      </trkpt>
      <trkpt lat="42.7861" lon="0.58978">
        <ele>727.6</ele>
        <time>1970-01-01T00:34:41.000Z</time>
      </trkpt>
      <trkpt lat="42.78605" lon="0.58975">
        <ele>728.8</ele>
        <time>1970-01-01T00:34:43.000Z</time>
      </trkpt>
      <trkpt lat="42.78601" lon="0.58973">
        <ele>732.4</ele>
        <time>1970-01-01T00:34:44.000Z</time>
      </trkpt>
      <trkpt lat="42.78599" lon="0.58972">
        <ele>732.4</ele>
        <time>1970-01-01T00:34:45.000Z</time>
      </trkpt>
      <trkpt lat="42.78594" lon="0.58969">
        <ele>736.1</ele>
        <time>1970-01-01T00:34:47.000Z</time>
      </trkpt>
      <trkpt lat="42.78591" lon="0.58966">
        <ele>737.1</ele>
        <time>1970-01-01T00:34:48.000Z</time>
      </trkpt>
      <trkpt lat="42.78586" lon="0.58962">
        <ele>741.2</ele>
        <time>1970-01-01T00:34:50.000Z</time>
      </trkpt>
      <trkpt lat="42.78581" lon="0.58958">
        <ele>744.2</ele>
        <time>1970-01-01T00:34:52.000Z</time>
      </trkpt>
      <trkpt lat="42.78579" lon="0.58955">
        <ele>747.1</ele>
        <time>1970-01-01T00:34:53.000Z</time>
      </trkpt>
      <trkpt lat="42.78573" lon="0.58951">
        <ele>750</ele>
        <time>1970-01-01T00:34:55.000Z</time>
      </trkpt>
      <trkpt lat="42.78571" lon="0.58949">
        <ele>750.9</ele>
        <time>1970-01-01T00:34:56.000Z</time>
      </trkpt>
      <trkpt lat="42.78568" lon="0.58947">
        <ele>753.6</ele>
        <time>1970-01-01T00:34:57.000Z</time>
      </trkpt>
      <trkpt lat="42.78562" lon="0.58944">
        <ele>755.6</ele>
        <time>1970-01-01T00:34:59.000Z</time>
      </trkpt>
      <trkpt lat="42.7856" lon="0.58943">
        <ele>758.5</ele>
        <time>1970-01-01T00:35:00.000Z</time>
      </trkpt>
      <trkpt lat="42.78554" lon="0.58939">
        <ele>762.4</ele>
        <time>1970-01-01T00:35:02.000Z</time>
      </trkpt>
      <trkpt lat="42.78551" lon="0.58937">
        <ele>762.4</ele>
        <time>1970-01-01T00:35:03.000Z</time>
      </trkpt>
      <trkpt lat="42.78549" lon="0.58935">
        <ele>765</ele>
        <time>1970-01-01T00:35:04.000Z</time>
      </trkpt>
      <trkpt lat="42.78546" lon="0.58933">
        <ele>765.8</ele>
        <time>1970-01-01T00:35:05.000Z</time>
      </trkpt>
      <trkpt lat="42.7854" lon="0.5893">
        <ele>769.1</ele>
        <time>1970-01-01T00:35:07.000Z</time>
      </trkpt>
      <trkpt lat="42.78537" lon="0.58928">
        <ele>769.9</ele>
        <time>1970-01-01T00:35:08.000Z</time>
      </trkpt>
      <trkpt lat="42.78534" lon="0.58927">
        <ele>772.6</ele>
        <time>1970-01-01T00:35:09.000Z</time>
      </trkpt>
      <trkpt lat="42.78528" lon="0.58925">
        <ele>774.4</ele>
        <time>1970-01-01T00:35:11.000Z</time>
      </trkpt>
      <trkpt lat="42.78525" lon="0.58925">
        <ele>775.3</ele>
        <time>1970-01-01T00:35:12.000Z</time>
      </trkpt>
      <trkpt lat="42.78522" lon="0.58924">
        <ele>776.1</ele>
        <time>1970-01-01T00:35:13.000Z</time>
      </trkpt>
      <trkpt lat="42.78519" lon="0.58922">
        <ele>778.8</ele>
        <time>1970-01-01T00:35:14.000Z</time>
      </trkpt>
      <trkpt lat="42.78516" lon="0.5892">
        <ele>779.6</ele>
        <time>1970-01-01T00:35:15.000Z</time>
      </trkpt>
      <trkpt lat="42.78513" lon="0.58918">
        <ele>782.3</ele>
        <time>1970-01-01T00:35:16.000Z</time>
      </trkpt>
      <trkpt lat="42.78507" lon="0.58914">
        <ele>785.1</ele>
        <time>1970-01-01T00:35:18.000Z</time>
      </trkpt>
      <trkpt lat="42.78505" lon="0.58912">
        <ele>786</ele>
        <time>1970-01-01T00:35:19.000Z</time>
      </trkpt>
      <trkpt lat="42.78502" lon="0.58909">
        <ele>788.8</ele>
        <time>1970-01-01T00:35:20.000Z</time>
      </trkpt>
      <trkpt lat="42.785" lon="0.58907">
        <ele>789.7</ele>
        <time>1970-01-01T00:35:21.000Z</time>
      </trkpt>
      <trkpt lat="42.78497" lon="0.58905">
        <ele>792.6</ele>
        <time>1970-01-01T00:35:22.000Z</time>
      </trkpt>
      <trkpt lat="42.78494" lon="0.58904">
        <ele>793.6</ele>
        <time>1970-01-01T00:35:23.000Z</time>
      </trkpt>
      <trkpt lat="42.78491" lon="0.58903">
        <ele>794.5</ele>
        <time>1970-01-01T00:35:24.000Z</time>
      </trkpt>
      <trkpt lat="42.78488" lon="0.58902">
        <ele>794.5</ele>
        <time>1970-01-01T00:35:25.000Z</time>
      </trkpt>
      <trkpt lat="42.78482" lon="0.58901">
        <ele>798.1</ele>
        <time>1970-01-01T00:35:27.000Z</time>
      </trkpt>
      <trkpt lat="42.78477" lon="0.58898">
        <ele>800</ele>
        <time>1970-01-01T00:35:29.000Z</time>
      </trkpt>
      <trkpt lat="42.78473" lon="0.58895">
        <ele>802.8</ele>
        <time>1970-01-01T00:35:31.000Z</time>
      </trkpt>
      <trkpt lat="42.7847" lon="0.58893">
        <ele>805.5</ele>
        <time>1970-01-01T00:35:32.000Z</time>
      </trkpt>
      <trkpt lat="42.78469" lon="0.58892">
        <ele>806.7</ele>
        <time>1970-01-01T00:35:33.000Z</time>
      </trkpt>
      <trkpt lat="42.78466" lon="0.5889">
        <ele>807.9</ele>
        <time>1970-01-01T00:35:34.000Z</time>
      </trkpt>
      <trkpt lat="42.78461" lon="0.58886">
        <ele>810.6</ele>
        <time>1970-01-01T00:35:36.000Z</time>
      </trkpt>
      <trkpt lat="42.78459" lon="0.58884">
        <ele>811.7</ele>
        <time>1970-01-01T00:35:37.000Z</time>
      </trkpt>
      <trkpt lat="42.78456" lon="0.58883">
        <ele>814.3</ele>
        <time>1970-01-01T00:35:38.000Z</time>
      </trkpt>
      <trkpt lat="42.78454" lon="0.58881">
        <ele>814.3</ele>
        <time>1970-01-01T00:35:39.000Z</time>
      </trkpt>
      <trkpt lat="42.78451" lon="0.58877">
        <ele>817</ele>
        <time>1970-01-01T00:35:41.000Z</time>
      </trkpt>
      <trkpt lat="42.78448" lon="0.58876">
        <ele>818.4</ele>
        <time>1970-01-01T00:35:42.000Z</time>
      </trkpt>
      <trkpt lat="42.78444" lon="0.58873">
        <ele>823</ele>
        <time>1970-01-01T00:35:44.000Z</time>
      </trkpt>
      <trkpt lat="42.78438" lon="0.5887">
        <ele>826.1</ele>
        <time>1970-01-01T00:35:46.000Z</time>
      </trkpt>
      <trkpt lat="42.78435" lon="0.58868">
        <ele>829</ele>
        <time>1970-01-01T00:35:47.000Z</time>
      </trkpt>
      <trkpt lat="42.78433" lon="0.58867">
        <ele>829</ele>
        <time>1970-01-01T00:35:48.000Z</time>
      </trkpt>
      <trkpt lat="42.7843" lon="0.58867">
        <ele>832</ele>
        <time>1970-01-01T00:35:49.000Z</time>
      </trkpt>
      <trkpt lat="42.78425" lon="0.58865">
        <ele>834.9</ele>
        <time>1970-01-01T00:35:51.000Z</time>
      </trkpt>
      <trkpt lat="42.78422" lon="0.58865">
        <ele>836.5</ele>
        <time>1970-01-01T00:35:52.000Z</time>
      </trkpt>
      <trkpt lat="42.78419" lon="0.58863">
        <ele>836.5</ele>
        <time>1970-01-01T00:35:53.000Z</time>
      </trkpt>
      <trkpt lat="42.78414" lon="0.58858">
        <ele>843.4</ele>
        <time>1970-01-01T00:35:55.000Z</time>
      </trkpt>
      <trkpt lat="42.78411" lon="0.58856">
        <ele>845</ele>
        <time>1970-01-01T00:35:56.000Z</time>
      </trkpt>
      <trkpt lat="42.78408" lon="0.58854">
        <ele>848.3</ele>
        <time>1970-01-01T00:35:57.000Z</time>
      </trkpt>
      <trkpt lat="42.78405" lon="0.58852">
        <ele>849.8</ele>
        <time>1970-01-01T00:35:58.000Z</time>
      </trkpt>
      <trkpt lat="42.784" lon="0.58848">
        <ele>853.1</ele>
        <time>1970-01-01T00:36:00.000Z</time>
      </trkpt>
      <trkpt lat="42.78398" lon="0.58846">
        <ele>854.6</ele>
        <time>1970-01-01T00:36:01.000Z</time>
      </trkpt>
      <trkpt lat="42.78393" lon="0.58842">
        <ele>859.7</ele>
        <time>1970-01-01T00:36:03.000Z</time>
      </trkpt>
      <trkpt lat="42.7839" lon="0.5884">
        <ele>863</ele>
        <time>1970-01-01T00:36:04.000Z</time>
      </trkpt>
      <trkpt lat="42.78385" lon="0.58837">
        <ele>866.4</ele>
        <time>1970-01-01T00:36:06.000Z</time>
      </trkpt>
      <trkpt lat="42.78382" lon="0.58835">
        <ele>867.7</ele>
        <time>1970-01-01T00:36:07.000Z</time>
      </trkpt>
      <trkpt lat="42.78379" lon="0.58834">
        <ele>868.9</ele>
        <time>1970-01-01T00:36:08.000Z</time>
      </trkpt>
      <trkpt lat="42.78376" lon="0.58832">
        <ele>872.1</ele>
        <time>1970-01-01T00:36:09.000Z</time>
      </trkpt>
      <trkpt lat="42.7837" lon="0.58831">
        <ele>874.2</ele>
        <time>1970-01-01T00:36:11.000Z</time>
      </trkpt>
      <trkpt lat="42.78365" lon="0.58829">
        <ele>876.2</ele>
        <time>1970-01-01T00:36:13.000Z</time>
      </trkpt>
      <trkpt lat="42.78361" lon="0.58826">
        <ele>879.3</ele>
        <time>1970-01-01T00:36:15.000Z</time>
      </trkpt>
      <trkpt lat="42.78358" lon="0.58825">
        <ele>880.3</ele>
        <time>1970-01-01T00:36:16.000Z</time>
      </trkpt>
      <trkpt lat="42.78357" lon="0.58824">
        <ele>880.3</ele>
        <time>1970-01-01T00:36:17.000Z</time>
      </trkpt>
      <trkpt lat="42.78354" lon="0.58823">
        <ele>883.4</ele>
        <time>1970-01-01T00:36:18.000Z</time>
      </trkpt>
      <trkpt lat="42.78349" lon="0.5882">
        <ele>885.2</ele>
        <time>1970-01-01T00:36:20.000Z</time>
      </trkpt>
      <trkpt lat="42.78343" lon="0.58816">
        <ele>889</ele>
        <time>1970-01-01T00:36:22.000Z</time>
      </trkpt>
      <trkpt lat="42.78338" lon="0.58813">
        <ele>892.1</ele>
        <time>1970-01-01T00:36:24.000Z</time>
      </trkpt>
      <trkpt lat="42.78335" lon="0.58811">
        <ele>893.1</ele>
        <time>1970-01-01T00:36:25.000Z</time>
      </trkpt>
      <trkpt lat="42.78329" lon="0.58807">
        <ele>897.4</ele>
        <time>1970-01-01T00:36:27.000Z</time>
      </trkpt>
      <trkpt lat="42.78326" lon="0.58805">
        <ele>900.5</ele>
        <time>1970-01-01T00:36:28.000Z</time>
      </trkpt>
      <trkpt lat="42.7832" lon="0.58801">
        <ele>904.4</ele>
        <time>1970-01-01T00:36:30.000Z</time>
      </trkpt>
      <trkpt lat="42.78314" lon="0.58797">
        <ele>908.2</ele>
        <time>1970-01-01T00:36:32.000Z</time>
      </trkpt>
      <trkpt lat="42.78312" lon="0.58795">
        <ele>909.3</ele>
        <time>1970-01-01T00:36:33.000Z</time>
      </trkpt>
      <trkpt lat="42.78306" lon="0.58792">
        <ele>912.4</ele>
        <time>1970-01-01T00:36:35.000Z</time>
      </trkpt>
      <trkpt lat="42.78301" lon="0.58788">
        <ele>916.6</ele>
        <time>1970-01-01T00:36:37.000Z</time>
      </trkpt>
      <trkpt lat="42.78298" lon="0.58787">
        <ele>917.6</ele>
        <time>1970-01-01T00:36:38.000Z</time>
      </trkpt>
      <trkpt lat="42.78294" lon="0.58783">
        <ele>920.5</ele>
        <time>1970-01-01T00:36:40.000Z</time>
      </trkpt>
      <trkpt lat="42.7829" lon="0.58779">
        <ele>924.2</ele>
        <time>1970-01-01T00:36:41.000Z</time>
      </trkpt>
      <trkpt lat="42.78288" lon="0.58777">
        <ele>924.2</ele>
        <time>1970-01-01T00:36:42.000Z</time>
      </trkpt>
      <trkpt lat="42.78285" lon="0.58773">
        <ele>927.1</ele>
        <time>1970-01-01T00:36:44.000Z</time>
      </trkpt>
      <trkpt lat="42.78282" lon="0.58771">
        <ele>930</ele>
        <time>1970-01-01T00:36:45.000Z</time>
      </trkpt>
      <trkpt lat="42.78276" lon="0.58767">
        <ele>933.6</ele>
        <time>1970-01-01T00:36:47.000Z</time>
      </trkpt>
      <trkpt lat="42.78274" lon="0.58765">
        <ele>934.4</ele>
        <time>1970-01-01T00:36:48.000Z</time>
      </trkpt>
      <trkpt lat="42.78268" lon="0.58761">
        <ele>936.7</ele>
        <time>1970-01-01T00:36:50.000Z</time>
      </trkpt>
      <trkpt lat="42.78262" lon="0.58757">
        <ele>939.4</ele>
        <time>1970-01-01T00:36:52.000Z</time>
      </trkpt>
      <trkpt lat="42.78256" lon="0.58753">
        <ele>942</ele>
        <time>1970-01-01T00:36:54.000Z</time>
      </trkpt>
      <trkpt lat="42.78253" lon="0.58751">
        <ele>942.6</ele>
        <time>1970-01-01T00:36:55.000Z</time>
      </trkpt>
      <trkpt lat="42.78248" lon="0.58749">
        <ele>945.1</ele>
        <time>1970-01-01T00:36:56.000Z</time>
      </trkpt>
      <trkpt lat="42.78243" lon="0.58747">
        <ele>947</ele>
        <time>1970-01-01T00:36:58.000Z</time>
      </trkpt>
      <trkpt lat="42.78241" lon="0.58745">
        <ele>947.5</ele>
        <time>1970-01-01T00:36:59.000Z</time>
      </trkpt>
      <trkpt lat="42.78235" lon="0.58741">
        <ele>949.9</ele>
        <time>1970-01-01T00:37:01.000Z</time>
      </trkpt>
      <trkpt lat="42.7823" lon="0.58737">
        <ele>951.9</ele>
        <time>1970-01-01T00:37:03.000Z</time>
      </trkpt>
      <trkpt lat="42.78225" lon="0.58734">
        <ele>953</ele>
        <time>1970-01-01T00:37:05.000Z</time>
      </trkpt>
      <trkpt lat="42.78219" lon="0.58731">
        <ele>955.8</ele>
        <time>1970-01-01T00:37:07.000Z</time>
      </trkpt>
      <trkpt lat="42.78216" lon="0.58729">
        <ele>958.1</ele>
        <time>1970-01-01T00:37:08.000Z</time>
      </trkpt>
      <trkpt lat="42.78214" lon="0.58727">
        <ele>958.9</ele>
        <time>1970-01-01T00:37:09.000Z</time>
      </trkpt>
      <trkpt lat="42.78209" lon="0.58724">
        <ele>961.1</ele>
        <time>1970-01-01T00:37:11.000Z</time>
      </trkpt>
      <trkpt lat="42.78205" lon="0.58722">
        <ele>961.9</ele>
        <time>1970-01-01T00:37:12.000Z</time>
      </trkpt>
      <trkpt lat="42.78204" lon="0.58722">
        <ele>962.7</ele>
        <time>1970-01-01T00:37:13.000Z</time>
      </trkpt>
      <trkpt lat="42.782" lon="0.58719">
        <ele>965</ele>
        <time>1970-01-01T00:37:14.000Z</time>
      </trkpt>
      <trkpt lat="42.78199" lon="0.58718">
        <ele>965</ele>
        <time>1970-01-01T00:37:15.000Z</time>
      </trkpt>
      <trkpt lat="42.78193" lon="0.58714">
        <ele>968.4</ele>
        <time>1970-01-01T00:37:17.000Z</time>
      </trkpt>
      <trkpt lat="42.78191" lon="0.58714">
        <ele>969.7</ele>
        <time>1970-01-01T00:37:18.000Z</time>
      </trkpt>
      <trkpt lat="42.78186" lon="0.58711">
        <ele>972.1</ele>
        <time>1970-01-01T00:37:20.000Z</time>
      </trkpt>
      <trkpt lat="42.78184" lon="0.5871">
        <ele>973.3</ele>
        <time>1970-01-01T00:37:21.000Z</time>
      </trkpt>
      <trkpt lat="42.78179" lon="0.58707">
        <ele>976.8</ele>
        <time>1970-01-01T00:37:23.000Z</time>
      </trkpt>
      <trkpt lat="42.78175" lon="0.58705">
        <ele>978</ele>
        <time>1970-01-01T00:37:24.000Z</time>
      </trkpt>
      <trkpt lat="42.78174" lon="0.58704">
        <ele>978</ele>
        <time>1970-01-01T00:37:25.000Z</time>
      </trkpt>
      <trkpt lat="42.78168" lon="0.58702">
        <ele>982.2</ele>
        <time>1970-01-01T00:37:27.000Z</time>
      </trkpt>
      <trkpt lat="42.78162" lon="0.587">
        <ele>985.3</ele>
        <time>1970-01-01T00:37:29.000Z</time>
      </trkpt>
      <trkpt lat="42.78159" lon="0.58699">
        <ele>988.2</ele>
        <time>1970-01-01T00:37:30.000Z</time>
      </trkpt>
      <trkpt lat="42.78154" lon="0.58695">
        <ele>992.5</ele>
        <time>1970-01-01T00:37:32.000Z</time>
      </trkpt>
      <trkpt lat="42.78151" lon="0.58692">
        <ele>993.9</ele>
        <time>1970-01-01T00:37:33.000Z</time>
      </trkpt>
      <trkpt lat="42.7815" lon="0.58691">
        <ele>995.4</ele>
        <time>1970-01-01T00:37:34.000Z</time>
      </trkpt>
      <trkpt lat="42.78145" lon="0.58688">
        <ele>997</ele>
        <time>1970-01-01T00:37:36.000Z</time>
      </trkpt>
      <trkpt lat="42.78142" lon="0.58686">
        <ele>1001.9</ele>
        <time>1970-01-01T00:37:37.000Z</time>
      </trkpt>
      <trkpt lat="42.78141" lon="0.58685">
        <ele>1001.9</ele>
        <time>1970-01-01T00:37:38.000Z</time>
      </trkpt>
      <trkpt lat="42.78136" lon="0.58683">
        <ele>1003.7</ele>
        <time>1970-01-01T00:37:40.000Z</time>
      </trkpt>
      <trkpt lat="42.78133" lon="0.58681">
        <ele>1006.9</ele>
        <time>1970-01-01T00:37:41.000Z</time>
      </trkpt>
      <trkpt lat="42.78128" lon="0.58679">
        <ele>1010</ele>
        <time>1970-01-01T00:37:43.000Z</time>
      </trkpt>
      <trkpt lat="42.78126" lon="0.58677">
        <ele>1013.2</ele>
        <time>1970-01-01T00:37:44.000Z</time>
      </trkpt>
      <trkpt lat="42.78123" lon="0.58676">
        <ele>1013.2</ele>
        <time>1970-01-01T00:37:45.000Z</time>
      </trkpt>
      <trkpt lat="42.78119" lon="0.58674">
        <ele>1018.1</ele>
        <time>1970-01-01T00:37:46.000Z</time>
      </trkpt>
      <trkpt lat="42.78114" lon="0.5867">
        <ele>1019.9</ele>
        <time>1970-01-01T00:37:48.000Z</time>
      </trkpt>
      <trkpt lat="42.78109" lon="0.58667">
        <ele>1025</ele>
        <time>1970-01-01T00:37:50.000Z</time>
      </trkpt>
      <trkpt lat="42.78106" lon="0.58665">
        <ele>1028.3</ele>
        <time>1970-01-01T00:37:51.000Z</time>
      </trkpt>
      <trkpt lat="42.781" lon="0.58662">
        <ele>1031.5</ele>
        <time>1970-01-01T00:37:53.000Z</time>
      </trkpt>
      <trkpt lat="42.78094" lon="0.58658">
        <ele>1036.2</ele>
        <time>1970-01-01T00:37:55.000Z</time>
      </trkpt>
      <trkpt lat="42.7809" lon="0.58656">
        <ele>1039.2</ele>
        <time>1970-01-01T00:37:56.000Z</time>
      </trkpt>
      <trkpt lat="42.78088" lon="0.58654">
        <ele>1040.7</ele>
        <time>1970-01-01T00:37:57.000Z</time>
      </trkpt>
      <trkpt lat="42.78083" lon="0.58651">
        <ele>1043.9</ele>
        <time>1970-01-01T00:37:59.000Z</time>
      </trkpt>
      <trkpt lat="42.78078" lon="0.58647">
        <ele>1048.7</ele>
        <time>1970-01-01T00:38:01.000Z</time>
      </trkpt>
      <trkpt lat="42.78075" lon="0.58645">
        <ele>1050.4</ele>
        <time>1970-01-01T00:38:02.000Z</time>
      </trkpt>
      <trkpt lat="42.78074" lon="0.58644">
        <ele>1052</ele>
        <time>1970-01-01T00:38:03.000Z</time>
      </trkpt>
      <trkpt lat="42.78069" lon="0.58639">
        <ele>1056.7</ele>
        <time>1970-01-01T00:38:05.000Z</time>
      </trkpt>
      <trkpt lat="42.78063" lon="0.58635">
        <ele>1059.9</ele>
        <time>1970-01-01T00:38:07.000Z</time>
      </trkpt>
      <trkpt lat="42.7806" lon="0.58633">
        <ele>1061.4</ele>
        <time>1970-01-01T00:38:08.000Z</time>
      </trkpt>
      <trkpt lat="42.78059" lon="0.58632">
        <ele>1063</ele>
        <time>1970-01-01T00:38:09.000Z</time>
      </trkpt>
      <trkpt lat="42.78054" lon="0.58631">
        <ele>1064.7</ele>
        <time>1970-01-01T00:38:11.000Z</time>
      </trkpt>
      <trkpt lat="42.78048" lon="0.58631">
        <ele>1069.7</ele>
        <time>1970-01-01T00:38:13.000Z</time>
      </trkpt>
      <trkpt lat="42.78043" lon="0.58629">
        <ele>1072.6</ele>
        <time>1970-01-01T00:38:15.000Z</time>
      </trkpt>
      <trkpt lat="42.7804" lon="0.58627">
        <ele>1073.9</ele>
        <time>1970-01-01T00:38:16.000Z</time>
      </trkpt>
      <trkpt lat="42.78037" lon="0.58625">
        <ele>1076.7</ele>
        <time>1970-01-01T00:38:17.000Z</time>
      </trkpt>
      <trkpt lat="42.78032" lon="0.58621">
        <ele>1079.5</ele>
        <time>1970-01-01T00:38:19.000Z</time>
      </trkpt>
      <trkpt lat="42.78029" lon="0.58619">
        <ele>1081</ele>
        <time>1970-01-01T00:38:20.000Z</time>
      </trkpt>
      <trkpt lat="42.78023" lon="0.58614">
        <ele>1085.4</ele>
        <time>1970-01-01T00:38:22.000Z</time>
      </trkpt>
      <trkpt lat="42.78018" lon="0.5861">
        <ele>1089.4</ele>
        <time>1970-01-01T00:38:24.000Z</time>
      </trkpt>
      <trkpt lat="42.78013" lon="0.58604">
        <ele>1093.4</ele>
        <time>1970-01-01T00:38:26.000Z</time>
      </trkpt>
      <trkpt lat="42.78007" lon="0.58601">
        <ele>1095.8</ele>
        <time>1970-01-01T00:38:28.000Z</time>
      </trkpt>
      <trkpt lat="42.77999" lon="0.58598">
        <ele>1101.7</ele>
        <time>1970-01-01T00:38:30.000Z</time>
      </trkpt>
      <trkpt lat="42.77993" lon="0.58596">
        <ele>1105.9</ele>
        <time>1970-01-01T00:38:32.000Z</time>
      </trkpt>
      <trkpt lat="42.77986" lon="0.58594">
        <ele>1108.3</ele>
        <time>1970-01-01T00:38:34.000Z</time>
      </trkpt>
      <trkpt lat="42.77978" lon="0.58593">
        <ele>1110.9</ele>
        <time>1970-01-01T00:38:36.000Z</time>
      </trkpt>
      <trkpt lat="42.77973" lon="0.58589">
        <ele>1115</ele>
        <time>1970-01-01T00:38:38.000Z</time>
      </trkpt>
      <trkpt lat="42.7797" lon="0.58587">
        <ele>1117.7</ele>
        <time>1970-01-01T00:38:39.000Z</time>
      </trkpt>
      <trkpt lat="42.77969" lon="0.58586">
        <ele>1117.7</ele>
        <time>1970-01-01T00:38:40.000Z</time>
      </trkpt>
      <trkpt lat="42.77967" lon="0.58584">
        <ele>1119</ele>
        <time>1970-01-01T00:38:41.000Z</time>
      </trkpt>
      <trkpt lat="42.77962" lon="0.5858">
        <ele>1122.8</ele>
        <time>1970-01-01T00:38:43.000Z</time>
      </trkpt>
      <trkpt lat="42.77957" lon="0.58577">
        <ele>1125.2</ele>
        <time>1970-01-01T00:38:45.000Z</time>
      </trkpt>
      <trkpt lat="42.77954" lon="0.58575">
        <ele>1127.5</ele>
        <time>1970-01-01T00:38:46.000Z</time>
      </trkpt>
      <trkpt lat="42.77949" lon="0.58571">
        <ele>1130.9</ele>
        <time>1970-01-01T00:38:48.000Z</time>
      </trkpt>
      <trkpt lat="42.77946" lon="0.58569">
        <ele>1132</ele>
        <time>1970-01-01T00:38:49.000Z</time>
      </trkpt>
      <trkpt lat="42.77942" lon="0.58566">
        <ele>1134.4</ele>
        <time>1970-01-01T00:38:51.000Z</time>
      </trkpt>
      <trkpt lat="42.77935" lon="0.58562">
        <ele>1138.2</ele>
        <time>1970-01-01T00:38:53.000Z</time>
      </trkpt>
      <trkpt lat="42.77932" lon="0.5856">
        <ele>1139.4</ele>
        <time>1970-01-01T00:38:54.000Z</time>
      </trkpt>
      <trkpt lat="42.77931" lon="0.58559">
        <ele>1140.5</ele>
        <time>1970-01-01T00:38:55.000Z</time>
      </trkpt>
      <trkpt lat="42.77928" lon="0.58557">
        <ele>1141.9</ele>
        <time>1970-01-01T00:38:56.000Z</time>
      </trkpt>
      <trkpt lat="42.77925" lon="0.58555">
        <ele>1143.8</ele>
        <time>1970-01-01T00:38:57.000Z</time>
      </trkpt>
      <trkpt lat="42.77919" lon="0.58551">
        <ele>1148.1</ele>
        <time>1970-01-01T00:38:59.000Z</time>
      </trkpt>
      <trkpt lat="42.77915" lon="0.58549">
        <ele>1151.2</ele>
        <time>1970-01-01T00:39:00.000Z</time>
      </trkpt>
      <trkpt lat="42.77909" lon="0.58545">
        <ele>1157.3</ele>
        <time>1970-01-01T00:39:02.000Z</time>
      </trkpt>
      <trkpt lat="42.77905" lon="0.58543">
        <ele>1158.7</ele>
        <time>1970-01-01T00:39:03.000Z</time>
      </trkpt>
      <trkpt lat="42.77902" lon="0.58541">
        <ele>1160</ele>
        <time>1970-01-01T00:39:04.000Z</time>
      </trkpt>
      <trkpt lat="42.779" lon="0.58538">
        <ele>1161.4</ele>
        <time>1970-01-01T00:39:05.000Z</time>
      </trkpt>
      <trkpt lat="42.77893" lon="0.58534">
        <ele>1165.9</ele>
        <time>1970-01-01T00:39:07.000Z</time>
      </trkpt>
      <trkpt lat="42.77888" lon="0.5853">
        <ele>1170.9</ele>
        <time>1970-01-01T00:39:08.000Z</time>
      </trkpt>
      <trkpt lat="42.77885" lon="0.58528">
        <ele>1173.9</ele>
        <time>1970-01-01T00:39:09.000Z</time>
      </trkpt>
      <trkpt lat="42.77879" lon="0.58524">
        <ele>1177.3</ele>
        <time>1970-01-01T00:39:11.000Z</time>
      </trkpt>
      <trkpt lat="42.77876" lon="0.58522">
        <ele>1180.2</ele>
        <time>1970-01-01T00:39:12.000Z</time>
      </trkpt>
      <trkpt lat="42.77871" lon="0.58519">
        <ele>1185.2</ele>
        <time>1970-01-01T00:39:13.000Z</time>
      </trkpt>
      <trkpt lat="42.77864" lon="0.58515">
        <ele>1190.7</ele>
        <time>1970-01-01T00:39:15.000Z</time>
      </trkpt>
      <trkpt lat="42.77861" lon="0.58512">
        <ele>1192.9</ele>
        <time>1970-01-01T00:39:16.000Z</time>
      </trkpt>
      <trkpt lat="42.77857" lon="0.5851">
        <ele>1196.5</ele>
        <time>1970-01-01T00:39:17.000Z</time>
      </trkpt>
      <trkpt lat="42.77849" lon="0.58505">
        <ele>1202.2</ele>
        <time>1970-01-01T00:39:19.000Z</time>
      </trkpt>
      <trkpt lat="42.77843" lon="0.58502">
        <ele>1208</ele>
        <time>1970-01-01T00:39:21.000Z</time>
      </trkpt>
      <trkpt lat="42.7784" lon="0.585">
        <ele>1210.2</ele>
        <time>1970-01-01T00:39:22.000Z</time>
      </trkpt>
      <trkpt lat="42.77833" lon="0.58497">
        <ele>1216.4</ele>
        <time>1970-01-01T00:39:24.000Z</time>
      </trkpt>
      <trkpt lat="42.7783" lon="0.58496">
        <ele>1218.6</ele>
        <time>1970-01-01T00:39:25.000Z</time>
      </trkpt>
      <trkpt lat="42.77824" lon="0.58493">
        <ele>1224.6</ele>
        <time>1970-01-01T00:39:27.000Z</time>
      </trkpt>
      <trkpt lat="42.77817" lon="0.5849">
        <ele>1230.8</ele>
        <time>1970-01-01T00:39:28.000Z</time>
      </trkpt>
      <trkpt lat="42.77811" lon="0.58486">
        <ele>1236.6</ele>
        <time>1970-01-01T00:39:30.000Z</time>
      </trkpt>
      <trkpt lat="42.77805" lon="0.58482">
        <ele>1242.6</ele>
        <time>1970-01-01T00:39:32.000Z</time>
      </trkpt>
      <trkpt lat="42.77798" lon="0.58478">
        <ele>1248.6</ele>
        <time>1970-01-01T00:39:33.000Z</time>
      </trkpt>
      <trkpt lat="42.77791" lon="0.58474">
        <ele>1254.2</ele>
        <time>1970-01-01T00:39:35.000Z</time>
      </trkpt>
      <trkpt lat="42.77785" lon="0.58469">
        <ele>1259.8</ele>
        <time>1970-01-01T00:39:37.000Z</time>
      </trkpt>
      <trkpt lat="42.77778" lon="0.58464">
        <ele>1266.2</ele>
        <time>1970-01-01T00:39:39.000Z</time>
      </trkpt>
      <trkpt lat="42.77773" lon="0.58461">
        <ele>1270.6</ele>
        <time>1970-01-01T00:39:41.000Z</time>
      </trkpt>
      <trkpt lat="42.77769" lon="0.58455">
        <ele>1279.4</ele>
        <time>1970-01-01T00:39:43.000Z</time>
      </trkpt>
      <trkpt lat="42.77762" lon="0.5845">
        <ele>1285.5</ele>
        <time>1970-01-01T00:39:45.000Z</time>
      </trkpt>
      <trkpt lat="42.77758" lon="0.58447">
        <ele>1287.6</ele>
        <time>1970-01-01T00:39:46.000Z</time>
      </trkpt>
      <trkpt lat="42.77754" lon="0.58444">
        <ele>1294.5</ele>
        <time>1970-01-01T00:39:47.000Z</time>
      </trkpt>
      <trkpt lat="42.7775" lon="0.58438">
        <ele>1299.3</ele>
        <time>1970-01-01T00:39:48.000Z</time>
      </trkpt>
      <trkpt lat="42.77746" lon="0.58432">
        <ele>1306.4</ele>
        <time>1970-01-01T00:39:50.000Z</time>
      </trkpt>
      <trkpt lat="42.77745" lon="0.58428">
        <ele>1311</ele>
        <time>1970-01-01T00:39:51.000Z</time>
      </trkpt>
      <trkpt lat="42.77743" lon="0.58425">
        <ele>1313.4</ele>
        <time>1970-01-01T00:39:52.000Z</time>
      </trkpt>
      <trkpt lat="42.77736" lon="0.58417">
        <ele>1319.9</ele>
        <time>1970-01-01T00:39:54.000Z</time>
      </trkpt>
      <trkpt lat="42.77733" lon="0.58415">
        <ele>1324.3</ele>
        <time>1970-01-01T00:39:55.000Z</time>
      </trkpt>
      <trkpt lat="42.77729" lon="0.5841">
        <ele>1331</ele>
        <time>1970-01-01T00:39:57.000Z</time>
      </trkpt>
      <trkpt lat="42.77725" lon="0.58407">
        <ele>1335.4</ele>
        <time>1970-01-01T00:39:58.000Z</time>
      </trkpt>
      <trkpt lat="42.77723" lon="0.58404">
        <ele>1337.5</ele>
        <time>1970-01-01T00:39:59.000Z</time>
      </trkpt>
      <trkpt lat="42.77722" lon="0.58403">
        <ele>1339.6</ele>
        <time>1970-01-01T00:40:00.000Z</time>
      </trkpt>
      <trkpt lat="42.7772" lon="0.58401">
        <ele>1339.6</ele>
        <time>1970-01-01T00:40:01.000Z</time>
      </trkpt>
      <trkpt lat="42.77718" lon="0.58396">
        <ele>1343.4</ele>
        <time>1970-01-01T00:40:03.000Z</time>
      </trkpt>
      <trkpt lat="42.77714" lon="0.58391">
        <ele>1347</ele>
        <time>1970-01-01T00:40:05.000Z</time>
      </trkpt>
      <trkpt lat="42.7771" lon="0.58387">
        <ele>1352.2</ele>
        <time>1970-01-01T00:40:07.000Z</time>
      </trkpt>
      <trkpt lat="42.77702" lon="0.58384">
        <ele>1357.4</ele>
        <time>1970-01-01T00:40:09.000Z</time>
      </trkpt>
      <trkpt lat="42.77695" lon="0.58381">
        <ele>1362.6</ele>
        <time>1970-01-01T00:40:11.000Z</time>
      </trkpt>
      <trkpt lat="42.77691" lon="0.58379">
        <ele>1366</ele>
        <time>1970-01-01T00:40:12.000Z</time>
      </trkpt>
      <trkpt lat="42.77679" lon="0.58373">
        <ele>1373.6</ele>
        <time>1970-01-01T00:40:14.000Z</time>
      </trkpt>
      <trkpt lat="42.77675" lon="0.58371">
        <ele>1376.3</ele>
        <time>1970-01-01T00:40:15.000Z</time>
      </trkpt>
      <trkpt lat="42.77667" lon="0.58367">
        <ele>1380.4</ele>
        <time>1970-01-01T00:40:17.000Z</time>
      </trkpt>
      <trkpt lat="42.77661" lon="0.58365">
        <ele>1384.2</ele>
        <time>1970-01-01T00:40:18.000Z</time>
      </trkpt>
      <trkpt lat="42.77658" lon="0.58364">
        <ele>1385.3</ele>
        <time>1970-01-01T00:40:19.000Z</time>
      </trkpt>
      <trkpt lat="42.77655" lon="0.58364">
        <ele>1386.2</ele>
        <time>1970-01-01T00:40:20.000Z</time>
      </trkpt>
      <trkpt lat="42.77648" lon="0.58362">
        <ele>1387.5</ele>
        <time>1970-01-01T00:40:22.000Z</time>
      </trkpt>
      <trkpt lat="42.77642" lon="0.5836">
        <ele>1390.1</ele>
        <time>1970-01-01T00:40:23.000Z</time>
      </trkpt>
      <trkpt lat="42.77638" lon="0.58357">
        <ele>1390.8</ele>
        <time>1970-01-01T00:40:24.000Z</time>
      </trkpt>
      <trkpt lat="42.77631" lon="0.58354">
        <ele>1394</ele>
        <time>1970-01-01T00:40:26.000Z</time>
      </trkpt>
      <trkpt lat="42.77628" lon="0.58351">
        <ele>1395.8</ele>
        <time>1970-01-01T00:40:27.000Z</time>
      </trkpt>
      <trkpt lat="42.77622" lon="0.58343">
        <ele>1399.6</ele>
        <time>1970-01-01T00:40:29.000Z</time>
      </trkpt>
      <trkpt lat="42.77619" lon="0.58341">
        <ele>1399.6</ele>
        <time>1970-01-01T00:40:30.000Z</time>
      </trkpt>
      <trkpt lat="42.77616" lon="0.58339">
        <ele>1401.7</ele>
        <time>1970-01-01T00:40:31.000Z</time>
      </trkpt>
      <trkpt lat="42.77609" lon="0.58333">
        <ele>1405.8</ele>
        <time>1970-01-01T00:40:33.000Z</time>
      </trkpt>
      <trkpt lat="42.77607" lon="0.5833">
        <ele>1407.5</ele>
        <time>1970-01-01T00:40:34.000Z</time>
      </trkpt>
      <trkpt lat="42.77604" lon="0.58328">
        <ele>1408.3</ele>
        <time>1970-01-01T00:40:35.000Z</time>
      </trkpt>
      <trkpt lat="42.77601" lon="0.58325">
        <ele>1410.9</ele>
        <time>1970-01-01T00:40:36.000Z</time>
      </trkpt>
      <trkpt lat="42.77592" lon="0.58322">
        <ele>1414.9</ele>
        <time>1970-01-01T00:40:38.000Z</time>
      </trkpt>
      <trkpt lat="42.77589" lon="0.5832">
        <ele>1415.6</ele>
        <time>1970-01-01T00:40:39.000Z</time>
      </trkpt>
      <trkpt lat="42.77581" lon="0.58318">
        <ele>1417.7</ele>
        <time>1970-01-01T00:40:41.000Z</time>
      </trkpt>
      <trkpt lat="42.77577" lon="0.58317">
        <ele>1419.8</ele>
        <time>1970-01-01T00:40:42.000Z</time>
      </trkpt>
      <trkpt lat="42.77565" lon="0.5832">
        <ele>1419.8</ele>
        <time>1970-01-01T00:40:43.000Z</time>
      </trkpt>
      <trkpt lat="42.77561" lon="0.58318">
        <ele>1420.1</ele>
        <time>1970-01-01T00:40:44.000Z</time>
      </trkpt>
      <trkpt lat="42.77554" lon="0.58318">
        <ele>1420.4</ele>
        <time>1970-01-01T00:40:46.000Z</time>
      </trkpt>
      <trkpt lat="42.7755" lon="0.58317">
        <ele>1421.8</ele>
        <time>1970-01-01T00:40:47.000Z</time>
      </trkpt>
      <trkpt lat="42.77545" lon="0.58316">
        <ele>1421.7</ele>
        <time>1970-01-01T00:40:48.000Z</time>
      </trkpt>
      <trkpt lat="42.77539" lon="0.58312">
        <ele>1422.8</ele>
        <time>1970-01-01T00:40:50.000Z</time>
      </trkpt>
      <trkpt lat="42.77536" lon="0.5831">
        <ele>1422.6</ele>
        <time>1970-01-01T00:40:51.000Z</time>
      </trkpt>
      <trkpt lat="42.77534" lon="0.58308">
        <ele>1423.6</ele>
        <time>1970-01-01T00:40:52.000Z</time>
      </trkpt>
      <trkpt lat="42.77527" lon="0.58302">
        <ele>1424.5</ele>
        <time>1970-01-01T00:40:54.000Z</time>
      </trkpt>
      <trkpt lat="42.77521" lon="0.58299">
        <ele>1425.4</ele>
        <time>1970-01-01T00:40:56.000Z</time>
      </trkpt>
      <trkpt lat="42.77518" lon="0.58297">
        <ele>1425.3</ele>
        <time>1970-01-01T00:40:57.000Z</time>
      </trkpt>
      <trkpt lat="42.77508" lon="0.58293">
        <ele>1426.2</ele>
        <time>1970-01-01T00:40:59.000Z</time>
      </trkpt>
      <trkpt lat="42.77502" lon="0.58289">
        <ele>1427.3</ele>
        <time>1970-01-01T00:41:01.000Z</time>
      </trkpt>
      <trkpt lat="42.77496" lon="0.58285">
        <ele>1428.5</ele>
        <time>1970-01-01T00:41:03.000Z</time>
      </trkpt>
      <trkpt lat="42.77493" lon="0.58284">
        <ele>1428.3</ele>
        <time>1970-01-01T00:41:04.000Z</time>
      </trkpt>
      <trkpt lat="42.77486" lon="0.58281">
        <ele>1429.3</ele>
        <time>1970-01-01T00:41:06.000Z</time>
      </trkpt>
      <trkpt lat="42.77483" lon="0.5828">
        <ele>1429.1</ele>
        <time>1970-01-01T00:41:07.000Z</time>
      </trkpt>
      <trkpt lat="42.77476" lon="0.58275">
        <ele>1430.1</ele>
        <time>1970-01-01T00:41:09.000Z</time>
      </trkpt>
      <trkpt lat="42.77472" lon="0.5827">
        <ele>1432.8</ele>
        <time>1970-01-01T00:41:11.000Z</time>
      </trkpt>
      <trkpt lat="42.77463" lon="0.58264">
        <ele>1433.6</ele>
        <time>1970-01-01T00:41:13.000Z</time>
      </trkpt>
      <trkpt lat="42.7746" lon="0.58262">
        <ele>1434.9</ele>
        <time>1970-01-01T00:41:14.000Z</time>
      </trkpt>
      <trkpt lat="42.77457" lon="0.58259">
        <ele>1434.8</ele>
        <time>1970-01-01T00:41:15.000Z</time>
      </trkpt>
      <trkpt lat="42.77452" lon="0.58255">
        <ele>1436.2</ele>
        <time>1970-01-01T00:41:17.000Z</time>
      </trkpt>
      <trkpt lat="42.77445" lon="0.58249">
        <ele>1439.7</ele>
        <time>1970-01-01T00:41:19.000Z</time>
      </trkpt>
      <trkpt lat="42.7744" lon="0.58245">
        <ele>1440</ele>
        <time>1970-01-01T00:41:21.000Z</time>
      </trkpt>
      <trkpt lat="42.77435" lon="0.58247">
        <ele>1440.7</ele>
        <time>1970-01-01T00:41:23.000Z</time>
      </trkpt>
      <trkpt lat="42.77432" lon="0.58245">
        <ele>1441.1</ele>
        <time>1970-01-01T00:41:24.000Z</time>
      </trkpt>
      <trkpt lat="42.7743" lon="0.58243">
        <ele>1442.8</ele>
        <time>1970-01-01T00:41:25.000Z</time>
      </trkpt>
      <trkpt lat="42.77426" lon="0.5824">
        <ele>1445.5</ele>
        <time>1970-01-01T00:41:27.000Z</time>
      </trkpt>
      <trkpt lat="42.77421" lon="0.58236">
        <ele>1447.9</ele>
        <time>1970-01-01T00:41:29.000Z</time>
      </trkpt>
      <trkpt lat="42.77418" lon="0.58234">
        <ele>1448.6</ele>
        <time>1970-01-01T00:41:30.000Z</time>
      </trkpt>
      <trkpt lat="42.77418" lon="0.58233">
        <ele>1448.6</ele>
        <time>1970-01-01T00:41:31.000Z</time>
      </trkpt>
      <trkpt lat="42.77416" lon="0.58231">
        <ele>1451.1</ele>
        <time>1970-01-01T00:41:32.000Z</time>
      </trkpt>
      <trkpt lat="42.77411" lon="0.58228">
        <ele>1451.9</ele>
        <time>1970-01-01T00:41:34.000Z</time>
      </trkpt>
      <trkpt lat="42.77409" lon="0.58227">
        <ele>1455.7</ele>
        <time>1970-01-01T00:41:35.000Z</time>
      </trkpt>
      <trkpt lat="42.77404" lon="0.58224">
        <ele>1457.5</ele>
        <time>1970-01-01T00:41:37.000Z</time>
      </trkpt>
      <trkpt lat="42.77398" lon="0.5822">
        <ele>1461.1</ele>
        <time>1970-01-01T00:41:39.000Z</time>
      </trkpt>
      <trkpt lat="42.77392" lon="0.58217">
        <ele>1463.8</ele>
        <time>1970-01-01T00:41:41.000Z</time>
      </trkpt>
      <trkpt lat="42.77389" lon="0.58215">
        <ele>1465</ele>
        <time>1970-01-01T00:41:42.000Z</time>
      </trkpt>
      <trkpt lat="42.77383" lon="0.5821">
        <ele>1470.9</ele>
        <time>1970-01-01T00:41:44.000Z</time>
      </trkpt>
      <trkpt lat="42.77376" lon="0.58207">
        <ele>1474.7</ele>
        <time>1970-01-01T00:41:46.000Z</time>
      </trkpt>
      <trkpt lat="42.77368" lon="0.58204">
        <ele>1478.8</ele>
        <time>1970-01-01T00:41:48.000Z</time>
      </trkpt>
      <trkpt lat="42.77366" lon="0.58202">
        <ele>1480.2</ele>
        <time>1970-01-01T00:41:49.000Z</time>
      </trkpt>
      <trkpt lat="42.77363" lon="0.58201">
        <ele>1483.4</ele>
        <time>1970-01-01T00:41:50.000Z</time>
      </trkpt>
      <trkpt lat="42.7736" lon="0.58199">
        <ele>1484.9</ele>
        <time>1970-01-01T00:41:51.000Z</time>
      </trkpt>
      <trkpt lat="42.77352" lon="0.58196">
        <ele>1489.6</ele>
        <time>1970-01-01T00:41:53.000Z</time>
      </trkpt>
      <trkpt lat="42.77346" lon="0.58193">
        <ele>1493.8</ele>
        <time>1970-01-01T00:41:55.000Z</time>
      </trkpt>
      <trkpt lat="42.7734" lon="0.5819">
        <ele>1496.3</ele>
        <time>1970-01-01T00:41:57.000Z</time>
      </trkpt>
      <trkpt lat="42.77336" lon="0.58189">
        <ele>1499.6</ele>
        <time>1970-01-01T00:41:58.000Z</time>
      </trkpt>
      <trkpt lat="42.77331" lon="0.58185">
        <ele>1502.5</ele>
        <time>1970-01-01T00:42:00.000Z</time>
      </trkpt>
      <trkpt lat="42.77328" lon="0.58184">
        <ele>1505.6</ele>
        <time>1970-01-01T00:42:01.000Z</time>
      </trkpt>
      <trkpt lat="42.77326" lon="0.58183">
        <ele>1506.9</ele>
        <time>1970-01-01T00:42:02.000Z</time>
      </trkpt>
      <trkpt lat="42.77318" lon="0.5818">
        <ele>1511</ele>
        <time>1970-01-01T00:42:04.000Z</time>
      </trkpt>
      <trkpt lat="42.77315" lon="0.58178">
        <ele>1512.4</ele>
        <time>1970-01-01T00:42:05.000Z</time>
      </trkpt>
      <trkpt lat="42.7731" lon="0.58174">
        <ele>1516.9</ele>
        <time>1970-01-01T00:42:07.000Z</time>
      </trkpt>
      <trkpt lat="42.77302" lon="0.5817">
        <ele>1521.5</ele>
        <time>1970-01-01T00:42:09.000Z</time>
      </trkpt>
      <trkpt lat="42.77296" lon="0.58167">
        <ele>1526.1</ele>
        <time>1970-01-01T00:42:11.000Z</time>
      </trkpt>
      <trkpt lat="42.77288" lon="0.58163">
        <ele>1530.7</ele>
        <time>1970-01-01T00:42:13.000Z</time>
      </trkpt>
      <trkpt lat="42.77284" lon="0.58162">
        <ele>1534.1</ele>
        <time>1970-01-01T00:42:14.000Z</time>
      </trkpt>
      <trkpt lat="42.77277" lon="0.58159">
        <ele>1537.6</ele>
        <time>1970-01-01T00:42:16.000Z</time>
      </trkpt>
      <trkpt lat="42.77268" lon="0.58155">
        <ele>1544.9</ele>
        <time>1970-01-01T00:42:18.000Z</time>
      </trkpt>
      <trkpt lat="42.77264" lon="0.58153">
        <ele>1548.6</ele>
        <time>1970-01-01T00:42:19.000Z</time>
      </trkpt>
      <trkpt lat="42.77261" lon="0.58151">
        <ele>1550.2</ele>
        <time>1970-01-01T00:42:20.000Z</time>
      </trkpt>
      <trkpt lat="42.77256" lon="0.58149">
        <ele>1555.3</ele>
        <time>1970-01-01T00:42:22.000Z</time>
      </trkpt>
      <trkpt lat="42.77254" lon="0.58148">
        <ele>1555.3</ele>
        <time>1970-01-01T00:42:23.000Z</time>
      </trkpt>
      <trkpt lat="42.77251" lon="0.58145">
        <ele>1558.9</ele>
        <time>1970-01-01T00:42:25.000Z</time>
      </trkpt>
      <trkpt lat="42.77248" lon="0.58145">
        <ele>1560.5</ele>
        <time>1970-01-01T00:42:27.000Z</time>
      </trkpt>
      <trkpt lat="42.77247" lon="0.58144">
        <ele>1562.1</ele>
        <time>1970-01-01T00:42:28.000Z</time>
      </trkpt>
      <trkpt lat="42.77245" lon="0.58143">
        <ele>1562.1</ele>
        <time>1970-01-01T00:42:29.000Z</time>
      </trkpt>
      <trkpt lat="42.77244" lon="0.58142">
        <ele>1565.7</ele>
        <time>1970-01-01T00:42:30.000Z</time>
      </trkpt>
      <trkpt lat="42.7724" lon="0.5814">
        <ele>1567.2</ele>
        <time>1970-01-01T00:42:32.000Z</time>
      </trkpt>
      <trkpt lat="42.77239" lon="0.58138">
        <ele>1567.2</ele>
        <time>1970-01-01T00:42:33.000Z</time>
      </trkpt>
      <trkpt lat="42.77235" lon="0.58136">
        <ele>1570.3</ele>
        <time>1970-01-01T00:42:35.000Z</time>
      </trkpt>
      <trkpt lat="42.77233" lon="0.58133">
        <ele>1571.6</ele>
        <time>1970-01-01T00:42:37.000Z</time>
      </trkpt>
      <trkpt lat="42.77231" lon="0.5813">
        <ele>1574.6</ele>
        <time>1970-01-01T00:42:39.000Z</time>
      </trkpt>
      <trkpt lat="42.77229" lon="0.58127">
        <ele>1576.3</ele>
        <time>1970-01-01T00:42:41.000Z</time>
      </trkpt>
      <trkpt lat="42.77229" lon="0.58126">
        <ele>1576.3</ele>
        <time>1970-01-01T00:42:42.000Z</time>
      </trkpt>
      <trkpt lat="42.77229" lon="0.58125">
        <ele>1576.3</ele>
        <time>1970-01-01T00:42:43.000Z</time>
      </trkpt>
      <trkpt lat="42.77228" lon="0.58124">
        <ele>1577.9</ele>
        <time>1970-01-01T00:42:45.000Z</time>
      </trkpt>
      <trkpt lat="42.77226" lon="0.58121">
        <ele>1579.2</ele>
        <time>1970-01-01T00:42:47.000Z</time>
      </trkpt>
      <trkpt lat="42.77226" lon="0.58119">
        <ele>1580.8</ele>
        <time>1970-01-01T00:42:49.000Z</time>
      </trkpt>
      <trkpt lat="42.77226" lon="0.58117">
        <ele>1580.8</ele>
        <time>1970-01-01T00:42:50.000Z</time>
      </trkpt>
      <trkpt lat="42.77225" lon="0.58115">
        <ele>1583.8</ele>
        <time>1970-01-01T00:42:51.000Z</time>
      </trkpt>
      <trkpt lat="42.77224" lon="0.58114">
        <ele>1583.8</ele>
        <time>1970-01-01T00:42:52.000Z</time>
      </trkpt>
      <trkpt lat="42.77223" lon="0.58112">
        <ele>1583.8</ele>
        <time>1970-01-01T00:42:53.000Z</time>
      </trkpt>
      <trkpt lat="42.77221" lon="0.58111">
        <ele>1586.8</ele>
        <time>1970-01-01T00:42:55.000Z</time>
      </trkpt>
      <trkpt lat="42.77219" lon="0.58108">
        <ele>1586.8</ele>
        <time>1970-01-01T00:42:57.000Z</time>
      </trkpt>
      <trkpt lat="42.77218" lon="0.58107">
        <ele>1589.8</ele>
        <time>1970-01-01T00:42:58.000Z</time>
      </trkpt>
      <trkpt lat="42.77216" lon="0.58106">
        <ele>1589.8</ele>
        <time>1970-01-01T00:42:59.000Z</time>
      </trkpt>
      <trkpt lat="42.77214" lon="0.58105">
        <ele>1591.1</ele>
        <time>1970-01-01T00:43:00.000Z</time>
      </trkpt>
      <trkpt lat="42.77212" lon="0.58103">
        <ele>1592.2</ele>
        <time>1970-01-01T00:43:02.000Z</time>
      </trkpt>
      <trkpt lat="42.77211" lon="0.58103">
        <ele>1593.7</ele>
        <time>1970-01-01T00:43:03.000Z</time>
      </trkpt>
      <trkpt lat="42.77209" lon="0.58102">
        <ele>1594.8</ele>
        <time>1970-01-01T00:43:04.000Z</time>
      </trkpt>
      <trkpt lat="42.77207" lon="0.58101">
        <ele>1594.8</ele>
        <time>1970-01-01T00:43:06.000Z</time>
      </trkpt>
      <trkpt lat="42.77205" lon="0.58099">
        <ele>1597.3</ele>
        <time>1970-01-01T00:43:08.000Z</time>
      </trkpt>
      <trkpt lat="42.77205" lon="0.58098">
        <ele>1597.3</ele>
        <time>1970-01-01T00:43:09.000Z</time>
      </trkpt>
      <trkpt lat="42.77205" lon="0.58098">
        <ele>1597.3</ele>
        <time>1970-01-01T00:43:11.000Z</time>
      </trkpt>
      <trkpt lat="42.77206" lon="0.58098">
        <ele>1597.3</ele>
        <time>1970-01-01T00:43:12.000Z</time>
      </trkpt>
      <trkpt lat="42.77209" lon="0.58101">
        <ele>1594.8</ele>
        <time>1970-01-01T00:43:14.000Z</time>
      </trkpt>
      <trkpt lat="42.7721" lon="0.58103">
        <ele>1593.7</ele>
        <time>1970-01-01T00:43:15.000Z</time>
      </trkpt>
      <trkpt lat="42.77211" lon="0.58105">
        <ele>1592.2</ele>
        <time>1970-01-01T00:43:17.000Z</time>
      </trkpt>
      <trkpt lat="42.77214" lon="0.58108">
        <ele>1589.5</ele>
        <time>1970-01-01T00:43:19.000Z</time>
      </trkpt>
      <trkpt lat="42.77213" lon="0.58109">
        <ele>1589.5</ele>
        <time>1970-01-01T00:43:20.000Z</time>
      </trkpt>
      <trkpt lat="42.77213" lon="0.5811">
        <ele>1589.5</ele>
        <time>1970-01-01T00:43:22.000Z</time>
      </trkpt>
      <trkpt lat="42.77214" lon="0.5811">
        <ele>1589.5</ele>
        <time>1970-01-01T00:43:24.000Z</time>
      </trkpt>
      <trkpt lat="42.77213" lon="0.58109">
        <ele>1589.5</ele>
        <time>1970-01-01T00:43:25.000Z</time>
      </trkpt>
      <trkpt lat="42.77212" lon="0.58108">
        <ele>1590.6</ele>
        <time>1970-01-01T00:43:26.000Z</time>
      </trkpt>
      <trkpt lat="42.7721" lon="0.58106">
        <ele>1592.2</ele>
        <time>1970-01-01T00:43:28.000Z</time>
      </trkpt>
      <trkpt lat="42.77208" lon="0.58105">
        <ele>1593.2</ele>
        <time>1970-01-01T00:43:29.000Z</time>
      </trkpt>
      <trkpt lat="42.77207" lon="0.58103">
        <ele>1593.2</ele>
        <time>1970-01-01T00:43:30.000Z</time>
      </trkpt>
      <trkpt lat="42.77206" lon="0.58102">
        <ele>1595.8</ele>
        <time>1970-01-01T00:43:31.000Z</time>
      </trkpt>
      <trkpt lat="42.77203" lon="0.581">
        <ele>1596.9</ele>
        <time>1970-01-01T00:43:33.000Z</time>
      </trkpt>
      <trkpt lat="42.77202" lon="0.58099">
        <ele>1596.9</ele>
        <time>1970-01-01T00:43:34.000Z</time>
      </trkpt>
      <trkpt lat="42.772" lon="0.58099">
        <ele>1598.3</ele>
        <time>1970-01-01T00:43:35.000Z</time>
      </trkpt>
      <trkpt lat="42.77196" lon="0.58099">
        <ele>1599.3</ele>
        <time>1970-01-01T00:43:37.000Z</time>
      </trkpt>
      <trkpt lat="42.77194" lon="0.58099">
        <ele>1600.5</ele>
        <time>1970-01-01T00:43:38.000Z</time>
      </trkpt>
      <trkpt lat="42.7719" lon="0.58098">
        <ele>1603.1</ele>
        <time>1970-01-01T00:43:39.000Z</time>
      </trkpt>
      <trkpt lat="42.77189" lon="0.58098">
        <ele>1603.1</ele>
        <time>1970-01-01T00:43:40.000Z</time>
      </trkpt>
      <trkpt lat="42.77184" lon="0.58096">
        <ele>1605.1</ele>
        <time>1970-01-01T00:43:42.000Z</time>
      </trkpt>
      <trkpt lat="42.77179" lon="0.58094">
        <ele>1607.4</ele>
        <time>1970-01-01T00:43:44.000Z</time>
      </trkpt>
      <trkpt lat="42.77176" lon="0.58093">
        <ele>1608.4</ele>
        <time>1970-01-01T00:43:45.000Z</time>
      </trkpt>
      <trkpt lat="42.77171" lon="0.58089">
        <ele>1611.8</ele>
        <time>1970-01-01T00:43:47.000Z</time>
      </trkpt>
      <trkpt lat="42.77166" lon="0.58085">
        <ele>1614.2</ele>
        <time>1970-01-01T00:43:49.000Z</time>
      </trkpt>
      <trkpt lat="42.77163" lon="0.58084">
        <ele>1615.3</ele>
        <time>1970-01-01T00:43:50.000Z</time>
      </trkpt>
      <trkpt lat="42.77158" lon="0.5808">
        <ele>1618.6</ele>
        <time>1970-01-01T00:43:52.000Z</time>
      </trkpt>
      <trkpt lat="42.77153" lon="0.58076">
        <ele>1620.9</ele>
        <time>1970-01-01T00:43:54.000Z</time>
      </trkpt>
      <trkpt lat="42.77151" lon="0.58073">
        <ele>1623.3</ele>
        <time>1970-01-01T00:43:55.000Z</time>
      </trkpt>
      <trkpt lat="42.77147" lon="0.58069">
        <ele>1624.2</ele>
        <time>1970-01-01T00:43:57.000Z</time>
      </trkpt>
      <trkpt lat="42.77142" lon="0.58065">
        <ele>1627.7</ele>
        <time>1970-01-01T00:43:59.000Z</time>
      </trkpt>
      <trkpt lat="42.77137" lon="0.58062">
        <ele>1631.4</ele>
        <time>1970-01-01T00:44:01.000Z</time>
      </trkpt>
      <trkpt lat="42.77134" lon="0.5806">
        <ele>1632.4</ele>
        <time>1970-01-01T00:44:02.000Z</time>
      </trkpt>
      <trkpt lat="42.77131" lon="0.58059">
        <ele>1634.1</ele>
        <time>1970-01-01T00:44:03.000Z</time>
      </trkpt>
      <trkpt lat="42.77125" lon="0.58056">
        <ele>1637.8</ele>
        <time>1970-01-01T00:44:05.000Z</time>
      </trkpt>
      <trkpt lat="42.77122" lon="0.58054">
        <ele>1638.7</ele>
        <time>1970-01-01T00:44:06.000Z</time>
      </trkpt>
      <trkpt lat="42.77116" lon="0.58051">
        <ele>1642.9</ele>
        <time>1970-01-01T00:44:08.000Z</time>
      </trkpt>
      <trkpt lat="42.77113" lon="0.58049">
        <ele>1643.9</ele>
        <time>1970-01-01T00:44:09.000Z</time>
      </trkpt>
      <trkpt lat="42.7711" lon="0.58047">
        <ele>1646.8</ele>
        <time>1970-01-01T00:44:10.000Z</time>
      </trkpt>
      <trkpt lat="42.77107" lon="0.58045">
        <ele>1648</ele>
        <time>1970-01-01T00:44:11.000Z</time>
      </trkpt>
      <trkpt lat="42.77102" lon="0.58041">
        <ele>1651.9</ele>
        <time>1970-01-01T00:44:13.000Z</time>
      </trkpt>
      <trkpt lat="42.77099" lon="0.58039">
        <ele>1654.6</ele>
        <time>1970-01-01T00:44:14.000Z</time>
      </trkpt>
      <trkpt lat="42.77096" lon="0.58037">
        <ele>1655.6</ele>
        <time>1970-01-01T00:44:15.000Z</time>
      </trkpt>
      <trkpt lat="42.77093" lon="0.58035">
        <ele>1655.6</ele>
        <time>1970-01-01T00:44:16.000Z</time>
      </trkpt>
      <trkpt lat="42.77091" lon="0.58033">
        <ele>1658.4</ele>
        <time>1970-01-01T00:44:17.000Z</time>
      </trkpt>
      <trkpt lat="42.77086" lon="0.5803">
        <ele>1662.9</ele>
        <time>1970-01-01T00:44:19.000Z</time>
      </trkpt>
      <trkpt lat="42.77081" lon="0.58027">
        <ele>1664.2</ele>
        <time>1970-01-01T00:44:21.000Z</time>
      </trkpt>
      <trkpt lat="42.77078" lon="0.58026">
        <ele>1665.6</ele>
        <time>1970-01-01T00:44:22.000Z</time>
      </trkpt>
      <trkpt lat="42.77075" lon="0.58025">
        <ele>1668.7</ele>
        <time>1970-01-01T00:44:23.000Z</time>
      </trkpt>
      <trkpt lat="42.77069" lon="0.58022">
        <ele>1671</ele>
        <time>1970-01-01T00:44:25.000Z</time>
      </trkpt>
      <trkpt lat="42.77066" lon="0.5802">
        <ele>1674.3</ele>
        <time>1970-01-01T00:44:26.000Z</time>
      </trkpt>
      <trkpt lat="42.77063" lon="0.58018">
        <ele>1675.7</ele>
        <time>1970-01-01T00:44:27.000Z</time>
      </trkpt>
      <trkpt lat="42.77058" lon="0.58016">
        <ele>1681.1</ele>
        <time>1970-01-01T00:44:29.000Z</time>
      </trkpt>
      <trkpt lat="42.77055" lon="0.58014">
        <ele>1682.7</ele>
        <time>1970-01-01T00:44:30.000Z</time>
      </trkpt>
      <trkpt lat="42.7705" lon="0.58012">
        <ele>1686.6</ele>
        <time>1970-01-01T00:44:32.000Z</time>
      </trkpt>
      <trkpt lat="42.77047" lon="0.58011">
        <ele>1688.1</ele>
        <time>1970-01-01T00:44:33.000Z</time>
      </trkpt>
      <trkpt lat="42.77044" lon="0.58009">
        <ele>1689.6</ele>
        <time>1970-01-01T00:44:34.000Z</time>
      </trkpt>
      <trkpt lat="42.77042" lon="0.58008">
        <ele>1691.9</ele>
        <time>1970-01-01T00:44:35.000Z</time>
      </trkpt>
      <trkpt lat="42.7704" lon="0.58006">
        <ele>1693.5</ele>
        <time>1970-01-01T00:44:36.000Z</time>
      </trkpt>
      <trkpt lat="42.77034" lon="0.58004">
        <ele>1699</ele>
        <time>1970-01-01T00:44:38.000Z</time>
      </trkpt>
      <trkpt lat="42.77031" lon="0.58002">
        <ele>1700.8</ele>
        <time>1970-01-01T00:44:39.000Z</time>
      </trkpt>
      <trkpt lat="42.77025" lon="0.57999">
        <ele>1706.4</ele>
        <time>1970-01-01T00:44:41.000Z</time>
      </trkpt>
      <trkpt lat="42.77019" lon="0.57996">
        <ele>1711.6</ele>
        <time>1970-01-01T00:44:43.000Z</time>
      </trkpt>
      <trkpt lat="42.77015" lon="0.57994">
        <ele>1713.3</ele>
        <time>1970-01-01T00:44:44.000Z</time>
      </trkpt>
      <trkpt lat="42.77014" lon="0.57993">
        <ele>1714.9</ele>
        <time>1970-01-01T00:44:45.000Z</time>
      </trkpt>
      <trkpt lat="42.77009" lon="0.5799">
        <ele>1718.3</ele>
        <time>1970-01-01T00:44:47.000Z</time>
      </trkpt>
      <trkpt lat="42.77007" lon="0.57988">
        <ele>1719.9</ele>
        <time>1970-01-01T00:44:48.000Z</time>
      </trkpt>
      <trkpt lat="42.77004" lon="0.57986">
        <ele>1723.2</ele>
        <time>1970-01-01T00:44:49.000Z</time>
      </trkpt>
      <trkpt lat="42.77001" lon="0.57983">
        <ele>1724.8</ele>
        <time>1970-01-01T00:44:50.000Z</time>
      </trkpt>
      <trkpt lat="42.76995" lon="0.57978">
        <ele>1731.3</ele>
        <time>1970-01-01T00:44:52.000Z</time>
      </trkpt>
      <trkpt lat="42.76988" lon="0.57974">
        <ele>1735.7</ele>
        <time>1970-01-01T00:44:54.000Z</time>
      </trkpt>
      <trkpt lat="42.76985" lon="0.57972">
        <ele>1737</ele>
        <time>1970-01-01T00:44:55.000Z</time>
      </trkpt>
      <trkpt lat="42.76979" lon="0.57968">
        <ele>1741</ele>
        <time>1970-01-01T00:44:57.000Z</time>
      </trkpt>
      <trkpt lat="42.76977" lon="0.57966">
        <ele>1742.4</ele>
        <time>1970-01-01T00:44:58.000Z</time>
      </trkpt>
      <trkpt lat="42.76971" lon="0.57962">
        <ele>1744.9</ele>
        <time>1970-01-01T00:45:00.000Z</time>
      </trkpt>
      <trkpt lat="42.76968" lon="0.5796">
        <ele>1747.5</ele>
        <time>1970-01-01T00:45:01.000Z</time>
      </trkpt>
      <trkpt lat="42.76965" lon="0.57957">
        <ele>1748.6</ele>
        <time>1970-01-01T00:45:02.000Z</time>
      </trkpt>
      <trkpt lat="42.76962" lon="0.57955">
        <ele>1750.9</ele>
        <time>1970-01-01T00:45:03.000Z</time>
      </trkpt>
      <trkpt lat="42.76957" lon="0.57951">
        <ele>1753.8</ele>
        <time>1970-01-01T00:45:05.000Z</time>
      </trkpt>
      <trkpt lat="42.76954" lon="0.5795">
        <ele>1754.6</ele>
        <time>1970-01-01T00:45:06.000Z</time>
      </trkpt>
      <trkpt lat="42.76951" lon="0.57948">
        <ele>1755.7</ele>
        <time>1970-01-01T00:45:07.000Z</time>
      </trkpt>
      <trkpt lat="42.76949" lon="0.57947">
        <ele>1756.6</ele>
        <time>1970-01-01T00:45:08.000Z</time>
      </trkpt>
      <trkpt lat="42.76946" lon="0.57945">
        <ele>1757.4</ele>
        <time>1970-01-01T00:45:09.000Z</time>
      </trkpt>
      <trkpt lat="42.76942" lon="0.57943">
        <ele>1759.4</ele>
        <time>1970-01-01T00:45:10.000Z</time>
      </trkpt>
      <trkpt lat="42.76939" lon="0.57942">
        <ele>1760.2</ele>
        <time>1970-01-01T00:45:11.000Z</time>
      </trkpt>
      <trkpt lat="42.76936" lon="0.5794">
        <ele>1762.1</ele>
        <time>1970-01-01T00:45:12.000Z</time>
      </trkpt>
      <trkpt lat="42.7693" lon="0.57935">
        <ele>1764.5</ele>
        <time>1970-01-01T00:45:14.000Z</time>
      </trkpt>
      <trkpt lat="42.76926" lon="0.57932">
        <ele>1765.7</ele>
        <time>1970-01-01T00:45:16.000Z</time>
      </trkpt>
      <trkpt lat="42.76924" lon="0.57931">
        <ele>1766.9</ele>
        <time>1970-01-01T00:45:17.000Z</time>
      </trkpt>
      <trkpt lat="42.76919" lon="0.57928">
        <ele>1768.3</ele>
        <time>1970-01-01T00:45:19.000Z</time>
      </trkpt>
      <trkpt lat="42.76916" lon="0.57926">
        <ele>1770.2</ele>
        <time>1970-01-01T00:45:20.000Z</time>
      </trkpt>
      <trkpt lat="42.76913" lon="0.57925">
        <ele>1770.8</ele>
        <time>1970-01-01T00:45:21.000Z</time>
      </trkpt>
      <trkpt lat="42.76907" lon="0.57922">
        <ele>1773.2</ele>
        <time>1970-01-01T00:45:23.000Z</time>
      </trkpt>
      <trkpt lat="42.76901" lon="0.57919">
        <ele>1773.6</ele>
        <time>1970-01-01T00:45:25.000Z</time>
      </trkpt>
      <trkpt lat="42.76895" lon="0.57917">
        <ele>1775.8</ele>
        <time>1970-01-01T00:45:27.000Z</time>
      </trkpt>
      <trkpt lat="42.76892" lon="0.57916">
        <ele>1776.2</ele>
        <time>1970-01-01T00:45:28.000Z</time>
      </trkpt>
      <trkpt lat="42.76886" lon="0.57913">
        <ele>1778.1</ele>
        <time>1970-01-01T00:45:30.000Z</time>
      </trkpt>
      <trkpt lat="42.76883" lon="0.57911">
        <ele>1778.4</ele>
        <time>1970-01-01T00:45:31.000Z</time>
      </trkpt>
      <trkpt lat="42.76879" lon="0.57908">
        <ele>1779.9</ele>
        <time>1970-01-01T00:45:33.000Z</time>
      </trkpt>
      <trkpt lat="42.76877" lon="0.57907">
        <ele>1779.9</ele>
        <time>1970-01-01T00:45:34.000Z</time>
      </trkpt>
      <trkpt lat="42.76872" lon="0.57905">
        <ele>1781.1</ele>
        <time>1970-01-01T00:45:36.000Z</time>
      </trkpt>
      <trkpt lat="42.76871" lon="0.57904">
        <ele>1781.1</ele>
        <time>1970-01-01T00:45:37.000Z</time>
      </trkpt>
      <trkpt lat="42.76868" lon="0.57902">
        <ele>1781.2</ele>
        <time>1970-01-01T00:45:39.000Z</time>
      </trkpt>
      <trkpt lat="42.76865" lon="0.579">
        <ele>1782.2</ele>
        <time>1970-01-01T00:45:41.000Z</time>
      </trkpt>
      <trkpt lat="42.76864" lon="0.579">
        <ele>1782.2</ele>
        <time>1970-01-01T00:45:42.000Z</time>
      </trkpt>
      <trkpt lat="42.76864" lon="0.579">
        <ele>1782.2</ele>
        <time>1970-01-01T00:45:44.000Z</time>
      </trkpt>
      <trkpt lat="42.76864" lon="0.579">
        <ele>1782.2</ele>
        <time>1970-01-01T00:45:45.000Z</time>
      </trkpt>
      <trkpt lat="42.76864" lon="0.57902">
        <ele>1781.2</ele>
        <time>1970-01-01T00:45:47.000Z</time>
      </trkpt>
      <trkpt lat="42.76864" lon="0.57902">
        <ele>1781.2</ele>
        <time>1970-01-01T00:45:48.000Z</time>
      </trkpt>
      <trkpt lat="42.76865" lon="0.57903">
        <ele>1781.2</ele>
        <time>1970-01-01T00:45:50.000Z</time>
      </trkpt>
      <trkpt lat="42.76865" lon="0.57903">
        <ele>1781.2</ele>
        <time>1970-01-01T00:45:51.000Z</time>
      </trkpt>
      <trkpt lat="42.76865" lon="0.57904">
        <ele>1781.2</ele>
        <time>1970-01-01T00:45:53.000Z</time>
      </trkpt>
      <trkpt lat="42.76865" lon="0.57904">
        <ele>1781.2</ele>
        <time>1970-01-01T00:45:54.000Z</time>
      </trkpt>
      <trkpt lat="42.76865" lon="0.57903">
        <ele>1781.2</ele>
        <time>1970-01-01T00:45:56.000Z</time>
      </trkpt>
      <trkpt lat="42.76865" lon="0.57903">
        <ele>1781.2</ele>
        <time>1970-01-01T00:45:57.000Z</time>
      </trkpt>
      <trkpt lat="42.76861" lon="0.57902">
        <ele>1781.2</ele>
        <time>1970-01-01T00:46:36.000Z</time>
      </trkpt>
      <trkpt lat="42.76857" lon="0.579">
        <ele>1782.2</ele>
        <time>1970-01-01T00:46:38.000Z</time>
      </trkpt>
      <trkpt lat="42.76853" lon="0.57892">
        <ele>1784</ele>
        <time>1970-01-01T00:46:40.000Z</time>
      </trkpt>
      <trkpt lat="42.76851" lon="0.57888">
        <ele>1784.9</ele>
        <time>1970-01-01T00:46:41.000Z</time>
      </trkpt>
      <trkpt lat="42.76849" lon="0.57884">
        <ele>1785.8</ele>
        <time>1970-01-01T00:46:42.000Z</time>
      </trkpt>
      <trkpt lat="42.76848" lon="0.5788">
        <ele>1786.7</ele>
        <time>1970-01-01T00:46:43.000Z</time>
      </trkpt>
      <trkpt lat="42.76846" lon="0.57875">
        <ele>1787.4</ele>
        <time>1970-01-01T00:46:44.000Z</time>
      </trkpt>
      <trkpt lat="42.76843" lon="0.57867">
        <ele>1788.7</ele>
        <time>1970-01-01T00:46:46.000Z</time>
      </trkpt>
      <trkpt lat="42.76842" lon="0.57863">
        <ele>1789.4</ele>
        <time>1970-01-01T00:46:47.000Z</time>
      </trkpt>
      <trkpt lat="42.76841" lon="0.57858">
        <ele>1790</ele>
        <time>1970-01-01T00:46:48.000Z</time>
      </trkpt>
      <trkpt lat="42.76839" lon="0.5785">
        <ele>1790.9</ele>
        <time>1970-01-01T00:46:50.000Z</time>
      </trkpt>
      <trkpt lat="42.76839" lon="0.57845">
        <ele>1791.4</ele>
        <time>1970-01-01T00:46:51.000Z</time>
      </trkpt>
      <trkpt lat="42.76837" lon="0.57838">
        <ele>1791.8</ele>
        <time>1970-01-01T00:46:53.000Z</time>
      </trkpt>
      <trkpt lat="42.76835" lon="0.5783">
        <ele>1792.7</ele>
        <time>1970-01-01T00:46:55.000Z</time>
      </trkpt>
      <trkpt lat="42.76834" lon="0.57826">
        <ele>1793</ele>
        <time>1970-01-01T00:46:56.000Z</time>
      </trkpt>
      <trkpt lat="42.76831" lon="0.57818">
        <ele>1793.5</ele>
        <time>1970-01-01T00:46:58.000Z</time>
      </trkpt>
      <trkpt lat="42.76829" lon="0.57813">
        <ele>1793.7</ele>
        <time>1970-01-01T00:46:59.000Z</time>
      </trkpt>
      <trkpt lat="42.76826" lon="0.57806">
        <ele>1793.9</ele>
        <time>1970-01-01T00:47:01.000Z</time>
      </trkpt>
      <trkpt lat="42.76824" lon="0.57802">
        <ele>1794</ele>
        <time>1970-01-01T00:47:02.000Z</time>
      </trkpt>
      <trkpt lat="42.76822" lon="0.57799">
        <ele>1794</ele>
        <time>1970-01-01T00:47:03.000Z</time>
      </trkpt>
      <trkpt lat="42.76821" lon="0.57797">
        <ele>1794</ele>
        <time>1970-01-01T00:47:04.000Z</time>
      </trkpt>
      <trkpt lat="42.76818" lon="0.57792">
        <ele>1794</ele>
        <time>1970-01-01T00:47:06.000Z</time>
      </trkpt>
      <trkpt lat="42.76812" lon="0.57785">
        <ele>1793.9</ele>
        <time>1970-01-01T00:47:08.000Z</time>
      </trkpt>
      <trkpt lat="42.76808" lon="0.57781">
        <ele>1793.8</ele>
        <time>1970-01-01T00:47:09.000Z</time>
      </trkpt>
      <trkpt lat="42.76806" lon="0.57778">
        <ele>1793.7</ele>
        <time>1970-01-01T00:47:10.000Z</time>
      </trkpt>
      <trkpt lat="42.768" lon="0.57775">
        <ele>1793.7</ele>
        <time>1970-01-01T00:47:12.000Z</time>
      </trkpt>
      <trkpt lat="42.76798" lon="0.57773">
        <ele>1793.6</ele>
        <time>1970-01-01T00:47:13.000Z</time>
      </trkpt>
      <trkpt lat="42.76795" lon="0.57769">
        <ele>1793.7</ele>
        <time>1970-01-01T00:47:14.000Z</time>
      </trkpt>
      <trkpt lat="42.76795" lon="0.57768">
        <ele>1793.9</ele>
        <time>1970-01-01T00:47:15.000Z</time>
      </trkpt>
      <trkpt lat="42.76792" lon="0.57765">
        <ele>1793.8</ele>
        <time>1970-01-01T00:47:17.000Z</time>
      </trkpt>
      <trkpt lat="42.76791" lon="0.57763">
        <ele>1794</ele>
        <time>1970-01-01T00:47:18.000Z</time>
      </trkpt>
      <trkpt lat="42.76791" lon="0.57762">
        <ele>1794</ele>
        <time>1970-01-01T00:47:19.000Z</time>
      </trkpt>
      <trkpt lat="42.76788" lon="0.57759">
        <ele>1794</ele>
        <time>1970-01-01T00:47:21.000Z</time>
      </trkpt>
      <trkpt lat="42.76787" lon="0.57759">
        <ele>1794</ele>
        <time>1970-01-01T00:47:22.000Z</time>
      </trkpt>
      <trkpt lat="42.76786" lon="0.57758">
        <ele>1793.8</ele>
        <time>1970-01-01T00:47:23.000Z</time>
      </trkpt>
      <trkpt lat="42.76785" lon="0.57757">
        <ele>1793.8</ele>
        <time>1970-01-01T00:47:24.000Z</time>
      </trkpt>
      <trkpt lat="42.76783" lon="0.57753">
        <ele>1793.8</ele>
        <time>1970-01-01T00:47:26.000Z</time>
      </trkpt>
      <trkpt lat="42.76782" lon="0.57751">
        <ele>1793.9</ele>
        <time>1970-01-01T00:47:27.000Z</time>
      </trkpt>
      <trkpt lat="42.7678" lon="0.57746">
        <ele>1793.8</ele>
        <time>1970-01-01T00:47:29.000Z</time>
      </trkpt>
      <trkpt lat="42.76779" lon="0.57745">
        <ele>1793.8</ele>
        <time>1970-01-01T00:47:30.000Z</time>
      </trkpt>
      <trkpt lat="42.76778" lon="0.57744">
        <ele>1793.8</ele>
        <time>1970-01-01T00:47:32.000Z</time>
      </trkpt>
      <trkpt lat="42.76778" lon="0.57744">
        <ele>1793.8</ele>
        <time>1970-01-01T00:47:34.000Z</time>
      </trkpt>
      <trkpt lat="42.76778" lon="0.57744">
        <ele>1793.6</ele>
        <time>1970-01-01T00:47:35.000Z</time>
      </trkpt>
      <trkpt lat="42.76777" lon="0.57743">
        <ele>1793.6</ele>
        <time>1970-01-01T00:47:37.000Z</time>
      </trkpt>
      <trkpt lat="42.76777" lon="0.57743">
        <ele>1793.6</ele>
        <time>1970-01-01T00:47:38.000Z</time>
      </trkpt>
      <trkpt lat="42.76777" lon="0.57742">
        <ele>1793.7</ele>
        <time>1970-01-01T00:47:39.000Z</time>
      </trkpt>
      <trkpt lat="42.76776" lon="0.57739">
        <ele>1793.7</ele>
        <time>1970-01-01T00:47:40.000Z</time>
      </trkpt>
      <trkpt lat="42.76772" lon="0.57731">
        <ele>1793.7</ele>
        <time>1970-01-01T00:47:42.000Z</time>
      </trkpt>
      <trkpt lat="42.7677" lon="0.57726">
        <ele>1793.6</ele>
        <time>1970-01-01T00:47:43.000Z</time>
      </trkpt>
      <trkpt lat="42.76767" lon="0.57718">
        <ele>1793.6</ele>
        <time>1970-01-01T00:47:45.000Z</time>
      </trkpt>
      <trkpt lat="42.76765" lon="0.57714">
        <ele>1793.5</ele>
        <time>1970-01-01T00:47:46.000Z</time>
      </trkpt>
      <trkpt lat="42.76765" lon="0.57705">
        <ele>1793.5</ele>
        <time>1970-01-01T00:47:48.000Z</time>
      </trkpt>
      <trkpt lat="42.76766" lon="0.577">
        <ele>1793.6</ele>
        <time>1970-01-01T00:47:49.000Z</time>
      </trkpt>
      <trkpt lat="42.76767" lon="0.57696">
        <ele>1793.5</ele>
        <time>1970-01-01T00:47:50.000Z</time>
      </trkpt>
      <trkpt lat="42.76766" lon="0.57688">
        <ele>1793.2</ele>
        <time>1970-01-01T00:47:52.000Z</time>
      </trkpt>
      <trkpt lat="42.7676" lon="0.57682">
        <ele>1792.6</ele>
        <time>1970-01-01T00:47:54.000Z</time>
      </trkpt>
      <trkpt lat="42.76758" lon="0.57679">
        <ele>1792.4</ele>
        <time>1970-01-01T00:47:55.000Z</time>
      </trkpt>
      <trkpt lat="42.76753" lon="0.57673">
        <ele>1791.7</ele>
        <time>1970-01-01T00:47:57.000Z</time>
      </trkpt>
      <trkpt lat="42.76746" lon="0.57669">
        <ele>1791.3</ele>
        <time>1970-01-01T00:47:59.000Z</time>
      </trkpt>
      <trkpt lat="42.76737" lon="0.57662">
        <ele>1790.5</ele>
        <time>1970-01-01T00:48:01.000Z</time>
      </trkpt>
      <trkpt lat="42.76732" lon="0.57654">
        <ele>1789.4</ele>
        <time>1970-01-01T00:48:02.000Z</time>
      </trkpt>
      <trkpt lat="42.76726" lon="0.57636">
        <ele>1787.5</ele>
        <time>1970-01-01T00:48:04.000Z</time>
      </trkpt>
      <trkpt lat="42.76719" lon="0.57619">
        <ele>1785.5</ele>
        <time>1970-01-01T00:48:06.000Z</time>
      </trkpt>
      <trkpt lat="42.76713" lon="0.57617">
        <ele>1785</ele>
        <time>1970-01-01T00:48:07.000Z</time>
      </trkpt>
      <trkpt lat="42.76707" lon="0.57617">
        <ele>1784.6</ele>
        <time>1970-01-01T00:48:08.000Z</time>
      </trkpt>
      <trkpt lat="42.76702" lon="0.57621">
        <ele>1784.2</ele>
        <time>1970-01-01T00:48:09.000Z</time>
      </trkpt>
      <trkpt lat="42.76694" lon="0.57635">
        <ele>1783.2</ele>
        <time>1970-01-01T00:48:11.000Z</time>
      </trkpt>
      <trkpt lat="42.76692" lon="0.57641">
        <ele>1782.3</ele>
        <time>1970-01-01T00:48:12.000Z</time>
      </trkpt>
      <trkpt lat="42.76693" lon="0.57651">
        <ele>1781.6</ele>
        <time>1970-01-01T00:48:14.000Z</time>
      </trkpt>
      <trkpt lat="42.76694" lon="0.57653">
        <ele>1781.4</ele>
        <time>1970-01-01T00:48:15.000Z</time>
      </trkpt>
      <trkpt lat="42.76695" lon="0.57654">
        <ele>1781.3</ele>
        <time>1970-01-01T00:48:17.000Z</time>
      </trkpt>
      <trkpt lat="42.76695" lon="0.57654">
        <ele>1781.3</ele>
        <time>1970-01-01T00:48:18.000Z</time>
      </trkpt>
      <trkpt lat="42.76695" lon="0.57655">
        <ele>1781.2</ele>
        <time>1970-01-01T00:48:20.000Z</time>
      </trkpt>
      <trkpt lat="42.76695" lon="0.57656">
        <ele>1781.2</ele>
        <time>1970-01-01T00:48:22.000Z</time>
      </trkpt>
      <trkpt lat="42.76695" lon="0.57657">
        <ele>1781.1</ele>
        <time>1970-01-01T00:48:23.000Z</time>
      </trkpt>
      <trkpt lat="42.76696" lon="0.57657">
        <ele>1781.1</ele>
        <time>1970-01-01T00:48:25.000Z</time>
      </trkpt>
      <trkpt lat="42.76696" lon="0.57658">
        <ele>1781</ele>
        <time>1970-01-01T00:48:26.000Z</time>
      </trkpt>
      <trkpt lat="42.76696" lon="0.57659">
        <ele>1781</ele>
        <time>1970-01-01T00:48:28.000Z</time>
      </trkpt>
      <trkpt lat="42.76696" lon="0.57659">
        <ele>1780.9</ele>
        <time>1970-01-01T00:48:29.000Z</time>
      </trkpt>
      <trkpt lat="42.76697" lon="0.57662">
        <ele>1780.8</ele>
        <time>1970-01-01T00:48:31.000Z</time>
      </trkpt>
      <trkpt lat="42.76696" lon="0.57662">
        <ele>1780.7</ele>
        <time>1970-01-01T00:48:32.000Z</time>
      </trkpt>
      <trkpt lat="42.76696" lon="0.57662">
        <ele>1780.7</ele>
        <time>1970-01-01T00:48:34.000Z</time>
      </trkpt>
      <trkpt lat="42.76696" lon="0.57662">
        <ele>1780.7</ele>
        <time>1970-01-01T00:48:35.000Z</time>
      </trkpt>
      <trkpt lat="42.76696" lon="0.57662">
        <ele>1780.7</ele>
        <time>1970-01-01T00:48:36.000Z</time>
      </trkpt>
      <trkpt lat="42.76697" lon="0.57665">
        <ele>1780.5</ele>
        <time>1970-01-01T00:48:38.000Z</time>
      </trkpt>
      <trkpt lat="42.76697" lon="0.57666">
        <ele>1780.4</ele>
        <time>1970-01-01T00:48:39.000Z</time>
      </trkpt>
      <trkpt lat="42.76697" lon="0.57667">
        <ele>1780.3</ele>
        <time>1970-01-01T00:48:40.000Z</time>
      </trkpt>
      <trkpt lat="42.76697" lon="0.57668">
        <ele>1780.2</ele>
        <time>1970-01-01T00:48:41.000Z</time>
      </trkpt>
      <trkpt lat="42.76697" lon="0.57669">
        <ele>1780.1</ele>
        <time>1970-01-01T00:48:42.000Z</time>
      </trkpt>
      <trkpt lat="42.76696" lon="0.5767">
        <ele>1780</ele>
        <time>1970-01-01T00:48:43.000Z</time>
      </trkpt>
      <trkpt lat="42.76694" lon="0.57672">
        <ele>1779.8</ele>
        <time>1970-01-01T00:48:45.000Z</time>
      </trkpt>
      <trkpt lat="42.76691" lon="0.57675">
        <ele>1779.4</ele>
        <time>1970-01-01T00:48:46.000Z</time>
      </trkpt>
      <trkpt lat="42.7669" lon="0.57676">
        <ele>1779.3</ele>
        <time>1970-01-01T00:48:47.000Z</time>
      </trkpt>
      <trkpt lat="42.76684" lon="0.57683">
        <ele>1778.3</ele>
        <time>1970-01-01T00:48:49.000Z</time>
      </trkpt>
      <trkpt lat="42.76677" lon="0.5769">
        <ele>1777.3</ele>
        <time>1970-01-01T00:48:51.000Z</time>
      </trkpt>
      <trkpt lat="42.76663" lon="0.57704">
        <ele>1775.2</ele>
        <time>1970-01-01T00:48:53.000Z</time>
      </trkpt>
      <trkpt lat="42.76644" lon="0.57724">
        <ele>1771.6</ele>
        <time>1970-01-01T00:48:55.000Z</time>
      </trkpt>
      <trkpt lat="42.76635" lon="0.57733">
        <ele>1769.7</ele>
        <time>1970-01-01T00:48:56.000Z</time>
      </trkpt>
      <trkpt lat="42.76625" lon="0.5774">
        <ele>1767.8</ele>
        <time>1970-01-01T00:48:57.000Z</time>
      </trkpt>
      <trkpt lat="42.76604" lon="0.57751">
        <ele>1764.3</ele>
        <time>1970-01-01T00:48:59.000Z</time>
      </trkpt>
      <trkpt lat="42.76583" lon="0.57764">
        <ele>1761</ele>
        <time>1970-01-01T00:49:01.000Z</time>
      </trkpt>
      <trkpt lat="42.76562" lon="0.57776">
        <ele>1757.9</ele>
        <time>1970-01-01T00:49:03.000Z</time>
      </trkpt>
      <trkpt lat="42.7655" lon="0.57781">
        <ele>1756.2</ele>
        <time>1970-01-01T00:49:04.000Z</time>
      </trkpt>
      <trkpt lat="42.76539" lon="0.57787">
        <ele>1754.8</ele>
        <time>1970-01-01T00:49:05.000Z</time>
      </trkpt>
      <trkpt lat="42.76529" lon="0.57792">
        <ele>1753.6</ele>
        <time>1970-01-01T00:49:06.000Z</time>
      </trkpt>
      <trkpt lat="42.76507" lon="0.57805">
        <ele>1751.1</ele>
        <time>1970-01-01T00:49:08.000Z</time>
      </trkpt>
      <trkpt lat="42.76496" lon="0.57813">
        <ele>1749.5</ele>
        <time>1970-01-01T00:49:09.000Z</time>
      </trkpt>
      <trkpt lat="42.76486" lon="0.57822">
        <ele>1748</ele>
        <time>1970-01-01T00:49:10.000Z</time>
      </trkpt>
      <trkpt lat="42.76465" lon="0.5784">
        <ele>1744.9</ele>
        <time>1970-01-01T00:49:12.000Z</time>
      </trkpt>
      <trkpt lat="42.76454" lon="0.5785">
        <ele>1742.9</ele>
        <time>1970-01-01T00:49:13.000Z</time>
      </trkpt>
      <trkpt lat="42.76443" lon="0.57861">
        <ele>1741.3</ele>
        <time>1970-01-01T00:49:14.000Z</time>
      </trkpt>
      <trkpt lat="42.76431" lon="0.57872">
        <ele>1739.6</ele>
        <time>1970-01-01T00:49:15.000Z</time>
      </trkpt>
      <trkpt lat="42.76408" lon="0.57895">
        <ele>1735.8</ele>
        <time>1970-01-01T00:49:17.000Z</time>
      </trkpt>
      <trkpt lat="42.76395" lon="0.57904">
        <ele>1734.1</ele>
        <time>1970-01-01T00:49:18.000Z</time>
      </trkpt>
      <trkpt lat="42.7637" lon="0.57921">
        <ele>1731</ele>
        <time>1970-01-01T00:49:20.000Z</time>
      </trkpt>
      <trkpt lat="42.76348" lon="0.57942">
        <ele>1728.3</ele>
        <time>1970-01-01T00:49:22.000Z</time>
      </trkpt>
      <trkpt lat="42.76338" lon="0.57953">
        <ele>1727</ele>
        <time>1970-01-01T00:49:23.000Z</time>
      </trkpt>
      <trkpt lat="42.76327" lon="0.57964">
        <ele>1725.7</ele>
        <time>1970-01-01T00:49:24.000Z</time>
      </trkpt>
      <trkpt lat="42.76307" lon="0.57986">
        <ele>1722.7</ele>
        <time>1970-01-01T00:49:26.000Z</time>
      </trkpt>
      <trkpt lat="42.76287" lon="0.58012">
        <ele>1719.2</ele>
        <time>1970-01-01T00:49:28.000Z</time>
      </trkpt>
      <trkpt lat="42.76277" lon="0.58026">
        <ele>1717.5</ele>
        <time>1970-01-01T00:49:29.000Z</time>
      </trkpt>
      <trkpt lat="42.76268" lon="0.5804">
        <ele>1715.7</ele>
        <time>1970-01-01T00:49:30.000Z</time>
      </trkpt>
      <trkpt lat="42.76258" lon="0.58054">
        <ele>1714</ele>
        <time>1970-01-01T00:49:31.000Z</time>
      </trkpt>
      <trkpt lat="42.7624" lon="0.58084">
        <ele>1710.7</ele>
        <time>1970-01-01T00:49:33.000Z</time>
      </trkpt>
      <trkpt lat="42.76232" lon="0.58099">
        <ele>1709.1</ele>
        <time>1970-01-01T00:49:34.000Z</time>
      </trkpt>
      <trkpt lat="42.76224" lon="0.58114">
        <ele>1707.3</ele>
        <time>1970-01-01T00:49:35.000Z</time>
      </trkpt>
      <trkpt lat="42.76209" lon="0.58146">
        <ele>1704.1</ele>
        <time>1970-01-01T00:49:37.000Z</time>
      </trkpt>
      <trkpt lat="42.76202" lon="0.58163">
        <ele>1702.6</ele>
        <time>1970-01-01T00:49:38.000Z</time>
      </trkpt>
      <trkpt lat="42.76189" lon="0.58198">
        <ele>1699.2</ele>
        <time>1970-01-01T00:49:40.000Z</time>
      </trkpt>
      <trkpt lat="42.76182" lon="0.58215">
        <ele>1697.7</ele>
        <time>1970-01-01T00:49:41.000Z</time>
      </trkpt>
      <trkpt lat="42.76175" lon="0.58232">
        <ele>1696.4</ele>
        <time>1970-01-01T00:49:42.000Z</time>
      </trkpt>
      <trkpt lat="42.76159" lon="0.58263">
        <ele>1693.9</ele>
        <time>1970-01-01T00:49:44.000Z</time>
      </trkpt>
      <trkpt lat="42.76151" lon="0.58278">
        <ele>1693</ele>
        <time>1970-01-01T00:49:45.000Z</time>
      </trkpt>
      <trkpt lat="42.76134" lon="0.58305">
        <ele>1691.1</ele>
        <time>1970-01-01T00:49:47.000Z</time>
      </trkpt>
      <trkpt lat="42.76126" lon="0.58319">
        <ele>1689.9</ele>
        <time>1970-01-01T00:49:48.000Z</time>
      </trkpt>
      <trkpt lat="42.76112" lon="0.58343">
        <ele>1688</ele>
        <time>1970-01-01T00:49:50.000Z</time>
      </trkpt>
      <trkpt lat="42.76108" lon="0.5835">
        <ele>1687.5</ele>
        <time>1970-01-01T00:49:51.000Z</time>
      </trkpt>
      <trkpt lat="42.76106" lon="0.58361">
        <ele>1686.9</ele>
        <time>1970-01-01T00:49:53.000Z</time>
      </trkpt>
      <trkpt lat="42.76107" lon="0.58367">
        <ele>1686.6</ele>
        <time>1970-01-01T00:49:54.000Z</time>
      </trkpt>
      <trkpt lat="42.76113" lon="0.58379">
        <ele>1685.7</ele>
        <time>1970-01-01T00:49:56.000Z</time>
      </trkpt>
      <trkpt lat="42.76119" lon="0.58393">
        <ele>1684.4</ele>
        <time>1970-01-01T00:49:58.000Z</time>
      </trkpt>
      <trkpt lat="42.76126" lon="0.58407">
        <ele>1682.9</ele>
        <time>1970-01-01T00:50:00.000Z</time>
      </trkpt>
      <trkpt lat="42.76132" lon="0.58424">
        <ele>1680.7</ele>
        <time>1970-01-01T00:50:02.000Z</time>
      </trkpt>
      <trkpt lat="42.76135" lon="0.58435">
        <ele>1680.1</ele>
        <time>1970-01-01T00:50:03.000Z</time>
      </trkpt>
      <trkpt lat="42.76139" lon="0.58461">
        <ele>1678.7</ele>
        <time>1970-01-01T00:50:05.000Z</time>
      </trkpt>
      <trkpt lat="42.7614" lon="0.58477">
        <ele>1677.3</ele>
        <time>1970-01-01T00:50:06.000Z</time>
      </trkpt>
      <trkpt lat="42.76142" lon="0.58494">
        <ele>1675.7</ele>
        <time>1970-01-01T00:50:07.000Z</time>
      </trkpt>
      <trkpt lat="42.76143" lon="0.58512">
        <ele>1674.1</ele>
        <time>1970-01-01T00:50:08.000Z</time>
      </trkpt>
      <trkpt lat="42.76144" lon="0.58551">
        <ele>1670.5</ele>
        <time>1970-01-01T00:50:10.000Z</time>
      </trkpt>
      <trkpt lat="42.76143" lon="0.58571">
        <ele>1668.6</ele>
        <time>1970-01-01T00:50:11.000Z</time>
      </trkpt>
      <trkpt lat="42.76135" lon="0.5861">
        <ele>1665.5</ele>
        <time>1970-01-01T00:50:13.000Z</time>
      </trkpt>
      <trkpt lat="42.76127" lon="0.58628">
        <ele>1664.5</ele>
        <time>1970-01-01T00:50:14.000Z</time>
      </trkpt>
      <trkpt lat="42.76117" lon="0.58644">
        <ele>1663.7</ele>
        <time>1970-01-01T00:50:15.000Z</time>
      </trkpt>
      <trkpt lat="42.76095" lon="0.58669">
        <ele>1663.3</ele>
        <time>1970-01-01T00:50:17.000Z</time>
      </trkpt>
      <trkpt lat="42.76086" lon="0.5868">
        <ele>1663.1</ele>
        <time>1970-01-01T00:50:18.000Z</time>
      </trkpt>
      <trkpt lat="42.76076" lon="0.58695">
        <ele>1662.5</ele>
        <time>1970-01-01T00:50:20.000Z</time>
      </trkpt>
      <trkpt lat="42.76073" lon="0.58701">
        <ele>1662.9</ele>
        <time>1970-01-01T00:50:21.000Z</time>
      </trkpt>
      <trkpt lat="42.7607" lon="0.58711">
        <ele>1663</ele>
        <time>1970-01-01T00:50:23.000Z</time>
      </trkpt>
      <trkpt lat="42.7607" lon="0.58717">
        <ele>1663.1</ele>
        <time>1970-01-01T00:50:25.000Z</time>
      </trkpt>
      <trkpt lat="42.7607" lon="0.58721">
        <ele>1663.1</ele>
        <time>1970-01-01T00:50:26.000Z</time>
      </trkpt>
      <trkpt lat="42.76069" lon="0.58727">
        <ele>1663.1</ele>
        <time>1970-01-01T00:50:28.000Z</time>
      </trkpt>
      <trkpt lat="42.76067" lon="0.5873">
        <ele>1663</ele>
        <time>1970-01-01T00:50:30.000Z</time>
      </trkpt>
      <trkpt lat="42.76067" lon="0.58732">
        <ele>1663</ele>
        <time>1970-01-01T00:50:31.000Z</time>
      </trkpt>
      <trkpt lat="42.76066" lon="0.58733">
        <ele>1663</ele>
        <time>1970-01-01T00:50:32.000Z</time>
      </trkpt>
      <trkpt lat="42.76066" lon="0.58733">
        <ele>1663</ele>
        <time>1970-01-01T00:50:33.000Z</time>
      </trkpt>
      <trkpt lat="42.76066" lon="0.58734">
        <ele>1663</ele>
        <time>1970-01-01T00:50:34.000Z</time>
      </trkpt>
      <trkpt lat="42.76066" lon="0.58735">
        <ele>1662.9</ele>
        <time>1970-01-01T00:50:35.000Z</time>
      </trkpt>
      <trkpt lat="42.76066" lon="0.58735">
        <ele>1662.9</ele>
        <time>1970-01-01T00:50:37.000Z</time>
      </trkpt>
      <trkpt lat="42.76067" lon="0.58734">
        <ele>1662.9</ele>
        <time>1970-01-01T00:50:38.000Z</time>
      </trkpt>
      <trkpt lat="42.76067" lon="0.58734">
        <ele>1662.9</ele>
        <time>1970-01-01T00:50:39.000Z</time>
      </trkpt>
      <trkpt lat="42.76067" lon="0.58734">
        <ele>1662.9</ele>
        <time>1970-01-01T00:50:40.000Z</time>
      </trkpt>
      <trkpt lat="42.76067" lon="0.58735">
        <ele>1662.9</ele>
        <time>1970-01-01T00:50:42.000Z</time>
      </trkpt>
      <trkpt lat="42.76068" lon="0.58735">
        <ele>1662.9</ele>
        <time>1970-01-01T00:50:43.000Z</time>
      </trkpt>
      <trkpt lat="42.76068" lon="0.58735">
        <ele>1662.8</ele>
        <time>1970-01-01T00:50:45.000Z</time>
      </trkpt>
      <trkpt lat="42.76068" lon="0.58735">
        <ele>1662.8</ele>
        <time>1970-01-01T00:50:47.000Z</time>
      </trkpt>
      <trkpt lat="42.76068" lon="0.58735">
        <ele>1662.8</ele>
        <time>1970-01-01T00:50:48.000Z</time>
      </trkpt>
      <trkpt lat="42.76067" lon="0.58738">
        <ele>1662.7</ele>
        <time>1970-01-01T00:50:50.000Z</time>
      </trkpt>
      <trkpt lat="42.76067" lon="0.58739">
        <ele>1662.7</ele>
        <time>1970-01-01T00:50:52.000Z</time>
      </trkpt>
      <trkpt lat="42.76067" lon="0.5874">
        <ele>1662.7</ele>
        <time>1970-01-01T00:50:54.000Z</time>
      </trkpt>
      <trkpt lat="42.76074" lon="0.58776">
        <ele>1660.6</ele>
        <time>1970-01-01T00:51:49.000Z</time>
      </trkpt>
      <trkpt lat="42.76077" lon="0.58793">
        <ele>1659.6</ele>
        <time>1970-01-01T00:51:51.000Z</time>
      </trkpt>
      <trkpt lat="42.7607" lon="0.58804">
        <ele>1658.9</ele>
        <time>1970-01-01T00:51:52.000Z</time>
      </trkpt>
      <trkpt lat="42.76058" lon="0.58812">
        <ele>1658.2</ele>
        <time>1970-01-01T00:51:54.000Z</time>
      </trkpt>
      <trkpt lat="42.76046" lon="0.58818">
        <ele>1657.4</ele>
        <time>1970-01-01T00:51:56.000Z</time>
      </trkpt>
      <trkpt lat="42.7604" lon="0.58821">
        <ele>1657.1</ele>
        <time>1970-01-01T00:51:57.000Z</time>
      </trkpt>
      <trkpt lat="42.76034" lon="0.58824">
        <ele>1656.7</ele>
        <time>1970-01-01T00:51:58.000Z</time>
      </trkpt>
      <trkpt lat="42.76023" lon="0.58834">
        <ele>1655.8</ele>
        <time>1970-01-01T00:52:00.000Z</time>
      </trkpt>
      <trkpt lat="42.76017" lon="0.5884">
        <ele>1655.3</ele>
        <time>1970-01-01T00:52:01.000Z</time>
      </trkpt>
      <trkpt lat="42.76012" lon="0.58845">
        <ele>1654.7</ele>
        <time>1970-01-01T00:52:02.000Z</time>
      </trkpt>
      <trkpt lat="42.75997" lon="0.58852">
        <ele>1653.4</ele>
        <time>1970-01-01T00:52:04.000Z</time>
      </trkpt>
      <trkpt lat="42.75989" lon="0.58853">
        <ele>1652.7</ele>
        <time>1970-01-01T00:52:05.000Z</time>
      </trkpt>
      <trkpt lat="42.75972" lon="0.58854">
        <ele>1651.6</ele>
        <time>1970-01-01T00:52:07.000Z</time>
      </trkpt>
      <trkpt lat="42.75964" lon="0.58854">
        <ele>1651.2</ele>
        <time>1970-01-01T00:52:08.000Z</time>
      </trkpt>
      <trkpt lat="42.75956" lon="0.58854">
        <ele>1650.9</ele>
        <time>1970-01-01T00:52:09.000Z</time>
      </trkpt>
      <trkpt lat="42.75941" lon="0.58856">
        <ele>1650.5</ele>
        <time>1970-01-01T00:52:11.000Z</time>
      </trkpt>
      <trkpt lat="42.75928" lon="0.58858">
        <ele>1650</ele>
        <time>1970-01-01T00:52:13.000Z</time>
      </trkpt>
      <trkpt lat="42.75924" lon="0.58857">
        <ele>1649.6</ele>
        <time>1970-01-01T00:52:14.000Z</time>
      </trkpt>
      <trkpt lat="42.75922" lon="0.58859">
        <ele>1649.4</ele>
        <time>1970-01-01T00:52:15.000Z</time>
      </trkpt>
      <trkpt lat="42.75922" lon="0.58861">
        <ele>1649.3</ele>
        <time>1970-01-01T00:52:16.000Z</time>
      </trkpt>
      <trkpt lat="42.75922" lon="0.58862">
        <ele>1649.2</ele>
        <time>1970-01-01T00:52:17.000Z</time>
      </trkpt>
      <trkpt lat="42.75923" lon="0.58871">
        <ele>1648.6</ele>
        <time>1970-01-01T00:52:19.000Z</time>
      </trkpt>
      <trkpt lat="42.75925" lon="0.58875">
        <ele>1649.3</ele>
        <time>1970-01-01T00:52:20.000Z</time>
      </trkpt>
      <trkpt lat="42.75931" lon="0.58875">
        <ele>1649.7</ele>
        <time>1970-01-01T00:52:21.000Z</time>
      </trkpt>
      <trkpt lat="42.75938" lon="0.58873">
        <ele>1650</ele>
        <time>1970-01-01T00:52:22.000Z</time>
      </trkpt>
      <trkpt lat="42.75944" lon="0.58871">
        <ele>1650.3</ele>
        <time>1970-01-01T00:52:23.000Z</time>
      </trkpt>
      <trkpt lat="42.75951" lon="0.58869">
        <ele>1650.5</ele>
        <time>1970-01-01T00:52:24.000Z</time>
      </trkpt>
      <trkpt lat="42.75959" lon="0.58868">
        <ele>1650.6</ele>
        <time>1970-01-01T00:52:25.000Z</time>
      </trkpt>
      <trkpt lat="42.75973" lon="0.58869">
        <ele>1648.7</ele>
        <time>1970-01-01T00:52:27.000Z</time>
      </trkpt>
      <trkpt lat="42.75988" lon="0.58876">
        <ele>1646.6</ele>
        <time>1970-01-01T00:52:29.000Z</time>
      </trkpt>
      <trkpt lat="42.75995" lon="0.58883">
        <ele>1645.4</ele>
        <time>1970-01-01T00:52:30.000Z</time>
      </trkpt>
      <trkpt lat="42.7601" lon="0.58898">
        <ele>1642.8</ele>
        <time>1970-01-01T00:52:32.000Z</time>
      </trkpt>
      <trkpt lat="42.76018" lon="0.58901">
        <ele>1642.1</ele>
        <time>1970-01-01T00:52:33.000Z</time>
      </trkpt>
      <trkpt lat="42.76036" lon="0.58895">
        <ele>1640.7</ele>
        <time>1970-01-01T00:52:35.000Z</time>
      </trkpt>
      <trkpt lat="42.76053" lon="0.58884">
        <ele>1639</ele>
        <time>1970-01-01T00:52:37.000Z</time>
      </trkpt>
      <trkpt lat="42.76062" lon="0.58882">
        <ele>1638.2</ele>
        <time>1970-01-01T00:52:38.000Z</time>
      </trkpt>
      <trkpt lat="42.76083" lon="0.58883">
        <ele>1636.6</ele>
        <time>1970-01-01T00:52:40.000Z</time>
      </trkpt>
      <trkpt lat="42.76094" lon="0.58887">
        <ele>1635.8</ele>
        <time>1970-01-01T00:52:41.000Z</time>
      </trkpt>
      <trkpt lat="42.76103" lon="0.58893">
        <ele>1634.9</ele>
        <time>1970-01-01T00:52:42.000Z</time>
      </trkpt>
      <trkpt lat="42.7612" lon="0.58909">
        <ele>1633</ele>
        <time>1970-01-01T00:52:44.000Z</time>
      </trkpt>
      <trkpt lat="42.76126" lon="0.58916">
        <ele>1632.2</ele>
        <time>1970-01-01T00:52:45.000Z</time>
      </trkpt>
      <trkpt lat="42.76131" lon="0.58922">
        <ele>1631.6</ele>
        <time>1970-01-01T00:52:47.000Z</time>
      </trkpt>
      <trkpt lat="42.76136" lon="0.58926">
        <ele>1631.2</ele>
        <time>1970-01-01T00:52:49.000Z</time>
      </trkpt>
      <trkpt lat="42.76139" lon="0.58928">
        <ele>1630.9</ele>
        <time>1970-01-01T00:52:50.000Z</time>
      </trkpt>
      <trkpt lat="42.76142" lon="0.5893">
        <ele>1630.7</ele>
        <time>1970-01-01T00:52:52.000Z</time>
      </trkpt>
      <trkpt lat="42.76143" lon="0.58931">
        <ele>1630.6</ele>
        <time>1970-01-01T00:52:54.000Z</time>
      </trkpt>
      <trkpt lat="42.7614" lon="0.5893">
        <ele>1630.3</ele>
        <time>1970-01-01T00:52:56.000Z</time>
      </trkpt>
      <trkpt lat="42.76138" lon="0.5893">
        <ele>1630.1</ele>
        <time>1970-01-01T00:52:58.000Z</time>
      </trkpt>
      <trkpt lat="42.76153" lon="0.5893">
        <ele>1628.8</ele>
        <time>1970-01-01T00:52:59.000Z</time>
      </trkpt>
      <trkpt lat="42.76163" lon="0.5893">
        <ele>1628</ele>
        <time>1970-01-01T00:53:00.000Z</time>
      </trkpt>
      <trkpt lat="42.76173" lon="0.58929">
        <ele>1627</ele>
        <time>1970-01-01T00:53:01.000Z</time>
      </trkpt>
      <trkpt lat="42.76182" lon="0.58928">
        <ele>1626.1</ele>
        <time>1970-01-01T00:53:02.000Z</time>
      </trkpt>
      <trkpt lat="42.76192" lon="0.58925">
        <ele>1625.1</ele>
        <time>1970-01-01T00:53:03.000Z</time>
      </trkpt>
      <trkpt lat="42.76202" lon="0.5892">
        <ele>1624.3</ele>
        <time>1970-01-01T00:53:04.000Z</time>
      </trkpt>
      <trkpt lat="42.7621" lon="0.58915">
        <ele>1623.6</ele>
        <time>1970-01-01T00:53:05.000Z</time>
      </trkpt>
      <trkpt lat="42.76228" lon="0.58908">
        <ele>1622.1</ele>
        <time>1970-01-01T00:53:07.000Z</time>
      </trkpt>
      <trkpt lat="42.76235" lon="0.58905">
        <ele>1621.5</ele>
        <time>1970-01-01T00:53:08.000Z</time>
      </trkpt>
      <trkpt lat="42.76242" lon="0.58913">
        <ele>1620.7</ele>
        <time>1970-01-01T00:53:10.000Z</time>
      </trkpt>
      <trkpt lat="42.76237" lon="0.58923">
        <ele>1619.8</ele>
        <time>1970-01-01T00:53:11.000Z</time>
      </trkpt>
      <trkpt lat="42.76229" lon="0.58934">
        <ele>1618.7</ele>
        <time>1970-01-01T00:53:12.000Z</time>
      </trkpt>
      <trkpt lat="42.76212" lon="0.58956">
        <ele>1616.3</ele>
        <time>1970-01-01T00:53:14.000Z</time>
      </trkpt>
      <trkpt lat="42.76204" lon="0.58966">
        <ele>1615.5</ele>
        <time>1970-01-01T00:53:15.000Z</time>
      </trkpt>
      <trkpt lat="42.76199" lon="0.58976">
        <ele>1614.7</ele>
        <time>1970-01-01T00:53:17.000Z</time>
      </trkpt>
      <trkpt lat="42.76202" lon="0.58979">
        <ele>1614.5</ele>
        <time>1970-01-01T00:53:18.000Z</time>
      </trkpt>
      <trkpt lat="42.76223" lon="0.58974">
        <ele>1612.3</ele>
        <time>1970-01-01T00:53:20.000Z</time>
      </trkpt>
      <trkpt lat="42.76242" lon="0.58978">
        <ele>1609.9</ele>
        <time>1970-01-01T00:53:22.000Z</time>
      </trkpt>
      <trkpt lat="42.76246" lon="0.58991">
        <ele>1608.8</ele>
        <time>1970-01-01T00:53:24.000Z</time>
      </trkpt>
      <trkpt lat="42.76233" lon="0.59008">
        <ele>1606.8</ele>
        <time>1970-01-01T00:53:26.000Z</time>
      </trkpt>
      <trkpt lat="42.76216" lon="0.59016">
        <ele>1605.1</ele>
        <time>1970-01-01T00:53:28.000Z</time>
      </trkpt>
      <trkpt lat="42.76211" lon="0.59017">
        <ele>1604.7</ele>
        <time>1970-01-01T00:53:29.000Z</time>
      </trkpt>
      <trkpt lat="42.76207" lon="0.5902">
        <ele>1604.5</ele>
        <time>1970-01-01T00:53:31.000Z</time>
      </trkpt>
      <trkpt lat="42.76212" lon="0.59021">
        <ele>1604.2</ele>
        <time>1970-01-01T00:53:32.000Z</time>
      </trkpt>
      <trkpt lat="42.76213" lon="0.59021">
        <ele>1604.1</ele>
        <time>1970-01-01T00:53:33.000Z</time>
      </trkpt>
      <trkpt lat="42.76228" lon="0.59017">
        <ele>1602.5</ele>
        <time>1970-01-01T00:53:35.000Z</time>
      </trkpt>
      <trkpt lat="42.76245" lon="0.5901">
        <ele>1599.9</ele>
        <time>1970-01-01T00:53:37.000Z</time>
      </trkpt>
      <trkpt lat="42.76255" lon="0.59001">
        <ele>1598</ele>
        <time>1970-01-01T00:53:39.000Z</time>
      </trkpt>
      <trkpt lat="42.76263" lon="0.58995">
        <ele>1596.9</ele>
        <time>1970-01-01T00:53:41.000Z</time>
      </trkpt>
      <trkpt lat="42.76267" lon="0.58992">
        <ele>1596.4</ele>
        <time>1970-01-01T00:53:42.000Z</time>
      </trkpt>
      <trkpt lat="42.76275" lon="0.58988">
        <ele>1595.4</ele>
        <time>1970-01-01T00:53:44.000Z</time>
      </trkpt>
      <trkpt lat="42.76279" lon="0.58989">
        <ele>1594.9</ele>
        <time>1970-01-01T00:53:46.000Z</time>
      </trkpt>
      <trkpt lat="42.76282" lon="0.58992">
        <ele>1594.4</ele>
        <time>1970-01-01T00:53:48.000Z</time>
      </trkpt>
      <trkpt lat="42.76275" lon="0.59005">
        <ele>1593</ele>
        <time>1970-01-01T00:53:50.000Z</time>
      </trkpt>
      <trkpt lat="42.7627" lon="0.59009">
        <ele>1592.4</ele>
        <time>1970-01-01T00:53:51.000Z</time>
      </trkpt>
      <trkpt lat="42.76265" lon="0.59018">
        <ele>1591.6</ele>
        <time>1970-01-01T00:53:53.000Z</time>
      </trkpt>
      <trkpt lat="42.76265" lon="0.59025">
        <ele>1591.1</ele>
        <time>1970-01-01T00:53:55.000Z</time>
      </trkpt>
      <trkpt lat="42.76264" lon="0.59027">
        <ele>1590.9</ele>
        <time>1970-01-01T00:53:56.000Z</time>
      </trkpt>
      <trkpt lat="42.76274" lon="0.59019">
        <ele>1589.8</ele>
        <time>1970-01-01T00:53:58.000Z</time>
      </trkpt>
      <trkpt lat="42.76281" lon="0.59015">
        <ele>1589.1</ele>
        <time>1970-01-01T00:53:59.000Z</time>
      </trkpt>
      <trkpt lat="42.76287" lon="0.59012">
        <ele>1588.5</ele>
        <time>1970-01-01T00:54:00.000Z</time>
      </trkpt>
      <trkpt lat="42.76293" lon="0.5901">
        <ele>1587.8</ele>
        <time>1970-01-01T00:54:01.000Z</time>
      </trkpt>
      <trkpt lat="42.76299" lon="0.5901">
        <ele>1587.2</ele>
        <time>1970-01-01T00:54:02.000Z</time>
      </trkpt>
      <trkpt lat="42.76306" lon="0.59011">
        <ele>1586.3</ele>
        <time>1970-01-01T00:54:03.000Z</time>
      </trkpt>
      <trkpt lat="42.76308" lon="0.59022">
        <ele>1585.3</ele>
        <time>1970-01-01T00:54:05.000Z</time>
      </trkpt>
      <trkpt lat="42.76305" lon="0.59038">
        <ele>1583.5</ele>
        <time>1970-01-01T00:54:07.000Z</time>
      </trkpt>
      <trkpt lat="42.76303" lon="0.59047">
        <ele>1580.9</ele>
        <time>1970-01-01T00:54:08.000Z</time>
      </trkpt>
      <trkpt lat="42.76303" lon="0.59065">
        <ele>1573.6</ele>
        <time>1970-01-01T00:54:10.000Z</time>
      </trkpt>
      <trkpt lat="42.76302" lon="0.59072">
        <ele>1572.4</ele>
        <time>1970-01-01T00:54:11.000Z</time>
      </trkpt>
      <trkpt lat="42.76303" lon="0.59077">
        <ele>1569.8</ele>
        <time>1970-01-01T00:54:13.000Z</time>
      </trkpt>
      <trkpt lat="42.76304" lon="0.59081">
        <ele>1569.9</ele>
        <time>1970-01-01T00:54:14.000Z</time>
      </trkpt>
      <trkpt lat="42.76305" lon="0.59086">
        <ele>1568.2</ele>
        <time>1970-01-01T00:54:16.000Z</time>
      </trkpt>
      <trkpt lat="42.76306" lon="0.59087">
        <ele>1566.9</ele>
        <time>1970-01-01T00:54:17.000Z</time>
      </trkpt>
      <trkpt lat="42.76307" lon="0.59091">
        <ele>1565.7</ele>
        <time>1970-01-01T00:54:19.000Z</time>
      </trkpt>
      <trkpt lat="42.76306" lon="0.59096">
        <ele>1564.5</ele>
        <time>1970-01-01T00:54:21.000Z</time>
      </trkpt>
      <trkpt lat="42.76306" lon="0.59097">
        <ele>1564.7</ele>
        <time>1970-01-01T00:54:22.000Z</time>
      </trkpt>
      <trkpt lat="42.76306" lon="0.59099">
        <ele>1563.5</ele>
        <time>1970-01-01T00:54:23.000Z</time>
      </trkpt>
      <trkpt lat="42.76306" lon="0.59101">
        <ele>1563.7</ele>
        <time>1970-01-01T00:54:24.000Z</time>
      </trkpt>
      <trkpt lat="42.76307" lon="0.59102">
        <ele>1563.8</ele>
        <time>1970-01-01T00:54:25.000Z</time>
      </trkpt>
      <trkpt lat="42.76308" lon="0.59108">
        <ele>1561.1</ele>
        <time>1970-01-01T00:54:26.000Z</time>
      </trkpt>
      <trkpt lat="42.7631" lon="0.59111">
        <ele>1561.3</ele>
        <time>1970-01-01T00:54:27.000Z</time>
      </trkpt>
      <trkpt lat="42.76313" lon="0.59117">
        <ele>1558.7</ele>
        <time>1970-01-01T00:54:28.000Z</time>
      </trkpt>
      <trkpt lat="42.76317" lon="0.59126">
        <ele>1555.8</ele>
        <time>1970-01-01T00:54:30.000Z</time>
      </trkpt>
      <trkpt lat="42.7632" lon="0.59138">
        <ele>1551.7</ele>
        <time>1970-01-01T00:54:32.000Z</time>
      </trkpt>
      <trkpt lat="42.76321" lon="0.59142">
        <ele>1550.1</ele>
        <time>1970-01-01T00:54:33.000Z</time>
      </trkpt>
      <trkpt lat="42.76319" lon="0.59132">
        <ele>1554.5</ele>
        <time>1970-01-01T00:54:35.000Z</time>
      </trkpt>
      <trkpt lat="42.76317" lon="0.59124">
        <ele>1557.5</ele>
        <time>1970-01-01T00:54:36.000Z</time>
      </trkpt>
      <trkpt lat="42.76315" lon="0.59114">
        <ele>1560.6</ele>
        <time>1970-01-01T00:54:38.000Z</time>
      </trkpt>
      <trkpt lat="42.76313" lon="0.59109">
        <ele>1561.9</ele>
        <time>1970-01-01T00:54:39.000Z</time>
      </trkpt>
      <trkpt lat="42.76312" lon="0.59104">
        <ele>1563.2</ele>
        <time>1970-01-01T00:54:40.000Z</time>
      </trkpt>
      <trkpt lat="42.76312" lon="0.59103">
        <ele>1563.3</ele>
        <time>1970-01-01T00:54:41.000Z</time>
      </trkpt>
      <trkpt lat="42.76311" lon="0.59103">
        <ele>1565.1</ele>
        <time>1970-01-01T00:54:42.000Z</time>
      </trkpt>
      <trkpt lat="42.76311" lon="0.59105">
        <ele>1564</ele>
        <time>1970-01-01T00:54:44.000Z</time>
      </trkpt>
      <trkpt lat="42.76316" lon="0.59109">
        <ele>1561.8</ele>
        <time>1970-01-01T00:54:46.000Z</time>
      </trkpt>
      <trkpt lat="42.76319" lon="0.59112">
        <ele>1560.3</ele>
        <time>1970-01-01T00:54:47.000Z</time>
      </trkpt>
      <trkpt lat="42.76323" lon="0.59116">
        <ele>1558.8</ele>
        <time>1970-01-01T00:54:49.000Z</time>
      </trkpt>
      <trkpt lat="42.76325" lon="0.59121">
        <ele>1557.2</ele>
        <time>1970-01-01T00:54:51.000Z</time>
      </trkpt>
      <trkpt lat="42.76324" lon="0.59125">
        <ele>1556.2</ele>
        <time>1970-01-01T00:54:52.000Z</time>
      </trkpt>
      <trkpt lat="42.76322" lon="0.5913">
        <ele>1555.7</ele>
        <time>1970-01-01T00:54:54.000Z</time>
      </trkpt>
      <trkpt lat="42.76325" lon="0.59167">
        <ele>1546</ele>
        <time>1970-01-01T00:54:55.000Z</time>
      </trkpt>
      <trkpt lat="42.76328" lon="0.59202">
        <ele>1537.8</ele>
        <time>1970-01-01T00:54:57.000Z</time>
      </trkpt>
      <trkpt lat="42.76332" lon="0.59237">
        <ele>1532</ele>
        <time>1970-01-01T00:54:59.000Z</time>
      </trkpt>
      <trkpt lat="42.76333" lon="0.59242">
        <ele>1531.3</ele>
        <time>1970-01-01T00:55:01.000Z</time>
      </trkpt>
      <trkpt lat="42.76333" lon="0.59244">
        <ele>1531.1</ele>
        <time>1970-01-01T00:55:02.000Z</time>
      </trkpt>
      <trkpt lat="42.76332" lon="0.59245">
        <ele>1531</ele>
        <time>1970-01-01T00:55:03.000Z</time>
      </trkpt>
      <trkpt lat="42.76331" lon="0.59245">
        <ele>1530.9</ele>
        <time>1970-01-01T00:55:05.000Z</time>
      </trkpt>
      <trkpt lat="42.7633" lon="0.59245">
        <ele>1530.8</ele>
        <time>1970-01-01T00:55:06.000Z</time>
      </trkpt>
      <trkpt lat="42.7633" lon="0.59246">
        <ele>1530.8</ele>
        <time>1970-01-01T00:55:07.000Z</time>
      </trkpt>
      <trkpt lat="42.76329" lon="0.59246">
        <ele>1530.7</ele>
        <time>1970-01-01T00:55:08.000Z</time>
      </trkpt>
      <trkpt lat="42.76328" lon="0.59247">
        <ele>1530.6</ele>
        <time>1970-01-01T00:55:10.000Z</time>
      </trkpt>
      <trkpt lat="42.76327" lon="0.59247">
        <ele>1530.5</ele>
        <time>1970-01-01T00:55:11.000Z</time>
      </trkpt>
      <trkpt lat="42.76327" lon="0.59247">
        <ele>1530.4</ele>
        <time>1970-01-01T00:55:12.000Z</time>
      </trkpt>
      <trkpt lat="42.76326" lon="0.59248">
        <ele>1530.3</ele>
        <time>1970-01-01T00:55:14.000Z</time>
      </trkpt>
      <trkpt lat="42.76325" lon="0.59248">
        <ele>1530.2</ele>
        <time>1970-01-01T00:55:15.000Z</time>
      </trkpt>
      <trkpt lat="42.76324" lon="0.59248">
        <ele>1530.1</ele>
        <time>1970-01-01T00:55:17.000Z</time>
      </trkpt>
      <trkpt lat="42.76324" lon="0.59249">
        <ele>1530</ele>
        <time>1970-01-01T00:55:19.000Z</time>
      </trkpt>
      <trkpt lat="42.76323" lon="0.59249">
        <ele>1529.9</ele>
        <time>1970-01-01T00:55:20.000Z</time>
      </trkpt>
      <trkpt lat="42.76322" lon="0.5925">
        <ele>1529.8</ele>
        <time>1970-01-01T00:55:22.000Z</time>
      </trkpt>
      <trkpt lat="42.76321" lon="0.5925">
        <ele>1529.6</ele>
        <time>1970-01-01T00:55:24.000Z</time>
      </trkpt>
      <trkpt lat="42.76321" lon="0.5925">
        <ele>1529.5</ele>
        <time>1970-01-01T00:55:25.000Z</time>
      </trkpt>
      <trkpt lat="42.7632" lon="0.59251">
        <ele>1529.4</ele>
        <time>1970-01-01T00:55:26.000Z</time>
      </trkpt>
      <trkpt lat="42.76319" lon="0.59251">
        <ele>1529.3</ele>
        <time>1970-01-01T00:55:27.000Z</time>
      </trkpt>
      <trkpt lat="42.76318" lon="0.59251">
        <ele>1529.2</ele>
        <time>1970-01-01T00:55:29.000Z</time>
      </trkpt>
      <trkpt lat="42.76318" lon="0.59252">
        <ele>1529.1</ele>
        <time>1970-01-01T00:55:30.000Z</time>
      </trkpt>
      <trkpt lat="42.76317" lon="0.59252">
        <ele>1529</ele>
        <time>1970-01-01T00:55:32.000Z</time>
      </trkpt>
      <trkpt lat="42.76316" lon="0.59253">
        <ele>1528.9</ele>
        <time>1970-01-01T00:55:33.000Z</time>
      </trkpt>
      <trkpt lat="42.76316" lon="0.59253">
        <ele>1528.7</ele>
        <time>1970-01-01T00:55:35.000Z</time>
      </trkpt>
      <trkpt lat="42.76315" lon="0.59253">
        <ele>1528.6</ele>
        <time>1970-01-01T00:55:37.000Z</time>
      </trkpt>
      <trkpt lat="42.76314" lon="0.59254">
        <ele>1528.5</ele>
        <time>1970-01-01T00:55:38.000Z</time>
      </trkpt>
      <trkpt lat="42.76313" lon="0.59254">
        <ele>1528.4</ele>
        <time>1970-01-01T00:55:39.000Z</time>
      </trkpt>
      <trkpt lat="42.76313" lon="0.59255">
        <ele>1528.2</ele>
        <time>1970-01-01T00:55:41.000Z</time>
      </trkpt>
      <trkpt lat="42.76312" lon="0.59255">
        <ele>1528.1</ele>
        <time>1970-01-01T00:56:10.000Z</time>
      </trkpt>
      <trkpt lat="42.76311" lon="0.59255">
        <ele>1528</ele>
        <time>1970-01-01T00:56:11.000Z</time>
      </trkpt>
      <trkpt lat="42.7631" lon="0.59256">
        <ele>1527.8</ele>
        <time>1970-01-01T00:56:13.000Z</time>
      </trkpt>
      <trkpt lat="42.76304" lon="0.59264">
        <ele>1526</ele>
        <time>1970-01-01T00:56:14.000Z</time>
      </trkpt>
      <trkpt lat="42.76291" lon="0.59283">
        <ele>1521.5</ele>
        <time>1970-01-01T00:56:16.000Z</time>
      </trkpt>
      <trkpt lat="42.76283" lon="0.59292">
        <ele>1519.3</ele>
        <time>1970-01-01T00:56:17.000Z</time>
      </trkpt>
      <trkpt lat="42.76266" lon="0.59312">
        <ele>1513.6</ele>
        <time>1970-01-01T00:56:19.000Z</time>
      </trkpt>
      <trkpt lat="42.76258" lon="0.5932">
        <ele>1510.5</ele>
        <time>1970-01-01T00:56:20.000Z</time>
      </trkpt>
      <trkpt lat="42.76252" lon="0.59327">
        <ele>1508.1</ele>
        <time>1970-01-01T00:56:21.000Z</time>
      </trkpt>
      <trkpt lat="42.76248" lon="0.59335">
        <ele>1506</ele>
        <time>1970-01-01T00:56:22.000Z</time>
      </trkpt>
      <trkpt lat="42.76243" lon="0.59353">
        <ele>1502.3</ele>
        <time>1970-01-01T00:56:24.000Z</time>
      </trkpt>
      <trkpt lat="42.76242" lon="0.59374">
        <ele>1499</ele>
        <time>1970-01-01T00:56:26.000Z</time>
      </trkpt>
      <trkpt lat="42.76241" lon="0.59384">
        <ele>1497.3</ele>
        <time>1970-01-01T00:56:27.000Z</time>
      </trkpt>
      <trkpt lat="42.7624" lon="0.59394">
        <ele>1495.8</ele>
        <time>1970-01-01T00:56:28.000Z</time>
      </trkpt>
      <trkpt lat="42.76239" lon="0.59409">
        <ele>1493.2</ele>
        <time>1970-01-01T00:56:30.000Z</time>
      </trkpt>
      <trkpt lat="42.76244" lon="0.59419">
        <ele>1491.2</ele>
        <time>1970-01-01T00:56:32.000Z</time>
      </trkpt>
      <trkpt lat="42.76251" lon="0.59427">
        <ele>1489.1</ele>
        <time>1970-01-01T00:56:34.000Z</time>
      </trkpt>
      <trkpt lat="42.76261" lon="0.59438">
        <ele>1486.2</ele>
        <time>1970-01-01T00:56:36.000Z</time>
      </trkpt>
      <trkpt lat="42.76266" lon="0.59445">
        <ele>1484.5</ele>
        <time>1970-01-01T00:56:37.000Z</time>
      </trkpt>
      <trkpt lat="42.76277" lon="0.59459">
        <ele>1480.7</ele>
        <time>1970-01-01T00:56:39.000Z</time>
      </trkpt>
      <trkpt lat="42.76283" lon="0.59464">
        <ele>1478.7</ele>
        <time>1970-01-01T00:56:40.000Z</time>
      </trkpt>
      <trkpt lat="42.76289" lon="0.59468">
        <ele>1477</ele>
        <time>1970-01-01T00:56:41.000Z</time>
      </trkpt>
      <trkpt lat="42.763" lon="0.59472">
        <ele>1474</ele>
        <time>1970-01-01T00:56:43.000Z</time>
      </trkpt>
      <trkpt lat="42.76304" lon="0.59473">
        <ele>1472.7</ele>
        <time>1970-01-01T00:56:44.000Z</time>
      </trkpt>
      <trkpt lat="42.76309" lon="0.59474">
        <ele>1471.6</ele>
        <time>1970-01-01T00:56:45.000Z</time>
      </trkpt>
      <trkpt lat="42.76318" lon="0.59474">
        <ele>1469.1</ele>
        <time>1970-01-01T00:56:47.000Z</time>
      </trkpt>
      <trkpt lat="42.76331" lon="0.59475">
        <ele>1465.8</ele>
        <time>1970-01-01T00:56:49.000Z</time>
      </trkpt>
      <trkpt lat="42.76339" lon="0.59476">
        <ele>1463.8</ele>
        <time>1970-01-01T00:56:50.000Z</time>
      </trkpt>
      <trkpt lat="42.76355" lon="0.59479">
        <ele>1459.9</ele>
        <time>1970-01-01T00:56:52.000Z</time>
      </trkpt>
      <trkpt lat="42.7637" lon="0.59479">
        <ele>1456.7</ele>
        <time>1970-01-01T00:56:54.000Z</time>
      </trkpt>
      <trkpt lat="42.76378" lon="0.59479">
        <ele>1455.4</ele>
        <time>1970-01-01T00:56:55.000Z</time>
      </trkpt>
      <trkpt lat="42.76395" lon="0.59478">
        <ele>1452.9</ele>
        <time>1970-01-01T00:56:57.000Z</time>
      </trkpt>
      <trkpt lat="42.76412" lon="0.59476">
        <ele>1450</ele>
        <time>1970-01-01T00:56:59.000Z</time>
      </trkpt>
      <trkpt lat="42.76432" lon="0.5947">
        <ele>1446.9</ele>
        <time>1970-01-01T00:57:01.000Z</time>
      </trkpt>
      <trkpt lat="42.76452" lon="0.59465">
        <ele>1444.1</ele>
        <time>1970-01-01T00:57:03.000Z</time>
      </trkpt>
      <trkpt lat="42.76462" lon="0.59461">
        <ele>1442.6</ele>
        <time>1970-01-01T00:57:04.000Z</time>
      </trkpt>
      <trkpt lat="42.7648" lon="0.59455">
        <ele>1440.3</ele>
        <time>1970-01-01T00:57:06.000Z</time>
      </trkpt>
      <trkpt lat="42.76485" lon="0.59455">
        <ele>1439.4</ele>
        <time>1970-01-01T00:57:07.000Z</time>
      </trkpt>
      <trkpt lat="42.76487" lon="0.59461">
        <ele>1438.7</ele>
        <time>1970-01-01T00:57:08.000Z</time>
      </trkpt>
      <trkpt lat="42.76486" lon="0.59469">
        <ele>1437.5</ele>
        <time>1970-01-01T00:57:09.000Z</time>
      </trkpt>
      <trkpt lat="42.76485" lon="0.59477">
        <ele>1436.2</ele>
        <time>1970-01-01T00:57:10.000Z</time>
      </trkpt>
      <trkpt lat="42.76478" lon="0.59493">
        <ele>1433.2</ele>
        <time>1970-01-01T00:57:12.000Z</time>
      </trkpt>
      <trkpt lat="42.76475" lon="0.59502">
        <ele>1431.4</ele>
        <time>1970-01-01T00:57:13.000Z</time>
      </trkpt>
      <trkpt lat="42.76469" lon="0.5952">
        <ele>1427.9</ele>
        <time>1970-01-01T00:57:15.000Z</time>
      </trkpt>
      <trkpt lat="42.76468" lon="0.59556">
        <ele>1414.8</ele>
        <time>1970-01-01T00:57:17.000Z</time>
      </trkpt>
      <trkpt lat="42.76471" lon="0.5959">
        <ele>1396.3</ele>
        <time>1970-01-01T00:57:19.000Z</time>
      </trkpt>
      <trkpt lat="42.76472" lon="0.596">
        <ele>1389.4</ele>
        <time>1970-01-01T00:57:20.000Z</time>
      </trkpt>
      <trkpt lat="42.76471" lon="0.59614">
        <ele>1377.4</ele>
        <time>1970-01-01T00:57:22.000Z</time>
      </trkpt>
      <trkpt lat="42.76472" lon="0.59621">
        <ele>1378.1</ele>
        <time>1970-01-01T00:57:23.000Z</time>
      </trkpt>
      <trkpt lat="42.76466" lon="0.59627">
        <ele>1379</ele>
        <time>1970-01-01T00:57:25.000Z</time>
      </trkpt>
      <trkpt lat="42.76464" lon="0.59631">
        <ele>1379.5</ele>
        <time>1970-01-01T00:57:26.000Z</time>
      </trkpt>
      <trkpt lat="42.76458" lon="0.59643">
        <ele>1380.9</ele>
        <time>1970-01-01T00:57:28.000Z</time>
      </trkpt>
      <trkpt lat="42.76455" lon="0.5965">
        <ele>1381.7</ele>
        <time>1970-01-01T00:57:29.000Z</time>
      </trkpt>
      <trkpt lat="42.7645" lon="0.59657">
        <ele>1382.5</ele>
        <time>1970-01-01T00:57:30.000Z</time>
      </trkpt>
      <trkpt lat="42.76446" lon="0.59662">
        <ele>1383.3</ele>
        <time>1970-01-01T00:57:32.000Z</time>
      </trkpt>
      <trkpt lat="42.76448" lon="0.59666">
        <ele>1383.7</ele>
        <time>1970-01-01T00:57:33.000Z</time>
      </trkpt>
      <trkpt lat="42.76449" lon="0.59667">
        <ele>1383.9</ele>
        <time>1970-01-01T00:57:34.000Z</time>
      </trkpt>
      <trkpt lat="42.7645" lon="0.59669">
        <ele>1384</ele>
        <time>1970-01-01T00:57:36.000Z</time>
      </trkpt>
      <trkpt lat="42.76449" lon="0.59669">
        <ele>1384.3</ele>
        <time>1970-01-01T00:57:37.000Z</time>
      </trkpt>
      <trkpt lat="42.76449" lon="0.5967">
        <ele>1384.2</ele>
        <time>1970-01-01T00:57:38.000Z</time>
      </trkpt>
      <trkpt lat="42.76448" lon="0.59671">
        <ele>1384</ele>
        <time>1970-01-01T00:57:40.000Z</time>
      </trkpt>
      <trkpt lat="42.76447" lon="0.59673">
        <ele>1383.6</ele>
        <time>1970-01-01T00:57:41.000Z</time>
      </trkpt>
      <trkpt lat="42.76446" lon="0.59677">
        <ele>1383.1</ele>
        <time>1970-01-01T00:57:43.000Z</time>
      </trkpt>
      <trkpt lat="42.76444" lon="0.59676">
        <ele>1382.8</ele>
        <time>1970-01-01T00:57:44.000Z</time>
      </trkpt>
      <trkpt lat="42.76443" lon="0.59678">
        <ele>1382.5</ele>
        <time>1970-01-01T00:57:45.000Z</time>
      </trkpt>
      <trkpt lat="42.76449" lon="0.59674">
        <ele>1381.4</ele>
        <time>1970-01-01T00:57:46.000Z</time>
      </trkpt>
      <trkpt lat="42.76467" lon="0.5966">
        <ele>1377.4</ele>
        <time>1970-01-01T00:57:48.000Z</time>
      </trkpt>
      <trkpt lat="42.76479" lon="0.59653">
        <ele>1375.2</ele>
        <time>1970-01-01T00:57:49.000Z</time>
      </trkpt>
      <trkpt lat="42.76501" lon="0.5964">
        <ele>1371.4</ele>
        <time>1970-01-01T00:57:51.000Z</time>
      </trkpt>
      <trkpt lat="42.76512" lon="0.59634">
        <ele>1370.1</ele>
        <time>1970-01-01T00:57:52.000Z</time>
      </trkpt>
      <trkpt lat="42.76522" lon="0.59628">
        <ele>1368.9</ele>
        <time>1970-01-01T00:57:53.000Z</time>
      </trkpt>
      <trkpt lat="42.76531" lon="0.59624">
        <ele>1367.6</ele>
        <time>1970-01-01T00:57:54.000Z</time>
      </trkpt>
      <trkpt lat="42.76545" lon="0.59616">
        <ele>1364.5</ele>
        <time>1970-01-01T00:57:56.000Z</time>
      </trkpt>
      <trkpt lat="42.7655" lon="0.59609">
        <ele>1362.8</ele>
        <time>1970-01-01T00:57:58.000Z</time>
      </trkpt>
      <trkpt lat="42.76551" lon="0.59608">
        <ele>1362.4</ele>
        <time>1970-01-01T00:57:59.000Z</time>
      </trkpt>
      <trkpt lat="42.76554" lon="0.59607">
        <ele>1361.8</ele>
        <time>1970-01-01T00:58:01.000Z</time>
      </trkpt>
      <trkpt lat="42.76558" lon="0.59605">
        <ele>1360.9</ele>
        <time>1970-01-01T00:58:02.000Z</time>
      </trkpt>
      <trkpt lat="42.76559" lon="0.59605">
        <ele>1360.7</ele>
        <time>1970-01-01T00:58:03.000Z</time>
      </trkpt>
      <trkpt lat="42.76561" lon="0.59605">
        <ele>1360.1</ele>
        <time>1970-01-01T00:58:04.000Z</time>
      </trkpt>
      <trkpt lat="42.76565" lon="0.59606">
        <ele>1359.1</ele>
        <time>1970-01-01T00:58:06.000Z</time>
      </trkpt>
      <trkpt lat="42.76568" lon="0.59606">
        <ele>1358.3</ele>
        <time>1970-01-01T00:58:07.000Z</time>
      </trkpt>
      <trkpt lat="42.76572" lon="0.59604">
        <ele>1357.2</ele>
        <time>1970-01-01T00:58:09.000Z</time>
      </trkpt>
      <trkpt lat="42.7658" lon="0.596">
        <ele>1354.9</ele>
        <time>1970-01-01T00:58:10.000Z</time>
      </trkpt>
      <trkpt lat="42.76586" lon="0.59598">
        <ele>1353.2</ele>
        <time>1970-01-01T00:58:12.000Z</time>
      </trkpt>
      <trkpt lat="42.76596" lon="0.59593">
        <ele>1350.8</ele>
        <time>1970-01-01T00:58:13.000Z</time>
      </trkpt>
      <trkpt lat="42.76605" lon="0.59588">
        <ele>1348.7</ele>
        <time>1970-01-01T00:58:15.000Z</time>
      </trkpt>
      <trkpt lat="42.76614" lon="0.59583">
        <ele>1346.5</ele>
        <time>1970-01-01T00:58:16.000Z</time>
      </trkpt>
      <trkpt lat="42.76624" lon="0.59577">
        <ele>1344.1</ele>
        <time>1970-01-01T00:58:17.000Z</time>
      </trkpt>
      <trkpt lat="42.76634" lon="0.59569">
        <ele>1341.6</ele>
        <time>1970-01-01T00:58:18.000Z</time>
      </trkpt>
      <trkpt lat="42.76653" lon="0.59551">
        <ele>1336.5</ele>
        <time>1970-01-01T00:58:20.000Z</time>
      </trkpt>
      <trkpt lat="42.76662" lon="0.59542">
        <ele>1334.7</ele>
        <time>1970-01-01T00:58:21.000Z</time>
      </trkpt>
      <trkpt lat="42.76675" lon="0.5953">
        <ele>1330.5</ele>
        <time>1970-01-01T00:58:23.000Z</time>
      </trkpt>
      <trkpt lat="42.7668" lon="0.59529">
        <ele>1326.8</ele>
        <time>1970-01-01T00:58:24.000Z</time>
      </trkpt>
      <trkpt lat="42.76683" lon="0.59537">
        <ele>1324.5</ele>
        <time>1970-01-01T00:58:26.000Z</time>
      </trkpt>
      <trkpt lat="42.76683" lon="0.59542">
        <ele>1321.5</ele>
        <time>1970-01-01T00:58:27.000Z</time>
      </trkpt>
      <trkpt lat="42.76687" lon="0.59563">
        <ele>1315</ele>
        <time>1970-01-01T00:58:29.000Z</time>
      </trkpt>
      <trkpt lat="42.76693" lon="0.59581">
        <ele>1306.7</ele>
        <time>1970-01-01T00:58:31.000Z</time>
      </trkpt>
      <trkpt lat="42.76699" lon="0.59591">
        <ele>1300</ele>
        <time>1970-01-01T00:58:33.000Z</time>
      </trkpt>
      <trkpt lat="42.76704" lon="0.59593">
        <ele>1296.6</ele>
        <time>1970-01-01T00:58:34.000Z</time>
      </trkpt>
      <trkpt lat="42.7671" lon="0.59574">
        <ele>1298.3</ele>
        <time>1970-01-01T00:58:36.000Z</time>
      </trkpt>
      <trkpt lat="42.76713" lon="0.59563">
        <ele>1297.3</ele>
        <time>1970-01-01T00:58:37.000Z</time>
      </trkpt>
      <trkpt lat="42.76721" lon="0.59538">
        <ele>1294.9</ele>
        <time>1970-01-01T00:58:39.000Z</time>
      </trkpt>
      <trkpt lat="42.76726" lon="0.59517">
        <ele>1290.1</ele>
        <time>1970-01-01T00:58:41.000Z</time>
      </trkpt>
      <trkpt lat="42.7672" lon="0.59515">
        <ele>1295.4</ele>
        <time>1970-01-01T00:58:42.000Z</time>
      </trkpt>
      <trkpt lat="42.76715" lon="0.59513">
        <ele>1297.7</ele>
        <time>1970-01-01T00:58:44.000Z</time>
      </trkpt>
      <trkpt lat="42.7671" lon="0.59512">
        <ele>1302.4</ele>
        <time>1970-01-01T00:58:45.000Z</time>
      </trkpt>
      <trkpt lat="42.76705" lon="0.59513">
        <ele>1306.5</ele>
        <time>1970-01-01T00:58:47.000Z</time>
      </trkpt>
      <trkpt lat="42.76705" lon="0.59516">
        <ele>1303.3</ele>
        <time>1970-01-01T00:58:48.000Z</time>
      </trkpt>
      <trkpt lat="42.76706" lon="0.59518">
        <ele>1302.8</ele>
        <time>1970-01-01T00:58:49.000Z</time>
      </trkpt>
      <trkpt lat="42.76707" lon="0.5952">
        <ele>1301.9</ele>
        <time>1970-01-01T00:58:50.000Z</time>
      </trkpt>
      <trkpt lat="42.76709" lon="0.59525">
        <ele>1298.8</ele>
        <time>1970-01-01T00:58:52.000Z</time>
      </trkpt>
      <trkpt lat="42.7671" lon="0.59526">
        <ele>1298.3</ele>
        <time>1970-01-01T00:58:53.000Z</time>
      </trkpt>
      <trkpt lat="42.76711" lon="0.59527">
        <ele>1297.8</ele>
        <time>1970-01-01T00:58:54.000Z</time>
      </trkpt>
      <trkpt lat="42.76713" lon="0.59528">
        <ele>1294.9</ele>
        <time>1970-01-01T00:58:56.000Z</time>
      </trkpt>
      <trkpt lat="42.76714" lon="0.59528">
        <ele>1294.1</ele>
        <time>1970-01-01T00:58:57.000Z</time>
      </trkpt>
      <trkpt lat="42.76719" lon="0.59513">
        <ele>1289.3</ele>
        <time>1970-01-01T00:58:59.000Z</time>
      </trkpt>
      <trkpt lat="42.76722" lon="0.59505">
        <ele>1286.3</ele>
        <time>1970-01-01T00:59:00.000Z</time>
      </trkpt>
      <trkpt lat="42.76728" lon="0.59492">
        <ele>1280.5</ele>
        <time>1970-01-01T00:59:02.000Z</time>
      </trkpt>
      <trkpt lat="42.76731" lon="0.59487">
        <ele>1277.2</ele>
        <time>1970-01-01T00:59:03.000Z</time>
      </trkpt>
      <trkpt lat="42.7674" lon="0.59479">
        <ele>1268</ele>
        <time>1970-01-01T00:59:05.000Z</time>
      </trkpt>
      <trkpt lat="42.76744" lon="0.59475">
        <ele>1264.4</ele>
        <time>1970-01-01T00:59:07.000Z</time>
      </trkpt>
      <trkpt lat="42.76735" lon="0.59482">
        <ele>1272.9</ele>
        <time>1970-01-01T00:59:08.000Z</time>
      </trkpt>
      <trkpt lat="42.76723" lon="0.59498">
        <ele>1283.7</ele>
        <time>1970-01-01T00:59:10.000Z</time>
      </trkpt>
      <trkpt lat="42.76721" lon="0.59501">
        <ele>1285.9</ele>
        <time>1970-01-01T00:59:11.000Z</time>
      </trkpt>
      <trkpt lat="42.76725" lon="0.59498">
        <ele>1279.7</ele>
        <time>1970-01-01T00:59:12.000Z</time>
      </trkpt>
      <trkpt lat="42.76728" lon="0.59502">
        <ele>1276</ele>
        <time>1970-01-01T00:59:13.000Z</time>
      </trkpt>
      <trkpt lat="42.76733" lon="0.59507">
        <ele>1272.7</ele>
        <time>1970-01-01T00:59:14.000Z</time>
      </trkpt>
      <trkpt lat="42.76737" lon="0.5951">
        <ele>1266.7</ele>
        <time>1970-01-01T00:59:15.000Z</time>
      </trkpt>
      <trkpt lat="42.76747" lon="0.59518">
        <ele>1257.8</ele>
        <time>1970-01-01T00:59:17.000Z</time>
      </trkpt>
      <trkpt lat="42.76745" lon="0.59523">
        <ele>1260.3</ele>
        <time>1970-01-01T00:59:18.000Z</time>
      </trkpt>
      <trkpt lat="42.76737" lon="0.59515">
        <ele>1268</ele>
        <time>1970-01-01T00:59:19.000Z</time>
      </trkpt>
      <trkpt lat="42.76734" lon="0.5952">
        <ele>1270.2</ele>
        <time>1970-01-01T00:59:21.000Z</time>
      </trkpt>
      <trkpt lat="42.76742" lon="0.59528">
        <ele>1261.7</ele>
        <time>1970-01-01T00:59:22.000Z</time>
      </trkpt>
      <trkpt lat="42.76751" lon="0.59533">
        <ele>1253</ele>
        <time>1970-01-01T00:59:23.000Z</time>
      </trkpt>
      <trkpt lat="42.76761" lon="0.5954">
        <ele>1244.1</ele>
        <time>1970-01-01T00:59:24.000Z</time>
      </trkpt>
      <trkpt lat="42.76778" lon="0.59556">
        <ele>1228.3</ele>
        <time>1970-01-01T00:59:26.000Z</time>
      </trkpt>
      <trkpt lat="42.7679" lon="0.59577">
        <ele>1219</ele>
        <time>1970-01-01T00:59:28.000Z</time>
      </trkpt>
      <trkpt lat="42.76793" lon="0.59586">
        <ele>1214.9</ele>
        <time>1970-01-01T00:59:29.000Z</time>
      </trkpt>
      <trkpt lat="42.76794" lon="0.59595">
        <ele>1210.5</ele>
        <time>1970-01-01T00:59:30.000Z</time>
      </trkpt>
      <trkpt lat="42.76795" lon="0.59605">
        <ele>1207.2</ele>
        <time>1970-01-01T00:59:32.000Z</time>
      </trkpt>
      <trkpt lat="42.76795" lon="0.59608">
        <ele>1206.7</ele>
        <time>1970-01-01T00:59:34.000Z</time>
      </trkpt>
      <trkpt lat="42.76793" lon="0.59609">
        <ele>1208.8</ele>
        <time>1970-01-01T00:59:35.000Z</time>
      </trkpt>
      <trkpt lat="42.76792" lon="0.596">
        <ele>1210.3</ele>
        <time>1970-01-01T00:59:36.000Z</time>
      </trkpt>
      <trkpt lat="42.76792" lon="0.59588">
        <ele>1211.3</ele>
        <time>1970-01-01T00:59:37.000Z</time>
      </trkpt>
      <trkpt lat="42.76793" lon="0.59577">
        <ele>1212.2</ele>
        <time>1970-01-01T00:59:38.000Z</time>
      </trkpt>
      <trkpt lat="42.76791" lon="0.59556">
        <ele>1211.5</ele>
        <time>1970-01-01T00:59:40.000Z</time>
      </trkpt>
      <trkpt lat="42.76789" lon="0.59541">
        <ele>1212.4</ele>
        <time>1970-01-01T00:59:42.000Z</time>
      </trkpt>
      <trkpt lat="42.76789" lon="0.59534">
        <ele>1211.5</ele>
        <time>1970-01-01T00:59:43.000Z</time>
      </trkpt>
      <trkpt lat="42.76789" lon="0.59528">
        <ele>1210.6</ele>
        <time>1970-01-01T00:59:44.000Z</time>
      </trkpt>
      <trkpt lat="42.76791" lon="0.59532">
        <ele>1207.5</ele>
        <time>1970-01-01T00:59:45.000Z</time>
      </trkpt>
      <trkpt lat="42.7679" lon="0.59536">
        <ele>1210</ele>
        <time>1970-01-01T00:59:46.000Z</time>
      </trkpt>
      <trkpt lat="42.76792" lon="0.59541">
        <ele>1207.5</ele>
        <time>1970-01-01T00:59:47.000Z</time>
      </trkpt>
      <trkpt lat="42.76796" lon="0.59552">
        <ele>1205</ele>
        <time>1970-01-01T00:59:49.000Z</time>
      </trkpt>
      <trkpt lat="42.76797" lon="0.59544">
        <ele>1201.2</ele>
        <time>1970-01-01T00:59:50.000Z</time>
      </trkpt>
      <trkpt lat="42.768" lon="0.59519">
        <ele>1195.6</ele>
        <time>1970-01-01T00:59:52.000Z</time>
      </trkpt>
      <trkpt lat="42.76803" lon="0.59506">
        <ele>1190.8</ele>
        <time>1970-01-01T00:59:54.000Z</time>
      </trkpt>
      <trkpt lat="42.76802" lon="0.59508">
        <ele>1193.8</ele>
        <time>1970-01-01T00:59:56.000Z</time>
      </trkpt>
      <trkpt lat="42.76802" lon="0.59514">
        <ele>1193.7</ele>
        <time>1970-01-01T00:59:57.000Z</time>
      </trkpt>
      <trkpt lat="42.76801" lon="0.59525">
        <ele>1194.3</ele>
        <time>1970-01-01T00:59:58.000Z</time>
      </trkpt>
      <trkpt lat="42.76799" lon="0.59535">
        <ele>1197.5</ele>
        <time>1970-01-01T00:59:59.000Z</time>
      </trkpt>
      <trkpt lat="42.76798" lon="0.59538">
        <ele>1197.3</ele>
        <time>1970-01-01T01:00:00.000Z</time>
      </trkpt>
      <trkpt lat="42.76795" lon="0.59539">
        <ele>1199.5</ele>
        <time>1970-01-01T01:00:01.000Z</time>
      </trkpt>
      <trkpt lat="42.76802" lon="0.5952">
        <ele>1191.9</ele>
        <time>1970-01-01T01:00:03.000Z</time>
      </trkpt>
      <trkpt lat="42.76806" lon="0.59525">
        <ele>1188.7</ele>
        <time>1970-01-01T01:00:04.000Z</time>
      </trkpt>
      <trkpt lat="42.76811" lon="0.59539">
        <ele>1182.9</ele>
        <time>1970-01-01T01:00:06.000Z</time>
      </trkpt>
      <trkpt lat="42.76812" lon="0.59545">
        <ele>1179.7</ele>
        <time>1970-01-01T01:00:07.000Z</time>
      </trkpt>
      <trkpt lat="42.76806" lon="0.5955">
        <ele>1185.8</ele>
        <time>1970-01-01T01:00:09.000Z</time>
      </trkpt>
      <trkpt lat="42.768" lon="0.59547">
        <ele>1194.4</ele>
        <time>1970-01-01T01:00:10.000Z</time>
      </trkpt>
      <trkpt lat="42.76803" lon="0.59559">
        <ele>1188.4</ele>
        <time>1970-01-01T01:00:11.000Z</time>
      </trkpt>
      <trkpt lat="42.76805" lon="0.59578">
        <ele>1187.8</ele>
        <time>1970-01-01T01:00:13.000Z</time>
      </trkpt>
      <trkpt lat="42.76805" lon="0.59603">
        <ele>1183.6</ele>
        <time>1970-01-01T01:00:15.000Z</time>
      </trkpt>
      <trkpt lat="42.76806" lon="0.59615">
        <ele>1179.4</ele>
        <time>1970-01-01T01:00:16.000Z</time>
      </trkpt>
      <trkpt lat="42.76807" lon="0.59626">
        <ele>1172.2</ele>
        <time>1970-01-01T01:00:17.000Z</time>
      </trkpt>
      <trkpt lat="42.76808" lon="0.59635">
        <ele>1165.2</ele>
        <time>1970-01-01T01:00:18.000Z</time>
      </trkpt>
      <trkpt lat="42.76808" lon="0.59645">
        <ele>1160</ele>
        <time>1970-01-01T01:00:19.000Z</time>
      </trkpt>
      <trkpt lat="42.76805" lon="0.59662">
        <ele>1152.2</ele>
        <time>1970-01-01T01:00:21.000Z</time>
      </trkpt>
      <trkpt lat="42.76803" lon="0.59671">
        <ele>1152.2</ele>
        <time>1970-01-01T01:00:22.000Z</time>
      </trkpt>
      <trkpt lat="42.76799" lon="0.59688">
        <ele>1152.2</ele>
        <time>1970-01-01T01:00:24.000Z</time>
      </trkpt>
      <trkpt lat="42.76791" lon="0.59706">
        <ele>1152.2</ele>
        <time>1970-01-01T01:00:26.000Z</time>
      </trkpt>
      <trkpt lat="42.76781" lon="0.59723">
        <ele>1152.1</ele>
        <time>1970-01-01T01:00:28.000Z</time>
      </trkpt>
      <trkpt lat="42.76775" lon="0.59732">
        <ele>1152.1</ele>
        <time>1970-01-01T01:00:29.000Z</time>
      </trkpt>
      <trkpt lat="42.76763" lon="0.5975">
        <ele>1151.9</ele>
        <time>1970-01-01T01:00:31.000Z</time>
      </trkpt>
      <trkpt lat="42.76751" lon="0.5977">
        <ele>1151.7</ele>
        <time>1970-01-01T01:00:33.000Z</time>
      </trkpt>
      <trkpt lat="42.76746" lon="0.59779">
        <ele>1151.6</ele>
        <time>1970-01-01T01:00:34.000Z</time>
      </trkpt>
      <trkpt lat="42.7674" lon="0.59786">
        <ele>1151.5</ele>
        <time>1970-01-01T01:00:35.000Z</time>
      </trkpt>
      <trkpt lat="42.76732" lon="0.59794">
        <ele>1151.3</ele>
        <time>1970-01-01T01:00:37.000Z</time>
      </trkpt>
      <trkpt lat="42.76726" lon="0.59798">
        <ele>1151.2</ele>
        <time>1970-01-01T01:00:39.000Z</time>
      </trkpt>
      <trkpt lat="42.76725" lon="0.59797">
        <ele>1151.2</ele>
        <time>1970-01-01T01:00:41.000Z</time>
      </trkpt>
      <trkpt lat="42.76727" lon="0.59794">
        <ele>1151.1</ele>
        <time>1970-01-01T01:00:42.000Z</time>
      </trkpt>
      <trkpt lat="42.76731" lon="0.59785">
        <ele>1151</ele>
        <time>1970-01-01T01:00:44.000Z</time>
      </trkpt>
      <trkpt lat="42.76732" lon="0.59784">
        <ele>1151</ele>
        <time>1970-01-01T01:00:45.000Z</time>
      </trkpt>
      <trkpt lat="42.76733" lon="0.59783">
        <ele>1151</ele>
        <time>1970-01-01T01:00:46.000Z</time>
      </trkpt>
      <trkpt lat="42.76734" lon="0.59782">
        <ele>1151</ele>
        <time>1970-01-01T01:00:47.000Z</time>
      </trkpt>
      <trkpt lat="42.76736" lon="0.59785">
        <ele>1151</ele>
        <time>1970-01-01T01:00:49.000Z</time>
      </trkpt>
      <trkpt lat="42.76736" lon="0.59788">
        <ele>1150.9</ele>
        <time>1970-01-01T01:00:50.000Z</time>
      </trkpt>
      <trkpt lat="42.76737" lon="0.59791">
        <ele>1150.9</ele>
        <time>1970-01-01T01:00:52.000Z</time>
      </trkpt>
      <trkpt lat="42.76738" lon="0.59798">
        <ele>1150.8</ele>
        <time>1970-01-01T01:00:54.000Z</time>
      </trkpt>
      <trkpt lat="42.76739" lon="0.59799">
        <ele>1150.8</ele>
        <time>1970-01-01T01:00:55.000Z</time>
      </trkpt>
      <trkpt lat="42.76739" lon="0.59801">
        <ele>1150.8</ele>
        <time>1970-01-01T01:00:57.000Z</time>
      </trkpt>
      <trkpt lat="42.76739" lon="0.59803">
        <ele>1150.8</ele>
        <time>1970-01-01T01:00:59.000Z</time>
      </trkpt>
      <trkpt lat="42.76739" lon="0.59805">
        <ele>1150.7</ele>
        <time>1970-01-01T01:01:01.000Z</time>
      </trkpt>
      <trkpt lat="42.76739" lon="0.59806">
        <ele>1150.7</ele>
        <time>1970-01-01T01:01:03.000Z</time>
      </trkpt>
      <trkpt lat="42.76739" lon="0.59806">
        <ele>1150.7</ele>
        <time>1970-01-01T01:01:04.000Z</time>
      </trkpt>
      <trkpt lat="42.76739" lon="0.59806">
        <ele>1150.7</ele>
        <time>1970-01-01T01:01:05.000Z</time>
      </trkpt>
      <trkpt lat="42.76739" lon="0.59809">
        <ele>1150.7</ele>
        <time>1970-01-01T01:01:07.000Z</time>
      </trkpt>
      <trkpt lat="42.76739" lon="0.59809">
        <ele>1150.7</ele>
        <time>1970-01-01T01:01:08.000Z</time>
      </trkpt>
      <trkpt lat="42.76739" lon="0.5981">
        <ele>1150.7</ele>
        <time>1970-01-01T01:01:09.000Z</time>
      </trkpt>
      <trkpt lat="42.76746" lon="0.59812">
        <ele>1150.5</ele>
        <time>1970-01-01T01:01:52.000Z</time>
      </trkpt>
      <trkpt lat="42.76747" lon="0.59813">
        <ele>1150.5</ele>
        <time>1970-01-01T01:01:53.000Z</time>
      </trkpt>
      <trkpt lat="42.76749" lon="0.59815">
        <ele>1150.4</ele>
        <time>1970-01-01T01:01:55.000Z</time>
      </trkpt>
      <trkpt lat="42.76749" lon="0.59816">
        <ele>1150.4</ele>
        <time>1970-01-01T01:01:56.000Z</time>
      </trkpt>
      <trkpt lat="42.76749" lon="0.59817">
        <ele>1150.4</ele>
        <time>1970-01-01T01:01:57.000Z</time>
      </trkpt>
      <trkpt lat="42.7675" lon="0.59818">
        <ele>1150.4</ele>
        <time>1970-01-01T01:01:58.000Z</time>
      </trkpt>
      <trkpt lat="42.7675" lon="0.59819">
        <ele>1150.3</ele>
        <time>1970-01-01T01:02:00.000Z</time>
      </trkpt>
      <trkpt lat="42.76749" lon="0.59819">
        <ele>1150.3</ele>
        <time>1970-01-01T01:02:02.000Z</time>
      </trkpt>
      <trkpt lat="42.76749" lon="0.59818">
        <ele>1150.3</ele>
        <time>1970-01-01T01:02:03.000Z</time>
      </trkpt>
      <trkpt lat="42.76749" lon="0.59818">
        <ele>1150.3</ele>
        <time>1970-01-01T01:02:04.000Z</time>
      </trkpt>
      <trkpt lat="42.76749" lon="0.59818">
        <ele>1150.3</ele>
        <time>1970-01-01T01:02:05.000Z</time>
      </trkpt>
      <trkpt lat="42.76748" lon="0.59817">
        <ele>1150.3</ele>
        <time>1970-01-01T01:02:07.000Z</time>
      </trkpt>
      <trkpt lat="42.7675" lon="0.59809">
        <ele>1150.1</ele>
        <time>1970-01-01T01:02:34.000Z</time>
      </trkpt>
      <trkpt lat="42.76749" lon="0.59809">
        <ele>1150.1</ele>
        <time>1970-01-01T01:02:35.000Z</time>
      </trkpt>
      <trkpt lat="42.76748" lon="0.59808">
        <ele>1150.1</ele>
        <time>1970-01-01T01:02:37.000Z</time>
      </trkpt>
      <trkpt lat="42.76747" lon="0.59809">
        <ele>1150</ele>
        <time>1970-01-01T01:02:39.000Z</time>
      </trkpt>
      <trkpt lat="42.76747" lon="0.59809">
        <ele>1150</ele>
        <time>1970-01-01T01:02:40.000Z</time>
      </trkpt>
      <trkpt lat="42.76747" lon="0.5981">
        <ele>1150</ele>
        <time>1970-01-01T01:02:41.000Z</time>
      </trkpt>
      <trkpt lat="42.76747" lon="0.5981">
        <ele>1150</ele>
        <time>1970-01-01T01:02:43.000Z</time>
      </trkpt>
      <trkpt lat="42.76746" lon="0.5981">
        <ele>1150</ele>
        <time>1970-01-01T01:02:44.000Z</time>
      </trkpt>
      <trkpt lat="42.76745" lon="0.59811">
        <ele>1149.9</ele>
        <time>1970-01-01T01:02:46.000Z</time>
      </trkpt>
      <trkpt lat="42.76733" lon="0.59813">
        <ele>1149.6</ele>
        <time>1970-01-01T01:02:57.000Z</time>
      </trkpt>
      <trkpt lat="42.76733" lon="0.59813">
        <ele>1149.6</ele>
        <time>1970-01-01T01:02:59.000Z</time>
      </trkpt>
      <trkpt lat="42.76735" lon="0.59813">
        <ele>1149.5</ele>
        <time>1970-01-01T01:03:01.000Z</time>
      </trkpt>
      <trkpt lat="42.76736" lon="0.59813">
        <ele>1149.5</ele>
        <time>1970-01-01T01:03:03.000Z</time>
      </trkpt>
      <trkpt lat="42.76736" lon="0.59813">
        <ele>1149.5</ele>
        <time>1970-01-01T01:03:04.000Z</time>
      </trkpt>
      <trkpt lat="42.76737" lon="0.59813">
        <ele>1149.4</ele>
        <time>1970-01-01T01:03:05.000Z</time>
      </trkpt>
      <trkpt lat="42.76737" lon="0.59813">
        <ele>1149.4</ele>
        <time>1970-01-01T01:03:07.000Z</time>
      </trkpt>
      <trkpt lat="42.76738" lon="0.59814">
        <ele>1149.4</ele>
        <time>1970-01-01T01:03:08.000Z</time>
      </trkpt>
      <trkpt lat="42.76738" lon="0.59814">
        <ele>1149.4</ele>
        <time>1970-01-01T01:03:09.000Z</time>
      </trkpt>
      <trkpt lat="42.76741" lon="0.59815">
        <ele>1149.3</ele>
        <time>1970-01-01T01:03:11.000Z</time>
      </trkpt>
      <trkpt lat="42.76738" lon="0.59819">
        <ele>1149.2</ele>
        <time>1970-01-01T01:03:12.000Z</time>
      </trkpt>
      <trkpt lat="42.76734" lon="0.59823">
        <ele>1149</ele>
        <time>1970-01-01T01:03:14.000Z</time>
      </trkpt>
      <trkpt lat="42.76731" lon="0.59827">
        <ele>1148.8</ele>
        <time>1970-01-01T01:03:15.000Z</time>
      </trkpt>
      <trkpt lat="42.76727" lon="0.5983">
        <ele>1148.7</ele>
        <time>1970-01-01T01:03:17.000Z</time>
      </trkpt>
      <trkpt lat="42.76724" lon="0.59834">
        <ele>1148.5</ele>
        <time>1970-01-01T01:03:18.000Z</time>
      </trkpt>
      <trkpt lat="42.7672" lon="0.59838">
        <ele>1148.2</ele>
        <time>1970-01-01T01:03:19.000Z</time>
      </trkpt>
      <trkpt lat="42.76717" lon="0.59841">
        <ele>1148</ele>
        <time>1970-01-01T01:03:21.000Z</time>
      </trkpt>
      <trkpt lat="42.76713" lon="0.59845">
        <ele>1147.7</ele>
        <time>1970-01-01T01:10:10.000Z</time>
      </trkpt>
      <trkpt lat="42.76709" lon="0.59849">
        <ele>1147.8</ele>
        <time>1970-01-01T01:10:12.000Z</time>
      </trkpt>
      <trkpt lat="42.76703" lon="0.59852">
        <ele>1148.4</ele>
        <time>1970-01-01T01:10:13.000Z</time>
      </trkpt>
      <trkpt lat="42.76692" lon="0.59859">
        <ele>1149.2</ele>
        <time>1970-01-01T01:10:15.000Z</time>
      </trkpt>
      <trkpt lat="42.76684" lon="0.59862">
        <ele>1149.9</ele>
        <time>1970-01-01T01:10:17.000Z</time>
      </trkpt>
      <trkpt lat="42.76682" lon="0.59864">
        <ele>1150.1</ele>
        <time>1970-01-01T01:10:19.000Z</time>
      </trkpt>
      <trkpt lat="42.76681" lon="0.59866">
        <ele>1150.3</ele>
        <time>1970-01-01T01:10:20.000Z</time>
      </trkpt>
      <trkpt lat="42.76676" lon="0.59867">
        <ele>1150.9</ele>
        <time>1970-01-01T01:10:21.000Z</time>
      </trkpt>
      <trkpt lat="42.76671" lon="0.59868">
        <ele>1151.4</ele>
        <time>1970-01-01T01:10:22.000Z</time>
      </trkpt>
      <trkpt lat="42.76666" lon="0.59869">
        <ele>1152</ele>
        <time>1970-01-01T01:10:23.000Z</time>
      </trkpt>
      <trkpt lat="42.76664" lon="0.5987">
        <ele>1152.3</ele>
        <time>1970-01-01T01:10:24.000Z</time>
      </trkpt>
      <trkpt lat="42.76659" lon="0.59873">
        <ele>1153</ele>
        <time>1970-01-01T01:10:26.000Z</time>
      </trkpt>
      <trkpt lat="42.76656" lon="0.59875">
        <ele>1153.4</ele>
        <time>1970-01-01T01:10:27.000Z</time>
      </trkpt>
      <trkpt lat="42.76655" lon="0.59876">
        <ele>1153.6</ele>
        <time>1970-01-01T01:10:28.000Z</time>
      </trkpt>
      <trkpt lat="42.76651" lon="0.59879">
        <ele>1154.1</ele>
        <time>1970-01-01T01:10:30.000Z</time>
      </trkpt>
      <trkpt lat="42.76647" lon="0.59881">
        <ele>1154.7</ele>
        <time>1970-01-01T01:10:32.000Z</time>
      </trkpt>
      <trkpt lat="42.76644" lon="0.59884">
        <ele>1155.2</ele>
        <time>1970-01-01T01:10:34.000Z</time>
      </trkpt>
      <trkpt lat="42.76641" lon="0.59888">
        <ele>1155.6</ele>
        <time>1970-01-01T01:10:35.000Z</time>
      </trkpt>
      <trkpt lat="42.76637" lon="0.59892">
        <ele>1156.3</ele>
        <time>1970-01-01T01:10:37.000Z</time>
      </trkpt>
      <trkpt lat="42.76635" lon="0.59895">
        <ele>1156.7</ele>
        <time>1970-01-01T01:10:38.000Z</time>
      </trkpt>
      <trkpt lat="42.76632" lon="0.599">
        <ele>1157.2</ele>
        <time>1970-01-01T01:10:40.000Z</time>
      </trkpt>
      <trkpt lat="42.76629" lon="0.59903">
        <ele>1157.8</ele>
        <time>1970-01-01T01:10:41.000Z</time>
      </trkpt>
      <trkpt lat="42.76625" lon="0.59904">
        <ele>1158.2</ele>
        <time>1970-01-01T01:10:42.000Z</time>
      </trkpt>
      <trkpt lat="42.76622" lon="0.59904">
        <ele>1158.7</ele>
        <time>1970-01-01T01:10:43.000Z</time>
      </trkpt>
      <trkpt lat="42.76619" lon="0.59904">
        <ele>1159.1</ele>
        <time>1970-01-01T01:10:45.000Z</time>
      </trkpt>
      <trkpt lat="42.76616" lon="0.59905">
        <ele>1159.7</ele>
        <time>1970-01-01T01:10:46.000Z</time>
      </trkpt>
      <trkpt lat="42.76612" lon="0.59906">
        <ele>1160.3</ele>
        <time>1970-01-01T01:10:48.000Z</time>
      </trkpt>
      <trkpt lat="42.76609" lon="0.59908">
        <ele>1160.7</ele>
        <time>1970-01-01T01:10:49.000Z</time>
      </trkpt>
      <trkpt lat="42.76608" lon="0.59908">
        <ele>1160.9</ele>
        <time>1970-01-01T01:10:50.000Z</time>
      </trkpt>
      <trkpt lat="42.76605" lon="0.59909">
        <ele>1161.4</ele>
        <time>1970-01-01T01:10:52.000Z</time>
      </trkpt>
      <trkpt lat="42.76603" lon="0.5991">
        <ele>1161.6</ele>
        <time>1970-01-01T01:10:53.000Z</time>
      </trkpt>
      <trkpt lat="42.76602" lon="0.59911">
        <ele>1161.8</ele>
        <time>1970-01-01T01:10:54.000Z</time>
      </trkpt>
      <trkpt lat="42.76601" lon="0.59912">
        <ele>1162</ele>
        <time>1970-01-01T01:10:55.000Z</time>
      </trkpt>
      <trkpt lat="42.76599" lon="0.59913">
        <ele>1162.2</ele>
        <time>1970-01-01T01:10:56.000Z</time>
      </trkpt>
      <trkpt lat="42.76596" lon="0.59915">
        <ele>1162.6</ele>
        <time>1970-01-01T01:10:57.000Z</time>
      </trkpt>
      <trkpt lat="42.76595" lon="0.59915">
        <ele>1162.8</ele>
        <time>1970-01-01T01:10:58.000Z</time>
      </trkpt>
      <trkpt lat="42.76594" lon="0.59916">
        <ele>1163</ele>
        <time>1970-01-01T01:10:59.000Z</time>
      </trkpt>
      <trkpt lat="42.76592" lon="0.59918">
        <ele>1163.2</ele>
        <time>1970-01-01T01:11:01.000Z</time>
      </trkpt>
      <trkpt lat="42.7659" lon="0.59921">
        <ele>1163.6</ele>
        <time>1970-01-01T01:11:03.000Z</time>
      </trkpt>
      <trkpt lat="42.76589" lon="0.59921">
        <ele>1163.7</ele>
        <time>1970-01-01T01:11:04.000Z</time>
      </trkpt>
      <trkpt lat="42.76587" lon="0.59923">
        <ele>1164</ele>
        <time>1970-01-01T01:11:06.000Z</time>
      </trkpt>
      <trkpt lat="42.76586" lon="0.59925">
        <ele>1164.2</ele>
        <time>1970-01-01T01:11:08.000Z</time>
      </trkpt>
      <trkpt lat="42.76585" lon="0.59925">
        <ele>1164.3</ele>
        <time>1970-01-01T01:11:09.000Z</time>
      </trkpt>
      <trkpt lat="42.76583" lon="0.59928">
        <ele>1164.7</ele>
        <time>1970-01-01T01:11:11.000Z</time>
      </trkpt>
      <trkpt lat="42.76581" lon="0.59929">
        <ele>1164.9</ele>
        <time>1970-01-01T01:11:12.000Z</time>
      </trkpt>
      <trkpt lat="42.76581" lon="0.5993">
        <ele>1165</ele>
        <time>1970-01-01T01:11:13.000Z</time>
      </trkpt>
      <trkpt lat="42.7658" lon="0.59931">
        <ele>1165.1</ele>
        <time>1970-01-01T01:11:14.000Z</time>
      </trkpt>
      <trkpt lat="42.7658" lon="0.59932">
        <ele>1165.1</ele>
        <time>1970-01-01T01:11:15.000Z</time>
      </trkpt>
      <trkpt lat="42.76577" lon="0.59935">
        <ele>1165.5</ele>
        <time>1970-01-01T01:11:17.000Z</time>
      </trkpt>
      <trkpt lat="42.76576" lon="0.59936">
        <ele>1165.7</ele>
        <time>1970-01-01T01:11:18.000Z</time>
      </trkpt>
      <trkpt lat="42.76576" lon="0.59937">
        <ele>1165.8</ele>
        <time>1970-01-01T01:11:19.000Z</time>
      </trkpt>
      <trkpt lat="42.76575" lon="0.59939">
        <ele>1166</ele>
        <time>1970-01-01T01:11:20.000Z</time>
      </trkpt>
      <trkpt lat="42.76574" lon="0.5994">
        <ele>1166.2</ele>
        <time>1970-01-01T01:11:22.000Z</time>
      </trkpt>
      <trkpt lat="42.76573" lon="0.59941">
        <ele>1166.3</ele>
        <time>1970-01-01T01:11:24.000Z</time>
      </trkpt>
      <trkpt lat="42.76573" lon="0.59941">
        <ele>1166.3</ele>
        <time>1970-01-01T01:11:25.000Z</time>
      </trkpt>
      <trkpt lat="42.76573" lon="0.59941">
        <ele>1166.3</ele>
        <time>1970-01-01T01:11:26.000Z</time>
      </trkpt>
      <trkpt lat="42.76573" lon="0.59941">
        <ele>1166.4</ele>
        <time>1970-01-01T01:11:29.000Z</time>
      </trkpt>
      <trkpt lat="42.7657" lon="0.59945">
        <ele>1166.8</ele>
        <time>1970-01-01T01:11:31.000Z</time>
      </trkpt>
      <trkpt lat="42.76569" lon="0.59947">
        <ele>1166.9</ele>
        <time>1970-01-01T01:11:32.000Z</time>
      </trkpt>
      <trkpt lat="42.76569" lon="0.59948">
        <ele>1167</ele>
        <time>1970-01-01T01:11:34.000Z</time>
      </trkpt>
      <trkpt lat="42.76569" lon="0.59949">
        <ele>1167.1</ele>
        <time>1970-01-01T01:11:36.000Z</time>
      </trkpt>
      <trkpt lat="42.76569" lon="0.5995">
        <ele>1167.1</ele>
        <time>1970-01-01T01:11:37.000Z</time>
      </trkpt>
      <trkpt lat="42.76568" lon="0.59951">
        <ele>1167.2</ele>
        <time>1970-01-01T01:11:39.000Z</time>
      </trkpt>
      <trkpt lat="42.76568" lon="0.59952">
        <ele>1167.3</ele>
        <time>1970-01-01T01:12:15.000Z</time>
      </trkpt>
      <trkpt lat="42.76568" lon="0.59953">
        <ele>1167.4</ele>
        <time>1970-01-01T01:12:16.000Z</time>
      </trkpt>
      <trkpt lat="42.76568" lon="0.59954">
        <ele>1167.4</ele>
        <time>1970-01-01T01:12:18.000Z</time>
      </trkpt>
      <trkpt lat="42.76567" lon="0.59955">
        <ele>1167.5</ele>
        <time>1970-01-01T01:12:19.000Z</time>
      </trkpt>
      <trkpt lat="42.76567" lon="0.59956">
        <ele>1167.5</ele>
        <time>1970-01-01T01:12:21.000Z</time>
      </trkpt>
      <trkpt lat="42.76567" lon="0.59957">
        <ele>1167.6</ele>
        <time>1970-01-01T01:12:22.000Z</time>
      </trkpt>
      <trkpt lat="42.76562" lon="0.59966">
        <ele>1167.9</ele>
        <time>1970-01-01T01:12:24.000Z</time>
      </trkpt>
      <trkpt lat="42.7656" lon="0.59974">
        <ele>1167.6</ele>
        <time>1970-01-01T01:12:25.000Z</time>
      </trkpt>
      <trkpt lat="42.76557" lon="0.59996">
        <ele>1161.7</ele>
        <time>1970-01-01T01:12:27.000Z</time>
      </trkpt>
      <trkpt lat="42.76555" lon="0.60013">
        <ele>1154.6</ele>
        <time>1970-01-01T01:12:29.000Z</time>
      </trkpt>
      <trkpt lat="42.76556" lon="0.60031">
        <ele>1146.5</ele>
        <time>1970-01-01T01:12:31.000Z</time>
      </trkpt>
      <trkpt lat="42.76557" lon="0.60041">
        <ele>1141.3</ele>
        <time>1970-01-01T01:12:32.000Z</time>
      </trkpt>
      <trkpt lat="42.76559" lon="0.60061">
        <ele>1131</ele>
        <time>1970-01-01T01:12:34.000Z</time>
      </trkpt>
      <trkpt lat="42.76561" lon="0.60068">
        <ele>1127.2</ele>
        <time>1970-01-01T01:12:35.000Z</time>
      </trkpt>
      <trkpt lat="42.76564" lon="0.60079">
        <ele>1121.4</ele>
        <time>1970-01-01T01:12:37.000Z</time>
      </trkpt>
      <trkpt lat="42.7657" lon="0.60086">
        <ele>1116.4</ele>
        <time>1970-01-01T01:12:39.000Z</time>
      </trkpt>
      <trkpt lat="42.76573" lon="0.60082">
        <ele>1113.6</ele>
        <time>1970-01-01T01:12:40.000Z</time>
      </trkpt>
      <trkpt lat="42.76579" lon="0.60069">
        <ele>1113.4</ele>
        <time>1970-01-01T01:12:42.000Z</time>
      </trkpt>
      <trkpt lat="42.76582" lon="0.60062">
        <ele>1113</ele>
        <time>1970-01-01T01:12:43.000Z</time>
      </trkpt>
      <trkpt lat="42.7658" lon="0.60068">
        <ele>1112.7</ele>
        <time>1970-01-01T01:12:44.000Z</time>
      </trkpt>
      <trkpt lat="42.76579" lon="0.6007">
        <ele>1112.6</ele>
        <time>1970-01-01T01:12:45.000Z</time>
      </trkpt>
      <trkpt lat="42.76576" lon="0.60077">
        <ele>1112.1</ele>
        <time>1970-01-01T01:12:46.000Z</time>
      </trkpt>
      <trkpt lat="42.76574" lon="0.60086">
        <ele>1111.7</ele>
        <time>1970-01-01T01:12:47.000Z</time>
      </trkpt>
      <trkpt lat="42.76568" lon="0.60105">
        <ele>1110.6</ele>
        <time>1970-01-01T01:12:49.000Z</time>
      </trkpt>
      <trkpt lat="42.76563" lon="0.60114">
        <ele>1110</ele>
        <time>1970-01-01T01:12:50.000Z</time>
      </trkpt>
      <trkpt lat="42.7655" lon="0.60127">
        <ele>1108.9</ele>
        <time>1970-01-01T01:12:52.000Z</time>
      </trkpt>
      <trkpt lat="42.76535" lon="0.60142">
        <ele>1107.6</ele>
        <time>1970-01-01T01:12:54.000Z</time>
      </trkpt>
      <trkpt lat="42.7652" lon="0.60155">
        <ele>1106.5</ele>
        <time>1970-01-01T01:12:56.000Z</time>
      </trkpt>
      <trkpt lat="42.76512" lon="0.60163">
        <ele>1106</ele>
        <time>1970-01-01T01:12:57.000Z</time>
      </trkpt>
      <trkpt lat="42.76501" lon="0.60187">
        <ele>1105.1</ele>
        <time>1970-01-01T01:12:59.000Z</time>
      </trkpt>
      <trkpt lat="42.76492" lon="0.60211">
        <ele>1104.1</ele>
        <time>1970-01-01T01:13:01.000Z</time>
      </trkpt>
      <trkpt lat="42.76489" lon="0.60224">
        <ele>1103.6</ele>
        <time>1970-01-01T01:13:02.000Z</time>
      </trkpt>
      <trkpt lat="42.76484" lon="0.60235">
        <ele>1102.9</ele>
        <time>1970-01-01T01:13:03.000Z</time>
      </trkpt>
      <trkpt lat="42.76477" lon="0.60245">
        <ele>1102.3</ele>
        <time>1970-01-01T01:13:04.000Z</time>
      </trkpt>
      <trkpt lat="42.76462" lon="0.60262">
        <ele>1101.2</ele>
        <time>1970-01-01T01:13:06.000Z</time>
      </trkpt>
      <trkpt lat="42.76455" lon="0.60271">
        <ele>1100.7</ele>
        <time>1970-01-01T01:13:07.000Z</time>
      </trkpt>
      <trkpt lat="42.76449" lon="0.60281">
        <ele>1100.3</ele>
        <time>1970-01-01T01:13:08.000Z</time>
      </trkpt>
      <trkpt lat="42.7644" lon="0.60304">
        <ele>1099.7</ele>
        <time>1970-01-01T01:13:10.000Z</time>
      </trkpt>
      <trkpt lat="42.76435" lon="0.60317">
        <ele>1099.8</ele>
        <time>1970-01-01T01:13:11.000Z</time>
      </trkpt>
      <trkpt lat="42.76424" lon="0.60341">
        <ele>1100.2</ele>
        <time>1970-01-01T01:13:13.000Z</time>
      </trkpt>
      <trkpt lat="42.76418" lon="0.6035">
        <ele>1100.5</ele>
        <time>1970-01-01T01:13:14.000Z</time>
      </trkpt>
      <trkpt lat="42.76401" lon="0.60359">
        <ele>1100.9</ele>
        <time>1970-01-01T01:13:16.000Z</time>
      </trkpt>
      <trkpt lat="42.76392" lon="0.60363">
        <ele>1101.1</ele>
        <time>1970-01-01T01:13:17.000Z</time>
      </trkpt>
      <trkpt lat="42.76384" lon="0.60367">
        <ele>1101.2</ele>
        <time>1970-01-01T01:13:18.000Z</time>
      </trkpt>
      <trkpt lat="42.76375" lon="0.60379">
        <ele>1101.2</ele>
        <time>1970-01-01T01:13:20.000Z</time>
      </trkpt>
      <trkpt lat="42.76374" lon="0.60389">
        <ele>1101</ele>
        <time>1970-01-01T01:13:21.000Z</time>
      </trkpt>
      <trkpt lat="42.76371" lon="0.6041">
        <ele>1100.5</ele>
        <time>1970-01-01T01:13:23.000Z</time>
      </trkpt>
      <trkpt lat="42.76357" lon="0.60425">
        <ele>1099.5</ele>
        <time>1970-01-01T01:13:25.000Z</time>
      </trkpt>
      <trkpt lat="42.7635" lon="0.60433">
        <ele>1098.9</ele>
        <time>1970-01-01T01:13:26.000Z</time>
      </trkpt>
      <trkpt lat="42.76339" lon="0.60449">
        <ele>1097.9</ele>
        <time>1970-01-01T01:13:28.000Z</time>
      </trkpt>
      <trkpt lat="42.76326" lon="0.6045">
        <ele>1097</ele>
        <time>1970-01-01T01:13:30.000Z</time>
      </trkpt>
      <trkpt lat="42.76306" lon="0.60436">
        <ele>1095.3</ele>
        <time>1970-01-01T01:13:32.000Z</time>
      </trkpt>
      <trkpt lat="42.76297" lon="0.60425">
        <ele>1094.4</ele>
        <time>1970-01-01T01:13:33.000Z</time>
      </trkpt>
      <trkpt lat="42.76288" lon="0.60417">
        <ele>1093.6</ele>
        <time>1970-01-01T01:13:34.000Z</time>
      </trkpt>
      <trkpt lat="42.76279" lon="0.60409">
        <ele>1092.9</ele>
        <time>1970-01-01T01:13:35.000Z</time>
      </trkpt>
      <trkpt lat="42.76262" lon="0.60388">
        <ele>1091.2</ele>
        <time>1970-01-01T01:13:37.000Z</time>
      </trkpt>
      <trkpt lat="42.76248" lon="0.60367">
        <ele>1089.7</ele>
        <time>1970-01-01T01:13:39.000Z</time>
      </trkpt>
      <trkpt lat="42.76233" lon="0.6035">
        <ele>1088.6</ele>
        <time>1970-01-01T01:13:41.000Z</time>
      </trkpt>
      <trkpt lat="42.76223" lon="0.60345">
        <ele>1088</ele>
        <time>1970-01-01T01:13:42.000Z</time>
      </trkpt>
      <trkpt lat="42.76213" lon="0.60343">
        <ele>1087.5</ele>
        <time>1970-01-01T01:13:43.000Z</time>
      </trkpt>
      <trkpt lat="42.76198" lon="0.60346">
        <ele>1086.5</ele>
        <time>1970-01-01T01:13:45.000Z</time>
      </trkpt>
      <trkpt lat="42.76178" lon="0.60338">
        <ele>1085.2</ele>
        <time>1970-01-01T01:13:47.000Z</time>
      </trkpt>
      <trkpt lat="42.76169" lon="0.60336">
        <ele>1084.7</ele>
        <time>1970-01-01T01:13:48.000Z</time>
      </trkpt>
      <trkpt lat="42.76153" lon="0.60336">
        <ele>1083.7</ele>
        <time>1970-01-01T01:13:50.000Z</time>
      </trkpt>
      <trkpt lat="42.76144" lon="0.60339">
        <ele>1083.2</ele>
        <time>1970-01-01T01:13:51.000Z</time>
      </trkpt>
      <trkpt lat="42.76135" lon="0.60344">
        <ele>1082.5</ele>
        <time>1970-01-01T01:13:52.000Z</time>
      </trkpt>
      <trkpt lat="42.76126" lon="0.60351">
        <ele>1081.8</ele>
        <time>1970-01-01T01:13:53.000Z</time>
      </trkpt>
      <trkpt lat="42.76115" lon="0.60358">
        <ele>1081.1</ele>
        <time>1970-01-01T01:13:54.000Z</time>
      </trkpt>
      <trkpt lat="42.76092" lon="0.60372">
        <ele>1079.7</ele>
        <time>1970-01-01T01:13:56.000Z</time>
      </trkpt>
      <trkpt lat="42.76081" lon="0.60378">
        <ele>1079.1</ele>
        <time>1970-01-01T01:13:57.000Z</time>
      </trkpt>
      <trkpt lat="42.76058" lon="0.60387">
        <ele>1077.8</ele>
        <time>1970-01-01T01:13:59.000Z</time>
      </trkpt>
      <trkpt lat="42.76031" lon="0.60391">
        <ele>1076.2</ele>
        <time>1970-01-01T01:14:01.000Z</time>
      </trkpt>
      <trkpt lat="42.76004" lon="0.60393">
        <ele>1075</ele>
        <time>1970-01-01T01:14:03.000Z</time>
      </trkpt>
      <trkpt lat="42.75991" lon="0.60394">
        <ele>1074.3</ele>
        <time>1970-01-01T01:14:04.000Z</time>
      </trkpt>
      <trkpt lat="42.75979" lon="0.60396">
        <ele>1073.7</ele>
        <time>1970-01-01T01:14:05.000Z</time>
      </trkpt>
      <trkpt lat="42.75966" lon="0.60399">
        <ele>1073</ele>
        <time>1970-01-01T01:14:06.000Z</time>
      </trkpt>
      <trkpt lat="42.75941" lon="0.60404">
        <ele>1071.3</ele>
        <time>1970-01-01T01:14:08.000Z</time>
      </trkpt>
      <trkpt lat="42.75918" lon="0.60414">
        <ele>1069.7</ele>
        <time>1970-01-01T01:14:10.000Z</time>
      </trkpt>
      <trkpt lat="42.75895" lon="0.6043">
        <ele>1068.1</ele>
        <time>1970-01-01T01:14:12.000Z</time>
      </trkpt>
      <trkpt lat="42.75873" lon="0.60447">
        <ele>1066.5</ele>
        <time>1970-01-01T01:14:14.000Z</time>
      </trkpt>
      <trkpt lat="42.75865" lon="0.60455">
        <ele>1063.7</ele>
        <time>1970-01-01T01:14:15.000Z</time>
      </trkpt>
      <trkpt lat="42.75861" lon="0.60462">
        <ele>1063.7</ele>
        <time>1970-01-01T01:14:17.000Z</time>
      </trkpt>
      <trkpt lat="42.75863" lon="0.60459">
        <ele>1063.7</ele>
        <time>1970-01-01T01:14:18.000Z</time>
      </trkpt>
      <trkpt lat="42.75864" lon="0.60458">
        <ele>1063.7</ele>
        <time>1970-01-01T01:14:20.000Z</time>
      </trkpt>
      <trkpt lat="42.75865" lon="0.60456">
        <ele>1063.7</ele>
        <time>1970-01-01T01:14:22.000Z</time>
      </trkpt>
      <trkpt lat="42.75865" lon="0.60454">
        <ele>1063.7</ele>
        <time>1970-01-01T01:14:24.000Z</time>
      </trkpt>
      <trkpt lat="42.75864" lon="0.60453">
        <ele>1063.7</ele>
        <time>1970-01-01T01:14:26.000Z</time>
      </trkpt>
      <trkpt lat="42.75864" lon="0.60452">
        <ele>1063.7</ele>
        <time>1970-01-01T01:14:27.000Z</time>
      </trkpt>
      <trkpt lat="42.75864" lon="0.60451">
        <ele>1063.7</ele>
        <time>1970-01-01T01:14:28.000Z</time>
      </trkpt>
      <trkpt lat="42.75865" lon="0.60449">
        <ele>1063.7</ele>
        <time>1970-01-01T01:14:30.000Z</time>
      </trkpt>
      <trkpt lat="42.75867" lon="0.60447">
        <ele>1063.7</ele>
        <time>1970-01-01T01:14:32.000Z</time>
      </trkpt>
      <trkpt lat="42.75867" lon="0.60447">
        <ele>1063.7</ele>
        <time>1970-01-01T01:14:33.000Z</time>
      </trkpt>
      <trkpt lat="42.75867" lon="0.60446">
        <ele>1063.7</ele>
        <time>1970-01-01T01:14:35.000Z</time>
      </trkpt>
      <trkpt lat="42.75867" lon="0.60446">
        <ele>1063.7</ele>
        <time>1970-01-01T01:14:36.000Z</time>
      </trkpt>
      <trkpt lat="42.75867" lon="0.60445">
        <ele>1063.7</ele>
        <time>1970-01-01T01:14:37.000Z</time>
      </trkpt>
      <trkpt lat="42.75868" lon="0.60445">
        <ele>1063.7</ele>
        <time>1970-01-01T01:14:39.000Z</time>
      </trkpt>
      <trkpt lat="42.75868" lon="0.60445">
        <ele>1063.7</ele>
        <time>1970-01-01T01:14:40.000Z</time>
      </trkpt>
      <trkpt lat="42.75868" lon="0.60445">
        <ele>1063.7</ele>
        <time>1970-01-01T01:14:41.000Z</time>
      </trkpt>
      <trkpt lat="42.75867" lon="0.60445">
        <ele>1063.7</ele>
        <time>1970-01-01T01:14:43.000Z</time>
      </trkpt>
      <trkpt lat="42.75867" lon="0.60444">
        <ele>1063.7</ele>
        <time>1970-01-01T01:14:44.000Z</time>
      </trkpt>
      <trkpt lat="42.75867" lon="0.60444">
        <ele>1063.7</ele>
        <time>1970-01-01T01:14:45.000Z</time>
      </trkpt>
      <trkpt lat="42.75867" lon="0.60444">
        <ele>1063.7</ele>
        <time>1970-01-01T01:14:46.000Z</time>
      </trkpt>
      <trkpt lat="42.75867" lon="0.60444">
        <ele>1063.7</ele>
        <time>1970-01-01T01:14:47.000Z</time>
      </trkpt>
      <trkpt lat="42.75867" lon="0.60444">
        <ele>1063.7</ele>
        <time>1970-01-01T01:14:49.000Z</time>
      </trkpt>
      <trkpt lat="42.75867" lon="0.60444">
        <ele>1063.7</ele>
        <time>1970-01-01T01:14:50.000Z</time>
      </trkpt>
      <trkpt lat="42.75866" lon="0.60444">
        <ele>1063.7</ele>
        <time>1970-01-01T01:14:51.000Z</time>
      </trkpt>
      <trkpt lat="42.75866" lon="0.60444">
        <ele>1063.7</ele>
        <time>1970-01-01T01:14:52.000Z</time>
      </trkpt>
      <trkpt lat="42.75866" lon="0.60444">
        <ele>1063.7</ele>
        <time>1970-01-01T01:14:54.000Z</time>
      </trkpt>
      <trkpt lat="42.75866" lon="0.60444">
        <ele>1063.7</ele>
        <time>1970-01-01T01:14:55.000Z</time>
      </trkpt>
      <trkpt lat="42.75866" lon="0.60444">
        <ele>1063.7</ele>
        <time>1970-01-01T01:14:57.000Z</time>
      </trkpt>
      <trkpt lat="42.75864" lon="0.60445">
        <ele>1063.7</ele>
        <time>1970-01-01T01:14:58.000Z</time>
      </trkpt>
      <trkpt lat="42.75867" lon="0.60443">
        <ele>1063.7</ele>
        <time>1970-01-01T01:14:59.000Z</time>
      </trkpt>
      <trkpt lat="42.75871" lon="0.6044">
        <ele>1056.8</ele>
        <time>1970-01-01T01:15:01.000Z</time>
      </trkpt>
      <trkpt lat="42.75875" lon="0.60437">
        <ele>1056.2</ele>
        <time>1970-01-01T01:15:03.000Z</time>
      </trkpt>
      <trkpt lat="42.75878" lon="0.60433">
        <ele>1055.7</ele>
        <time>1970-01-01T01:15:05.000Z</time>
      </trkpt>
      <trkpt lat="42.75882" lon="0.6043">
        <ele>1055.4</ele>
        <time>1970-01-01T01:15:07.000Z</time>
      </trkpt>
      <trkpt lat="42.75885" lon="0.60427">
        <ele>1055.2</ele>
        <time>1970-01-01T01:15:47.000Z</time>
      </trkpt>
      <trkpt lat="42.75889" lon="0.60424">
        <ele>1055</ele>
        <time>1970-01-01T01:15:49.000Z</time>
      </trkpt>
      <trkpt lat="42.75894" lon="0.60418">
        <ele>1054.7</ele>
        <time>1970-01-01T01:15:50.000Z</time>
      </trkpt>
      <trkpt lat="42.75896" lon="0.60416">
        <ele>1054.5</ele>
        <time>1970-01-01T01:15:51.000Z</time>
      </trkpt>
      <trkpt lat="42.75894" lon="0.60413">
        <ele>1054.3</ele>
        <time>1970-01-01T01:15:53.000Z</time>
      </trkpt>
      <trkpt lat="42.75894" lon="0.60409">
        <ele>1054.1</ele>
        <time>1970-01-01T01:15:54.000Z</time>
      </trkpt>
      <trkpt lat="42.75899" lon="0.60409">
        <ele>1053.7</ele>
        <time>1970-01-01T01:15:55.000Z</time>
      </trkpt>
      <trkpt lat="42.75918" lon="0.60417">
        <ele>1050.8</ele>
        <time>1970-01-01T01:15:57.000Z</time>
      </trkpt>
      <trkpt lat="42.75934" lon="0.60423">
        <ele>1047.8</ele>
        <time>1970-01-01T01:15:59.000Z</time>
      </trkpt>
      <trkpt lat="42.75934" lon="0.60423">
        <ele>1047.7</ele>
        <time>1970-01-01T01:16:00.000Z</time>
      </trkpt>
      <trkpt lat="42.75945" lon="0.60429">
        <ele>1045.1</ele>
        <time>1970-01-01T01:16:02.000Z</time>
      </trkpt>
      <trkpt lat="42.75962" lon="0.60436">
        <ele>1041</ele>
        <time>1970-01-01T01:16:04.000Z</time>
      </trkpt>
      <trkpt lat="42.75978" lon="0.60441">
        <ele>1037.4</ele>
        <time>1970-01-01T01:16:06.000Z</time>
      </trkpt>
      <trkpt lat="42.75987" lon="0.60442">
        <ele>1035.3</ele>
        <time>1970-01-01T01:16:07.000Z</time>
      </trkpt>
      <trkpt lat="42.76007" lon="0.60444">
        <ele>1030.3</ele>
        <time>1970-01-01T01:16:09.000Z</time>
      </trkpt>
      <trkpt lat="42.76027" lon="0.60448">
        <ele>1024.9</ele>
        <time>1970-01-01T01:16:11.000Z</time>
      </trkpt>
      <trkpt lat="42.76036" lon="0.6045">
        <ele>1022.2</ele>
        <time>1970-01-01T01:16:12.000Z</time>
      </trkpt>
      <trkpt lat="42.76051" lon="0.60454">
        <ele>1017.4</ele>
        <time>1970-01-01T01:16:14.000Z</time>
      </trkpt>
      <trkpt lat="42.76057" lon="0.60458">
        <ele>1015.5</ele>
        <time>1970-01-01T01:16:15.000Z</time>
      </trkpt>
      <trkpt lat="42.76062" lon="0.60461">
        <ele>1014.1</ele>
        <time>1970-01-01T01:16:16.000Z</time>
      </trkpt>
      <trkpt lat="42.76063" lon="0.60463">
        <ele>1013.5</ele>
        <time>1970-01-01T01:16:17.000Z</time>
      </trkpt>
      <trkpt lat="42.76061" lon="0.60472">
        <ele>1011.4</ele>
        <time>1970-01-01T01:16:19.000Z</time>
      </trkpt>
      <trkpt lat="42.76057" lon="0.60479">
        <ele>1009.3</ele>
        <time>1970-01-01T01:16:20.000Z</time>
      </trkpt>
      <trkpt lat="42.7605" lon="0.60496">
        <ele>1004.6</ele>
        <time>1970-01-01T01:16:22.000Z</time>
      </trkpt>
      <trkpt lat="42.76045" lon="0.6051">
        <ele>1001.1</ele>
        <time>1970-01-01T01:16:24.000Z</time>
      </trkpt>
      <trkpt lat="42.76048" lon="0.60512">
        <ele>1000.4</ele>
        <time>1970-01-01T01:16:25.000Z</time>
      </trkpt>
      <trkpt lat="42.7605" lon="0.6051">
        <ele>999.7</ele>
        <time>1970-01-01T01:16:27.000Z</time>
      </trkpt>
      <trkpt lat="42.76052" lon="0.60509">
        <ele>999</ele>
        <time>1970-01-01T01:16:29.000Z</time>
      </trkpt>
      <trkpt lat="42.76055" lon="0.60508">
        <ele>998.3</ele>
        <time>1970-01-01T01:16:30.000Z</time>
      </trkpt>
      <trkpt lat="42.76057" lon="0.60506">
        <ele>997.6</ele>
        <time>1970-01-01T01:16:31.000Z</time>
      </trkpt>
      <trkpt lat="42.76073" lon="0.60502">
        <ele>993.5</ele>
        <time>1970-01-01T01:16:33.000Z</time>
      </trkpt>
      <trkpt lat="42.7609" lon="0.60501">
        <ele>990.2</ele>
        <time>1970-01-01T01:16:35.000Z</time>
      </trkpt>
      <trkpt lat="42.76107" lon="0.60506">
        <ele>987.1</ele>
        <time>1970-01-01T01:16:37.000Z</time>
      </trkpt>
      <trkpt lat="42.76116" lon="0.60509">
        <ele>985.4</ele>
        <time>1970-01-01T01:16:38.000Z</time>
      </trkpt>
      <trkpt lat="42.7613" lon="0.60515">
        <ele>982.2</ele>
        <time>1970-01-01T01:16:40.000Z</time>
      </trkpt>
      <trkpt lat="42.76135" lon="0.60517">
        <ele>981</ele>
        <time>1970-01-01T01:16:41.000Z</time>
      </trkpt>
      <trkpt lat="42.76139" lon="0.60524">
        <ele>979.6</ele>
        <time>1970-01-01T01:16:43.000Z</time>
      </trkpt>
      <trkpt lat="42.76138" lon="0.60528">
        <ele>979</ele>
        <time>1970-01-01T01:16:44.000Z</time>
      </trkpt>
      <trkpt lat="42.76138" lon="0.60529">
        <ele>978.9</ele>
        <time>1970-01-01T01:16:46.000Z</time>
      </trkpt>
      <trkpt lat="42.76141" lon="0.6053">
        <ele>978.3</ele>
        <time>1970-01-01T01:16:48.000Z</time>
      </trkpt>
      <trkpt lat="42.76138" lon="0.60533">
        <ele>977.6</ele>
        <time>1970-01-01T01:16:50.000Z</time>
      </trkpt>
      <trkpt lat="42.76136" lon="0.60532">
        <ele>977.4</ele>
        <time>1970-01-01T01:16:51.000Z</time>
      </trkpt>
      <trkpt lat="42.76135" lon="0.60532">
        <ele>977.1</ele>
        <time>1970-01-01T01:16:52.000Z</time>
      </trkpt>
      <trkpt lat="42.7613" lon="0.60531">
        <ele>976.1</ele>
        <time>1970-01-01T01:16:54.000Z</time>
      </trkpt>
      <trkpt lat="42.76143" lon="0.60542">
        <ele>973.3</ele>
        <time>1970-01-01T01:16:55.000Z</time>
      </trkpt>
      <trkpt lat="42.76151" lon="0.60548">
        <ele>971.5</ele>
        <time>1970-01-01T01:16:56.000Z</time>
      </trkpt>
      <trkpt lat="42.76166" lon="0.60559">
        <ele>968.1</ele>
        <time>1970-01-01T01:16:58.000Z</time>
      </trkpt>
      <trkpt lat="42.76182" lon="0.60572">
        <ele>963.8</ele>
        <time>1970-01-01T01:17:00.000Z</time>
      </trkpt>
      <trkpt lat="42.76191" lon="0.6058">
        <ele>961.5</ele>
        <time>1970-01-01T01:17:01.000Z</time>
      </trkpt>
      <trkpt lat="42.762" lon="0.60589">
        <ele>959.3</ele>
        <time>1970-01-01T01:17:02.000Z</time>
      </trkpt>
      <trkpt lat="42.76219" lon="0.60608">
        <ele>954.8</ele>
        <time>1970-01-01T01:17:04.000Z</time>
      </trkpt>
      <trkpt lat="42.7623" lon="0.60618">
        <ele>952</ele>
        <time>1970-01-01T01:17:05.000Z</time>
      </trkpt>
      <trkpt lat="42.76252" lon="0.60637">
        <ele>946.7</ele>
        <time>1970-01-01T01:17:07.000Z</time>
      </trkpt>
      <trkpt lat="42.76261" lon="0.60644">
        <ele>944.4</ele>
        <time>1970-01-01T01:17:08.000Z</time>
      </trkpt>
      <trkpt lat="42.76277" lon="0.60661">
        <ele>940.2</ele>
        <time>1970-01-01T01:17:10.000Z</time>
      </trkpt>
      <trkpt lat="42.76289" lon="0.60681">
        <ele>936.4</ele>
        <time>1970-01-01T01:17:12.000Z</time>
      </trkpt>
      <trkpt lat="42.76295" lon="0.60691">
        <ele>934.5</ele>
        <time>1970-01-01T01:17:13.000Z</time>
      </trkpt>
      <trkpt lat="42.76299" lon="0.607">
        <ele>932.8</ele>
        <time>1970-01-01T01:17:14.000Z</time>
      </trkpt>
      <trkpt lat="42.7631" lon="0.60715">
        <ele>929.4</ele>
        <time>1970-01-01T01:17:16.000Z</time>
      </trkpt>
      <trkpt lat="42.76316" lon="0.6072">
        <ele>928</ele>
        <time>1970-01-01T01:17:17.000Z</time>
      </trkpt>
      <trkpt lat="42.76327" lon="0.60724">
        <ele>925.8</ele>
        <time>1970-01-01T01:17:19.000Z</time>
      </trkpt>
      <trkpt lat="42.76336" lon="0.60721">
        <ele>923.9</ele>
        <time>1970-01-01T01:17:21.000Z</time>
      </trkpt>
      <trkpt lat="42.7634" lon="0.6072">
        <ele>923.2</ele>
        <time>1970-01-01T01:17:22.000Z</time>
      </trkpt>
      <trkpt lat="42.76343" lon="0.60718">
        <ele>922.6</ele>
        <time>1970-01-01T01:17:23.000Z</time>
      </trkpt>
      <trkpt lat="42.76346" lon="0.60716">
        <ele>922</ele>
        <time>1970-01-01T01:17:24.000Z</time>
      </trkpt>
      <trkpt lat="42.76353" lon="0.60715">
        <ele>920.4</ele>
        <time>1970-01-01T01:17:26.000Z</time>
      </trkpt>
      <trkpt lat="42.76354" lon="0.60714">
        <ele>920.1</ele>
        <time>1970-01-01T01:17:28.000Z</time>
      </trkpt>
      <trkpt lat="42.76355" lon="0.60713">
        <ele>919.8</ele>
        <time>1970-01-01T01:17:29.000Z</time>
      </trkpt>
      <trkpt lat="42.76355" lon="0.60714">
        <ele>919.6</ele>
        <time>1970-01-01T01:17:30.000Z</time>
      </trkpt>
      <trkpt lat="42.7635" lon="0.60716">
        <ele>918.5</ele>
        <time>1970-01-01T01:17:32.000Z</time>
      </trkpt>
      <trkpt lat="42.76343" lon="0.60722">
        <ele>916.6</ele>
        <time>1970-01-01T01:17:33.000Z</time>
      </trkpt>
      <trkpt lat="42.76336" lon="0.60729">
        <ele>914.3</ele>
        <time>1970-01-01T01:17:34.000Z</time>
      </trkpt>
      <trkpt lat="42.76331" lon="0.60737">
        <ele>912.2</ele>
        <time>1970-01-01T01:17:35.000Z</time>
      </trkpt>
      <trkpt lat="42.76337" lon="0.60729">
        <ele>909.9</ele>
        <time>1970-01-01T01:17:37.000Z</time>
      </trkpt>
      <trkpt lat="42.76343" lon="0.60728">
        <ele>908.2</ele>
        <time>1970-01-01T01:17:38.000Z</time>
      </trkpt>
      <trkpt lat="42.76348" lon="0.60727">
        <ele>906.5</ele>
        <time>1970-01-01T01:17:40.000Z</time>
      </trkpt>
      <trkpt lat="42.76352" lon="0.60729">
        <ele>905.2</ele>
        <time>1970-01-01T01:17:41.000Z</time>
      </trkpt>
      <trkpt lat="42.76356" lon="0.60737">
        <ele>902.4</ele>
        <time>1970-01-01T01:17:43.000Z</time>
      </trkpt>
      <trkpt lat="42.76353" lon="0.60737">
        <ele>901.3</ele>
        <time>1970-01-01T01:17:44.000Z</time>
      </trkpt>
      <trkpt lat="42.76352" lon="0.60735">
        <ele>900.7</ele>
        <time>1970-01-01T01:17:45.000Z</time>
      </trkpt>
      <trkpt lat="42.76348" lon="0.60734">
        <ele>899.2</ele>
        <time>1970-01-01T01:17:47.000Z</time>
      </trkpt>
      <trkpt lat="42.76337" lon="0.60745">
        <ele>894.2</ele>
        <time>1970-01-01T01:17:49.000Z</time>
      </trkpt>
      <trkpt lat="42.76332" lon="0.60749">
        <ele>892.4</ele>
        <time>1970-01-01T01:17:50.000Z</time>
      </trkpt>
      <trkpt lat="42.7633" lon="0.60754">
        <ele>891.1</ele>
        <time>1970-01-01T01:17:51.000Z</time>
      </trkpt>
      <trkpt lat="42.76333" lon="0.60749">
        <ele>889.5</ele>
        <time>1970-01-01T01:17:52.000Z</time>
      </trkpt>
      <trkpt lat="42.76338" lon="0.60742">
        <ele>887.4</ele>
        <time>1970-01-01T01:17:53.000Z</time>
      </trkpt>
      <trkpt lat="42.76342" lon="0.60746">
        <ele>885.9</ele>
        <time>1970-01-01T01:17:55.000Z</time>
      </trkpt>
      <trkpt lat="42.76345" lon="0.60748">
        <ele>885</ele>
        <time>1970-01-01T01:17:56.000Z</time>
      </trkpt>
      <trkpt lat="42.76351" lon="0.60752">
        <ele>883</ele>
        <time>1970-01-01T01:17:57.000Z</time>
      </trkpt>
      <trkpt lat="42.76358" lon="0.60758">
        <ele>881.1</ele>
        <time>1970-01-01T01:17:58.000Z</time>
      </trkpt>
      <trkpt lat="42.76366" lon="0.60765">
        <ele>878.8</ele>
        <time>1970-01-01T01:17:59.000Z</time>
      </trkpt>
      <trkpt lat="42.76375" lon="0.60774">
        <ele>876.2</ele>
        <time>1970-01-01T01:18:00.000Z</time>
      </trkpt>
      <trkpt lat="42.76392" lon="0.60792">
        <ele>862.4</ele>
        <time>1970-01-01T01:18:02.000Z</time>
      </trkpt>
      <trkpt lat="42.764" lon="0.60801">
        <ele>852.5</ele>
        <time>1970-01-01T01:18:03.000Z</time>
      </trkpt>
      <trkpt lat="42.76412" lon="0.60821">
        <ele>830.9</ele>
        <time>1970-01-01T01:18:05.000Z</time>
      </trkpt>
      <trkpt lat="42.76416" lon="0.60832">
        <ele>820</ele>
        <time>1970-01-01T01:18:06.000Z</time>
      </trkpt>
      <trkpt lat="42.76418" lon="0.60842">
        <ele>804.7</ele>
        <time>1970-01-01T01:18:07.000Z</time>
      </trkpt>
      <trkpt lat="42.76416" lon="0.60849">
        <ele>797.7</ele>
        <time>1970-01-01T01:18:08.000Z</time>
      </trkpt>
      <trkpt lat="42.76406" lon="0.60851">
        <ele>792.9</ele>
        <time>1970-01-01T01:18:09.000Z</time>
      </trkpt>
      <trkpt lat="42.76395" lon="0.60851">
        <ele>793.4</ele>
        <time>1970-01-01T01:18:10.000Z</time>
      </trkpt>
      <trkpt lat="42.76374" lon="0.60854">
        <ele>794.3</ele>
        <time>1970-01-01T01:18:12.000Z</time>
      </trkpt>
      <trkpt lat="42.76355" lon="0.60858">
        <ele>795</ele>
        <time>1970-01-01T01:18:14.000Z</time>
      </trkpt>
      <trkpt lat="42.76348" lon="0.60863">
        <ele>794.7</ele>
        <time>1970-01-01T01:18:16.000Z</time>
      </trkpt>
      <trkpt lat="42.7635" lon="0.60865">
        <ele>794.6</ele>
        <time>1970-01-01T01:18:17.000Z</time>
      </trkpt>
      <trkpt lat="42.76352" lon="0.60866">
        <ele>794.5</ele>
        <time>1970-01-01T01:18:18.000Z</time>
      </trkpt>
      <trkpt lat="42.76358" lon="0.60867">
        <ele>794.3</ele>
        <time>1970-01-01T01:18:19.000Z</time>
      </trkpt>
      <trkpt lat="42.76371" lon="0.60871">
        <ele>793.8</ele>
        <time>1970-01-01T01:18:21.000Z</time>
      </trkpt>
      <trkpt lat="42.76387" lon="0.60876">
        <ele>793</ele>
        <time>1970-01-01T01:18:23.000Z</time>
      </trkpt>
      <trkpt lat="42.76403" lon="0.6088">
        <ele>792.3</ele>
        <time>1970-01-01T01:18:25.000Z</time>
      </trkpt>
      <trkpt lat="42.76412" lon="0.60882">
        <ele>791.9</ele>
        <time>1970-01-01T01:18:26.000Z</time>
      </trkpt>
      <trkpt lat="42.76428" lon="0.60888">
        <ele>791</ele>
        <time>1970-01-01T01:18:28.000Z</time>
      </trkpt>
      <trkpt lat="42.76441" lon="0.60892">
        <ele>790.3</ele>
        <time>1970-01-01T01:18:30.000Z</time>
      </trkpt>
      <trkpt lat="42.76447" lon="0.60892">
        <ele>790</ele>
        <time>1970-01-01T01:18:31.000Z</time>
      </trkpt>
      <trkpt lat="42.76459" lon="0.60892">
        <ele>789.1</ele>
        <time>1970-01-01T01:18:33.000Z</time>
      </trkpt>
      <trkpt lat="42.76472" lon="0.60894">
        <ele>788</ele>
        <time>1970-01-01T01:18:35.000Z</time>
      </trkpt>
      <trkpt lat="42.76486" lon="0.60899">
        <ele>786.5</ele>
        <time>1970-01-01T01:18:37.000Z</time>
      </trkpt>
      <trkpt lat="42.76495" lon="0.60902">
        <ele>785.5</ele>
        <time>1970-01-01T01:18:38.000Z</time>
      </trkpt>
      <trkpt lat="42.76505" lon="0.60904">
        <ele>784.5</ele>
        <time>1970-01-01T01:18:39.000Z</time>
      </trkpt>
      <trkpt lat="42.76516" lon="0.60906">
        <ele>783.3</ele>
        <time>1970-01-01T01:18:40.000Z</time>
      </trkpt>
      <trkpt lat="42.76537" lon="0.60908">
        <ele>781</ele>
        <time>1970-01-01T01:18:42.000Z</time>
      </trkpt>
      <trkpt lat="42.76558" lon="0.60911">
        <ele>778.6</ele>
        <time>1970-01-01T01:18:44.000Z</time>
      </trkpt>
      <trkpt lat="42.76578" lon="0.60911">
        <ele>776.2</ele>
        <time>1970-01-01T01:18:46.000Z</time>
      </trkpt>
      <trkpt lat="42.76587" lon="0.60906">
        <ele>775.1</ele>
        <time>1970-01-01T01:18:47.000Z</time>
      </trkpt>
      <trkpt lat="42.76601" lon="0.60892">
        <ele>773</ele>
        <time>1970-01-01T01:18:49.000Z</time>
      </trkpt>
      <trkpt lat="42.76607" lon="0.60884">
        <ele>772.1</ele>
        <time>1970-01-01T01:18:50.000Z</time>
      </trkpt>
      <trkpt lat="42.76618" lon="0.60867">
        <ele>770.2</ele>
        <time>1970-01-01T01:18:52.000Z</time>
      </trkpt>
      <trkpt lat="42.76624" lon="0.60859">
        <ele>769.2</ele>
        <time>1970-01-01T01:18:53.000Z</time>
      </trkpt>
      <trkpt lat="42.76634" lon="0.60843">
        <ele>767.4</ele>
        <time>1970-01-01T01:18:55.000Z</time>
      </trkpt>
      <trkpt lat="42.76638" lon="0.60837">
        <ele>766.6</ele>
        <time>1970-01-01T01:18:56.000Z</time>
      </trkpt>
      <trkpt lat="42.76648" lon="0.60826">
        <ele>765.1</ele>
        <time>1970-01-01T01:18:58.000Z</time>
      </trkpt>
      <trkpt lat="42.76654" lon="0.60823">
        <ele>764.5</ele>
        <time>1970-01-01T01:18:59.000Z</time>
      </trkpt>
      <trkpt lat="42.76659" lon="0.60821">
        <ele>763.9</ele>
        <time>1970-01-01T01:19:00.000Z</time>
      </trkpt>
      <trkpt lat="42.76664" lon="0.60822">
        <ele>763.4</ele>
        <time>1970-01-01T01:19:01.000Z</time>
      </trkpt>
      <trkpt lat="42.76668" lon="0.60826">
        <ele>761</ele>
        <time>1970-01-01T01:19:02.000Z</time>
      </trkpt>
      <trkpt lat="42.76673" lon="0.60828">
        <ele>760.4</ele>
        <time>1970-01-01T01:19:03.000Z</time>
      </trkpt>
      <trkpt lat="42.76682" lon="0.60831">
        <ele>757.8</ele>
        <time>1970-01-01T01:19:05.000Z</time>
      </trkpt>
      <trkpt lat="42.76685" lon="0.60832">
        <ele>757.3</ele>
        <time>1970-01-01T01:19:06.000Z</time>
      </trkpt>
      <trkpt lat="42.76685" lon="0.60833">
        <ele>757</ele>
        <time>1970-01-01T01:19:07.000Z</time>
      </trkpt>
      <trkpt lat="42.7669" lon="0.60842">
        <ele>754.6</ele>
        <time>1970-01-01T01:19:08.000Z</time>
      </trkpt>
      <trkpt lat="42.76693" lon="0.60849">
        <ele>753.6</ele>
        <time>1970-01-01T01:19:09.000Z</time>
      </trkpt>
      <trkpt lat="42.76696" lon="0.60856">
        <ele>752.3</ele>
        <time>1970-01-01T01:19:11.000Z</time>
      </trkpt>
      <trkpt lat="42.76697" lon="0.60856">
        <ele>752.6</ele>
        <time>1970-01-01T01:19:13.000Z</time>
      </trkpt>
      <trkpt lat="42.76698" lon="0.60857">
        <ele>752.9</ele>
        <time>1970-01-01T01:19:15.000Z</time>
      </trkpt>
      <trkpt lat="42.76699" lon="0.60857">
        <ele>753.2</ele>
        <time>1970-01-01T01:19:16.000Z</time>
      </trkpt>
      <trkpt lat="42.76699" lon="0.60857">
        <ele>753.5</ele>
        <time>1970-01-01T01:19:17.000Z</time>
      </trkpt>
      <trkpt lat="42.76699" lon="0.60857">
        <ele>753.8</ele>
        <time>1970-01-01T01:19:19.000Z</time>
      </trkpt>
      <trkpt lat="42.76699" lon="0.60857">
        <ele>754.1</ele>
        <time>1970-01-01T01:19:20.000Z</time>
      </trkpt>
      <trkpt lat="42.76699" lon="0.60857">
        <ele>753.7</ele>
        <time>1970-01-01T01:19:21.000Z</time>
      </trkpt>
      <trkpt lat="42.76699" lon="0.60856">
        <ele>754.7</ele>
        <time>1970-01-01T01:19:22.000Z</time>
      </trkpt>
      <trkpt lat="42.76699" lon="0.60856">
        <ele>754.9</ele>
        <time>1970-01-01T01:19:23.000Z</time>
      </trkpt>
      <trkpt lat="42.76699" lon="0.60856">
        <ele>755.2</ele>
        <time>1970-01-01T01:19:25.000Z</time>
      </trkpt>
      <trkpt lat="42.76699" lon="0.60855">
        <ele>754.8</ele>
        <time>1970-01-01T01:19:27.000Z</time>
      </trkpt>
      <trkpt lat="42.76699" lon="0.60855">
        <ele>755.1</ele>
        <time>1970-01-01T01:19:28.000Z</time>
      </trkpt>
      <trkpt lat="42.76699" lon="0.60855">
        <ele>755.4</ele>
        <time>1970-01-01T01:19:30.000Z</time>
      </trkpt>
      <trkpt lat="42.76691" lon="0.60857">
        <ele>757.9</ele>
        <time>1970-01-01T01:20:46.000Z</time>
      </trkpt>
      <trkpt lat="42.76693" lon="0.60846">
        <ele>758.2</ele>
        <time>1970-01-01T01:20:48.000Z</time>
      </trkpt>
      <trkpt lat="42.76693" lon="0.60844">
        <ele>758.9</ele>
        <time>1970-01-01T01:20:49.000Z</time>
      </trkpt>
      <trkpt lat="42.76693" lon="0.60842">
        <ele>759.2</ele>
        <time>1970-01-01T01:20:50.000Z</time>
      </trkpt>
      <trkpt lat="42.76693" lon="0.60841">
        <ele>760</ele>
        <time>1970-01-01T01:20:52.000Z</time>
      </trkpt>
      <trkpt lat="42.76697" lon="0.60835">
        <ele>759.9</ele>
        <time>1970-01-01T01:20:53.000Z</time>
      </trkpt>
      <trkpt lat="42.76701" lon="0.6083">
        <ele>759.8</ele>
        <time>1970-01-01T01:20:54.000Z</time>
      </trkpt>
      <trkpt lat="42.76705" lon="0.60825">
        <ele>759.7</ele>
        <time>1970-01-01T01:20:55.000Z</time>
      </trkpt>
      <trkpt lat="42.76709" lon="0.60819">
        <ele>759.1</ele>
        <time>1970-01-01T01:20:56.000Z</time>
      </trkpt>
      <trkpt lat="42.76713" lon="0.60814">
        <ele>758.8</ele>
        <time>1970-01-01T01:20:58.000Z</time>
      </trkpt>
      <trkpt lat="42.76716" lon="0.60808">
        <ele>758.3</ele>
        <time>1970-01-01T01:20:59.000Z</time>
      </trkpt>
      <trkpt lat="42.7672" lon="0.60803">
        <ele>757.7</ele>
        <time>1970-01-01T01:21:26.000Z</time>
      </trkpt>
      <trkpt lat="42.76724" lon="0.60798">
        <ele>756.1</ele>
        <time>1970-01-01T01:21:28.000Z</time>
      </trkpt>
      <trkpt lat="42.76732" lon="0.60787">
        <ele>754.5</ele>
        <time>1970-01-01T01:21:29.000Z</time>
      </trkpt>
      <trkpt lat="42.76749" lon="0.60766">
        <ele>749.1</ele>
        <time>1970-01-01T01:21:31.000Z</time>
      </trkpt>
      <trkpt lat="42.76768" lon="0.60745">
        <ele>742.2</ele>
        <time>1970-01-01T01:21:33.000Z</time>
      </trkpt>
      <trkpt lat="42.76777" lon="0.60734">
        <ele>739.5</ele>
        <time>1970-01-01T01:21:34.000Z</time>
      </trkpt>
      <trkpt lat="42.76796" lon="0.60713">
        <ele>734.4</ele>
        <time>1970-01-01T01:21:36.000Z</time>
      </trkpt>
      <trkpt lat="42.76806" lon="0.60702">
        <ele>732.4</ele>
        <time>1970-01-01T01:21:37.000Z</time>
      </trkpt>
      <trkpt lat="42.76826" lon="0.6068">
        <ele>728</ele>
        <time>1970-01-01T01:21:39.000Z</time>
      </trkpt>
      <trkpt lat="42.7685" lon="0.6066">
        <ele>723.8</ele>
        <time>1970-01-01T01:21:41.000Z</time>
      </trkpt>
      <trkpt lat="42.76865" lon="0.60651">
        <ele>719.9</ele>
        <time>1970-01-01T01:21:42.000Z</time>
      </trkpt>
      <trkpt lat="42.76893" lon="0.60639">
        <ele>712.3</ele>
        <time>1970-01-01T01:21:44.000Z</time>
      </trkpt>
      <trkpt lat="42.76923" lon="0.6063">
        <ele>704.7</ele>
        <time>1970-01-01T01:21:46.000Z</time>
      </trkpt>
      <trkpt lat="42.76937" lon="0.60626">
        <ele>702.8</ele>
        <time>1970-01-01T01:21:47.000Z</time>
      </trkpt>
      <trkpt lat="42.76953" lon="0.60619">
        <ele>700.5</ele>
        <time>1970-01-01T01:21:48.000Z</time>
      </trkpt>
      <trkpt lat="42.7698" lon="0.60601">
        <ele>698.3</ele>
        <time>1970-01-01T01:21:50.000Z</time>
      </trkpt>
      <trkpt lat="42.76991" lon="0.60589">
        <ele>698</ele>
        <time>1970-01-01T01:21:51.000Z</time>
      </trkpt>
      <trkpt lat="42.77002" lon="0.60575">
        <ele>697.2</ele>
        <time>1970-01-01T01:21:52.000Z</time>
      </trkpt>
      <trkpt lat="42.77011" lon="0.60563">
        <ele>696.9</ele>
        <time>1970-01-01T01:21:53.000Z</time>
      </trkpt>
      <trkpt lat="42.77019" lon="0.60546">
        <ele>697.3</ele>
        <time>1970-01-01T01:21:54.000Z</time>
      </trkpt>
      <trkpt lat="42.77032" lon="0.60506">
        <ele>698.9</ele>
        <time>1970-01-01T01:21:56.000Z</time>
      </trkpt>
      <trkpt lat="42.77039" lon="0.60486">
        <ele>699.7</ele>
        <time>1970-01-01T01:21:57.000Z</time>
      </trkpt>
      <trkpt lat="42.7705" lon="0.60471">
        <ele>700.2</ele>
        <time>1970-01-01T01:21:58.000Z</time>
      </trkpt>
      <trkpt lat="42.77062" lon="0.60458">
        <ele>699.5</ele>
        <time>1970-01-01T01:21:59.000Z</time>
      </trkpt>
      <trkpt lat="42.77089" lon="0.60437">
        <ele>697.2</ele>
        <time>1970-01-01T01:22:01.000Z</time>
      </trkpt>
      <trkpt lat="42.77101" lon="0.60425">
        <ele>695.8</ele>
        <time>1970-01-01T01:22:02.000Z</time>
      </trkpt>
      <trkpt lat="42.77127" lon="0.60412">
        <ele>692.9</ele>
        <time>1970-01-01T01:22:04.000Z</time>
      </trkpt>
      <trkpt lat="42.77158" lon="0.60414">
        <ele>690.5</ele>
        <time>1970-01-01T01:22:06.000Z</time>
      </trkpt>
      <trkpt lat="42.77173" lon="0.60416">
        <ele>689.5</ele>
        <time>1970-01-01T01:22:07.000Z</time>
      </trkpt>
      <trkpt lat="42.77186" lon="0.60413">
        <ele>688.5</ele>
        <time>1970-01-01T01:22:08.000Z</time>
      </trkpt>
      <trkpt lat="42.77199" lon="0.60408">
        <ele>687.5</ele>
        <time>1970-01-01T01:22:09.000Z</time>
      </trkpt>
      <trkpt lat="42.77213" lon="0.60403">
        <ele>686.1</ele>
        <time>1970-01-01T01:22:10.000Z</time>
      </trkpt>
      <trkpt lat="42.77226" lon="0.60398">
        <ele>685.6</ele>
        <time>1970-01-01T01:22:11.000Z</time>
      </trkpt>
      <trkpt lat="42.77239" lon="0.60392">
        <ele>684.8</ele>
        <time>1970-01-01T01:22:12.000Z</time>
      </trkpt>
      <trkpt lat="42.77253" lon="0.60388">
        <ele>683.7</ele>
        <time>1970-01-01T01:22:13.000Z</time>
      </trkpt>
      <trkpt lat="42.77266" lon="0.60382">
        <ele>682.6</ele>
        <time>1970-01-01T01:22:14.000Z</time>
      </trkpt>
      <trkpt lat="42.77294" lon="0.60366">
        <ele>680</ele>
        <time>1970-01-01T01:22:16.000Z</time>
      </trkpt>
      <trkpt lat="42.77307" lon="0.60357">
        <ele>678.7</ele>
        <time>1970-01-01T01:22:17.000Z</time>
      </trkpt>
      <trkpt lat="42.77321" lon="0.60346">
        <ele>677.6</ele>
        <time>1970-01-01T01:22:18.000Z</time>
      </trkpt>
      <trkpt lat="42.77334" lon="0.60336">
        <ele>676.3</ele>
        <time>1970-01-01T01:22:19.000Z</time>
      </trkpt>
      <trkpt lat="42.77347" lon="0.60324">
        <ele>675</ele>
        <time>1970-01-01T01:22:20.000Z</time>
      </trkpt>
      <trkpt lat="42.77361" lon="0.60311">
        <ele>673.8</ele>
        <time>1970-01-01T01:22:21.000Z</time>
      </trkpt>
      <trkpt lat="42.77373" lon="0.60299">
        <ele>672.5</ele>
        <time>1970-01-01T01:22:22.000Z</time>
      </trkpt>
      <trkpt lat="42.77399" lon="0.60274">
        <ele>670</ele>
        <time>1970-01-01T01:22:24.000Z</time>
      </trkpt>
      <trkpt lat="42.77412" lon="0.6026">
        <ele>668.4</ele>
        <time>1970-01-01T01:22:25.000Z</time>
      </trkpt>
      <trkpt lat="42.77439" lon="0.60235">
        <ele>665.2</ele>
        <time>1970-01-01T01:22:27.000Z</time>
      </trkpt>
      <trkpt lat="42.77469" lon="0.60215">
        <ele>662.9</ele>
        <time>1970-01-01T01:22:29.000Z</time>
      </trkpt>
      <trkpt lat="42.77482" lon="0.60202">
        <ele>662</ele>
        <time>1970-01-01T01:22:30.000Z</time>
      </trkpt>
      <trkpt lat="42.77506" lon="0.6018">
        <ele>660.7</ele>
        <time>1970-01-01T01:22:32.000Z</time>
      </trkpt>
      <trkpt lat="42.77518" lon="0.6017">
        <ele>660.2</ele>
        <time>1970-01-01T01:22:33.000Z</time>
      </trkpt>
      <trkpt lat="42.7753" lon="0.6016">
        <ele>659.8</ele>
        <time>1970-01-01T01:22:34.000Z</time>
      </trkpt>
      <trkpt lat="42.77541" lon="0.60152">
        <ele>659.3</ele>
        <time>1970-01-01T01:22:35.000Z</time>
      </trkpt>
      <trkpt lat="42.77559" lon="0.60127">
        <ele>658.7</ele>
        <time>1970-01-01T01:22:37.000Z</time>
      </trkpt>
      <trkpt lat="42.77575" lon="0.60103">
        <ele>658.2</ele>
        <time>1970-01-01T01:22:39.000Z</time>
      </trkpt>
      <trkpt lat="42.77583" lon="0.60092">
        <ele>658</ele>
        <time>1970-01-01T01:22:40.000Z</time>
      </trkpt>
      <trkpt lat="42.77601" lon="0.60077">
        <ele>657.8</ele>
        <time>1970-01-01T01:22:42.000Z</time>
      </trkpt>
      <trkpt lat="42.77612" lon="0.60074">
        <ele>657.6</ele>
        <time>1970-01-01T01:22:43.000Z</time>
      </trkpt>
      <trkpt lat="42.77633" lon="0.60078">
        <ele>657.2</ele>
        <time>1970-01-01T01:22:45.000Z</time>
      </trkpt>
      <trkpt lat="42.77643" lon="0.60081">
        <ele>656.9</ele>
        <time>1970-01-01T01:22:46.000Z</time>
      </trkpt>
      <trkpt lat="42.77652" lon="0.60083">
        <ele>656.7</ele>
        <time>1970-01-01T01:22:47.000Z</time>
      </trkpt>
      <trkpt lat="42.7767" lon="0.60085">
        <ele>656.4</ele>
        <time>1970-01-01T01:22:49.000Z</time>
      </trkpt>
      <trkpt lat="42.77678" lon="0.60084">
        <ele>656.5</ele>
        <time>1970-01-01T01:22:50.000Z</time>
      </trkpt>
      <trkpt lat="42.77686" lon="0.60081">
        <ele>656.5</ele>
        <time>1970-01-01T01:22:51.000Z</time>
      </trkpt>
      <trkpt lat="42.77694" lon="0.60078">
        <ele>656.4</ele>
        <time>1970-01-01T01:22:52.000Z</time>
      </trkpt>
      <trkpt lat="42.77701" lon="0.60074">
        <ele>656.2</ele>
        <time>1970-01-01T01:22:53.000Z</time>
      </trkpt>
      <trkpt lat="42.77715" lon="0.60067">
        <ele>655.9</ele>
        <time>1970-01-01T01:22:55.000Z</time>
      </trkpt>
      <trkpt lat="42.77722" lon="0.60061">
        <ele>655.9</ele>
        <time>1970-01-01T01:22:56.000Z</time>
      </trkpt>
      <trkpt lat="42.77728" lon="0.60055">
        <ele>655.8</ele>
        <time>1970-01-01T01:22:57.000Z</time>
      </trkpt>
      <trkpt lat="42.77742" lon="0.60044">
        <ele>655.7</ele>
        <time>1970-01-01T01:22:59.000Z</time>
      </trkpt>
      <trkpt lat="42.77748" lon="0.60038">
        <ele>655.7</ele>
        <time>1970-01-01T01:23:00.000Z</time>
      </trkpt>
      <trkpt lat="42.77759" lon="0.60024">
        <ele>655.7</ele>
        <time>1970-01-01T01:23:02.000Z</time>
      </trkpt>
      <trkpt lat="42.77765" lon="0.60017">
        <ele>655.7</ele>
        <time>1970-01-01T01:23:03.000Z</time>
      </trkpt>
      <trkpt lat="42.77776" lon="0.60003">
        <ele>655.6</ele>
        <time>1970-01-01T01:23:05.000Z</time>
      </trkpt>
      <trkpt lat="42.77786" lon="0.59988">
        <ele>655.6</ele>
        <time>1970-01-01T01:23:07.000Z</time>
      </trkpt>
      <trkpt lat="42.7779" lon="0.5998">
        <ele>655.7</ele>
        <time>1970-01-01T01:23:08.000Z</time>
      </trkpt>
      <trkpt lat="42.77797" lon="0.59963">
        <ele>655.6</ele>
        <time>1970-01-01T01:23:10.000Z</time>
      </trkpt>
      <trkpt lat="42.77803" lon="0.59944">
        <ele>655.6</ele>
        <time>1970-01-01T01:23:12.000Z</time>
      </trkpt>
      <trkpt lat="42.77806" lon="0.59934">
        <ele>655.6</ele>
        <time>1970-01-01T01:23:13.000Z</time>
      </trkpt>
      <trkpt lat="42.7781" lon="0.59924">
        <ele>655.6</ele>
        <time>1970-01-01T01:23:14.000Z</time>
      </trkpt>
      <trkpt lat="42.77819" lon="0.59905">
        <ele>655.6</ele>
        <time>1970-01-01T01:23:16.000Z</time>
      </trkpt>
      <trkpt lat="42.77829" lon="0.59889">
        <ele>655.6</ele>
        <time>1970-01-01T01:23:18.000Z</time>
      </trkpt>
      <trkpt lat="42.77839" lon="0.59876">
        <ele>655.7</ele>
        <time>1970-01-01T01:23:20.000Z</time>
      </trkpt>
      <trkpt lat="42.77845" lon="0.5987">
        <ele>655.7</ele>
        <time>1970-01-01T01:23:21.000Z</time>
      </trkpt>
      <trkpt lat="42.77851" lon="0.59865">
        <ele>655.7</ele>
        <time>1970-01-01T01:23:22.000Z</time>
      </trkpt>
    </trkseg>
  </trk>
</gpx>